# Wetter Temperatur Luftdruck Luftfeuchtigkeit Sichtweite Windgeschwindigkeit Windrichtung Zeit
1 Clear 18 1017 93 10000 2.82 26 06:25 11.07.2020
2 Clear 18 1017 93 10000 2.82 26 05:54 11.07.2020
3 Clear 17 1017 93 10000 2.94 23 05:19 11.07.2020
4 Clear 17 1017 93 10000 2.94 23 04:39 11.07.2020
5 Clear 17 1017 88 10000 1.5 50 04:19 11.07.2020
6 Clear 17 1018 93 10000 0.5 0 02:53 11.07.2020
7 Clear 17 1018 88 10000 3.14 43 01:57 11.07.2020
8 Clear 18 1018 82 10000 1.5 60 01:21 11.07.2020
9 Clear 18 1018 82 10000 1.5 60 00:55 11.07.2020
10 Clear 18 1018 77 10000 3.6 40 00:36 11.07.2020
11 Clear 18 1018 72 10000 3.6 40 00:18 11.07.2020
12 Clear 18 1018 72 10000 3.1 40 23:44 10.07.2020
13 Clear 18 1018 72 10000 3.1 40 23:26 10.07.2020
14 Clear 19 1019 68 10000 4.1 50 22:50 10.07.2020
15 Clear 20 1019 68 10000 3.6 50 22:25 10.07.2020
16 Clear 20 1019 68 10000 3.6 50 21:59 10.07.2020
17 Clear 20 1019 68 10000 3.1 60 21:38 10.07.2020
18 Clear 21 1018 68 10000 3.1 80 21:20 10.07.2020
19 Clear 21 1018 68 10000 3.1 80 20:54 10.07.2020
20 Clear 21 1018 68 10000 3.1 80 20:54 10.07.2020
21 Clear 21 1018 68 10000 4.6 100 20:36 10.07.2020
22 Clear 23 1018 57 10000 5.7 100 20:18 10.07.2020
23 Clear 23 1018 57 10000 5.7 110 19:42 10.07.2020
24 Clear 24 1018 47 10000 6.2 110 19:21 10.07.2020
25 Clear 25 1018 47 10000 6.2 110 18:55 10.07.2020
26 Clear 25 1018 44 10000 5.7 110 18:37 10.07.2020
27 Clear 26 1018 39 10000 5.7 100 18:18 10.07.2020
28 Clear 26 1018 54 10000 5.7 130 17:42 10.07.2020
29 Clear 26 1018 54 10000 5.7 130 17:22 10.07.2020
30 Clear 26 1018 54 10000 6.2 140 16:57 10.07.2020
31 Clear 27 1018 57 10000 6.7 140 16:39 10.07.2020
32 Clear 27 1018 51 10000 6.2 130 16:18 10.07.2020
33 Clear 27 1019 54 10000 6.7 120 15:43 10.07.2020
34 Clear 27 1019 51 10000 7.2 110 15:21 10.07.2020
35 Clear 27 1019 51 10000 6.7 120 14:44 10.07.2020
36 Clear 27 1019 51 10000 6.7 120 14:24 10.07.2020
37 Clear 27 1019 44 10000 7.2 110 13:58 10.07.2020
38 Clear 27 1019 47 10000 7.2 110 13:40 10.07.2020
39 Clear 27 1019 54 10000 6.7 130 13:22 10.07.2020
40 Clear 27 1019 54 10000 6.7 130 12:59 10.07.2020
41 Clear 27 1019 50 10000 6.7 120 12:40 10.07.2020
42 Clear 27 1020 47 10000 7.2 110 12:22 10.07.2020
43 Clear 26 1020 50 10000 7.2 100 11:43 10.07.2020
44 Clear 26 1020 50 10000 7.2 100 11:24 10.07.2020
45 Clouds 26 1020 50 10000 6.7 100 10:59 10.07.2020
46 Clouds 26 1020 50 10000 6.7 100 10:59 10.07.2020
47 Clouds 26 1020 50 10000 6.7 100 10:41 10.07.2020
48 Clouds 26 1019 47 10000 6.7 80 10:21 10.07.2020
49 Clouds 25 1019 50 10000 6.2 70 09:55 10.07.2020
50 Clouds 25 1019 50 10000 6.2 70 09:36 10.07.2020
51 Clouds 24 1020 50 10000 5.7 80 09:18 10.07.2020
52 Clouds 24 1019 53 10000 5.7 80 08:43 10.07.2020
53 Clouds 23 1019 53 10000 5.7 80 08:25 10.07.2020
54 Clouds 22 1019 56 10000 3.1 0 07:58 10.07.2020
55 Clouds 20 1019 77 10000 1 280 07:39 10.07.2020
56 Clouds 20 1019 82 7000 1 270 07:19 10.07.2020
57 Clear 18 1019 82 9000 1 210 06:43 10.07.2020
58 Clear 16 1019 87 10000 2.59 26 05:50 10.07.2020
59 Clear 15 1019 87 10000 2.05 354 04:29 10.07.2020
60 Clear 15 1019 87 10000 2.1 280 02:55 10.07.2020
61 Clear 16 1019 82 10000 0.5 0 02:35 10.07.2020
62 Clear 16 1019 82 10000 1.5 360 00:56 10.07.2020
63 Clear 16 1019 77 10000 0.5 330 00:38 10.07.2020
64 Clear 16 1019 77 10000 1.5 360 00:18 10.07.2020
65 Clear 17 1019 77 10000 1 10 23:38 09.07.2020
66 Clear 17 1019 72 10000 1.5 20 23:19 09.07.2020
67 Clear 17 1019 72 10000 1.5 20 22:56 09.07.2020
68 Clear 18 1019 68 10000 1.5 20 22:38 09.07.2020
69 Clear 18 1019 64 10000 1.5 30 22:20 09.07.2020
70 Clear 19 1019 64 10000 1.5 30 21:55 09.07.2020
71 Clear 19 1019 64 10000 1 20 21:36 09.07.2020
72 Clear 19 1019 64 10000 1 20 21:36 09.07.2020
73 Clear 20 1019 56 10000 2.1 140 21:18 09.07.2020
74 Clear 21 1018 56 10000 2.6 140 20:41 09.07.2020
75 Clear 21 1018 56 10000 2.6 140 20:23 09.07.2020
76 Clear 23 1018 47 10000 3.6 130 19:43 09.07.2020
77 Clear 23 1018 47 10000 5.7 120 19:22 09.07.2020
78 Clear 23 1018 47 10000 5.7 120 19:22 09.07.2020
79 Clear 23 1018 47 10000 5.7 120 18:59 09.07.2020
80 Clear 25 1018 44 10000 5.7 120 18:41 09.07.2020
81 Clear 25 1018 44 10000 5.7 120 18:19 09.07.2020
82 Clear 25 1018 44 10000 6.2 120 17:43 09.07.2020
83 Clear 25 1018 44 10000 6.2 120 17:24 09.07.2020
84 Clear 26 1018 41 10000 6.2 120 16:59 09.07.2020
85 Clear 26 1018 39 10000 6.7 130 16:39 09.07.2020
86 Clear 26 1018 41 10000 6.2 120 16:19 09.07.2020
87 Clear 26 1018 41 10000 6.2 120 16:19 09.07.2020
88 Clear 26 1018 41 10000 6.2 120 15:59 09.07.2020
89 Clear 26 1018 41 10000 6.7 130 15:38 09.07.2020
90 Clear 26 1018 41 10000 6.7 130 15:38 09.07.2020
91 Clear 27 1019 41 10000 5.7 130 15:20 09.07.2020
92 Clear 26 1019 41 10000 5.7 130 14:58 09.07.2020
93 Clear 26 1019 41 10000 6.2 120 14:40 09.07.2020
94 Clear 26 1019 44 10000 6.7 130 14:20 09.07.2020
95 Clear 26 1019 44 10000 6.7 130 13:56 09.07.2020
96 Clouds 27 1019 39 10000 5.1 130 13:38 09.07.2020
97 Clouds 27 1019 39 10000 4.1 130 13:19 09.07.2020
98 Clouds 26 1019 39 10000 4.6 130 12:42 09.07.2020
99 Clear 26 1019 36 10000 3.6 130 12:23 09.07.2020
100 Clear 26 1019 36 10000 3.6 130 11:57 09.07.2020
101 Clear 26 1019 39 10000 3.1 130 11:39 09.07.2020
102 Clear 26 1019 36 10000 4.1 120 11:19 09.07.2020
103 Clear 26 1019 36 10000 4.1 120 10:55 09.07.2020
104 Clear 26 1019 41 10000 2.6 190 10:37 09.07.2020
105 Clear 26 1019 36 10000 1.5 0 10:19 09.07.2020
106 Clear 25 1019 41 10000 1 0 09:42 09.07.2020
107 Clear 25 1019 41 10000 1 0 09:22 09.07.2020
108 Clear 21 1019 64 7000 1.5 260 08:49 09.07.2020
109 Clear 21 1019 64 7000 1.5 260 08:26 09.07.2020
110 Mist 19 1019 82 3100 1.5 270 07:50 09.07.2020
111 Mist 19 1019 82 3100 1.5 270 07:30 09.07.2020
112 Mist 19 1019 82 1700 1 0 06:58 09.07.2020
113 Mist 15 1018 87 2500 1 260 06:20 09.07.2020
114 Clear 15 1018 87 7000 1.82 340 05:47 09.07.2020
115 Clear 14 1018 87 10000 1.83 336 04:28 09.07.2020
116 Clear 15 1018 82 10000 1.5 300 02:37 09.07.2020
117 Clear 15 1018 77 10000 2.1 360 01:40 09.07.2020
118 Clear 15 1018 72 10000 2.6 10 00:56 09.07.2020
119 Clear 16 1018 59 10000 1 40 00:25 09.07.2020
120 Clear 17 1018 59 10000 1 40 23:58 08.07.2020
121 Clear 16 1018 67 10000 1.8 330 23:39 08.07.2020
122 Clear 17 1018 63 10000 1.93 336 23:21 08.07.2020
123 Clear 16 1018 67 10000 0.5 0 22:42 08.07.2020
124 Clear 17 1018 67 10000 0.5 0 22:23 08.07.2020
125 Clear 17 1017 63 10000 2.6 30 21:58 08.07.2020
126 Clear 18 1017 59 10000 2.6 20 21:39 08.07.2020
127 Clear 19 1017 56 10000 2.6 10 21:21 08.07.2020
128 Clear 19 1017 56 10000 2.6 10 20:56 08.07.2020
129 Clear 20 1017 52 10000 2.6 20 20:38 08.07.2020
130 Clear 20 1016 49 10000 3.1 30 20:20 08.07.2020
131 Clear 22 1016 46 10000 3.6 20 19:43 08.07.2020
132 Clear 22 1016 46 10000 3.6 20 19:23 08.07.2020
133 Clear 23 1016 41 10000 4.1 10 18:57 08.07.2020
134 Clouds 24 1016 44 10000 4.6 360 18:39 08.07.2020
135 Clouds 24 1016 41 10000 3.6 350 18:20 08.07.2020
136 Clouds 25 1016 41 10000 3.6 350 17:56 08.07.2020
137 Clouds 25 1016 41 10000 4.6 360 17:37 08.07.2020
138 Clouds 24 1016 44 10000 3.1 10 17:19 08.07.2020
139 Clouds 24 1016 47 10000 4.6 10 16:40 08.07.2020
140 Clouds 24 1016 47 10000 4.6 10 16:22 08.07.2020
141 Clouds 24 1017 44 10000 4.1 360 15:59 08.07.2020
142 Clouds 25 1017 41 10000 4.1 10 15:41 08.07.2020
143 Clouds 24 1017 44 10000 2.6 0 15:19 08.07.2020
144 Clouds 24 1017 44 10000 4.1 340 14:49 08.07.2020
145 Clouds 24 1017 44 10000 4.1 340 14:30 08.07.2020
146 Clouds 24 1017 47 10000 3.1 0 13:59 08.07.2020
147 Clouds 25 1017 44 10000 5.1 350 13:41 08.07.2020
148 Clouds 24 1017 44 10000 4.6 330 13:22 08.07.2020
149 Clouds 23 1017 46 10000 4.1 360 12:44 08.07.2020
150 Clouds 22 1016 49 10000 3.6 10 12:21 08.07.2020
151 Clouds 22 1016 49 10000 3.6 10 11:57 08.07.2020
152 Clouds 21 1016 52 10000 4.1 350 11:38 08.07.2020
153 Clouds 21 1016 49 10000 4.1 20 11:20 08.07.2020
154 Clouds 20 1016 52 10000 4.1 40 10:44 08.07.2020
155 Clouds 20 1016 52 10000 4.1 40 10:26 08.07.2020
156 Clouds 19 1015 52 10000 7.7 350 09:46 08.07.2020
157 Clouds 19 1015 52 10000 7.7 350 09:26 08.07.2020
158 Clouds 18 1015 55 10000 7.2 350 08:58 08.07.2020
159 Clouds 17 1014 59 10000 8.2 360 08:39 08.07.2020
160 Clouds 16 1014 63 10000 7.7 350 08:20 08.07.2020
161 Clear 16 1014 63 10000 7.7 350 07:44 08.07.2020
162 Clear 16 1014 67 10000 6.7 350 07:22 08.07.2020
163 Clear 16 1014 67 10000 6.7 350 06:53 08.07.2020
164 Clear 16 1014 72 10000 6.2 350 06:31 08.07.2020
165 Clear 15 1014 72 10000 1.5 0 05:49 08.07.2020
166 Clear 15 1013 77 10000 4.1 310 04:50 08.07.2020
167 Clear 15 1013 77 10000 5.1 320 04:19 08.07.2020
168 Clouds 17 1011 77 10000 7.7 330 02:19 08.07.2020
169 Clouds 17 1011 82 10000 5.7 300 01:38 08.07.2020
170 Clouds 17 1010 82 10000 5.7 320 00:51 08.07.2020
171 Clouds 18 1010 82 10000 7.7 340 00:20 08.07.2020
172 Clouds 18 1009 82 10000 7.2 340 23:44 07.07.2020
173 Clouds 18 1009 82 10000 7.2 340 23:22 07.07.2020
174 Clouds 19 1009 88 10000 9.3 340 22:57 07.07.2020
175 Clouds 19 1009 88 10000 9.3 340 22:57 07.07.2020
176 Clouds 19 1009 82 10000 7.7 330 22:38 07.07.2020
177 Clouds 19 1009 82 10000 6.7 340 22:20 07.07.2020
178 Clouds 19 1009 82 10000 6.7 340 21:57 07.07.2020
179 Clouds 19 1008 88 10000 8.2 340 21:38 07.07.2020
180 Clouds 19 1008 88 10000 8.2 340 21:38 07.07.2020
181 Clouds 20 1008 88 10000 7.7 340 21:18 07.07.2020
182 Clouds 20 1008 88 10000 6.7 350 20:42 07.07.2020
183 Clouds 20 1008 88 10000 6.7 350 20:23 07.07.2020
184 Clouds 20 1008 83 10000 3.6 280 19:59 07.07.2020
185 Rain 20 1007 83 10000 3.6 270 19:39 07.07.2020
186 Rain 21 1005 83 10000 6.7 350 19:20 07.07.2020
187 Rain 21 1005 83 10000 6.7 350 19:20 07.07.2020
188 Rain 21 1005 83 10000 6.7 350 18:55 07.07.2020
189 Rain 21 1006 83 6000 1.5 20 18:37 07.07.2020
190 Rain 24 1005 73 10000 3.1 20 18:18 07.07.2020
191 Rain 24 1003 83 10000 1.5 0 17:44 07.07.2020
192 Rain 24 1003 83 10000 1.5 0 17:44 07.07.2020
193 Rain 24 1003 83 10000 1.5 0 17:23 07.07.2020
194 Clouds 24 1002 78 10000 5.1 300 16:59 07.07.2020
195 Clouds 24 1002 78 10000 5.1 300 16:59 07.07.2020
196 Clouds 25 1003 83 10000 1.5 0 16:40 07.07.2020
197 Rain 26 1004 83 10000 2.1 280 16:21 07.07.2020
198 Rain 26 1004 83 10000 2.1 280 15:55 07.07.2020
199 Clouds 28 1003 74 10000 2.1 130 15:36 07.07.2020
200 Clouds 30 1003 69 10000 6.2 110 15:18 07.07.2020
201 Clouds 30 1003 62 10000 4.1 110 14:42 07.07.2020
202 Clouds 30 1003 62 10000 4.1 110 14:23 07.07.2020
203 Clouds 32 1003 41 10000 4.6 340 13:43 07.07.2020
204 Clouds 32 1003 43 10000 3.6 360 13:19 07.07.2020
205 Clouds 32 1003 46 10000 4.1 350 12:47 07.07.2020
206 Clouds 32 1003 46 10000 4.1 350 12:27 07.07.2020
207 Clouds 32 1003 49 10000 4.6 360 11:59 07.07.2020
208 Clouds 31 1003 52 10000 5.1 340 11:41 07.07.2020
209 Clouds 31 1003 55 10000 3.6 350 11:21 07.07.2020
210 Clouds 31 1003 55 10000 3.6 350 10:58 07.07.2020
211 Clouds 31 1003 58 10000 1.5 0 10:38 07.07.2020
212 Clouds 29 1003 62 10000 1.5 0 10:19 07.07.2020
213 Clouds 29 1003 62 10000 0.5 0 09:41 07.07.2020
214 Clouds 27 1003 61 10000 3.6 250 09:21 07.07.2020
215 Clouds 27 1003 65 9000 3.6 270 08:43 07.07.2020
216 Clear 27 1003 65 9000 3.6 270 08:24 07.07.2020
217 Clear 24 1003 73 8000 2.6 240 07:49 07.07.2020
218 Clear 24 1003 73 8000 2.6 240 07:27 07.07.2020
219 Clear 24 1003 73 8000 2.6 240 07:27 07.07.2020
220 Clear 24 1002 78 10000 2.1 240 06:50 07.07.2020
221 Clear 23 1002 78 10000 2.1 240 06:32 07.07.2020
222 Clear 23 1002 73 10000 1.5 0 05:58 07.07.2020
223 Clear 23 1002 78 10000 2.38 334 05:23 07.07.2020
224 Clear 21 1003 94 10000 2.38 334 04:42 07.07.2020
225 Clear 21 1003 94 10000 2.08 329 03:41 07.07.2020
226 Clear 21 1003 88 10000 1.99 340 02:28 07.07.2020
227 Clear 21 1003 88 10000 1.65 328 01:25 07.07.2020
228 Clear 22 1003 83 10000 0.5 0 00:54 07.07.2020
229 Clear 22 1003 78 10000 0.5 330 00:36 07.07.2020
230 Clear 22 1004 78 10000 1 340 00:18 07.07.2020
231 Clear 22 1004 88 10000 1.5 350 23:41 06.07.2020
232 Clear 22 1004 94 10000 1.5 300 23:22 06.07.2020
233 Clear 22 1004 94 10000 1.5 300 22:55 06.07.2020
234 Clear 22 1004 100 10000 1 0 22:37 06.07.2020
235 Clear 23 1004 88 10000 1.31 317 22:18 06.07.2020
236 Clear 23 1004 94 10000 0.5 0 21:54 06.07.2020
237 Clear 23 1004 94 10000 0.5 0 21:36 06.07.2020
238 Clear 24 1004 94 10000 2.1 340 21:18 06.07.2020
239 Clear 25 1004 83 10000 1.07 294 20:39 06.07.2020
240 Clear 25 1004 83 10000 1 140 20:20 06.07.2020
241 Clear 26 1004 83 10000 1 140 19:57 06.07.2020
242 Clear 26 1004 83 10000 0.33 157 19:39 06.07.2020
243 Clear 27 1004 78 10000 3.6 130 19:20 06.07.2020
244 Clear 28 1004 78 10000 3.6 130 18:55 06.07.2020
245 Clear 28 1004 78 10000 4.6 130 18:37 06.07.2020
246 Clear 29 1004 74 10000 4.1 130 18:18 06.07.2020
247 Clear 29 1004 74 10000 4.1 130 17:42 06.07.2020
248 Clear 28 1004 74 10000 4.1 130 17:24 06.07.2020
249 Clouds 29 1005 74 10000 4.6 120 16:57 06.07.2020
250 Clouds 30 1005 70 10000 5.7 140 16:39 06.07.2020
251 Clouds 31 1005 70 10000 5.7 140 16:21 06.07.2020
252 Clouds 30 1005 74 10000 7.2 130 15:42 06.07.2020
253 Rain 31 1005 70 10000 6.7 140 15:24 06.07.2020
254 Rain 31 1005 70 10000 6.7 140 14:57 06.07.2020
255 Rain 31 1005 66 10000 6.2 130 14:37 06.07.2020
256 Rain 31 1006 62 10000 7.2 130 14:19 06.07.2020
257 Rain 31 1006 66 10000 5.7 130 13:48 06.07.2020
258 Clear 30 1006 66 10000 5.7 130 13:28 06.07.2020
259 Clear 31 1006 46 10000 4.1 10 12:57 06.07.2020
260 Clear 31 1006 48 10000 4.6 40 12:39 06.07.2020
261 Rain 31 1006 52 10000 5.1 30 12:18 06.07.2020
262 Rain 31 1006 52 10000 5.1 30 11:57 06.07.2020
263 Rain 31 1007 48 10000 5.7 20 11:37 06.07.2020
264 Rain 30 1007 55 10000 5.7 30 11:18 06.07.2020
265 Rain 30 1007 51 10000 5.1 30 10:42 06.07.2020
266 Rain 30 1007 51 10000 5.1 30 10:42 06.07.2020
267 Rain 30 1007 51 10000 4.6 360 10:21 06.07.2020
268 Rain 29 1007 51 10000 4.6 360 09:56 06.07.2020
269 Rain 29 1007 54 10000 5.1 10 09:38 06.07.2020
270 Rain 27 1007 58 10000 5.7 20 09:20 06.07.2020
271 Rain 27 1007 61 10000 5.1 10 08:41 06.07.2020
272 Clear 25 1007 69 10000 6.7 360 08:22 06.07.2020
273 Clear 25 1007 69 10000 6.7 360 07:54 06.07.2020
274 Clear 25 1007 65 10000 6.7 360 07:35 06.07.2020
275 Clear 24 1007 69 10000 6.2 360 06:57 06.07.2020
276 Clear 23 1007 73 10000 6.2 360 06:38 06.07.2020
277 Rain 22 1008 69 10000 6.2 360 05:56 06.07.2020
278 Rain 22 1008 73 10000 6.2 360 05:29 06.07.2020
279 Rain 22 1008 73 10000 5.7 360 04:33 06.07.2020
280 Clear 22 1009 73 10000 3.1 320 02:44 06.07.2020
281 Rain 23 1009 78 10000 0.5 0 01:59 06.07.2020
282 Rain 22 1009 88 10000 2.1 260 00:51 06.07.2020
283 Rain 22 1009 88 10000 2.1 260 00:25 06.07.2020
284 Rain 22 1009 88 10000 2.1 280 23:57 05.07.2020
285 Rain 22 1009 88 10000 3.49 341 23:38 05.07.2020
286 Clear 22 1010 94 10000 1 360 23:20 05.07.2020
287 Clear 22 1010 94 10000 1 0 22:42 05.07.2020
288 Clear 23 1010 83 10000 2.1 360 22:21 05.07.2020
289 Clear 23 1010 83 10000 2.1 360 21:59 05.07.2020
290 Clear 23 1010 83 10000 1.5 350 21:41 05.07.2020
291 Rain 24 1009 78 10000 1 0 21:19 05.07.2020
292 Rain 24 1009 78 10000 1 0 20:59 05.07.2020
293 Rain 24 1009 83 10000 0.5 0 20:40 05.07.2020
294 Rain 25 1009 78 10000 1.5 140 20:22 05.07.2020
295 Rain 25 1009 78 10000 1.5 140 19:57 05.07.2020
296 Rain 26 1009 74 10000 2.6 150 19:38 05.07.2020
297 Clouds 26 1009 74 10000 3.1 140 19:19 05.07.2020
298 Clouds 27 1009 74 10000 4.1 140 18:42 05.07.2020
299 Clouds 28 1009 69 10000 4.6 120 18:23 05.07.2020
300 Clouds 28 1009 69 10000 4.6 120 17:57 05.07.2020
301 Clouds 29 1009 65 10000 4.1 130 17:38 05.07.2020
302 Clouds 29 1010 65 10000 4.1 130 17:19 05.07.2020
303 Rain 29 1010 65 10000 5.7 140 16:44 05.07.2020
304 Rain 29 1010 65 10000 5.7 140 16:25 05.07.2020
305 Clouds 29 1010 69 10000 5.1 140 15:58 05.07.2020
306 Clouds 29 1010 69 10000 6.2 130 15:37 05.07.2020
307 Clouds 29 1010 65 10000 5.7 130 15:19 05.07.2020
308 Clouds 30 1010 66 10000 5.1 120 14:42 05.07.2020
309 Clouds 30 1010 66 10000 5.1 120 14:23 05.07.2020
310 Clouds 30 1010 66 10000 4.6 100 13:54 05.07.2020
311 Clouds 30 1010 51 10000 5.1 20 13:36 05.07.2020
312 Clouds 30 1011 51 10000 4.6 360 13:18 05.07.2020
313 Clouds 30 1011 55 10000 4.6 340 12:38 05.07.2020
314 Clouds 29 1011 54 10000 4.6 340 12:20 05.07.2020
315 Clouds 28 1011 61 10000 4.6 350 11:54 05.07.2020
316 Clouds 28 1011 61 10000 4.6 350 11:36 05.07.2020
317 Clouds 29 1011 61 10000 4.1 340 11:18 05.07.2020
318 Clouds 29 1011 61 10000 4.1 320 10:42 05.07.2020
319 Clouds 28 1011 69 10000 3.1 340 10:19 05.07.2020
320 Clouds 27 1011 69 10000 3.1 340 09:56 05.07.2020
321 Clear 27 1011 69 10000 3.1 310 09:37 05.07.2020
322 Clear 26 1011 69 10000 3.1 340 09:19 05.07.2020
323 Clear 25 1011 73 10000 3.6 300 08:46 05.07.2020
324 Clear 25 1011 73 10000 3.6 300 08:27 05.07.2020
325 Clear 24 1011 83 10000 3.1 260 07:48 05.07.2020
326 Clear 23 1011 83 10000 3.1 260 07:29 05.07.2020
327 Clear 22 1011 83 10000 4.6 290 06:51 05.07.2020
328 Clouds 21 1011 88 10000 3.6 260 05:42 05.07.2020
329 Clear 21 1011 83 10000 1.5 340 03:32 05.07.2020
330 Clear 22 1011 78 10000 2.6 10 02:43 05.07.2020
331 Clear 22 1011 78 10000 2.6 10 02:25 05.07.2020
332 Clear 22 1011 73 10000 1 0 01:33 05.07.2020
333 Clear 22 1011 69 10000 1.5 0 00:59 05.07.2020
334 Clear 22 1011 69 10000 2.6 0 00:40 05.07.2020
335 Clear 22 1011 73 10000 2.6 0 00:20 05.07.2020
336 Clear 23 1011 69 10000 2.6 270 23:47 04.07.2020
337 Clear 23 1011 69 10000 2.6 270 23:28 04.07.2020
338 Clear 23 1011 73 10000 3.6 260 22:57 04.07.2020
339 Clear 23 1011 73 10000 2.6 0 22:37 04.07.2020
340 Clear 23 1011 69 10000 4.1 360 22:19 04.07.2020
341 Clear 24 1011 65 10000 4.6 340 21:42 04.07.2020
342 Clear 24 1011 65 10000 4.6 340 21:23 04.07.2020
343 Clear 25 1011 61 10000 2.1 0 20:58 04.07.2020
344 Clear 25 1011 57 10000 1.5 280 20:39 04.07.2020
345 Clear 26 1010 57 10000 3.6 330 20:19 04.07.2020
346 Clouds 27 1010 54 10000 2.6 310 19:45 04.07.2020
347 Clouds 27 1010 54 10000 3.1 40 19:22 04.07.2020
348 Clouds 27 1010 58 10000 3.1 320 18:55 04.07.2020
349 Clouds 27 1010 58 10000 3.1 320 18:37 04.07.2020
350 Clouds 27 1010 54 10000 2.6 100 18:19 04.07.2020
351 Thunderstorm 28 1010 54 10000 4.1 100 17:42 04.07.2020
352 Thunderstorm 29 1010 54 10000 4.1 100 17:23 04.07.2020
353 Clouds 31 1010 55 10000 4.1 120 16:57 04.07.2020
354 Clouds 31 1010 55 10000 4.1 120 16:57 04.07.2020
355 Clouds 31 1010 48 10000 3.6 130 16:38 04.07.2020
356 Clouds 32 1010 52 10000 5.1 120 16:19 04.07.2020
357 Clouds 32 1010 52 10000 5.1 120 16:19 04.07.2020
358 Clouds 31 1010 52 10000 5.1 120 15:46 04.07.2020
359 Clouds 31 1010 52 10000 5.1 120 15:27 04.07.2020
360 Clouds 31 1010 52 10000 5.1 120 14:59 04.07.2020
361 Clouds 31 1011 52 10000 5.7 110 14:38 04.07.2020
362 Clouds 32 1011 52 10000 5.1 130 14:19 04.07.2020
363 Clouds 32 1011 52 10000 5.1 130 13:57 04.07.2020
364 Clouds 31 1011 52 10000 4.6 130 13:39 04.07.2020
365 Clouds 31 1011 52 10000 4.6 140 13:18 04.07.2020
366 Clouds 31 1011 52 10000 4.6 140 13:18 04.07.2020
367 Clouds 32 1011 43 10000 2.1 330 12:41 04.07.2020
368 Clouds 31 1011 45 10000 2.1 300 12:20 04.07.2020
369 Clear 30 1011 48 10000 1 0 11:46 04.07.2020
370 Clear 30 1011 48 10000 1 0 11:25 04.07.2020
371 Clear 30 1011 55 10000 2.6 0 10:59 04.07.2020
372 Clear 29 1011 58 10000 2.6 240 10:39 04.07.2020
373 Clear 30 1012 61 10000 2.6 220 10:21 04.07.2020
374 Clear 29 1012 61 10000 2.6 220 09:56 04.07.2020
375 Clear 28 1012 69 10000 3.1 240 09:36 04.07.2020
376 Clear 26 1011 73 10000 2.6 250 09:18 04.07.2020
377 Mist 24 1012 100 5000 1 0 08:46 04.07.2020
378 Mist 24 1012 100 5000 1 0 08:27 04.07.2020
379 Fog 23 1012 100 250 2.6 270 07:44 04.07.2020
380 Fog 22 1012 100 250 2.6 270 07:26 04.07.2020
381 Fog 21 1011 100 250 1.5 290 06:51 04.07.2020
382 Fog 19 1011 100 250 2.6 290 06:20 04.07.2020
383 Fog 19 1011 100 500 2.1 290 05:34 04.07.2020
384 Mist 19 1010 100 1800 0.5 30 04:31 04.07.2020
385 Clear 20 1010 100 7000 1.62 293 02:49 04.07.2020
386 Clear 19 1010 100 8000 1.39 292 01:54 04.07.2020
387 Clouds 20 1011 100 9000 1.5 280 01:24 04.07.2020
388 Clear 20 1011 100 9000 1 10 00:40 04.07.2020
389 Clouds 21 1011 100 10000 2.1 10 00:21 04.07.2020
390 Clouds 20 1011 100 10000 0.82 285 23:39 03.07.2020
391 Clouds 20 1011 94 10000 1.5 360 23:19 03.07.2020
392 Clouds 21 1011 94 10000 1.5 360 22:54 03.07.2020
393 Clouds 21 1011 94 10000 1 10 22:36 03.07.2020
394 Clouds 21 1010 94 10000 0.5 20 22:18 03.07.2020
395 Clear 22 1010 94 10000 0.5 0 21:39 03.07.2020
396 Clear 22 1010 94 10000 2.1 140 21:19 03.07.2020
397 Clear 23 1010 83 10000 2.6 130 20:46 03.07.2020
398 Clear 23 1010 83 10000 2.6 130 20:27 03.07.2020
399 Clear 24 1009 73 10000 3.6 120 19:59 03.07.2020
400 Clear 25 1009 73 10000 4.1 120 19:40 03.07.2020
401 Clear 26 1009 65 10000 4.1 120 19:19 03.07.2020
402 Clear 27 1009 57 10000 4.6 120 18:45 03.07.2020
403 Clear 28 1009 61 10000 4.6 120 18:24 03.07.2020
404 Clear 28 1009 61 10000 4.6 120 17:59 03.07.2020
405 Clear 28 1009 65 10000 5.1 140 17:41 03.07.2020
406 Clear 29 1009 65 10000 5.7 130 17:20 03.07.2020
407 Clear 28 1009 61 10000 5.7 130 16:41 03.07.2020
408 Clear 29 1009 61 10000 5.7 130 16:23 03.07.2020
409 Clear 29 1010 54 10000 6.2 130 15:46 03.07.2020
410 Clear 29 1010 54 10000 6.2 130 15:24 03.07.2020
411 Clear 29 1010 48 10000 5.7 140 14:57 03.07.2020
412 Clear 29 1010 35 10000 6.2 130 14:39 03.07.2020
413 Clear 29 1010 39 10000 6.2 120 14:19 03.07.2020
414 Clear 29 1010 34 10000 5.7 130 13:47 03.07.2020
415 Clear 29 1010 34 10000 5.7 130 13:29 03.07.2020
416 Clear 29 1010 42 10000 5.7 130 12:54 03.07.2020
417 Clear 29 1010 42 10000 4.6 120 12:36 03.07.2020
418 Clear 27 1010 54 10000 4.1 130 12:18 03.07.2020
419 Clear 28 1010 61 10000 3.6 130 11:42 03.07.2020
420 Clear 27 1010 61 10000 3.6 130 11:23 03.07.2020
421 Clear 27 1010 65 10000 3.1 160 10:56 03.07.2020
422 Clear 27 1010 69 10000 3.1 120 10:37 03.07.2020
423 Clear 27 1010 65 10000 3.6 120 10:19 03.07.2020
424 Clear 27 1010 65 10000 3.6 120 09:54 03.07.2020
425 Clear 26 1010 65 10000 2.6 150 09:36 03.07.2020
426 Clear 25 1010 65 10000 1 0 09:18 03.07.2020
427 Clear 24 1011 78 10000 2.58 75 08:39 03.07.2020
428 Clear 23 1010 78 10000 0.5 0 08:18 03.07.2020
429 Clear 22 1010 82 10000 0.5 0 07:47 03.07.2020
430 Clear 21 1010 82 10000 0.5 0 07:26 03.07.2020
431 Clear 21 1011 93 6000 1.36 9 06:47 03.07.2020
432 Clouds 18 1010 88 7000 1.5 240 05:57 03.07.2020
433 Clear 16 1010 87 10000 1.42 358 04:40 03.07.2020
434 Clear 17 1010 88 10000 1 270 02:58 03.07.2020
435 Clear 17 1010 82 10000 1 350 02:39 03.07.2020
436 Clear 17 1010 82 10000 1.37 0 02:18 03.07.2020
437 Clear 18 1010 77 10000 1.5 320 01:27 03.07.2020
438 Clear 18 1011 77 10000 1.5 310 00:44 03.07.2020
439 Clear 18 1011 68 10000 1.5 350 00:21 03.07.2020
440 Clear 19 1011 72 10000 1.5 20 23:43 02.07.2020
441 Clear 20 1011 64 10000 2.1 10 23:20 02.07.2020
442 Clear 20 1011 64 10000 2.1 10 22:57 02.07.2020
443 Clear 20 1012 64 10000 1.5 10 22:39 02.07.2020
444 Clear 20 1012 60 10000 2.6 10 22:20 02.07.2020
445 Clear 20 1012 60 10000 2.6 10 22:20 02.07.2020
446 Clear 20 1012 60 10000 2.6 10 22:20 02.07.2020
447 Clear 20 1012 60 10000 2.6 10 21:54 02.07.2020
448 Clear 21 1012 56 10000 2.1 10 21:36 02.07.2020
449 Clear 21 1012 56 10000 2.1 10 21:36 02.07.2020
450 Clear 21 1012 53 10000 1.5 80 21:18 02.07.2020
451 Clear 22 1011 57 10000 1.5 100 20:42 02.07.2020
452 Clear 23 1011 61 10000 2.6 120 20:21 02.07.2020
453 Clear 24 1011 61 10000 2.6 120 19:57 02.07.2020
454 Clear 25 1011 54 10000 3.6 120 19:38 02.07.2020
455 Clear 26 1011 54 10000 4.1 130 19:20 02.07.2020
456 Clear 26 1011 54 10000 4.1 130 18:57 02.07.2020
457 Clear 26 1011 54 10000 4.1 130 18:38 02.07.2020
458 Clear 27 1011 51 10000 4.6 130 18:20 02.07.2020
459 Clear 27 1011 54 10000 5.1 140 17:39 02.07.2020
460 Clear 28 1011 54 10000 5.7 130 17:20 02.07.2020
461 Clear 28 1011 54 10000 5.7 130 16:56 02.07.2020
462 Clear 28 1012 58 10000 5.7 130 16:38 02.07.2020
463 Clear 28 1012 58 10000 6.2 130 16:19 02.07.2020
464 Clear 28 1012 58 10000 5.7 140 15:41 02.07.2020
465 Clear 28 1012 58 10000 5.7 140 15:21 02.07.2020
466 Clear 28 1012 58 10000 6.2 140 14:54 02.07.2020
467 Clear 28 1012 58 10000 6.2 130 14:36 02.07.2020
468 Clear 28 1012 54 10000 6.2 130 14:18 02.07.2020
469 Clear 28 1012 51 10000 5.7 140 13:40 02.07.2020
470 Clear 28 1013 54 10000 5.7 130 13:21 02.07.2020
471 Clear 28 1013 54 10000 5.7 130 12:59 02.07.2020
472 Clear 28 1013 54 10000 5.7 130 12:59 02.07.2020
473 Clear 28 1013 51 10000 5.7 130 12:39 02.07.2020
474 Clear 28 1013 54 10000 5.1 130 12:21 02.07.2020
475 Clear 28 1013 57 10000 5.1 120 11:44 02.07.2020
476 Clear 28 1013 57 10000 5.1 120 11:26 02.07.2020
477 Clear 27 1013 83 10000 4.6 150 10:50 02.07.2020
478 Clear 27 1013 83 10000 4.6 150 10:29 02.07.2020
479 Clouds 27 1013 74 10000 3.6 130 09:59 02.07.2020
480 Clouds 26 1013 69 10000 1.5 130 09:41 02.07.2020
481 Clouds 24 1013 78 10000 1 0 09:21 02.07.2020
482 Clouds 25 1013 78 10000 1 0 08:56 02.07.2020
483 Clouds 25 1013 78 10000 0.5 0 08:37 02.07.2020
484 Clouds 23 1013 83 10000 1.5 290 08:18 02.07.2020
485 Clouds 22 1013 88 10000 1.5 270 07:41 02.07.2020
486 Clouds 22 1013 100 10000 1 250 07:20 02.07.2020
487 Clouds 21 1013 100 10000 1.5 250 06:41 02.07.2020
488 Clouds 20 1013 100 8000 1 360 06:20 02.07.2020
489 Clear 20 1013 100 8000 2.01 25 05:45 02.07.2020
490 Clear 20 1013 100 10000 1.56 348 04:21 02.07.2020
491 Clear 20 1013 100 10000 1.49 353 03:32 02.07.2020
492 Clouds 21 1013 100 10000 0.5 10 01:23 02.07.2020
493 Clear 21 1013 100 10000 1.51 11 00:25 02.07.2020
494 Clear 21 1014 94 10000 2.1 60 23:51 01.07.2020
495 Clear 21 1014 94 10000 2.1 60 23:30 01.07.2020
496 Clouds 21 1013 94 10000 2.6 60 22:57 01.07.2020
497 Clear 21 1013 94 10000 2.6 30 22:38 01.07.2020
498 Clear 21 1013 94 10000 2.6 30 22:38 01.07.2020
499 Clear 22 1013 88 10000 1.81 45 22:19 01.07.2020
500 Clear 23 1013 88 10000 1.81 45 21:58 01.07.2020
501 Clouds 23 1013 88 10000 1.5 60 21:40 01.07.2020
502 Clouds 23 1013 88 10000 1.5 60 21:22 01.07.2020
503 Clouds 23 1013 83 10000 2.6 100 20:57 01.07.2020
504 Clouds 23 1013 83 10000 3.6 120 20:39 01.07.2020
505 Clouds 24 1013 78 10000 4.1 100 20:20 01.07.2020
506 Clouds 24 1013 78 10000 4.1 100 19:43 01.07.2020
507 Clouds 25 1013 74 10000 4.1 110 19:24 01.07.2020
508 Clouds 26 1013 74 10000 4.1 110 18:59 01.07.2020
509 Clouds 26 1013 74 10000 5.1 100 18:40 01.07.2020
510 Clouds 27 1013 69 10000 5.7 120 18:21 01.07.2020
511 Clouds 27 1013 69 10000 5.7 120 17:56 01.07.2020
512 Clouds 27 1013 74 10000 4.6 120 17:38 01.07.2020
513 Clouds 27 1013 74 10000 5.1 130 17:18 01.07.2020
514 Clouds 27 1012 65 10000 6.7 120 16:44 01.07.2020
515 Clouds 27 1012 65 10000 6.7 120 16:26 01.07.2020
516 Clouds 27 1012 69 10000 6.2 130 15:43 01.07.2020
517 Clouds 28 1012 69 10000 6.2 130 15:25 01.07.2020
518 Clouds 28 1013 69 10000 6.2 140 14:59 01.07.2020
519 Clouds 29 1013 69 10000 7.2 130 14:41 01.07.2020
520 Clouds 29 1013 69 10000 6.7 120 14:21 01.07.2020
521 Clouds 29 1013 69 10000 6.7 120 13:57 01.07.2020
522 Clouds 29 1013 69 10000 5.7 130 13:38 01.07.2020
523 Clouds 29 1013 65 10000 6.2 130 13:20 01.07.2020
524 Clouds 29 1013 65 10000 6.2 130 12:56 01.07.2020
525 Clouds 30 1013 62 10000 4.6 130 12:38 01.07.2020
526 Clouds 29 1013 62 10000 4.1 130 12:19 01.07.2020
527 Clouds 29 1013 65 10000 3.6 150 11:40 01.07.2020
528 Clouds 28 1013 61 10000 1 0 11:21 01.07.2020
529 Clouds 29 1013 61 10000 1 0 10:57 01.07.2020
530 Clouds 29 1013 61 10000 1 0 10:57 01.07.2020
531 Clouds 29 1013 65 10000 2.1 20 10:39 01.07.2020
532 Clouds 29 1013 65 10000 1 0 10:20 01.07.2020
533 Clouds 29 1013 69 10000 2.6 30 09:39 01.07.2020
534 Clouds 27 1013 65 10000 3.1 50 09:20 01.07.2020
535 Clouds 26 1013 65 10000 3.1 50 08:59 01.07.2020
536 Clouds 26 1013 69 10000 1.5 0 08:40 01.07.2020
537 Clouds 25 1013 69 10000 3.1 330 08:19 01.07.2020
538 Clear 23 1013 73 10000 4.6 340 07:42 01.07.2020
539 Clear 23 1013 73 10000 4.6 340 07:24 01.07.2020
540 Clear 23 1013 69 10000 1 0 06:57 01.07.2020
541 Clear 22 1012 64 10000 1.5 220 06:38 01.07.2020
542 Clear 21 1012 68 10000 0.5 0 06:20 01.07.2020
543 Clear 21 1011 56 10000 3.1 290 04:30 01.07.2020
544 Clear 21 1011 56 10000 1.5 0 03:42 01.07.2020
545 Clear 21 1011 56 10000 1.5 0 03:22 01.07.2020
546 Clear 22 1011 49 10000 4.6 240 02:19 01.07.2020
547 Clear 23 1011 56 10000 1 0 00:49 01.07.2020
548 Clear 23 1011 56 10000 1 0 00:29 01.07.2020
549 Clear 23 1011 60 10000 2.6 260 23:59 30.06.2020
550 Clear 23 1010 57 10000 2.6 240 23:39 30.06.2020
551 Clear 23 1010 57 10000 2.6 310 23:19 30.06.2020
552 Clear 24 1010 53 10000 3.6 300 22:42 30.06.2020
553 Clear 25 1010 50 10000 4.6 290 22:19 30.06.2020
554 Clear 25 1010 53 10000 2.6 340 21:43 30.06.2020
555 Clear 26 1009 50 10000 3.1 280 21:20 30.06.2020
556 Clear 26 1009 50 10000 3.1 280 20:59 30.06.2020
557 Clear 27 1009 47 10000 3.1 280 20:41 30.06.2020
558 Clear 29 1009 45 10000 4.1 280 20:20 30.06.2020
559 Clear 29 1009 48 10000 4.6 280 19:44 30.06.2020
560 Clouds 31 1008 43 10000 6.2 280 19:21 30.06.2020
561 Clouds 31 1008 43 10000 6.2 280 19:21 30.06.2020
562 Clouds 31 1008 43 10000 6.2 280 18:57 30.06.2020
563 Clouds 31 1008 43 10000 6.7 280 18:38 30.06.2020
564 Clouds 32 1008 43 10000 6.7 280 18:20 30.06.2020
565 Clouds 32 1008 41 10000 7.2 270 17:39 30.06.2020
566 Clouds 31 1008 41 10000 7.2 270 17:20 30.06.2020
567 Clouds 31 1008 41 10000 7.2 270 16:57 30.06.2020
568 Clouds 31 1008 43 10000 6.2 280 16:38 30.06.2020
569 Clouds 32 1008 38 10000 5.1 270 16:19 30.06.2020
570 Clouds 31 1008 52 10000 1.5 80 15:42 30.06.2020
571 Clouds 30 1008 52 10000 1.5 80 15:23 30.06.2020
572 Clouds 31 1008 52 10000 2.6 0 14:58 30.06.2020
573 Clouds 31 1008 52 10000 2.6 0 14:58 30.06.2020
574 Clouds 30 1008 55 10000 3.1 110 14:40 30.06.2020
575 Thunderstorm 30 1008 61 10000 4.6 100 14:21 30.06.2020
576 Thunderstorm 31 1008 58 10000 3.6 120 13:42 30.06.2020
577 Thunderstorm 31 1008 48 10000 3.6 240 13:21 30.06.2020
578 Thunderstorm 31 1008 48 10000 3.6 240 12:59 30.06.2020
579 Clouds 32 1008 43 10000 4.1 250 12:40 30.06.2020
580 Clouds 32 1008 46 10000 5.1 260 12:21 30.06.2020
581 Clouds 32 1008 46 10000 5.1 260 11:59 30.06.2020
582 Clouds 32 1008 43 10000 5.1 240 11:39 30.06.2020
583 Clear 31 1008 48 10000 5.7 260 11:20 30.06.2020
584 Clear 31 1008 48 10000 5.7 260 10:59 30.06.2020
585 Clear 29 1014 45 10000 6.2 120 16:43 28.06.2020
586 Clear 29 1014 45 10000 6.2 120 16:24 28.06.2020
587 Clear 29 1014 42 10000 5.7 110 15:56 28.06.2020
588 Clear 29 1014 42 10000 5.1 120 15:38 28.06.2020
589 Clear 30 1014 37 10000 4.6 120 15:19 28.06.2020
590 Clear 30 1014 40 10000 3.6 130 14:46 28.06.2020
591 Clear 30 1014 40 10000 3.6 130 14:28 28.06.2020
592 Clear 30 1015 37 10000 3.6 110 13:58 28.06.2020
593 Clouds 30 1015 33 10000 2.1 140 13:38 28.06.2020
594 Clouds 30 1015 35 10000 2.6 120 13:19 28.06.2020
595 Clouds 30 1015 35 10000 2.6 120 12:56 28.06.2020
596 Clouds 29 1015 39 10000 2.6 130 12:37 28.06.2020
597 Clouds 29 1015 42 10000 2.1 130 12:18 28.06.2020
598 Clouds 29 1015 42 10000 2.1 130 11:56 28.06.2020
599 Clear 29 1016 42 10000 2.6 130 11:37 28.06.2020
600 Clear 28 1016 45 10000 2.6 160 11:19 28.06.2020
601 Clear 29 1016 45 10000 2.1 0 10:42 28.06.2020
602 Clear 29 1016 45 10000 2.1 0 10:23 28.06.2020
603 Clear 28 1016 54 10000 2.1 250 09:59 28.06.2020
604 Clear 25 1016 57 10000 1.5 260 09:39 28.06.2020
605 Clear 24 1016 60 8000 1.5 270 09:20 28.06.2020
606 Clear 22 1016 64 10000 2.1 270 08:44 28.06.2020
607 Clear 22 1016 64 10000 2.1 270 08:24 28.06.2020
608 Mist 20 1016 72 3200 1.5 260 07:45 28.06.2020
609 Mist 19 1016 72 1700 1 260 07:27 28.06.2020
610 Mist 17 1016 77 1800 1.94 322 06:34 28.06.2020
611 Mist 16 1016 77 3800 1 290 05:55 28.06.2020
612 Clear 16 1016 82 9000 1.5 300 05:25 28.06.2020
613 Clear 16 1016 77 10000 0.5 300 03:23 28.06.2020
614 Clear 16 1016 77 10000 1.69 319 02:36 28.06.2020
615 Clear 16 1016 72 10000 1.74 322 01:48 28.06.2020
616 Clear 17 1016 72 10000 1.67 324 01:25 28.06.2020
617 Clear 17 1016 72 10000 1.5 340 00:43 28.06.2020
618 Clear 18 1016 63 10000 2.1 330 00:22 28.06.2020
619 Clear 17 1017 72 10000 1.5 320 23:40 27.06.2020
620 Clear 18 1017 72 10000 1 330 23:22 27.06.2020
621 Clear 18 1017 72 10000 1 330 22:56 27.06.2020
622 Clear 18 1017 72 10000 1.5 10 22:38 27.06.2020
623 Clear 19 1017 72 10000 0.5 0 22:19 27.06.2020
624 Clear 20 1017 64 10000 1.5 30 21:42 27.06.2020
625 Clear 20 1017 72 10000 0.5 0 21:20 27.06.2020
626 Clear 20 1017 72 10000 0.5 0 20:56 27.06.2020
627 Clear 21 1016 78 10000 1.5 80 20:37 27.06.2020
628 Clear 22 1017 73 10000 3.1 140 20:18 27.06.2020
629 Clear 24 1017 69 10000 3.1 140 19:38 27.06.2020
630 Clear 25 1017 57 10000 4.1 130 19:19 27.06.2020
631 Clear 25 1017 57 10000 4.1 130 18:57 27.06.2020
632 Clear 25 1017 57 10000 4.6 130 18:38 27.06.2020
633 Clear 25 1017 57 10000 4.6 130 18:38 27.06.2020
634 Clear 26 1017 54 10000 4.1 130 18:19 27.06.2020
635 Clear 27 1017 47 10000 4.6 130 17:41 27.06.2020
636 Clear 27 1017 47 10000 4.6 130 17:41 27.06.2020
637 Clear 27 1017 47 10000 5.1 140 17:20 27.06.2020
638 Clear 27 1017 47 10000 5.1 140 16:57 27.06.2020
639 Clear 27 1017 47 10000 5.7 130 16:38 27.06.2020
640 Clear 27 1018 44 10000 5.1 130 16:19 27.06.2020
641 Clear 27 1018 42 10000 6.2 130 15:43 27.06.2020
642 Clear 27 1018 42 10000 6.2 130 15:24 27.06.2020
643 Clear 27 1018 42 10000 6.2 130 15:24 27.06.2020
644 Clear 27 1018 44 10000 5.7 130 14:57 27.06.2020
645 Clear 28 1018 42 10000 5.7 140 14:38 27.06.2020
646 Clear 28 1018 42 10000 5.7 130 14:19 27.06.2020
647 Clear 28 1018 44 10000 5.1 140 13:41 27.06.2020
648 Clear 27 1018 44 10000 5.7 140 13:20 27.06.2020
649 Clear 27 1018 44 10000 5.7 140 12:58 27.06.2020
650 Clouds 28 1018 44 10000 6.2 140 12:40 27.06.2020
651 Clouds 27 1018 44 10000 6.2 130 12:21 27.06.2020
652 Clouds 27 1018 44 10000 6.2 130 11:55 27.06.2020
653 Clouds 27 1019 57 10000 5.7 100 11:37 27.06.2020
654 Clouds 27 1019 54 10000 6.7 100 11:18 27.06.2020
655 Clouds 27 1019 54 10000 5.7 80 10:39 27.06.2020
656 Clouds 27 1019 57 10000 5.1 70 10:19 27.06.2020
657 Clouds 27 1019 57 10000 5.1 70 10:19 27.06.2020
658 Clouds 26 1019 57 10000 5.1 70 09:54 27.06.2020
659 Clouds 26 1019 57 10000 4.1 70 09:36 27.06.2020
660 Clouds 25 1019 65 10000 5.1 80 09:18 27.06.2020
661 Clear 24 1019 64 10000 4.1 50 08:41 27.06.2020
662 Clear 24 1019 64 10000 4.1 50 08:22 27.06.2020
663 Clear 22 1019 68 10000 1 0 07:46 27.06.2020
664 Clear 21 1019 68 10000 1 0 07:24 27.06.2020
665 Clear 21 1019 72 10000 2.6 300 06:50 27.06.2020
666 Clear 20 1019 72 10000 2.6 300 06:29 27.06.2020
667 Clear 17 1018 93 10000 3.1 330 04:24 27.06.2020
668 Clear 16 1018 87 10000 2.1 0 03:53 27.06.2020
669 Clear 16 1018 87 10000 1.5 0 03:23 27.06.2020
670 Clear 16 1019 82 10000 1.5 230 02:36 27.06.2020
671 Clear 17 1019 72 10000 2.9 354 01:45 27.06.2020
672 Clear 17 1019 72 10000 2.7 353 01:22 27.06.2020
673 Clear 18 1019 72 10000 0.5 0 00:36 27.06.2020
674 Clear 18 1019 72 10000 2.47 357 23:45 26.06.2020
675 Clear 19 1019 72 10000 2.74 20 23:25 26.06.2020
676 Clear 20 1019 64 10000 1.5 110 22:56 26.06.2020
677 Clear 20 1019 64 10000 2.6 100 22:38 26.06.2020
678 Clear 20 1019 60 10000 2.1 110 22:19 26.06.2020
679 Clear 20 1019 60 10000 2.1 110 21:57 26.06.2020
680 Clear 20 1019 64 10000 3.1 60 21:37 26.06.2020
681 Clear 21 1019 60 10000 2.6 60 21:19 26.06.2020
682 Clear 23 1019 56 10000 2.6 50 20:43 26.06.2020
683 Clear 23 1019 53 10000 2.6 60 20:20 26.06.2020
684 Clear 24 1019 47 10000 4.1 80 19:44 26.06.2020
685 Clear 25 1019 44 10000 4.6 90 19:23 26.06.2020
686 Clear 25 1019 44 10000 4.6 90 18:57 26.06.2020
687 Clear 26 1019 44 10000 4.6 90 18:37 26.06.2020
688 Clear 26 1019 42 10000 5.1 90 18:18 26.06.2020
689 Clear 26 1019 44 10000 4.6 100 17:43 26.06.2020
690 Clear 26 1019 44 10000 4.6 100 17:24 26.06.2020
691 Clear 27 1019 39 10000 7.2 100 16:49 26.06.2020
692 Clear 27 1019 39 10000 7.2 100 16:26 26.06.2020
693 Clear 27 1020 42 10000 6.7 110 15:55 26.06.2020
694 Clouds 27 1020 45 10000 6.7 110 15:37 26.06.2020
695 Clouds 27 1020 45 10000 6.2 120 15:18 26.06.2020
696 Clouds 28 1020 45 10000 6.2 120 14:55 26.06.2020
697 Clouds 27 1020 42 10000 7.7 120 14:37 26.06.2020
698 Clouds 27 1020 48 10000 6.2 110 14:19 26.06.2020
699 Clouds 27 1020 42 10000 7.7 120 13:43 26.06.2020
700 Clouds 28 1020 42 10000 7.7 100 13:18 26.06.2020
701 Clouds 28 1020 42 10000 7.7 100 13:18 26.06.2020
702 Clouds 28 1020 45 10000 7.7 90 12:41 26.06.2020
703 Clouds 27 1020 42 10000 6.7 80 12:23 26.06.2020
704 Clouds 27 1020 42 10000 6.7 80 12:23 26.06.2020
705 Clouds 27 1020 42 10000 6.7 80 11:59 26.06.2020
706 Clouds 27 1020 39 10000 7.2 80 11:39 26.06.2020
707 Clouds 27 1020 39 10000 7.2 80 11:21 26.06.2020
708 Clouds 27 1020 50 10000 5.1 40 10:58 26.06.2020
709 Clouds 27 1020 51 10000 5.7 40 10:38 26.06.2020
710 Clouds 26 1020 51 10000 5.7 60 10:19 26.06.2020
711 Clouds 25 1020 57 10000 5.7 50 09:44 26.06.2020
712 Clouds 25 1020 57 10000 5.7 50 09:25 26.06.2020
713 Clouds 24 1020 65 10000 4.1 40 08:57 26.06.2020
714 Clouds 24 1020 73 10000 5.1 30 08:29 26.06.2020
715 Clouds 22 1020 78 10000 4.6 40 07:53 26.06.2020
716 Clouds 22 1019 83 10000 6.2 30 07:25 26.06.2020
717 Clouds 21 1019 83 10000 5.7 30 06:59 26.06.2020
718 Clouds 21 1019 88 10000 6.2 30 06:41 26.06.2020
719 Clouds 20 1019 88 10000 6.2 30 06:23 26.06.2020
720 Clear 20 1019 88 10000 5.7 20 05:48 26.06.2020
721 Clear 19 1019 88 10000 5.1 20 04:39 26.06.2020
722 Clouds 20 1019 83 10000 5.7 20 02:22 26.06.2020
723 Clouds 20 1020 88 10000 3.1 30 01:21 26.06.2020
724 Clouds 20 1020 88 10000 3.6 20 00:41 26.06.2020
725 Clouds 20 1020 94 10000 3.6 20 00:20 26.06.2020
726 Clouds 21 1019 88 10000 5.7 30 23:43 25.06.2020
727 Clouds 21 1019 88 10000 4.6 30 23:19 25.06.2020
728 Clouds 21 1019 88 10000 4.6 30 22:56 25.06.2020
729 Clouds 21 1020 88 10000 5.7 40 22:37 25.06.2020
730 Clouds 21 1020 88 10000 4.1 40 22:19 25.06.2020
731 Clouds 21 1020 88 10000 4.1 40 21:56 25.06.2020
732 Clouds 20 1020 94 10000 1.5 350 21:38 25.06.2020
733 Clouds 21 1019 83 10000 1 0 21:19 25.06.2020
734 Clouds 21 1019 83 10000 1 0 20:44 25.06.2020
735 Clouds 21 1019 83 10000 1 0 20:24 25.06.2020
736 Clouds 22 1019 78 10000 3.1 30 19:58 25.06.2020
737 Clouds 22 1019 83 10000 0.5 0 19:39 25.06.2020
738 Clouds 22 1019 83 10000 0.5 0 19:19 25.06.2020
739 Clouds 22 1019 83 10000 2.1 40 18:56 25.06.2020
740 Clouds 22 1019 83 10000 2.1 40 18:37 25.06.2020
741 Clouds 22 1019 83 10000 2.6 80 18:19 25.06.2020
742 Clouds 22 1019 83 10000 3.6 60 17:41 25.06.2020
743 Clouds 22 1020 83 10000 0.5 0 17:19 25.06.2020
744 Clouds 22 1020 94 10000 6.58 61 16:42 25.06.2020
745 Rain 22 1020 88 10000 2.1 20 16:22 25.06.2020
746 Rain 22 1020 88 10000 2.1 20 15:59 25.06.2020
747 Rain 23 1020 83 10000 2.6 40 15:40 25.06.2020
748 Rain 22 1019 94 10000 3.6 40 15:19 25.06.2020
749 Thunderstorm 23 1019 88 10000 5.1 30 14:43 25.06.2020
750 Thunderstorm 23 1019 88 10000 5.1 30 14:23 25.06.2020
751 Thunderstorm 23 1019 78 10000 7.2 40 13:56 25.06.2020
752 Thunderstorm 24 1018 73 10000 7.2 120 13:37 25.06.2020
753 Clouds 25 1018 65 10000 5.7 110 13:19 25.06.2020
754 Rain 27 1019 61 10000 5.7 50 12:44 25.06.2020
755 Clouds 27 1019 54 10000 6.2 20 12:20 25.06.2020
756 Clouds 27 1019 61 10000 5.1 10 11:45 25.06.2020
757 Clouds 27 1019 61 10000 5.1 10 11:25 25.06.2020
758 Clouds 27 1019 61 10000 5.7 20 10:59 25.06.2020
759 Rain 27 1019 61 10000 4.6 10 10:40 25.06.2020
760 Rain 26 1019 61 10000 4.6 350 10:22 25.06.2020
761 Rain 25 1019 65 10000 4.6 350 09:41 25.06.2020
762 Rain 25 1019 65 10000 4.6 350 09:41 25.06.2020
763 Rain 25 1019 65 10000 4.6 350 09:23 25.06.2020
764 Rain 23 1019 69 10000 1 0 08:47 25.06.2020
765 Clear 23 1019 73 10000 1.5 240 08:20 25.06.2020
766 Clear 22 1019 78 10000 1 0 07:46 25.06.2020
767 Clear 21 1019 78 10000 1 0 07:28 25.06.2020
768 Clear 21 1018 88 10000 2.1 240 06:54 25.06.2020
769 Clear 20 1018 88 10000 2.1 240 06:27 25.06.2020
770 Clear 19 1018 88 10000 0.5 0 05:51 25.06.2020
771 Clear 18 1018 100 10000 2.66 321 04:29 25.06.2020
772 Clear 18 1018 93 10000 1.5 320 03:35 25.06.2020
773 Clouds 18 1019 100 10000 1.5 350 02:43 25.06.2020
774 Clear 18 1018 100 7000 2.37 323 01:59 25.06.2020
775 Clear 19 1018 100 8000 2.12 316 01:26 25.06.2020
776 Clear 19 1018 100 10000 1 0 00:44 25.06.2020
777 Clear 19 1018 100 10000 1 0 00:21 25.06.2020
778 Clear 20 1018 94 10000 1.91 316 23:44 24.06.2020
779 Clear 20 1018 94 10000 1.44 318 23:26 24.06.2020
780 Clear 19 1018 94 10000 1.44 318 22:59 24.06.2020
781 Clear 19 1018 94 10000 1.44 318 22:59 24.06.2020
782 Clear 20 1018 88 10000 1.44 318 22:41 24.06.2020
783 Rain 19 1018 100 10000 0.5 0 22:20 24.06.2020
784 Rain 19 1018 100 10000 0.5 0 21:56 24.06.2020
785 Rain 20 1018 94 10000 1.2 18 21:37 24.06.2020
786 Clear 20 1017 94 10000 0.5 330 21:18 24.06.2020
787 Clear 20 1017 94 10000 0.5 330 20:58 24.06.2020
788 Clear 20 1017 94 10000 1.5 20 20:39 24.06.2020
789 Rain 21 1017 94 10000 1.5 340 20:20 24.06.2020
790 Rain 21 1017 94 10000 1.5 340 19:57 24.06.2020
791 Rain 21 1017 94 10000 1 0 19:38 24.06.2020
792 Clouds 22 1017 94 10000 2.1 330 19:18 24.06.2020
793 Clouds 22 1017 94 10000 2.1 330 18:58 24.06.2020
794 Clouds 22 1016 88 10000 1.5 310 18:39 24.06.2020
795 Clouds 22 1016 83 10000 2.39 32 18:20 24.06.2020
796 Rain 23 1016 73 10000 3.1 130 17:44 24.06.2020
797 Rain 23 1016 73 10000 3.1 130 17:44 24.06.2020
798 Rain 24 1016 73 10000 3.1 130 17:21 24.06.2020
799 Clouds 24 1016 78 10000 3.1 130 16:59 24.06.2020
800 Clouds 24 1016 78 10000 5.1 120 16:41 24.06.2020
801 Rain 23 1016 88 10000 6.2 110 16:22 24.06.2020
802 Rain 23 1016 88 10000 6.2 110 15:59 24.06.2020
803 Rain 24 1016 73 10000 7.7 100 15:39 24.06.2020
804 Rain 25 1015 61 10000 4.1 110 15:20 24.06.2020
805 Rain 26 1015 61 10000 4.1 110 14:54 24.06.2020
806 Clouds 27 1015 57 10000 6.2 320 14:36 24.06.2020
807 Clouds 26 1015 57 10000 3.1 10 14:18 24.06.2020
808 Clouds 26 1015 54 10000 3.6 30 13:42 24.06.2020
809 Clouds 26 1015 54 10000 4.6 340 13:21 24.06.2020
810 Clouds 25 1015 61 10000 3.6 10 12:42 24.06.2020
811 Clouds 24 1015 60 10000 3.6 360 12:21 24.06.2020
812 Clouds 23 1015 60 10000 3.6 360 11:57 24.06.2020
813 Clouds 23 1015 60 10000 4.6 360 11:39 24.06.2020
814 Clouds 23 1015 64 10000 5.7 10 11:21 24.06.2020
815 Clouds 23 1015 69 10000 5.1 10 10:45 24.06.2020
816 Clouds 22 1014 73 10000 5.7 340 10:19 24.06.2020
817 Clouds 22 1014 73 10000 4.1 320 09:46 24.06.2020
818 Clouds 22 1014 73 10000 4.1 320 09:24 24.06.2020
819 Clouds 20 1014 77 10000 4.1 290 08:59 24.06.2020
820 Clouds 20 1014 82 10000 4.1 280 08:39 24.06.2020
821 Clouds 19 1014 82 10000 3.6 280 08:18 24.06.2020
822 Clouds 19 1014 88 10000 2.6 270 07:44 24.06.2020
823 Clouds 19 1013 82 10000 2.6 260 07:24 24.06.2020
824 Clouds 19 1013 82 10000 2.6 0 06:44 24.06.2020
825 Clouds 18 1013 82 10000 2.1 280 06:24 24.06.2020
826 Clouds 18 1013 82 10000 1.5 0 05:38 24.06.2020
827 Clouds 18 1012 82 10000 4.1 350 04:38 24.06.2020
828 Clouds 18 1012 82 10000 2.1 330 03:38 24.06.2020
829 Clouds 18 1012 93 7000 1.5 270 02:53 24.06.2020
830 Rain 19 1012 88 10000 2.1 270 02:18 24.06.2020
831 Rain 20 1012 83 10000 2.1 330 00:52 24.06.2020
832 Rain 20 1012 83 10000 2.1 330 00:33 24.06.2020
833 Rain 19 1011 94 10000 0.5 0 23:48 23.06.2020
834 Clouds 19 1011 94 10000 2.1 300 23:21 23.06.2020
835 Clouds 19 1011 94 10000 2.1 300 22:58 23.06.2020
836 Clouds 19 1011 94 10000 2.6 300 22:40 23.06.2020
837 Clouds 19 1011 94 10000 1.56 336 22:18 23.06.2020
838 Clouds 20 1011 88 10000 1.56 336 21:43 23.06.2020
839 Clouds 20 1011 94 10000 1.5 30 21:20 23.06.2020
840 Clouds 20 1011 94 10000 1.5 30 20:57 23.06.2020
841 Clouds 21 1011 88 10000 2.1 110 20:39 23.06.2020
842 Clouds 21 1011 83 10000 1.5 160 20:19 23.06.2020
843 Clouds 22 1011 83 10000 1.5 160 19:57 23.06.2020
844 Clouds 22 1011 83 10000 2.1 130 19:38 23.06.2020
845 Clouds 23 1010 78 10000 2.1 140 19:20 23.06.2020
846 Clouds 23 1010 78 10000 2.6 130 18:38 23.06.2020
847 Clouds 23 1010 78 10000 3.6 140 18:18 23.06.2020
848 Clouds 24 1010 73 10000 5.1 130 17:41 23.06.2020
849 Clouds 24 1010 73 10000 5.1 130 17:22 23.06.2020
850 Clouds 25 1009 73 10000 5.1 130 16:57 23.06.2020
851 Clouds 25 1010 69 10000 6.7 120 16:38 23.06.2020
852 Clouds 25 1010 69 10000 6.7 120 16:20 23.06.2020
853 Clouds 25 1010 69 10000 6.7 120 16:20 23.06.2020
854 Clouds 25 1010 69 10000 6.7 120 15:55 23.06.2020
855 Clouds 24 1010 73 10000 6.2 130 15:37 23.06.2020
856 Clouds 25 1009 69 10000 6.2 130 15:18 23.06.2020
857 Clouds 25 1009 69 10000 5.7 130 14:42 23.06.2020
858 Clouds 25 1010 69 10000 6.2 130 14:19 23.06.2020
859 Clouds 25 1010 69 10000 6.2 130 13:56 23.06.2020
860 Clouds 25 1010 57 10000 6.2 120 13:38 23.06.2020
861 Clouds 25 1010 57 10000 4.6 120 13:20 23.06.2020
862 Clouds 25 1010 57 10000 3.6 120 12:41 23.06.2020
863 Clouds 24 1010 61 10000 5.1 110 12:22 23.06.2020
864 Clouds 24 1010 61 10000 5.1 110 11:55 23.06.2020
865 Clouds 24 1010 57 10000 5.7 120 11:37 23.06.2020
866 Clouds 24 1009 61 10000 4.6 130 11:19 23.06.2020
867 Clouds 24 1009 61 10000 4.6 130 10:55 23.06.2020
868 Clouds 24 1010 53 10000 2.6 120 10:37 23.06.2020
869 Clouds 24 1009 60 10000 2.6 140 10:19 23.06.2020
870 Clouds 24 1010 78 10000 1.5 120 09:41 23.06.2020
871 Clouds 22 1010 83 10000 1.5 150 09:20 23.06.2020
872 Clouds 22 1010 83 10000 1 0 08:47 23.06.2020
873 Clouds 22 1010 83 10000 1 0 08:28 23.06.2020
874 Clouds 21 1009 88 10000 1 0 07:58 23.06.2020
875 Clouds 20 1009 82 8000 1.05 57 07:39 23.06.2020
876 Clouds 18 1009 93 8000 0.84 13 07:21 23.06.2020
877 Clouds 17 1009 93 9000 0.84 13 06:47 23.06.2020
878 Clouds 17 1009 93 9000 1.27 331 06:29 23.06.2020
879 Clouds 16 1009 100 9000 1.5 20 05:39 23.06.2020
880 Clear 15 1008 100 10000 0.5 0 03:29 23.06.2020
881 Clear 16 1008 93 10000 2.1 340 02:54 23.06.2020
882 Clear 16 1009 100 10000 1 330 02:35 23.06.2020
883 Clouds 16 1008 100 10000 1.1 229 01:47 23.06.2020
884 Clouds 16 1008 100 10000 1.31 210 01:28 23.06.2020
885 Clouds 17 1008 93 10000 1 350 00:53 23.06.2020
886 Clouds 17 1008 100 10000 1.31 216 00:22 23.06.2020
887 Clouds 17 1008 93 10000 0.5 0 23:55 22.06.2020
888 Clouds 17 1008 93 10000 0.5 0 23:55 22.06.2020
889 Clouds 17 1008 93 10000 0.5 0 23:55 22.06.2020
890 Clouds 17 1008 93 10000 0.5 0 23:37 22.06.2020
891 Clouds 18 1008 93 10000 2.1 20 23:18 22.06.2020
892 Clouds 18 1008 93 10000 2.1 20 22:55 22.06.2020
893 Clouds 18 1008 93 10000 1.5 340 22:37 22.06.2020
894 Rain 18 1008 93 10000 1.5 130 22:18 22.06.2020
895 Rain 18 1008 93 10000 1.5 130 21:54 22.06.2020
896 Rain 19 1008 88 10000 1.5 140 21:36 22.06.2020
897 Rain 19 1008 82 10000 1.53 140 21:18 22.06.2020
898 Rain 20 1007 77 10000 1.5 80 20:41 22.06.2020
899 Clouds 20 1007 77 10000 2.6 120 20:21 22.06.2020
900 Clouds 21 1007 73 10000 3.1 110 19:44 22.06.2020
901 Clouds 21 1008 73 10000 2.1 150 19:20 22.06.2020
902 Clouds 22 1008 73 10000 2.1 150 18:59 22.06.2020
903 Clouds 22 1008 73 10000 2.1 150 18:39 22.06.2020
904 Clouds 23 1008 73 10000 2.1 150 18:21 22.06.2020
905 Thunderstorm 23 1007 73 10000 4.1 100 17:56 22.06.2020
906 Thunderstorm 24 1007 69 10000 4.6 110 17:37 22.06.2020
907 Thunderstorm 23 1007 69 10000 4.6 110 17:19 22.06.2020
908 Clouds 24 1007 57 10000 5.1 120 16:43 22.06.2020
909 Clouds 25 1007 57 10000 5.1 120 16:24 22.06.2020
910 Clouds 25 1007 61 10000 4.6 110 15:59 22.06.2020
911 Clouds 24 1007 64 10000 4.1 120 15:40 22.06.2020
912 Clouds 24 1007 64 10000 4.1 120 15:22 22.06.2020
913 Clouds 24 1007 64 10000 4.6 120 14:41 22.06.2020
914 Clouds 24 1007 64 10000 4.6 120 14:22 22.06.2020
915 Clouds 26 1007 47 10000 3.6 200 13:59 22.06.2020
916 Clouds 26 1007 51 10000 2.6 220 13:39 22.06.2020
917 Clouds 26 1007 51 10000 2.6 220 13:21 22.06.2020
918 Clouds 26 1007 50 10000 2.6 250 12:44 22.06.2020
919 Clouds 26 1007 50 10000 3.1 280 12:24 22.06.2020
920 Clouds 24 1008 57 10000 2.6 270 11:59 22.06.2020
921 Clouds 24 1007 53 10000 2.1 0 11:37 22.06.2020
922 Clouds 24 1007 53 10000 2.1 0 11:19 22.06.2020
923 Clouds 24 1007 57 10000 3.6 240 10:55 22.06.2020
924 Clouds 24 1007 64 10000 4.6 270 10:37 22.06.2020
925 Clouds 24 1007 64 10000 4.6 270 10:18 22.06.2020
926 Clouds 23 1007 64 10000 4.6 270 09:55 22.06.2020
927 Clouds 23 1007 68 10000 5.1 270 09:37 22.06.2020
928 Clear 22 1007 68 10000 5.1 270 09:18 22.06.2020
929 Clear 21 1007 68 10000 5.1 270 08:40 22.06.2020
930 Clear 21 1007 68 10000 5.1 270 08:21 22.06.2020
931 Clear 19 1007 72 10000 4.6 260 07:53 22.06.2020
932 Clear 19 1007 77 10000 4.1 270 07:34 22.06.2020
933 Clear 19 1007 88 10000 3.1 260 06:56 22.06.2020
934 Clear 18 1007 88 10000 2.6 250 06:36 22.06.2020
935 Clear 18 1007 88 10000 2.6 250 06:36 22.06.2020
936 Clear 17 1007 88 10000 2.6 250 06:18 22.06.2020
937 Clear 16 1007 93 10000 1 280 05:33 22.06.2020
938 Clear 16 1006 100 10000 4.64 301 02:59 22.06.2020
939 Clear 16 1006 100 10000 4.64 301 02:59 22.06.2020
940 Clear 16 1006 100 10000 4.37 300 01:38 22.06.2020
941 Clear 17 1006 100 10000 4.31 296 00:41 22.06.2020
942 Clear 17 1006 100 10000 3.4 291 00:19 22.06.2020
943 Clear 17 1006 100 10000 3.4 291 23:55 21.06.2020
944 Clear 17 1006 100 10000 1 0 23:36 21.06.2020
945 Clear 17 1006 100 10000 1 0 23:18 21.06.2020
946 Clouds 17 1006 100 10000 2.1 270 22:54 21.06.2020
947 Clouds 17 1006 100 10000 2.78 299 22:36 21.06.2020
948 Clouds 17 1006 100 10000 3.13 300 22:18 21.06.2020
949 Clouds 17 1006 100 10000 1.5 10 21:42 21.06.2020
950 Clouds 17 1006 100 10000 1.5 10 21:21 21.06.2020
951 Clouds 18 1005 93 10000 1.5 190 20:59 21.06.2020
952 Clouds 18 1005 82 10000 3.22 303 20:38 21.06.2020
953 Clouds 18 1005 82 10000 3.14 279 20:19 21.06.2020
954 Rain 18 1005 88 7000 3.6 360 19:57 21.06.2020
955 Rain 18 1005 88 7000 3.6 360 19:57 21.06.2020
956 Thunderstorm 19 1006 72 4000 7.7 240 19:38 21.06.2020
957 Thunderstorm 19 1006 72 4000 7.7 240 19:19 21.06.2020
958 Thunderstorm 20 1005 77 10000 3.1 360 18:54 21.06.2020
959 Thunderstorm 21 1005 73 10000 1.5 120 18:36 21.06.2020
960 Thunderstorm 21 1005 73 10000 1.5 120 18:36 21.06.2020
961 Thunderstorm 22 1005 73 10000 1.5 120 18:18 21.06.2020
962 Clouds 24 1005 64 10000 3.6 120 17:40 21.06.2020
963 Clouds 24 1005 64 10000 3.6 120 17:20 21.06.2020
964 Clouds 24 1005 69 10000 3.1 140 16:56 21.06.2020
965 Clouds 25 1005 69 10000 2.6 130 16:37 21.06.2020
966 Clouds 24 1005 69 10000 2.6 130 16:19 21.06.2020
967 Rain 23 1005 77 10000 4.1 60 15:38 21.06.2020
968 Rain 23 1005 77 10000 4.1 60 15:20 21.06.2020
969 Thunderstorm 22 1006 73 7000 7.7 90 14:39 21.06.2020
970 Thunderstorm 23 1006 73 7000 7.7 90 14:21 21.06.2020
971 Rain 24 1006 64 10000 5.1 110 13:59 21.06.2020
972 Rain 24 1006 64 10000 5.1 110 13:59 21.06.2020
973 Thunderstorm 25 1006 64 10000 2.6 80 13:41 21.06.2020
974 Thunderstorm 25 1006 64 10000 2.6 80 13:22 21.06.2020
975 Clouds 25 1006 60 10000 3.6 320 12:55 21.06.2020
976 Clouds 25 1006 53 10000 2.1 300 12:36 21.06.2020
977 Clouds 25 1006 53 10000 2.1 300 12:18 21.06.2020
978 Clouds 24 1006 60 10000 4.6 310 11:41 21.06.2020
979 Clouds 24 1006 60 10000 4.6 310 11:23 21.06.2020
980 Clouds 23 1006 60 10000 6.2 270 10:58 21.06.2020
981 Clouds 22 1006 64 10000 6.7 280 10:39 21.06.2020
982 Clouds 22 1006 64 10000 6.7 280 10:20 21.06.2020
983 Clouds 22 1006 68 10000 5.7 270 09:44 21.06.2020
984 Clouds 21 1006 68 10000 5.7 270 09:22 21.06.2020
985 Clouds 21 1006 68 10000 6.7 280 08:57 21.06.2020
986 Clouds 21 1006 68 10000 7.2 280 08:39 21.06.2020
987 Clouds 20 1006 68 10000 7.2 280 08:19 21.06.2020
988 Clouds 19 1006 68 10000 7.7 280 07:41 21.06.2020
989 Clouds 19 1006 68 10000 7.7 280 07:23 21.06.2020
990 Clouds 19 1006 72 10000 7.2 260 06:50 21.06.2020
991 Clouds 17 1006 82 10000 5.1 290 06:19 21.06.2020
992 Clouds 18 1006 68 10000 5.1 300 05:57 21.06.2020
993 Clouds 18 1006 72 10000 4.1 260 04:29 21.06.2020
994 Clouds 18 1006 82 10000 5.95 295 03:19 21.06.2020
995 Clouds 17 1007 88 10000 5.06 298 02:22 21.06.2020
996 Clouds 17 1006 88 10000 2.1 330 01:36 21.06.2020
997 Clouds 17 1006 88 10000 2.1 330 01:18 21.06.2020
998 Clouds 18 1007 88 10000 2.1 10 00:41 21.06.2020
999 Clouds 18 1007 88 10000 2.1 10 00:23 21.06.2020
1000 Clouds 18 1007 82 10000 0.5 0 23:45 20.06.2020
1001 Clouds 18 1007 82 10000 1 0 23:22 20.06.2020
1002 Clouds 19 1007 82 10000 3.25 287 22:57 20.06.2020
1003 Clouds 19 1007 82 10000 1.5 330 22:39 20.06.2020
1004 Clouds 19 1007 82 10000 1.5 330 22:19 20.06.2020
1005 Clouds 20 1007 77 10000 0.5 0 21:57 20.06.2020
1006 Clouds 20 1007 73 10000 2.1 130 21:39 20.06.2020
1007 Clear 21 1007 73 10000 2.1 130 21:20 20.06.2020
1008 Clouds 21 1007 73 10000 2.1 130 21:20 20.06.2020
1009 Clouds 21 1006 64 10000 2.6 110 20:57 20.06.2020
1010 Clouds 22 1006 64 10000 1 0 20:39 20.06.2020
1011 Rain 22 1006 64 10000 1 0 20:20 20.06.2020
1012 Clouds 24 1006 44 10000 3.6 290 19:44 20.06.2020
1013 Clouds 25 1006 44 10000 3.6 290 19:25 20.06.2020
1014 Clouds 25 1006 44 10000 6.2 280 18:58 20.06.2020
1015 Clouds 27 1006 42 10000 6.7 280 18:40 20.06.2020
1016 Clouds 27 1006 42 10000 6.7 280 18:19 20.06.2020
1017 Clouds 27 1006 45 10000 5.7 290 17:56 20.06.2020
1018 Clouds 28 1006 42 10000 7.7 270 17:37 20.06.2020
1019 Clouds 28 1006 42 10000 7.7 270 17:18 20.06.2020
1020 Clouds 27 1006 47 10000 6.7 300 16:40 20.06.2020
1021 Clouds 27 1006 47 10000 6.7 300 16:19 20.06.2020
1022 Clouds 29 1006 45 10000 6.2 270 15:57 20.06.2020
1023 Clouds 29 1006 45 10000 7.2 270 15:38 20.06.2020
1024 Clouds 28 1006 45 10000 7.2 270 15:18 20.06.2020
1025 Clouds 28 1007 48 10000 6.7 280 14:42 20.06.2020
1026 Clouds 29 1007 48 10000 6.7 280 14:20 20.06.2020
1027 Clouds 28 1007 48 10000 5.1 290 13:42 20.06.2020
1028 Clouds 28 1007 48 10000 5.1 290 13:20 20.06.2020
1029 Clouds 27 1008 51 10000 5.1 300 12:56 20.06.2020
1030 Clouds 27 1008 54 10000 5.7 300 12:38 20.06.2020
1031 Clouds 27 1008 54 10000 5.7 300 12:18 20.06.2020
1032 Clouds 27 1008 54 10000 5.1 290 11:39 20.06.2020
1033 Clouds 27 1008 54 10000 5.1 290 11:20 20.06.2020
1034 Rain 26 1008 57 10000 5.7 270 10:58 20.06.2020
1035 Rain 26 1008 61 10000 6.2 270 10:39 20.06.2020
1036 Clear 26 1008 61 10000 6.2 270 10:18 20.06.2020
1037 Clear 25 1008 60 10000 5.1 280 09:42 20.06.2020
1038 Clear 24 1008 60 10000 5.1 280 09:24 20.06.2020
1039 Clear 23 1008 64 10000 6.7 260 08:58 20.06.2020
1040 Clear 22 1008 68 10000 5.7 260 08:39 20.06.2020
1041 Clear 22 1008 68 10000 5.7 260 08:21 20.06.2020
1042 Clear 21 1009 73 10000 4.1 260 07:50 20.06.2020
1043 Clear 19 1009 77 10000 3.6 250 07:25 20.06.2020
1044 Clear 19 1009 77 10000 2.6 260 06:43 20.06.2020
1045 Clear 17 1009 82 10000 2.6 280 06:20 20.06.2020
1046 Clear 18 1008 82 10000 3.1 280 05:47 20.06.2020
1047 Clear 18 1008 88 10000 2.6 230 03:25 20.06.2020
1048 Clouds 18 1008 88 10000 5.94 299 01:53 20.06.2020
1049 Clouds 18 1008 93 10000 5.94 299 01:35 20.06.2020
1050 Clouds 18 1008 88 10000 0.5 0 00:42 20.06.2020
1051 Clouds 18 1008 88 10000 0.5 0 00:19 20.06.2020
1052 Clouds 18 1009 88 10000 1.5 20 23:40 19.06.2020
1053 Clouds 18 1009 88 10000 1.5 20 23:19 19.06.2020
1054 Clouds 18 1008 88 10000 1 0 22:54 19.06.2020
1055 Clouds 19 1008 88 10000 2.1 350 22:36 19.06.2020
1056 Clouds 19 1008 88 10000 2.1 350 22:18 19.06.2020
1057 Clouds 19 1009 93 10000 2.1 330 21:40 19.06.2020
1058 Clouds 19 1009 93 10000 2.1 330 21:19 19.06.2020
1059 Clouds 19 1008 88 10000 2.6 280 20:59 19.06.2020
1060 Clouds 19 1008 82 10000 1.5 280 20:40 19.06.2020
1061 Clouds 19 1008 82 10000 1.5 280 20:21 19.06.2020
1062 Clouds 19 1008 82 10000 1.5 280 20:21 19.06.2020
1063 Clouds 19 1009 88 10000 3.1 0 19:59 19.06.2020
1064 Rain 19 1008 82 10000 2.6 0 19:41 19.06.2020
1065 Rain 19 1008 82 10000 2.6 0 19:23 19.06.2020
1066 Rain 19 1009 82 10000 1 0 18:57 19.06.2020
1067 Thunderstorm 19 1009 93 2100 4.1 0 18:38 19.06.2020
1068 Thunderstorm 19 1009 93 2100 4.1 0 18:20 19.06.2020
1069 Thunderstorm 19 1009 93 2100 4.1 0 18:20 19.06.2020
1070 Thunderstorm 21 1007 88 3000 6.2 110 17:42 19.06.2020
1071 Thunderstorm 22 1007 88 3000 6.2 110 17:23 19.06.2020
1072 Rain 23 1007 64 10000 3.1 110 16:57 19.06.2020
1073 Thunderstorm 25 1007 61 10000 2.1 0 16:38 19.06.2020
1074 Thunderstorm 25 1007 61 10000 2.1 0 16:20 19.06.2020
1075 Clouds 26 1007 48 10000 7.2 270 15:44 19.06.2020
1076 Clouds 28 1007 48 10000 7.2 270 15:25 19.06.2020
1077 Clouds 26 1007 54 10000 5.1 270 14:57 19.06.2020
1078 Clouds 26 1007 51 10000 4.1 310 14:39 19.06.2020
1079 Clouds 27 1007 51 10000 4.1 310 14:20 19.06.2020
1080 Clouds 26 1008 54 10000 6.2 300 13:55 19.06.2020
1081 Clouds 26 1008 61 10000 6.2 300 13:37 19.06.2020
1082 Clouds 26 1008 61 10000 6.2 300 13:18 19.06.2020
1083 Clouds 25 1008 57 10000 5.1 300 12:40 19.06.2020
1084 Clouds 25 1008 57 10000 5.1 300 12:18 19.06.2020
1085 Clouds 25 1008 61 10000 4.6 300 11:40 19.06.2020
1086 Clouds 25 1008 61 10000 4.6 300 11:19 19.06.2020
1087 Clouds 25 1008 61 10000 4.6 300 10:59 19.06.2020
1088 Clouds 24 1008 64 10000 4.1 310 10:41 19.06.2020
1089 Clouds 24 1008 64 10000 4.1 310 10:41 19.06.2020
1090 Clouds 24 1008 64 10000 4.1 310 10:41 19.06.2020
1091 Clouds 24 1008 64 10000 4.1 310 10:19 19.06.2020
1092 Clouds 23 1009 73 10000 4.6 290 09:44 19.06.2020
1093 Clouds 23 1009 73 10000 5.1 290 09:25 19.06.2020
1094 Clouds 22 1009 73 10000 5.7 280 08:58 19.06.2020
1095 Clouds 21 1009 77 10000 5.7 280 08:38 19.06.2020
1096 Clouds 21 1009 77 10000 5.7 280 08:20 19.06.2020
1097 Clouds 20 1009 82 10000 5.7 280 07:40 19.06.2020
1098 Clouds 20 1009 82 10000 5.7 280 07:21 19.06.2020
1099 Clouds 19 1009 93 10000 2.1 310 06:44 19.06.2020
1100 Clouds 18 1009 93 10000 2.1 310 06:20 19.06.2020
1101 Clouds 18 1009 88 10000 3.91 296 04:30 19.06.2020
1102 Clear 17 1008 100 10000 2.6 280 03:29 19.06.2020
1103 Clouds 18 1008 93 10000 2.6 280 01:23 19.06.2020
1104 Clouds 18 1008 93 10000 1.5 310 00:42 19.06.2020
1105 Clouds 18 1008 93 10000 1.5 310 00:22 19.06.2020
1106 Clouds 18 1008 88 10000 1.5 250 23:55 18.06.2020
1107 Clouds 18 1008 93 10000 4.22 299 23:36 18.06.2020
1108 Clouds 18 1008 93 10000 4.22 299 23:36 18.06.2020
1109 Clouds 18 1008 93 10000 4.18 297 23:18 18.06.2020
1110 Clouds 18 1008 93 10000 4.18 297 23:18 18.06.2020
1111 Clouds 19 1008 88 10000 0.5 0 22:39 18.06.2020
1112 Clouds 19 1008 88 10000 0.5 0 22:19 18.06.2020
1113 Clouds 19 1008 88 10000 1.5 280 21:55 18.06.2020
1114 Clouds 19 1009 94 10000 1.5 320 21:36 18.06.2020
1115 Clouds 19 1009 94 10000 1.5 320 21:18 18.06.2020
1116 Clouds 20 1008 88 10000 1.5 260 20:40 18.06.2020
1117 Clouds 20 1008 88 10000 1.5 260 20:20 18.06.2020
1118 Clouds 21 1008 78 10000 1 0 19:56 18.06.2020
1119 Clouds 22 1008 73 10000 1 0 19:37 18.06.2020
1120 Rain 22 1008 73 10000 1 0 19:18 18.06.2020
1121 Rain 22 1008 73 10000 1.5 100 18:38 18.06.2020
1122 Rain 22 1008 73 10000 1.5 100 18:19 18.06.2020
1123 Clouds 22 1008 73 10000 2.1 130 17:45 18.06.2020
1124 Clouds 22 1008 73 10000 1 0 17:26 18.06.2020
1125 Clouds 22 1007 78 10000 2.1 300 16:56 18.06.2020
1126 Clouds 22 1007 78 10000 2.1 300 16:56 18.06.2020
1127 Thunderstorm 22 1008 73 10000 2.6 240 16:38 18.06.2020
1128 Thunderstorm 22 1008 73 10000 2.6 240 16:20 18.06.2020
1129 Clouds 24 1008 64 10000 2.1 140 15:57 18.06.2020
1130 Clouds 23 1008 69 10000 3.6 140 15:38 18.06.2020
1131 Clouds 23 1008 69 10000 3.6 140 15:19 18.06.2020
1132 Clouds 22 1008 69 10000 1 0 14:55 18.06.2020
1133 Clouds 22 1008 73 10000 2.1 260 14:36 18.06.2020
1134 Clouds 22 1008 73 10000 2.1 260 14:18 18.06.2020
1135 Thunderstorm 21 1008 83 10000 2.1 320 13:41 18.06.2020
1136 Thunderstorm 22 1008 83 10000 2.1 320 13:22 18.06.2020
1137 Thunderstorm 24 1008 61 10000 3.1 130 12:55 18.06.2020
1138 Clouds 24 1008 64 10000 3.6 140 12:37 18.06.2020
1139 Clouds 24 1008 64 10000 3.6 140 12:19 18.06.2020
1140 Clouds 24 1008 53 10000 2.1 280 11:46 18.06.2020
1141 Clouds 24 1008 53 10000 2.1 280 11:21 18.06.2020
1142 Clouds 24 1008 64 10000 2.6 10 10:41 18.06.2020
1143 Clouds 24 1008 64 10000 2.6 10 10:21 18.06.2020
1144 Clouds 23 1008 60 10000 1 0 09:59 18.06.2020
1145 Clouds 23 1008 64 10000 2.1 270 09:41 18.06.2020
1146 Clouds 23 1008 64 10000 2.1 270 09:22 18.06.2020
1147 Clouds 21 1008 78 10000 1.5 250 08:41 18.06.2020
1148 Clouds 21 1008 78 10000 1.5 250 08:23 18.06.2020
1149 Clouds 20 1008 77 10000 1 0 07:58 18.06.2020
1150 Clouds 20 1008 88 9000 1 0 07:40 18.06.2020
1151 Clouds 19 1008 88 9000 1 0 07:21 18.06.2020
1152 Clouds 17 1007 100 6000 0.5 350 06:22 18.06.2020
1153 Mist 17 1007 100 5000 0.5 0 04:26 18.06.2020
1154 Clouds 17 1007 100 6000 1 0 03:18 18.06.2020
1155 Clouds 18 1007 100 8000 0.5 0 01:32 18.06.2020
1156 Clouds 17 1007 100 10000 0.5 40 00:59 18.06.2020
1157 Clouds 17 1007 100 10000 1 0 00:39 18.06.2020
1158 Clouds 17 1007 100 10000 1 0 00:21 18.06.2020
1159 Clouds 17 1007 100 10000 0.32 189 23:45 17.06.2020
1160 Clouds 17 1007 100 10000 0.44 75 23:22 17.06.2020
1161 Clouds 18 1007 100 10000 0.44 75 22:58 17.06.2020
1162 Clouds 18 1007 100 10000 0.44 75 22:40 17.06.2020
1163 Clouds 18 1007 100 10000 0.21 170 22:21 17.06.2020
1164 Clouds 18 1007 100 10000 0.21 170 22:21 17.06.2020
1165 Clouds 18 1007 100 10000 1.5 320 21:55 17.06.2020
1166 Clouds 19 1007 93 10000 0.21 170 21:37 17.06.2020
1167 Clouds 19 1007 93 10000 0.67 120 21:19 17.06.2020
1168 Clouds 19 1007 93 10000 1.2 82 20:38 17.06.2020
1169 Clouds 19 1007 93 10000 1.2 82 20:38 17.06.2020
1170 Clouds 19 1007 93 10000 1.17 103 20:20 17.06.2020
1171 Clouds 20 1007 88 10000 1.17 103 19:57 17.06.2020
1172 Clouds 20 1007 88 10000 1.17 103 19:57 17.06.2020
1173 Clouds 20 1007 88 10000 2.1 250 19:38 17.06.2020
1174 Clouds 20 1007 88 10000 2.1 250 19:19 17.06.2020
1175 Clouds 20 1007 88 10000 1.5 250 18:45 17.06.2020
1176 Clouds 20 1007 82 10000 1.5 270 18:27 17.06.2020
1177 Clouds 20 1007 82 10000 0.5 0 17:46 17.06.2020
1178 Clouds 21 1007 88 10000 1 0 17:23 17.06.2020
1179 Clouds 21 1007 88 10000 1.5 180 16:58 17.06.2020
1180 Rain 21 1007 100 10000 3.1 0 16:39 17.06.2020
1181 Rain 20 1007 100 10000 3.1 0 16:21 17.06.2020
1182 Rain 20 1007 93 7000 1 0 15:57 17.06.2020
1183 Rain 19 1008 93 10000 3.1 200 15:39 17.06.2020
1184 Rain 19 1008 93 10000 3.1 200 15:19 17.06.2020
1185 Rain 19 1007 93 10000 2.6 20 14:57 17.06.2020
1186 Thunderstorm 20 1008 82 10000 6.7 260 14:39 17.06.2020
1187 Thunderstorm 20 1008 82 10000 6.7 260 14:19 17.06.2020
1188 Thunderstorm 21 1006 78 10000 5.1 120 13:56 17.06.2020
1189 Clouds 24 1006 73 10000 5.7 120 13:36 17.06.2020
1190 Clouds 24 1006 73 10000 5.7 120 13:18 17.06.2020
1191 Clouds 23 1007 69 10000 5.1 120 12:42 17.06.2020
1192 Clouds 24 1007 69 10000 5.1 120 12:22 17.06.2020
1193 Clouds 25 1007 69 10000 3.6 130 11:45 17.06.2020
1194 Clouds 25 1007 69 10000 3.6 130 11:26 17.06.2020
1195 Clouds 24 1007 57 10000 0.5 0 10:59 17.06.2020
1196 Clouds 23 1007 69 10000 2.6 220 10:38 17.06.2020
1197 Clouds 23 1007 69 10000 2.6 220 10:19 17.06.2020
1198 Clouds 22 1007 78 7000 2.6 180 09:55 17.06.2020
1199 Clouds 21 1007 88 6000 1.5 170 09:37 17.06.2020
1200 Clouds 21 1007 88 6000 1.5 170 09:18 17.06.2020
1201 Clouds 20 1007 100 6000 1.5 250 08:44 17.06.2020
1202 Mist 19 1007 100 4000 1.5 240 08:19 17.06.2020
1203 Mist 18 1007 100 1200 1 0 07:44 17.06.2020
1204 Fog 18 1007 100 300 1.5 240 07:23 17.06.2020
1205 Fog 18 1007 100 250 1.5 240 06:59 17.06.2020
1206 Fog 19 1007 100 500 1.5 270 06:40 17.06.2020
1207 Fog 17 1007 100 500 1.5 270 06:22 17.06.2020
1208 Fog 17 1007 100 350 0.83 6 05:48 17.06.2020
1209 Fog 16 1007 100 8000 1.47 4 04:38 17.06.2020
1210 Clouds 17 1008 100 7000 0.74 167 01:59 17.06.2020
1211 Clouds 17 1008 100 7000 0.5 0 00:53 17.06.2020
1212 Clouds 17 1008 100 9000 1.12 151 00:30 17.06.2020
1213 Clouds 17 1008 100 10000 0.5 340 23:58 16.06.2020
1214 Clouds 17 1008 100 9000 1.5 320 23:40 16.06.2020
1215 Clouds 18 1008 100 9000 1.5 320 23:22 16.06.2020
1216 Clouds 18 1008 100 9000 1 20 22:57 16.06.2020
1217 Clouds 18 1008 100 7000 0.5 30 22:38 16.06.2020
1218 Clouds 18 1008 100 7000 0.5 30 22:19 16.06.2020
1219 Clouds 18 1008 100 7000 2.1 140 21:57 16.06.2020
1220 Clouds 18 1008 100 8000 1 0 21:39 16.06.2020
1221 Clouds 18 1008 100 8000 1 0 21:39 16.06.2020
1222 Clouds 18 1008 100 8000 1 0 21:20 16.06.2020
1223 Clouds 19 1008 94 10000 0.5 200 20:43 16.06.2020
1224 Clouds 19 1008 94 10000 0.5 200 20:22 16.06.2020
1225 Clouds 19 1008 94 10000 1 140 19:58 16.06.2020
1226 Clouds 19 1007 94 10000 1 50 19:40 16.06.2020
1227 Clouds 19 1007 94 10000 1 50 19:22 16.06.2020
1228 Rain 19 1007 94 10000 1 0 18:56 16.06.2020
1229 Rain 20 1007 94 10000 1 0 18:56 16.06.2020
1230 Clouds 20 1007 83 10000 3.1 160 18:38 16.06.2020
1231 Clouds 20 1007 83 10000 3.1 160 18:20 16.06.2020
1232 Clouds 20 1007 88 10000 2.1 150 17:56 16.06.2020
1233 Clouds 20 1007 83 10000 1.5 150 17:37 16.06.2020
1234 Clouds 20 1007 83 10000 1.5 150 17:19 16.06.2020
1235 Clouds 20 1007 88 10000 2.6 160 16:55 16.06.2020
1236 Rain 20 1008 83 10000 2.6 130 16:37 16.06.2020
1237 Rain 20 1008 83 10000 2.6 130 16:18 16.06.2020
1238 Clouds 21 1008 78 10000 3.6 120 15:55 16.06.2020
1239 Clouds 21 1008 83 10000 5.7 120 15:37 16.06.2020
1240 Clouds 21 1008 83 10000 5.7 120 15:19 16.06.2020
1241 Clouds 22 1008 73 10000 6.2 130 14:41 16.06.2020
1242 Clouds 23 1008 73 10000 6.2 130 14:23 16.06.2020
1243 Clouds 23 1008 73 10000 5.1 130 13:49 16.06.2020
1244 Clouds 23 1008 73 10000 4.6 140 13:26 16.06.2020
1245 Clouds 23 1008 69 10000 2.6 130 12:57 16.06.2020
1246 Clouds 23 1009 78 10000 1.5 110 12:39 16.06.2020
1247 Clouds 23 1009 78 10000 1.5 110 12:20 16.06.2020
1248 Clouds 21 1009 78 10000 1.79 180 11:55 16.06.2020
1249 Clouds 22 1009 78 10000 1.79 180 11:37 16.06.2020
1250 Clouds 22 1009 78 10000 1.79 180 11:37 16.06.2020
1251 Clouds 21 1009 78 10000 1.77 194 11:19 16.06.2020
1252 Rain 20 1009 94 10000 2.1 270 10:42 16.06.2020
1253 Rain 20 1009 94 10000 2.1 270 10:21 16.06.2020
1254 Clouds 20 1009 83 10000 2.6 250 09:57 16.06.2020
1255 Clouds 20 1009 88 10000 2.1 220 09:39 16.06.2020
1256 Clouds 20 1009 88 10000 2.1 220 09:21 16.06.2020
1257 Clouds 19 1009 82 10000 1.5 340 08:43 16.06.2020
1258 Clouds 19 1009 82 10000 1.5 340 08:25 16.06.2020
1259 Clouds 18 1009 88 10000 1 0 07:47 16.06.2020
1260 Clouds 18 1009 88 10000 2.1 80 07:26 16.06.2020
1261 Clouds 18 1008 93 10000 0.5 0 06:48 16.06.2020
1262 Clouds 17 1008 93 10000 1.4 19 06:26 16.06.2020
1263 Clouds 17 1008 93 10000 1.4 19 06:26 16.06.2020
1264 Clouds 17 1008 100 10000 1.4 19 05:32 16.06.2020
1265 Clouds 16 1008 100 10000 1.5 32 04:28 16.06.2020
1266 Clouds 17 1008 93 10000 1 0 02:56 16.06.2020
1267 Clouds 17 1008 100 10000 0.5 0 01:52 16.06.2020
1268 Clouds 17 1009 100 10000 1.08 52 01:20 16.06.2020
1269 Clouds 17 1009 100 10000 1.08 52 00:40 16.06.2020
1270 Clouds 17 1009 100 10000 0.68 78 00:19 16.06.2020
1271 Clouds 18 1009 93 10000 2.6 70 23:41 15.06.2020
1272 Clouds 18 1009 93 10000 2.6 70 23:22 15.06.2020
1273 Clouds 18 1009 93 10000 2.6 100 22:55 15.06.2020
1274 Clouds 18 1009 100 10000 1 0 22:36 15.06.2020
1275 Clouds 18 1009 100 10000 1 0 22:18 15.06.2020
1276 Clouds 18 1009 100 8000 0.98 74 21:55 15.06.2020
1277 Clouds 18 1009 100 10000 1 0 21:36 15.06.2020
1278 Clouds 18 1009 100 10000 1 0 21:18 15.06.2020
1279 Clouds 18 1008 100 7000 2.1 130 20:54 15.06.2020
1280 Clouds 18 1008 100 7000 2.1 130 20:54 15.06.2020
1281 Mist 19 1008 100 3800 1.5 170 20:36 15.06.2020
1282 Mist 19 1008 100 3800 1.5 170 20:18 15.06.2020
1283 Clouds 19 1008 100 7000 0.92 134 19:41 15.06.2020
1284 Clouds 19 1008 100 7000 1.43 138 19:22 15.06.2020
1285 Clouds 19 1008 100 8000 1.43 138 18:58 15.06.2020
1286 Clouds 19 1008 100 8000 1.43 138 18:40 15.06.2020
1287 Clouds 19 1008 100 8000 1.39 132 18:20 15.06.2020
1288 Rain 19 1008 100 8000 1.39 132 17:58 15.06.2020
1289 Rain 19 1008 100 9000 1.39 132 17:40 15.06.2020
1290 Rain 19 1008 100 9000 1.44 146 17:19 15.06.2020
1291 Rain 19 1008 100 9000 1.44 146 17:19 15.06.2020
1292 Rain 19 1008 100 10000 1.5 240 16:43 15.06.2020
1293 Rain 19 1008 100 10000 1.5 240 16:20 15.06.2020
1294 Rain 19 1008 100 10000 1.72 177 15:58 15.06.2020
1295 Rain 19 1008 94 10000 1 0 15:40 15.06.2020
1296 Rain 19 1008 94 10000 1 0 15:20 15.06.2020
1297 Rain 20 1008 94 10000 1.5 80 14:56 15.06.2020
1298 Rain 19 1008 100 10000 3.1 100 14:37 15.06.2020
1299 Rain 19 1008 100 10000 3.1 100 14:18 15.06.2020
1300 Thunderstorm 19 1008 100 1900 2.1 70 13:42 15.06.2020
1301 Thunderstorm 19 1008 100 1900 2.1 70 13:24 15.06.2020
1302 Thunderstorm 19 1008 100 1900 2.1 70 13:24 15.06.2020
1303 Rain 20 1007 94 4800 5.7 70 12:59 15.06.2020
1304 Rain 20 1007 88 10000 4.1 100 12:40 15.06.2020
1305 Rain 20 1007 88 10000 4.1 100 12:21 15.06.2020
1306 Rain 21 1007 83 10000 4.6 120 11:45 15.06.2020
1307 Clouds 21 1007 78 10000 0.55 98 11:26 15.06.2020
1308 Clouds 21 1007 78 10000 0.55 98 11:26 15.06.2020
1309 Clouds 21 1007 78 10000 2.1 330 10:57 15.06.2020
1310 Clouds 21 1007 78 10000 3.1 30 10:38 15.06.2020
1311 Clouds 21 1007 78 10000 3.1 30 10:19 15.06.2020
1312 Clouds 21 1007 78 10000 3.1 30 10:19 15.06.2020
1313 Clouds 20 1007 83 10000 2.6 350 09:41 15.06.2020
1314 Clouds 20 1007 83 10000 2.6 350 09:22 15.06.2020
1315 Clouds 20 1007 83 10000 3.1 310 08:43 15.06.2020
1316 Clouds 20 1007 83 10000 3.1 310 08:24 15.06.2020
1317 Clouds 19 1006 83 10000 1.5 290 07:50 15.06.2020
1318 Clouds 19 1006 88 10000 0.5 0 07:32 15.06.2020
1319 Clouds 20 1006 94 10000 1.91 49 06:50 15.06.2020
1320 Clouds 19 1006 94 10000 1 0 06:26 15.06.2020
1321 Clouds 19 1006 100 9000 2.1 240 05:47 15.06.2020
1322 Clouds 19 1006 100 9000 0.5 0 05:27 15.06.2020
1323 Clouds 19 1005 100 10000 1.5 300 04:21 15.06.2020
1324 Clouds 19 1005 100 8000 2.08 58 03:47 15.06.2020
1325 Clouds 18 1005 100 7000 1.73 72 02:55 15.06.2020
1326 Clouds 19 1005 100 9000 1.4 110 01:58 15.06.2020
1327 Clouds 19 1005 100 8000 1.4 110 01:37 15.06.2020
1328 Clouds 19 1005 100 8000 1.96 100 01:18 15.06.2020
1329 Clouds 19 1005 100 7000 1.96 100 00:39 15.06.2020
1330 Clouds 19 1005 100 7000 1.86 106 00:20 15.06.2020
1331 Clouds 19 1005 100 7000 1.86 106 23:47 14.06.2020
1332 Clouds 19 1005 100 6000 2.1 100 23:26 14.06.2020
1333 Clouds 19 1005 100 8000 2 123 22:58 14.06.2020
1334 Clouds 19 1005 100 9000 1 220 22:39 14.06.2020
1335 Clouds 19 1005 100 9000 1 220 22:20 14.06.2020
1336 Clouds 19 1005 94 10000 1.88 143 21:57 14.06.2020
1337 Clouds 19 1005 100 10000 2.1 260 21:39 14.06.2020
1338 Clouds 19 1005 100 10000 2.1 260 21:19 14.06.2020
1339 Clouds 19 1005 94 10000 1.5 290 20:58 14.06.2020
1340 Mist 19 1005 100 5000 2.1 180 20:39 14.06.2020
1341 Mist 20 1005 100 5000 2.1 180 20:20 14.06.2020
1342 Mist 20 1005 94 4500 1.5 310 19:59 14.06.2020
1343 Mist 20 1005 88 9000 2.6 250 19:38 14.06.2020
1344 Mist 21 1005 88 9000 2.6 250 19:19 14.06.2020
1345 Clouds 21 1004 83 10000 2.6 270 18:57 14.06.2020
1346 Clouds 21 1005 83 10000 3.1 300 18:39 14.06.2020
1347 Clouds 21 1005 83 10000 3.1 300 18:20 14.06.2020
1348 Clouds 21 1004 88 10000 2.1 280 17:58 14.06.2020
1349 Clouds 22 1004 88 10000 2.1 310 17:39 14.06.2020
1350 Clouds 21 1004 88 10000 2.1 310 17:19 14.06.2020
1351 Clouds 21 1005 100 10000 1.5 320 16:41 14.06.2020
1352 Clouds 20 1005 100 10000 1.5 320 16:21 14.06.2020
1353 Rain 20 1005 100 10000 1 270 15:59 14.06.2020
1354 Rain 19 1005 94 9000 2.6 150 15:40 14.06.2020
1355 Rain 19 1005 94 9000 2.6 150 15:18 14.06.2020
1356 Rain 19 1006 100 5000 5.7 340 14:58 14.06.2020
1357 Thunderstorm 19 1005 94 7000 5.1 50 14:40 14.06.2020
1358 Thunderstorm 20 1005 94 7000 5.1 50 14:21 14.06.2020
1359 Thunderstorm 22 1004 83 10000 4.1 90 13:55 14.06.2020
1360 Thunderstorm 23 1004 73 10000 6.2 100 13:37 14.06.2020
1361 Thunderstorm 23 1004 73 10000 6.2 100 13:19 14.06.2020
1362 Thunderstorm 24 1004 61 10000 5.1 280 12:55 14.06.2020
1363 Thunderstorm 25 1003 57 10000 4.1 260 12:37 14.06.2020
1364 Thunderstorm 26 1003 57 10000 4.1 260 12:18 14.06.2020
1365 Clouds 27 1004 57 10000 3.6 250 11:55 14.06.2020
1366 Clouds 27 1004 57 10000 4.6 200 11:37 14.06.2020
1367 Clouds 27 1004 57 10000 4.6 200 11:18 14.06.2020
1368 Clouds 25 1004 65 10000 5.7 260 10:41 14.06.2020
1369 Clouds 26 1004 65 10000 5.7 260 10:19 14.06.2020
1370 Rain 24 1004 69 10000 4.6 260 09:45 14.06.2020
1371 Rain 24 1004 69 10000 4.6 260 09:24 14.06.2020
1372 Rain 23 1004 69 10000 4.1 290 08:44 14.06.2020
1373 Rain 23 1004 69 10000 5.7 270 08:22 14.06.2020
1374 Rain 21 1004 78 10000 4.1 250 07:58 14.06.2020
1375 Rain 20 1004 88 9000 2.6 250 07:37 14.06.2020
1376 Rain 20 1004 88 9000 2.6 250 07:19 14.06.2020
1377 Clouds 18 1003 100 6000 1.5 260 05:58 14.06.2020
1378 Mist 18 1003 100 4200 3.3 290 05:39 14.06.2020
1379 Rain 17 1003 100 7000 3.37 304 04:43 14.06.2020
1380 Rain 17 1003 100 8000 3.37 303 03:57 14.06.2020
1381 Clouds 17 1003 93 6000 0.5 0 02:44 14.06.2020
1382 Rain 17 1003 93 6000 0.5 0 02:23 14.06.2020
1383 Rain 18 1004 93 7000 2.95 286 01:31 14.06.2020
1384 Rain 18 1004 93 9000 2.69 287 00:49 14.06.2020
1385 Rain 18 1004 93 9000 1.5 310 00:30 14.06.2020
1386 Mist 18 1004 93 6000 1.5 320 23:49 13.06.2020
1387 Rain 18 1004 93 6000 0.5 0 23:31 13.06.2020
1388 Clouds 18 1004 93 9000 1 0 22:59 13.06.2020
1389 Clouds 18 1004 93 10000 1.5 290 22:39 13.06.2020
1390 Clouds 18 1004 93 10000 1.5 290 22:20 13.06.2020
1391 Clouds 18 1004 88 10000 2.6 310 21:58 13.06.2020
1392 Clouds 18 1004 93 10000 2.1 310 21:40 13.06.2020
1393 Clouds 17 1004 93 10000 2.1 310 21:21 13.06.2020
1394 Clouds 18 1004 88 10000 2.1 230 20:54 13.06.2020
1395 Clouds 18 1003 77 10000 1 0 20:36 13.06.2020
1396 Clouds 18 1003 77 10000 1 0 20:18 13.06.2020
1397 Clouds 19 1004 82 10000 3.1 350 19:40 13.06.2020
1398 Clouds 19 1004 82 10000 3.1 350 19:20 13.06.2020
1399 Thunderstorm 19 1004 88 10000 6.7 350 18:58 13.06.2020
1400 Thunderstorm 20 1004 73 10000 1 360 18:40 13.06.2020
1401 Thunderstorm 22 1004 73 10000 1 360 18:20 13.06.2020
1402 Thunderstorm 22 1004 73 10000 1 360 18:20 13.06.2020
1403 Clouds 22 1003 69 10000 2.49 185 17:57 13.06.2020
1404 Clouds 23 1004 69 10000 1 0 17:38 13.06.2020
1405 Clouds 23 1004 69 10000 1 0 17:20 13.06.2020
1406 Clouds 24 1004 69 10000 2.1 0 16:54 13.06.2020
1407 Clouds 24 1004 78 10000 1.5 130 16:36 13.06.2020
1408 Clouds 24 1004 78 10000 1.5 130 16:18 13.06.2020
1409 Rain 20 1004 88 8000 6.2 90 15:41 13.06.2020
1410 Rain 20 1004 88 8000 6.2 90 15:21 13.06.2020
1411 Rain 20 1004 88 8000 6.2 90 15:21 13.06.2020
1412 Rain 24 1004 60 10000 6.2 90 14:44 13.06.2020
1413 Clouds 25 1004 57 10000 5.7 110 14:23 13.06.2020
1414 Clouds 26 1004 57 10000 5.7 110 13:57 13.06.2020
1415 Clouds 25 1004 60 10000 6.2 100 13:37 13.06.2020
1416 Clouds 26 1004 60 10000 6.2 100 13:18 13.06.2020
1417 Clouds 27 1004 47 10000 1.5 0 12:43 13.06.2020
1418 Clouds 27 1004 47 10000 1.5 0 12:25 13.06.2020
1419 Clouds 26 1005 50 10000 2.1 0 11:57 13.06.2020
1420 Clouds 25 1005 53 10000 3.1 250 11:37 13.06.2020
1421 Clouds 25 1005 53 10000 3.1 250 11:19 13.06.2020
1422 Clouds 25 1005 53 10000 3.1 0 10:54 13.06.2020
1423 Clouds 25 1005 53 10000 2.6 240 10:28 13.06.2020
1424 Clouds 24 1005 60 10000 3.1 240 09:57 13.06.2020
1425 Clouds 23 1005 64 10000 3.1 260 09:39 13.06.2020
1426 Clouds 22 1005 64 10000 3.1 260 09:20 13.06.2020
1427 Clouds 21 1005 68 10000 3.1 260 08:45 13.06.2020
1428 Clouds 21 1006 68 10000 3.1 260 08:26 13.06.2020
1429 Clouds 19 1006 72 10000 2.1 240 07:45 13.06.2020
1430 Clouds 18 1005 77 10000 2.1 260 07:26 13.06.2020
1431 Clouds 17 1005 87 10000 0.5 0 06:44 13.06.2020
1432 Clouds 15 1005 93 6000 2.1 270 06:26 13.06.2020
1433 Clouds 14 1005 93 10000 3.95 277 05:30 13.06.2020
1434 Clouds 14 1005 93 10000 3.68 282 04:41 13.06.2020
1435 Clouds 14 1005 93 10000 1.5 340 03:43 13.06.2020
1436 Clear 14 1005 93 10000 1 0 02:52 13.06.2020
1437 Clear 15 1006 93 10000 2.6 310 01:50 13.06.2020
1438 Clear 15 1006 87 10000 2.1 300 01:24 13.06.2020
1439 Clear 15 1006 87 10000 2.6 290 00:55 13.06.2020
1440 Clear 16 1006 87 10000 1.5 280 00:29 13.06.2020
1441 Clear 16 1006 87 10000 2.1 290 23:59 12.06.2020
1442 Clear 16 1006 87 10000 2.6 310 23:38 12.06.2020
1443 Clear 16 1006 87 10000 2.6 310 23:18 12.06.2020
1444 Clear 16 1006 87 10000 2.1 300 22:43 12.06.2020
1445 Clear 16 1006 82 10000 2.6 300 22:20 12.06.2020
1446 Clear 17 1006 82 10000 3.6 290 21:59 12.06.2020
1447 Clear 17 1006 82 10000 3.6 290 21:59 12.06.2020
1448 Clear 17 1006 77 10000 3.1 240 21:40 12.06.2020
1449 Clear 17 1006 77 10000 3.1 240 21:21 12.06.2020
1450 Clear 18 1006 77 10000 4.1 290 20:56 12.06.2020
1451 Clouds 18 1006 72 10000 6.2 290 20:37 12.06.2020
1452 Clouds 19 1006 72 10000 6.2 290 20:19 12.06.2020
1453 Clouds 20 1005 64 10000 8.2 280 19:40 12.06.2020
1454 Clouds 21 1005 64 10000 8.2 280 19:21 12.06.2020
1455 Clouds 22 1005 56 10000 7.2 280 18:58 12.06.2020
1456 Clouds 23 1005 56 10000 7.7 280 18:36 12.06.2020
1457 Clouds 22 1005 56 10000 7.7 280 18:18 12.06.2020
1458 Clouds 24 1005 53 10000 6.7 260 17:40 12.06.2020
1459 Clouds 24 1005 53 10000 6.7 260 17:22 12.06.2020
1460 Clouds 24 1004 50 10000 7.7 270 16:45 12.06.2020
1461 Clouds 24 1004 50 10000 6.7 250 16:21 12.06.2020
1462 Clouds 24 1004 47 10000 6.7 260 15:50 12.06.2020
1463 Clouds 22 1005 53 10000 5.1 270 15:28 12.06.2020
1464 Clouds 22 1005 53 10000 5.1 270 14:59 12.06.2020
1465 Clouds 22 1005 53 10000 4.6 270 14:39 12.06.2020
1466 Clouds 23 1005 53 10000 4.6 270 14:21 12.06.2020
1467 Clouds 25 1005 50 10000 6.2 250 13:43 12.06.2020
1468 Clouds 25 1005 50 10000 6.2 250 13:22 12.06.2020
1469 Clouds 25 1005 53 10000 4.6 270 12:55 12.06.2020
1470 Clouds 25 1005 53 10000 4.6 280 12:37 12.06.2020
1471 Clouds 25 1005 53 10000 4.6 280 12:18 12.06.2020
1472 Clouds 24 1005 53 10000 6.7 260 11:43 12.06.2020
1473 Clouds 25 1005 53 10000 6.7 260 11:23 12.06.2020
1474 Clouds 24 1005 56 10000 5.7 280 10:49 12.06.2020
1475 Clouds 24 1005 60 10000 5.7 240 10:26 12.06.2020
1476 Clouds 22 1005 64 10000 6.2 270 09:58 12.06.2020
1477 Clouds 22 1005 64 10000 7.2 270 09:39 12.06.2020
1478 Clouds 21 1005 64 10000 7.2 270 09:19 12.06.2020
1479 Clouds 20 1006 77 10000 2.1 240 08:41 12.06.2020
1480 Clouds 19 1006 77 10000 2.1 240 08:22 12.06.2020
1481 Clouds 18 1005 88 10000 0.5 0 07:41 12.06.2020
1482 Clouds 18 1005 88 10000 0.5 0 07:23 12.06.2020
1483 Clouds 16 1004 93 10000 5.58 297 06:41 12.06.2020
1484 Rain 16 1004 93 10000 4.25 301 06:20 12.06.2020
1485 Rain 15 1004 100 10000 4.25 301 05:49 12.06.2020
1486 Clouds 15 1004 100 10000 3.9 296 05:23 12.06.2020
1487 Clouds 15 1004 93 10000 0.5 0 03:52 12.06.2020
1488 Clouds 15 1004 93 10000 2.1 330 02:25 12.06.2020
1489 Clouds 15 1005 87 10000 4.02 293 01:35 12.06.2020
1490 Clouds 15 1005 93 10000 1.5 320 00:58 12.06.2020
1491 Clouds 15 1005 87 10000 2.1 310 00:38 12.06.2020
1492 Clouds 15 1005 87 10000 2.1 310 00:20 12.06.2020
1493 Clouds 15 1005 93 10000 2.1 280 23:56 11.06.2020
1494 Clouds 15 1005 93 10000 2.6 320 23:37 11.06.2020
1495 Rain 15 1005 93 10000 2.6 320 23:19 11.06.2020
1496 Rain 16 1005 87 10000 3.6 270 22:41 11.06.2020
1497 Rain 16 1005 87 10000 3.6 270 22:21 11.06.2020
1498 Rain 16 1005 87 10000 3.1 280 21:57 11.06.2020
1499 Rain 17 1005 82 10000 2.6 270 21:38 11.06.2020
1500 Rain 17 1005 82 10000 2.6 270 21:20 11.06.2020
1501 Rain 17 1004 72 10000 3.6 250 20:55 11.06.2020
1502 Clouds 17 1004 77 10000 3.6 280 20:37 11.06.2020
1503 Clouds 18 1004 77 10000 3.6 280 20:19 11.06.2020
1504 Clouds 19 1005 64 10000 5.7 270 19:41 11.06.2020
1505 Clouds 20 1005 64 10000 5.7 270 19:22 11.06.2020
1506 Clouds 21 1005 60 10000 5.7 260 18:43 11.06.2020
1507 Rain 23 1005 47 10000 3.6 220 18:25 11.06.2020
1508 Rain 23 1005 47 10000 3.6 220 17:57 11.06.2020
1509 Rain 24 1004 47 10000 2.1 200 17:38 11.06.2020
1510 Clouds 25 1004 50 10000 3.6 200 17:20 11.06.2020
1511 Clouds 25 1004 50 10000 3.6 200 17:20 11.06.2020
1512 Clouds 26 1004 50 10000 3.6 200 16:58 11.06.2020
1513 Clouds 26 1004 54 10000 1 0 16:40 11.06.2020
1514 Rain 26 1004 51 10000 2.1 330 16:21 11.06.2020
1515 Clouds 25 1004 57 10000 2.1 0 15:55 11.06.2020
1516 Clouds 25 1004 57 10000 2.1 0 15:37 11.06.2020
1517 Clouds 24 1005 57 10000 3.1 160 15:18 11.06.2020
1518 Clouds 24 1006 57 10000 3.1 160 14:42 11.06.2020
1519 Clouds 24 1006 54 10000 3.1 150 14:20 11.06.2020
1520 Clouds 24 1006 54 10000 3.1 150 13:56 11.06.2020
1521 Clouds 24 1007 57 10000 1 0 13:37 11.06.2020
1522 Clouds 24 1007 64 10000 1.5 0 13:18 11.06.2020
1523 Clouds 24 1007 64 10000 1.5 0 13:18 11.06.2020
1524 Clouds 24 1007 64 10000 1.5 0 13:18 11.06.2020
1525 Rain 24 1007 69 10000 2.6 230 12:55 11.06.2020
1526 Rain 23 1007 69 10000 2.6 230 12:36 11.06.2020
1527 Clouds 24 1007 64 10000 3.6 260 12:18 11.06.2020
1528 Clouds 24 1007 64 10000 3.6 260 11:56 11.06.2020
1529 Rain 24 1006 64 10000 5.1 270 11:37 11.06.2020
1530 Clouds 24 1006 64 10000 3.6 270 11:18 11.06.2020
1531 Clouds 23 1007 73 10000 4.1 270 10:42 11.06.2020
1532 Rain 22 1007 77 10000 4.6 250 10:20 11.06.2020
1533 Rain 22 1007 88 10000 6.2 290 09:45 11.06.2020
1534 Rain 21 1007 88 10000 6.2 290 09:26 11.06.2020
1535 Clouds 20 1008 82 10000 4.6 270 08:55 11.06.2020
1536 Rain 20 1007 72 10000 5.7 240 08:37 11.06.2020
1537 Clouds 20 1007 64 10000 2.1 350 08:18 11.06.2020
1538 Clouds 19 1007 68 10000 3.6 310 07:42 11.06.2020
1539 Clouds 20 1007 64 10000 4.1 280 07:23 11.06.2020
1540 Clouds 18 1007 77 10000 4.1 260 06:35 11.06.2020
1541 Clouds 17 1007 88 10000 1.5 300 05:57 11.06.2020
1542 Clouds 16 1007 93 10000 2.6 270 04:41 11.06.2020
1543 Clouds 16 1007 93 10000 2.07 329 03:25 11.06.2020
1544 Clouds 17 1008 88 10000 2.07 329 02:46 11.06.2020
1545 Clouds 18 1008 82 10000 0.5 0 01:56 11.06.2020
1546 Clouds 18 1008 77 10000 0.5 0 01:35 11.06.2020
1547 Clouds 21 1008 68 10000 3.1 350 00:57 11.06.2020
1548 Clouds 21 1008 68 10000 3.1 350 00:38 11.06.2020
1549 Clear 20 1008 72 10000 1 0 00:19 11.06.2020
1550 Clear 18 1008 82 10000 1.5 90 23:40 10.06.2020
1551 Clear 19 1008 77 10000 1.5 270 23:21 10.06.2020
1552 Clouds 20 1008 72 10000 1.5 290 22:41 10.06.2020
1553 Clouds 20 1008 72 10000 2.6 360 22:23 10.06.2020
1554 Clouds 20 1008 72 10000 2.6 360 21:59 10.06.2020
1555 Clouds 20 1008 72 10000 1.5 360 21:41 10.06.2020
1556 Clouds 20 1008 72 10000 2.1 340 21:19 10.06.2020
1557 Clouds 20 1008 72 10000 2.1 340 20:59 10.06.2020
1558 Rain 21 1008 64 10000 1.5 0 20:40 10.06.2020
1559 Clouds 22 1008 64 10000 0.6 134 20:22 10.06.2020
1560 Clouds 22 1008 64 10000 0.6 134 19:59 10.06.2020
1561 Clouds 22 1009 56 10000 1.5 150 19:38 10.06.2020
1562 Clouds 23 1009 56 10000 1 0 19:18 10.06.2020
1563 Clouds 23 1009 56 10000 4.6 120 18:42 10.06.2020
1564 Clouds 23 1009 60 10000 3.6 130 18:22 10.06.2020
1565 Clouds 24 1009 60 10000 3.6 130 17:59 10.06.2020
1566 Clouds 24 1009 57 10000 4.6 130 17:41 10.06.2020
1567 Clouds 25 1009 57 10000 6.7 120 17:20 10.06.2020
1568 Clouds 25 1009 57 10000 6.7 120 16:59 10.06.2020
1569 Clear 25 1008 53 10000 5.7 130 16:40 10.06.2020
1570 Clear 25 1008 50 10000 6.2 120 16:20 10.06.2020
1571 Clear 25 1008 50 10000 6.2 120 16:20 10.06.2020
1572 Clear 26 1008 50 10000 6.2 120 15:57 10.06.2020
1573 Clear 26 1008 50 10000 7.7 110 15:37 10.06.2020
1574 Clear 26 1008 44 10000 7.2 120 15:18 10.06.2020
1575 Clouds 26 1008 47 10000 7.2 110 14:40 10.06.2020
1576 Clouds 28 1008 42 10000 4.1 120 14:21 10.06.2020
1577 Clouds 28 1008 42 10000 4.1 120 13:56 10.06.2020
1578 Clouds 28 1009 45 10000 3.1 130 13:38 10.06.2020
1579 Clouds 27 1010 47 10000 6.2 120 13:19 10.06.2020
1580 Clouds 28 1009 44 10000 5.7 110 12:40 10.06.2020
1581 Clouds 27 1009 54 10000 6.7 120 12:18 10.06.2020
1582 Clouds 26 1009 61 10000 6.2 120 11:44 10.06.2020
1583 Clouds 26 1010 64 10000 6.2 130 11:20 10.06.2020
1584 Clouds 26 1010 64 10000 6.2 130 10:58 10.06.2020
1585 Clouds 27 1009 57 10000 3.1 140 10:40 10.06.2020
1586 Clouds 27 1009 57 10000 3.1 140 10:40 10.06.2020
1587 Clouds 28 1009 45 10000 2.6 180 10:21 10.06.2020
1588 Clouds 28 1009 51 10000 3.1 120 09:44 10.06.2020
1589 Clouds 27 1009 51 10000 3.1 120 09:25 10.06.2020
1590 Clear 25 1009 47 10000 2.1 170 08:59 10.06.2020
1591 Clear 24 1009 50 10000 1 0 08:41 10.06.2020
1592 Clear 24 1009 53 10000 0.5 0 08:22 10.06.2020
1593 Clear 22 1009 73 10000 1 0 07:42 10.06.2020
1594 Rain 20 1009 77 10000 1.5 290 07:23 10.06.2020
1595 Rain 19 1009 82 10000 1.58 133 06:52 10.06.2020
1596 Rain 19 1009 82 10000 1.58 133 06:33 10.06.2020
1597 Clouds 18 1009 88 10000 2.1 340 05:59 10.06.2020
1598 Clouds 17 1009 82 9000 1.12 115 05:30 10.06.2020
1599 Clear 18 1009 82 10000 0.5 0 04:48 10.06.2020
1600 Clear 18 1009 82 10000 0.5 0 04:28 10.06.2020
1601 Clouds 19 1009 82 10000 1 0 02:24 10.06.2020
1602 Clouds 19 1009 93 10000 2.1 120 01:40 10.06.2020
1603 Rain 20 1009 94 10000 3.6 120 00:41 10.06.2020
1604 Rain 20 1009 77 10000 2.6 110 00:23 10.06.2020
1605 Rain 20 1009 77 10000 2.6 110 23:58 09.06.2020
1606 Rain 20 1010 68 10000 1 0 23:39 09.06.2020
1607 Rain 20 1010 68 10000 1 0 23:39 09.06.2020
1608 Clouds 20 1010 68 10000 2.1 60 23:21 09.06.2020
1609 Clouds 20 1010 68 10000 2.1 60 22:56 09.06.2020
1610 Clouds 20 1010 68 10000 2.6 60 22:38 09.06.2020
1611 Clouds 20 1010 68 10000 2.1 60 22:20 09.06.2020
1612 Clouds 20 1010 68 10000 2.1 60 21:56 09.06.2020
1613 Clouds 21 1010 68 10000 2.1 110 21:38 09.06.2020
1614 Clouds 21 1010 68 10000 2.1 110 21:38 09.06.2020
1615 Clouds 21 1009 64 10000 2.1 110 21:20 09.06.2020
1616 Clouds 21 1009 64 10000 2.1 110 21:20 09.06.2020
1617 Rain 21 1009 64 10000 2.1 110 20:57 09.06.2020
1618 Rain 21 1009 64 10000 3.6 90 20:38 09.06.2020
1619 Clear 22 1009 68 10000 3.1 90 20:19 09.06.2020
1620 Clear 22 1009 68 10000 3.1 90 19:57 09.06.2020
1621 Clear 22 1009 64 10000 3.6 100 19:38 09.06.2020
1622 Clear 23 1009 64 10000 4.1 110 19:20 09.06.2020
1623 Clear 24 1008 64 10000 4.6 110 18:45 09.06.2020
1624 Clear 24 1008 64 10000 4.6 110 18:26 09.06.2020
1625 Clear 24 1009 64 10000 4.6 110 17:59 09.06.2020
1626 Clear 25 1008 57 10000 6.2 100 17:40 09.06.2020
1627 Clear 25 1008 57 10000 5.1 120 17:22 09.06.2020
1628 Clear 26 1008 57 10000 5.1 120 16:58 09.06.2020
1629 Clear 26 1008 61 10000 6.2 110 16:39 09.06.2020
1630 Clear 25 1009 65 10000 6.7 110 16:20 09.06.2020
1631 Clear 26 1009 65 10000 7.2 110 15:41 09.06.2020
1632 Clear 26 1009 65 10000 7.2 110 15:23 09.06.2020
1633 Clear 27 1009 61 10000 7.2 110 14:59 09.06.2020
1634 Clear 28 1009 48 10000 7.7 100 14:39 09.06.2020
1635 Clouds 28 1009 45 10000 6.2 110 14:19 09.06.2020
1636 Clouds 29 1009 45 10000 6.2 110 13:55 09.06.2020
1637 Clouds 29 1009 45 10000 6.7 120 13:37 09.06.2020
1638 Rain 29 1009 42 10000 5.1 120 13:19 09.06.2020
1639 Rain 28 1009 45 10000 5.1 120 12:42 09.06.2020
1640 Rain 28 1009 51 10000 6.2 120 12:20 09.06.2020
1641 Rain 27 1009 51 10000 6.2 120 11:58 09.06.2020
1642 Rain 28 1009 51 10000 4.6 120 11:39 09.06.2020
1643 Rain 27 1009 51 10000 3.6 130 11:20 09.06.2020
1644 Rain 28 1009 51 10000 3.6 130 10:55 09.06.2020
1645 Rain 28 1009 54 10000 2.6 130 10:36 09.06.2020
1646 Rain 27 1009 61 10000 2.6 130 10:18 09.06.2020
1647 Rain 27 1009 61 10000 2.6 130 10:18 09.06.2020
1648 Rain 26 1009 57 10000 1.5 0 09:40 09.06.2020
1649 Clear 24 1009 60 10000 1 0 09:19 09.06.2020
1650 Clear 23 1009 73 10000 0.5 0 08:40 09.06.2020
1651 Clouds 22 1009 83 7000 0.54 159 08:21 09.06.2020
1652 Clouds 21 1009 83 7000 0.54 159 07:59 09.06.2020
1653 Mist 20 1009 88 5000 0.54 159 07:36 09.06.2020
1654 Mist 19 1008 100 4500 0.57 177 07:18 09.06.2020
1655 Mist 18 1008 100 3500 0.57 177 06:51 09.06.2020
1656 Mist 17 1008 100 4700 0.28 17 06:27 09.06.2020
1657 Clouds 16 1008 100 7000 0.49 355 04:35 09.06.2020
1658 Clouds 17 1008 100 9000 0.2 276 02:50 09.06.2020
1659 Clouds 17 1008 100 7000 1.5 280 01:39 09.06.2020
1660 Clouds 18 1008 100 7000 0.5 320 01:19 09.06.2020
1661 Mist 18 1008 100 5000 0.69 231 00:44 09.06.2020
1662 Clouds 18 1008 100 6000 1.06 213 00:20 09.06.2020
1663 Clouds 18 1008 100 6000 1 160 23:43 08.06.2020
1664 Clouds 18 1008 100 6000 1.5 140 23:22 08.06.2020
1665 Clouds 19 1008 100 6000 1.5 140 22:59 08.06.2020
1666 Clouds 19 1008 100 8000 0.99 183 22:39 08.06.2020
1667 Clouds 19 1008 100 8000 1.5 120 22:20 08.06.2020
1668 Clouds 19 1008 100 9000 2.1 140 21:56 08.06.2020
1669 Clouds 19 1008 100 9000 2.1 140 21:38 08.06.2020
1670 Clouds 19 1008 93 10000 2.1 130 21:19 08.06.2020
1671 Clouds 20 1008 93 10000 2.1 130 20:55 08.06.2020
1672 Clouds 20 1008 93 9000 2.1 120 20:37 08.06.2020
1673 Clouds 20 1008 93 10000 3.1 130 20:18 08.06.2020
1674 Clouds 21 1007 82 10000 3.6 120 19:43 08.06.2020
1675 Clouds 22 1007 77 8000 4.1 120 19:22 08.06.2020
1676 Clouds 23 1007 68 10000 4.1 110 18:44 08.06.2020
1677 Clouds 24 1007 64 10000 4.1 120 18:23 08.06.2020
1678 Clouds 24 1007 64 10000 4.1 120 17:58 08.06.2020
1679 Clouds 24 1007 64 10000 5.1 100 17:40 08.06.2020
1680 Clouds 25 1007 69 10000 5.1 100 17:22 08.06.2020
1681 Clouds 25 1007 69 10000 5.1 100 16:59 08.06.2020
1682 Clouds 23 1007 69 10000 5.7 100 16:41 08.06.2020
1683 Clouds 24 1007 64 10000 6.7 100 16:22 08.06.2020
1684 Clouds 24 1007 69 10000 7.2 110 15:44 08.06.2020
1685 Clouds 24 1008 61 10000 6.2 120 15:22 08.06.2020
1686 Clouds 24 1008 61 10000 6.2 120 14:59 08.06.2020
1687 Clouds 24 1008 61 10000 6.2 110 14:40 08.06.2020
1688 Clouds 25 1008 61 10000 6.2 120 14:20 08.06.2020
1689 Clouds 26 1008 61 10000 5.7 130 13:44 08.06.2020
1690 Clouds 23 1008 61 10000 5.7 120 13:24 08.06.2020
1691 Clouds 25 1008 69 9000 5.7 120 12:44 08.06.2020
1692 Clear 22 1008 69 10000 5.7 130 12:21 08.06.2020
1693 Clear 22 1008 69 10000 5.7 130 11:59 08.06.2020
1694 Clear 23 1008 61 10000 4.6 130 11:41 08.06.2020
1695 Clear 22 1008 64 10000 5.1 140 11:22 08.06.2020
1696 Clear 22 1008 64 10000 5.1 140 10:58 08.06.2020
1697 Clear 23 1008 50 10000 3.6 240 10:38 08.06.2020
1698 Clear 25 1008 57 10000 3.6 220 10:20 08.06.2020
1699 Clear 25 1008 57 10000 3.6 220 09:58 08.06.2020
1700 Clear 23 1008 60 10000 2.6 230 09:39 08.06.2020
1701 Clear 21 1008 77 7000 2.1 240 09:21 08.06.2020
1702 Clear 21 1008 88 4700 2.1 250 08:46 08.06.2020
1703 Mist 20 1008 100 4400 2.1 270 08:22 08.06.2020
1704 Mist 19 1008 100 2200 1.5 280 07:46 08.06.2020
1705 Fog 18 1007 100 300 1.5 300 07:22 08.06.2020
1706 Fog 17 1007 100 250 2.1 300 06:49 08.06.2020
1707 Fog 17 1007 100 250 2.1 300 06:28 08.06.2020
1708 Mist 16 1007 100 1400 1 0 05:46 08.06.2020
1709 Clouds 16 1007 100 7000 0.43 280 04:29 08.06.2020
1710 Clouds 17 1007 100 9000 0.28 117 02:32 08.06.2020
1711 Clouds 17 1007 93 10000 1.5 120 01:45 08.06.2020
1712 Clouds 17 1007 93 10000 1.5 120 01:26 08.06.2020
1713 Clouds 17 1008 100 10000 4.6 100 00:30 08.06.2020
1714 Clouds 17 1008 100 10000 4.6 110 23:41 07.06.2020
1715 Clouds 17 1008 100 10000 4.1 110 23:20 07.06.2020
1716 Clouds 17 1008 100 10000 4.1 110 22:59 07.06.2020
1717 Clouds 17 1008 100 10000 3.6 110 22:39 07.06.2020
1718 Clouds 17 1008 93 10000 3.1 110 22:19 07.06.2020
1719 Clouds 17 1008 93 10000 3.1 110 21:58 07.06.2020
1720 Clouds 18 1007 93 10000 2.1 130 21:38 07.06.2020
1721 Clouds 18 1007 93 10000 1.5 120 21:19 07.06.2020
1722 Clouds 18 1007 93 10000 1.5 120 20:54 07.06.2020
1723 Clouds 18 1007 93 10000 2.1 140 20:36 07.06.2020
1724 Clouds 19 1007 88 10000 0.5 0 20:18 07.06.2020
1725 Clouds 19 1007 88 10000 0.5 0 19:54 07.06.2020
1726 Clouds 19 1007 88 10000 0.5 0 19:54 07.06.2020
1727 Clouds 19 1006 88 10000 3.6 120 19:36 07.06.2020
1728 Clouds 20 1006 88 10000 5.7 130 19:18 07.06.2020
1729 Clouds 21 1006 82 10000 5.7 130 18:40 07.06.2020
1730 Clouds 22 1006 73 10000 5.1 110 18:22 07.06.2020
1731 Clouds 23 1006 73 10000 5.1 110 17:59 07.06.2020
1732 Clouds 23 1006 77 10000 7.7 130 17:40 07.06.2020
1733 Clouds 23 1006 73 10000 6.7 130 17:21 07.06.2020
1734 Clouds 23 1006 73 10000 6.2 130 16:44 07.06.2020
1735 Clear 23 1006 69 10000 6.2 120 16:22 07.06.2020
1736 Clear 24 1006 68 10000 7.2 130 15:44 07.06.2020
1737 Clear 24 1006 68 10000 7.2 130 15:22 07.06.2020
1738 Clear 24 1006 64 10000 7.7 120 14:59 07.06.2020
1739 Clear 24 1006 64 10000 7.7 120 14:59 07.06.2020
1740 Clear 24 1006 64 10000 7.7 120 14:59 07.06.2020
1741 Clear 24 1006 64 10000 5.7 140 14:36 07.06.2020
1742 Clouds 24 1006 64 10000 6.2 120 14:18 07.06.2020
1743 Clouds 24 1007 64 10000 5.7 150 13:42 07.06.2020
1744 Clouds 24 1007 64 10000 5.7 150 13:42 07.06.2020
1745 Clouds 24 1007 64 10000 5.7 150 13:42 07.06.2020
1746 Clouds 24 1007 64 10000 5.7 150 13:42 07.06.2020
1747 Clouds 24 1007 64 10000 7.2 130 13:19 07.06.2020
1748 Clouds 24 1007 64 10000 7.2 130 12:43 07.06.2020
1749 Clouds 24 1007 61 10000 5.1 90 12:25 07.06.2020
1750 Clouds 25 1007 61 10000 5.1 90 11:55 07.06.2020
1751 Clouds 25 1007 61 10000 5.1 90 11:55 07.06.2020
1752 Clouds 24 1007 64 10000 4.6 160 11:37 07.06.2020
1753 Clouds 24 1007 64 10000 4.1 150 11:19 07.06.2020
1754 Clouds 24 1007 64 10000 4.1 150 10:54 07.06.2020
1755 Clouds 24 1007 69 10000 6.2 140 10:36 07.06.2020
1756 Clouds 24 1007 64 10000 3.1 60 10:18 07.06.2020
1757 Clouds 23 1007 68 10000 3.1 330 09:41 07.06.2020
1758 Clouds 21 1008 64 10000 1.5 20 09:21 07.06.2020
1759 Clouds 21 1008 64 10000 1.5 20 08:59 07.06.2020
1760 Clouds 21 1008 73 10000 2.1 0 08:40 07.06.2020
1761 Clouds 20 1008 64 10000 1 0 08:22 07.06.2020
1762 Clouds 18 1008 77 10000 2.13 54 07:41 07.06.2020
1763 Clouds 17 1008 77 10000 1.56 27 06:56 07.06.2020
1764 Clouds 15 1008 93 10000 2.1 280 06:21 07.06.2020
1765 Clouds 16 1008 87 10000 2.3 36 04:22 07.06.2020
1766 Clouds 16 1008 93 10000 1 280 03:50 07.06.2020
1767 Clouds 16 1009 87 10000 1.5 350 02:19 07.06.2020
1768 Clouds 17 1009 87 10000 2.1 210 01:26 07.06.2020
1769 Clouds 16 1009 82 10000 1.5 0 00:59 07.06.2020
1770 Clouds 17 1009 82 10000 0.5 0 00:39 07.06.2020
1771 Clouds 17 1010 88 10000 0.5 30 00:18 07.06.2020
1772 Rain 17 1010 88 10000 1.5 20 23:38 06.06.2020
1773 Rain 17 1010 88 10000 1.5 20 23:38 06.06.2020
1774 Clouds 18 1010 77 10000 2.04 66 23:20 06.06.2020
1775 Clouds 18 1010 77 10000 2.04 66 22:57 06.06.2020
1776 Clouds 18 1010 72 10000 2.04 66 22:39 06.06.2020
1777 Clouds 18 1010 68 10000 2.11 77 22:20 06.06.2020
1778 Clouds 19 1010 68 10000 2.11 77 21:56 06.06.2020
1779 Clouds 19 1010 60 10000 0.5 0 21:37 06.06.2020
1780 Clouds 19 1010 60 10000 3.1 100 21:19 06.06.2020
1781 Clouds 20 1009 56 10000 2.6 150 20:40 06.06.2020
1782 Rain 20 1009 68 10000 2.6 120 20:20 06.06.2020
1783 Rain 20 1009 68 10000 2.6 120 19:58 06.06.2020
1784 Clouds 21 1009 60 10000 3.1 130 19:40 06.06.2020
1785 Clouds 21 1009 56 10000 3.6 130 19:21 06.06.2020
1786 Clouds 21 1009 56 10000 3.6 130 18:55 06.06.2020
1787 Clouds 23 1009 56 10000 4.6 120 18:36 06.06.2020
1788 Clouds 24 1009 49 10000 5.7 120 18:18 06.06.2020
1789 Clouds 25 1009 41 10000 5.1 120 17:43 06.06.2020
1790 Clouds 26 1009 44 10000 5.7 110 17:20 06.06.2020
1791 Clouds 26 1009 44 10000 5.7 110 16:56 06.06.2020
1792 Clouds 27 1009 36 10000 4.6 110 16:38 06.06.2020
1793 Clouds 27 1010 41 10000 4.6 120 16:19 06.06.2020
1794 Clouds 27 1010 39 10000 5.1 130 15:44 06.06.2020
1795 Clouds 28 1010 36 10000 4.6 130 15:20 06.06.2020
1796 Clouds 28 1010 36 10000 4.6 130 15:20 06.06.2020
1797 Clouds 27 1010 36 10000 4.6 130 14:57 06.06.2020
1798 Clouds 27 1010 36 10000 5.1 120 14:37 06.06.2020
1799 Clouds 27 1011 41 10000 5.7 120 14:19 06.06.2020
1800 Clouds 28 1011 36 10000 5.7 120 13:46 06.06.2020
1801 Clouds 28 1010 34 10000 5.1 120 13:19 06.06.2020
1802 Clouds 28 1010 34 10000 5.1 120 12:56 06.06.2020
1803 Clouds 26 1011 34 10000 4.6 120 12:38 06.06.2020
1804 Clouds 25 1011 34 10000 3.6 180 12:18 06.06.2020
1805 Clouds 25 1011 36 10000 4.6 120 11:40 06.06.2020
1806 Clouds 24 1011 41 10000 4.1 140 11:21 06.06.2020
1807 Clouds 24 1011 41 10000 4.1 140 11:21 06.06.2020
1808 Clouds 25 1011 41 10000 4.1 140 10:59 06.06.2020
1809 Clouds 25 1011 36 10000 4.1 180 10:40 06.06.2020
1810 Clouds 24 1011 38 10000 4.1 180 10:22 06.06.2020
1811 Clouds 23 1011 38 10000 4.1 180 09:59 06.06.2020
1812 Clouds 24 1011 41 10000 4.6 170 09:40 06.06.2020
1813 Clouds 22 1011 41 10000 4.6 170 09:21 06.06.2020
1814 Clouds 21 1011 46 10000 4.1 160 08:45 06.06.2020
1815 Clouds 21 1011 46 10000 4.1 160 08:24 06.06.2020
1816 Clouds 19 1010 56 10000 3.1 120 07:49 06.06.2020
1817 Clouds 19 1010 56 10000 3.1 120 07:23 06.06.2020
1818 Clouds 18 1010 63 10000 2.6 130 06:52 06.06.2020
1819 Clouds 18 1010 63 10000 2.6 130 06:34 06.06.2020
1820 Clouds 16 1010 67 10000 4.1 110 05:59 06.06.2020
1821 Clouds 14 1010 71 10000 3.1 90 05:31 06.06.2020
1822 Clouds 15 1010 59 10000 2.1 130 04:47 06.06.2020
1823 Clear 16 1010 55 10000 2.6 130 03:21 06.06.2020
1824 Clouds 16 1010 55 10000 0.5 0 01:58 06.06.2020
1825 Clouds 17 1010 48 10000 2.1 140 01:20 06.06.2020
1826 Clouds 17 1010 51 10000 3.1 110 00:46 06.06.2020
1827 Clouds 17 1010 51 10000 3.1 110 00:27 06.06.2020
1828 Clouds 18 1010 48 10000 3.1 100 23:58 05.06.2020
1829 Clouds 18 1010 52 10000 2.6 120 23:39 05.06.2020
1830 Clouds 19 1010 55 10000 3.1 120 23:18 05.06.2020
1831 Clouds 19 1010 55 10000 3.1 120 22:55 05.06.2020
1832 Clouds 20 1010 56 10000 2.6 130 22:37 05.06.2020
1833 Clouds 20 1010 60 10000 4.1 120 22:18 05.06.2020
1834 Clouds 20 1010 60 10000 4.1 120 22:18 05.06.2020
1835 Clouds 22 1010 53 10000 4.1 140 21:41 05.06.2020
1836 Clouds 21 1010 53 10000 4.1 140 21:22 05.06.2020
1837 Clouds 21 1009 56 10000 3.1 180 20:57 05.06.2020
1838 Clouds 21 1009 60 10000 3.6 110 20:38 05.06.2020
1839 Clouds 22 1009 53 10000 3.6 130 20:20 05.06.2020
1840 Clouds 23 1009 56 10000 4.1 130 19:42 05.06.2020
1841 Clouds 24 1009 50 10000 4.6 150 19:23 05.06.2020
1842 Clouds 24 1009 50 10000 4.6 150 18:56 05.06.2020
1843 Clouds 25 1008 53 10000 5.1 150 18:38 05.06.2020
1844 Clouds 25 1008 53 10000 5.7 140 18:19 05.06.2020
1845 Clouds 25 1008 53 10000 5.7 140 17:57 05.06.2020
1846 Clouds 26 1008 47 10000 6.2 140 17:38 05.06.2020
1847 Clouds 26 1009 50 10000 6.2 140 17:18 05.06.2020
1848 Clouds 27 1009 47 10000 5.1 160 16:38 05.06.2020
1849 Clouds 26 1009 45 10000 6.7 180 16:20 05.06.2020
1850 Clouds 26 1009 45 10000 6.7 180 15:43 05.06.2020
1851 Clear 26 1009 45 10000 6.7 180 15:22 05.06.2020
1852 Clouds 26 1009 47 10000 6.7 180 14:58 05.06.2020
1853 Clouds 26 1009 45 10000 6.2 200 14:40 05.06.2020
1854 Clouds 26 1009 42 10000 7.2 200 14:22 05.06.2020
1855 Clouds 26 1009 42 10000 7.2 200 13:57 05.06.2020
1856 Clouds 26 1009 48 10000 4.6 150 13:38 05.06.2020
1857 Clouds 26 1009 47 10000 5.7 180 13:19 05.06.2020
1858 Clouds 25 1009 47 10000 4.6 180 12:41 05.06.2020
1859 Clouds 24 1009 44 10000 6.2 210 12:19 05.06.2020
1860 Clouds 24 1009 44 10000 6.2 210 11:55 05.06.2020
1861 Clouds 23 1010 44 10000 5.1 230 11:37 05.06.2020
1862 Clouds 23 1010 44 10000 4.1 210 11:18 05.06.2020
1863 Clouds 22 1010 50 10000 3.6 200 10:42 05.06.2020
1864 Clouds 23 1010 50 10000 3.1 220 10:21 05.06.2020
1865 Clouds 23 1010 50 10000 3.1 220 09:57 05.06.2020
1866 Clouds 22 1010 56 10000 2.6 230 09:39 05.06.2020
1867 Clouds 20 1010 60 10000 0.5 0 09:20 05.06.2020
1868 Clouds 20 1010 60 10000 0.5 0 08:58 05.06.2020
1869 Clouds 20 1010 60 10000 0.5 0 08:40 05.06.2020
1870 Clouds 19 1010 68 10000 1.5 310 08:18 05.06.2020
1871 Clouds 19 1010 68 10000 4.57 196 07:52 05.06.2020
1872 Clouds 18 1010 68 10000 4.57 196 07:32 05.06.2020
1873 Clear 18 1010 87 10000 3.69 196 06:49 05.06.2020
1874 Clouds 14 1010 93 10000 1.5 350 05:23 05.06.2020
1875 Clear 14 1010 93 10000 2.87 198 04:28 05.06.2020
1876 Clear 15 1010 93 10000 0.5 0 03:30 05.06.2020
1877 Clear 15 1010 87 10000 2.1 10 02:30 05.06.2020
1878 Clear 15 1010 82 10000 2.6 360 01:58 05.06.2020
1879 Clear 15 1010 82 10000 2.1 10 01:31 05.06.2020
1880 Clear 15 1010 82 10000 1.5 360 00:44 05.06.2020
1881 Clear 15 1010 82 10000 1.5 70 00:22 05.06.2020
1882 Clear 16 1010 77 10000 1.5 30 23:48 04.06.2020
1883 Clear 16 1010 77 10000 1.5 30 23:48 04.06.2020
1884 Clear 16 1010 77 10000 1.5 30 23:29 04.06.2020
1885 Clear 16 1010 82 10000 1 20 22:57 04.06.2020
1886 Clear 16 1010 72 10000 0.5 110 22:39 04.06.2020
1887 Clear 17 1010 77 10000 1.5 60 22:21 04.06.2020
1888 Clear 17 1010 77 10000 1.5 60 21:58 04.06.2020
1889 Clear 17 1009 77 10000 2.1 40 21:38 04.06.2020
1890 Clear 18 1009 72 10000 2.6 40 21:20 04.06.2020
1891 Clear 18 1009 72 10000 2.6 40 20:55 04.06.2020
1892 Clear 19 1009 68 10000 3.1 80 20:37 04.06.2020
1893 Clouds 19 1009 68 10000 3.1 80 20:19 04.06.2020
1894 Clouds 20 1009 68 10000 3.1 80 19:41 04.06.2020
1895 Clouds 22 1008 64 10000 4.6 90 19:21 04.06.2020
1896 Clouds 22 1008 64 10000 4.6 90 18:57 04.06.2020
1897 Clouds 23 1008 56 10000 5.1 110 18:38 04.06.2020
1898 Clouds 23 1008 56 10000 5.1 100 18:20 04.06.2020
1899 Clouds 24 1008 56 10000 4.6 90 17:43 04.06.2020
1900 Clouds 23 1008 60 10000 5.1 90 17:22 04.06.2020
1901 Clouds 23 1008 60 10000 5.1 90 16:57 04.06.2020
1902 Clouds 24 1008 60 10000 6.2 110 16:39 04.06.2020
1903 Clouds 23 1009 56 10000 6.2 90 16:19 04.06.2020
1904 Clouds 22 1009 64 10000 5.7 90 15:43 04.06.2020
1905 Clouds 22 1009 64 10000 5.7 90 15:43 04.06.2020
1906 Clouds 22 1009 64 10000 5.7 90 15:24 04.06.2020
1907 Clouds 22 1009 56 10000 6.7 120 14:41 04.06.2020
1908 Clouds 22 1009 60 10000 6.7 110 14:22 04.06.2020
1909 Clouds 22 1009 60 10000 6.7 110 13:57 04.06.2020
1910 Clouds 22 1009 56 10000 6.7 110 13:38 04.06.2020
1911 Clouds 22 1009 56 10000 5.7 120 13:20 04.06.2020
1912 Clouds 22 1009 56 10000 5.7 120 12:56 04.06.2020
1913 Clouds 22 1009 56 10000 3.1 130 12:38 04.06.2020
1914 Clouds 20 1009 56 10000 4.1 130 12:20 04.06.2020
1915 Clouds 21 1009 56 10000 4.1 130 11:41 04.06.2020
1916 Clouds 21 1009 56 10000 4.1 130 11:41 04.06.2020
1917 Clouds 19 1009 56 10000 2.6 150 11:21 04.06.2020
1918 Clouds 19 1009 56 10000 2.6 150 10:59 04.06.2020
1919 Clouds 20 1009 56 10000 3.1 170 10:39 04.06.2020
1920 Clear 20 1009 59 10000 1 0 10:20 04.06.2020
1921 Clear 19 1009 59 10000 2.1 270 09:46 04.06.2020
1922 Clear 18 1009 59 10000 2.1 270 09:28 04.06.2020
1923 Clear 16 1009 63 10000 0.5 0 08:51 04.06.2020
1924 Clear 17 1009 63 10000 0.5 0 08:31 04.06.2020
1925 Clear 16 1009 72 10000 0.5 0 07:59 04.06.2020
1926 Clear 15 1008 72 10000 2.01 230 07:31 04.06.2020
1927 Clouds 13 1008 93 10000 1.78 247 06:45 04.06.2020
1928 Clouds 11 1008 100 10000 1.5 340 06:26 04.06.2020
1929 Clouds 10 1008 100 10000 1.89 262 05:51 04.06.2020
1930 Clouds 10 1008 100 10000 1.89 262 05:31 04.06.2020
1931 Clear 10 1008 100 10000 2.06 261 03:31 04.06.2020
1932 Clouds 11 1008 93 10000 1.5 40 01:59 04.06.2020
1933 Clouds 11 1008 93 10000 1.5 10 01:20 04.06.2020
1934 Clouds 11 1009 87 10000 1 0 00:51 04.06.2020
1935 Clouds 12 1009 87 10000 2.1 20 23:56 03.06.2020
1936 Clouds 12 1009 87 10000 2.1 360 23:36 03.06.2020
1937 Rain 12 1009 82 10000 1.5 30 23:18 03.06.2020
1938 Rain 12 1009 82 10000 1.5 80 22:40 03.06.2020
1939 Clouds 13 1009 71 10000 1.5 120 22:19 03.06.2020
1940 Clouds 13 1009 71 10000 1.5 120 21:58 03.06.2020
1941 Clouds 13 1009 71 10000 1.5 120 21:58 03.06.2020
1942 Clouds 14 1009 63 10000 1 0 21:40 03.06.2020
1943 Clouds 14 1008 63 10000 1.5 150 21:21 03.06.2020
1944 Clouds 14 1008 63 10000 1.5 150 21:21 03.06.2020
1945 Clouds 15 1008 63 10000 1.5 150 20:57 03.06.2020
1946 Clouds 15 1008 67 10000 1.5 130 20:38 03.06.2020
1947 Clouds 15 1008 72 10000 2.6 120 20:20 03.06.2020
1948 Clouds 16 1008 72 10000 2.6 120 19:56 03.06.2020
1949 Clouds 16 1008 67 10000 3.6 110 19:37 03.06.2020
1950 Clouds 17 1008 59 10000 3.6 100 19:19 03.06.2020
1951 Clouds 17 1007 67 10000 3.1 120 18:54 03.06.2020
1952 Clouds 17 1007 67 10000 3.1 120 18:36 03.06.2020
1953 Clouds 18 1007 59 10000 4.1 130 18:18 03.06.2020
1954 Clouds 18 1007 55 10000 5.1 150 17:41 03.06.2020
1955 Clouds 19 1007 52 10000 4.6 130 17:21 03.06.2020
1956 Clouds 19 1007 52 10000 4.6 130 16:55 03.06.2020
1957 Clouds 19 1007 52 10000 5.1 130 16:37 03.06.2020
1958 Clouds 19 1007 52 10000 5.1 130 16:37 03.06.2020
1959 Clouds 19 1007 52 10000 5.1 120 16:18 03.06.2020
1960 Clouds 19 1007 55 10000 5.1 120 15:41 03.06.2020
1961 Clouds 19 1007 55 10000 6.7 110 15:21 03.06.2020
1962 Clouds 19 1007 55 10000 6.7 110 14:57 03.06.2020
1963 Clouds 20 1008 40 10000 1.5 70 14:37 03.06.2020
1964 Clouds 20 1007 37 10000 3.1 270 14:19 03.06.2020
1965 Clouds 19 1008 37 10000 3.1 260 13:38 03.06.2020
1966 Clouds 19 1008 42 10000 4.1 290 13:19 03.06.2020
1967 Clouds 18 1008 40 10000 3.6 0 12:43 03.06.2020
1968 Clouds 18 1008 45 10000 3.1 290 12:22 03.06.2020
1969 Clouds 18 1008 45 10000 4.6 280 11:47 03.06.2020
1970 Clouds 18 1008 45 10000 4.6 280 11:27 03.06.2020
1971 -273 0 0 0 0 0 10:58 03.06.2020
1972 Clouds 18 1008 55 10000 4.1 280 10:39 03.06.2020
1973 Clouds 16 1008 63 10000 3.1 270 10:21 03.06.2020
1974 Clouds 16 1008 77 10000 4.1 290 09:44 03.06.2020
1975 Clouds 14 1008 82 10000 4.1 260 09:20 03.06.2020
1976 Clouds 13 1008 82 10000 4.1 260 08:56 03.06.2020
1977 Clouds 13 1008 76 10000 4.6 260 08:36 03.06.2020
1978 Clouds 12 1008 87 10000 5.1 270 08:18 03.06.2020
1979 Clouds 12 1008 87 10000 3.6 280 07:42 03.06.2020
1980 Clouds 11 1008 93 10000 1.5 0 07:20 03.06.2020
1981 Clear 10 1008 100 10000 1.5 280 06:50 03.06.2020
1982 Clear 10 1008 100 10000 1.5 280 06:30 03.06.2020
1983 Clear 10 1008 100 10000 2.1 330 05:46 03.06.2020
1984 Clouds 9 1007 100 10000 2.43 309 04:46 03.06.2020
1985 Clouds 10 1007 93 10000 1.5 310 03:50 03.06.2020
1986 Clouds 11 1008 93 10000 1 310 02:47 03.06.2020
1987 Clouds 11 1008 100 10000 2.1 270 01:51 03.06.2020
1988 Clouds 11 1008 93 10000 1 0 00:43 03.06.2020
1989 Clouds 11 1008 93 10000 1 0 00:24 03.06.2020
1990 Clouds 11 1008 100 10000 1.5 350 23:51 02.06.2020
1991 Clouds 11 1008 100 10000 1.5 350 23:28 02.06.2020
1992 Clouds 11 1008 100 10000 1.5 350 23:28 02.06.2020
1993 Clouds 11 1008 100 10000 1.5 350 23:28 02.06.2020
1994 Clouds 11 1008 100 10000 1.5 320 22:57 02.06.2020
1995 Clouds 12 1008 93 10000 0.5 0 22:38 02.06.2020
1996 Clouds 12 1008 100 10000 1 320 22:19 02.06.2020
1997 Clouds 12 1008 100 10000 1 320 21:56 02.06.2020
1998 Clouds 12 1008 93 10000 2.1 40 21:37 02.06.2020
1999 Clouds 13 1008 100 10000 1 300 21:19 02.06.2020
2000 Clouds 13 1008 100 10000 1 300 20:55 02.06.2020
2001 Clouds 13 1008 93 10000 1.5 270 20:36 02.06.2020
2002 Clouds 13 1008 93 10000 1.5 270 20:36 02.06.2020
2003 Clouds 13 1008 100 10000 1 280 20:18 02.06.2020
2004 Clouds 13 1007 93 10000 1 0 19:42 02.06.2020
2005 Clouds 13 1008 100 10000 1.5 140 19:23 02.06.2020
2006 Clouds 13 1008 100 10000 1.5 140 18:57 02.06.2020
2007 Clouds 13 1008 100 10000 2.1 150 18:38 02.06.2020
2008 Clouds 13 1008 100 10000 2.6 120 18:19 02.06.2020
2009 Rain 13 1007 100 10000 2.6 100 17:43 02.06.2020
2010 Rain 13 1007 100 10000 2.6 100 17:23 02.06.2020
2011 Rain 13 1008 93 9000 4.13 80 16:59 02.06.2020
2012 Rain 15 1008 93 7000 3.1 70 16:40 02.06.2020
2013 Rain 15 1008 77 10000 3.6 100 16:21 02.06.2020
2014 Rain 15 1008 77 10000 3.6 100 15:57 02.06.2020
2015 Rain 15 1008 82 10000 4.6 110 15:37 02.06.2020
2016 Rain 15 1008 87 10000 4.1 130 15:18 02.06.2020
2017 Clouds 15 1008 77 10000 4.6 110 14:42 02.06.2020
2018 Clouds 15 1008 77 10000 4.6 110 14:23 02.06.2020
2019 Rain 15 1008 82 10000 4.1 110 13:54 02.06.2020
2020 Rain 15 1008 87 10000 2.1 90 13:36 02.06.2020
2021 Rain 15 1008 87 10000 4.6 100 13:18 02.06.2020
2022 Rain 16 1008 82 10000 4.6 110 12:40 02.06.2020
2023 Rain 16 1008 82 10000 4.6 110 12:40 02.06.2020
2024 Rain 16 1008 82 8000 4.1 140 12:21 02.06.2020
2025 Rain 17 1008 82 8000 4.1 140 11:56 02.06.2020
2026 Clouds 17 1008 72 10000 4.6 130 11:38 02.06.2020
2027 Clouds 17 1008 67 10000 3.1 120 11:20 02.06.2020
2028 Clouds 17 1008 67 10000 2.6 150 10:47 02.06.2020
2029 Clouds 17 1008 67 10000 2.6 150 10:28 02.06.2020
2030 Clouds 17 1008 63 10000 1 0 09:58 02.06.2020
2031 Clouds 17 1009 63 10000 2.1 60 09:38 02.06.2020
2032 Clouds 16 1009 67 10000 1.5 80 09:20 02.06.2020
2033 Clouds 16 1009 67 10000 1.5 80 09:20 02.06.2020
2034 Clouds 16 1009 67 10000 2.1 0 08:48 02.06.2020
2035 Clouds 15 1008 77 10000 1.5 40 08:21 02.06.2020
2036 Clouds 15 1008 72 10000 5.1 10 07:52 02.06.2020
2037 Clouds 14 1009 76 10000 2.1 0 07:26 02.06.2020
2038 Clouds 14 1009 82 10000 2.6 320 06:45 02.06.2020
2039 Clouds 12 1009 93 10000 2.1 290 06:18 02.06.2020
2040 Clouds 14 1009 72 10000 2.1 290 05:21 02.06.2020
2041 Clouds 15 1008 67 10000 1.5 350 03:25 02.06.2020
2042 Clouds 15 1009 59 10000 0.5 0 02:26 02.06.2020
2043 Clouds 15 1009 63 10000 1 0 01:22 02.06.2020
2044 Clouds 15 1009 67 10000 3.1 250 00:25 02.06.2020
2045 Clouds 15 1010 67 10000 1 0 23:56 01.06.2020
2046 Clouds 15 1010 72 10000 1.5 250 23:37 01.06.2020
2047 Clouds 15 1010 67 10000 3.1 0 23:18 01.06.2020
2048 Clouds 16 1009 67 10000 5.7 10 22:41 01.06.2020
2049 Clouds 16 1009 63 10000 5.7 10 22:21 01.06.2020
2050 Clouds 16 1009 63 10000 5.7 10 21:58 01.06.2020
2051 Clouds 17 1010 52 10000 4.6 350 21:39 01.06.2020
2052 Clouds 17 1009 55 10000 4.1 360 21:19 01.06.2020
2053 Clouds 17 1009 55 10000 4.1 360 20:55 01.06.2020
2054 Clouds 17 1009 55 10000 4.1 360 20:55 01.06.2020
2055 Clouds 17 1009 52 10000 3.6 10 20:37 01.06.2020
2056 Clouds 18 1009 43 10000 3.6 330 20:18 01.06.2020
2057 Clouds 20 1009 43 10000 3.6 330 19:43 01.06.2020
2058 Clouds 20 1009 43 10000 3.6 290 19:21 01.06.2020
2059 Clouds 20 1009 43 10000 3.6 290 18:59 01.06.2020
2060 Clouds 21 1008 40 10000 4.6 300 18:39 01.06.2020
2061 Clouds 21 1008 40 10000 5.7 280 18:20 01.06.2020
2062 Clouds 21 1008 40 10000 5.7 280 17:56 01.06.2020
2063 Clouds 21 1008 35 10000 5.7 300 17:38 01.06.2020
2064 Clouds 21 1008 37 10000 5.1 290 17:18 01.06.2020
2065 Clouds 21 1008 40 10000 3.6 310 16:40 01.06.2020
2066 Clouds 21 1009 35 10000 4.6 300 16:22 01.06.2020
2067 Clouds 21 1009 35 10000 4.6 300 15:56 01.06.2020
2068 Clouds 22 1009 37 10000 4.6 300 15:37 01.06.2020
2069 Clouds 21 1009 40 10000 4.6 300 15:19 01.06.2020
2070 Clouds 21 1009 40 10000 4.6 300 14:57 01.06.2020
2071 Clouds 22 1009 37 10000 5.7 310 14:38 01.06.2020
2072 Clouds 21 1009 43 10000 5.1 310 14:20 01.06.2020
2073 Clouds 22 1009 43 10000 6.7 280 13:43 01.06.2020
2074 Clouds 22 1009 43 10000 6.7 280 13:22 01.06.2020
2075 Clouds 21 1009 43 10000 5.7 0 12:58 01.06.2020
2076 Clouds 21 1010 43 10000 5.7 240 12:40 01.06.2020
2077 Clouds 21 1010 43 10000 5.7 240 12:40 01.06.2020
2078 Clouds 21 1010 43 10000 5.7 240 12:21 01.06.2020
2079 Clouds 18 1010 48 10000 6.7 270 11:58 01.06.2020
2080 Clouds 18 1010 45 10000 6.7 260 11:37 01.06.2020
2081 Clouds 18 1010 45 10000 6.7 260 11:18 01.06.2020
2082 Clouds 17 1010 52 10000 6.2 260 10:55 01.06.2020
2083 Clouds 17 1010 55 10000 7.7 280 10:36 01.06.2020
2084 Clouds 17 1010 55 10000 7.7 280 10:18 01.06.2020
2085 Clouds 16 1011 59 10000 7.2 270 09:44 01.06.2020
2086 Clouds 15 1011 59 10000 7.2 270 09:25 01.06.2020
2087 Clouds 15 1011 67 10000 4.6 270 08:55 01.06.2020
2088 Clouds 13 1011 67 10000 5.7 280 08:33 01.06.2020
2089 Clouds 14 1011 67 10000 5.1 260 07:58 01.06.2020
2090 Clouds 14 1011 71 10000 4.1 260 07:39 01.06.2020
2091 Clouds 14 1011 71 10000 4.1 260 07:21 01.06.2020
2092 Clouds 13 1010 71 10000 5.1 270 06:49 01.06.2020
2093 Clouds 12 1010 76 10000 3.6 290 05:56 01.06.2020
2094 Clouds 12 1010 76 10000 3.1 280 04:56 01.06.2020
2095 Clouds 12 1010 82 10000 1.5 300 03:55 01.06.2020
2096 Clouds 12 1010 82 10000 2.1 300 03:35 01.06.2020
2097 Clouds 12 1010 100 6000 1 0 02:34 01.06.2020
2098 Clouds 11 1010 100 10000 2.1 330 01:35 01.06.2020
2099 Clouds 12 1010 100 10000 2.1 330 00:59 01.06.2020
2100 Clouds 12 1011 100 10000 2.1 280 00:40 01.06.2020
2101 Clouds 12 1011 100 10000 2.1 280 00:21 01.06.2020
2102 Clouds 12 1011 93 10000 1.5 350 23:58 31.05.2020
2103 Clouds 12 1011 93 9000 1.5 330 23:39 31.05.2020
2104 Clouds 12 1011 93 9000 1.5 330 23:21 31.05.2020
2105 Clouds 12 1011 100 7000 2.1 360 22:54 31.05.2020
2106 Clouds 12 1011 100 10000 2.1 360 22:36 31.05.2020
2107 Clouds 12 1011 100 10000 2.1 360 22:18 31.05.2020
2108 Clouds 13 1011 100 10000 2.1 240 21:42 31.05.2020
2109 Clouds 13 1011 100 10000 2.1 240 21:23 31.05.2020
2110 Clouds 14 1011 100 10000 1.5 340 20:58 31.05.2020
2111 Clouds 14 1011 100 10000 2.1 260 20:40 31.05.2020
2112 Clouds 14 1011 100 10000 2.1 260 20:21 31.05.2020
2113 Clouds 15 1010 93 10000 2.6 260 19:56 31.05.2020
2114 Rain 15 1011 100 10000 4.1 80 19:37 31.05.2020
2115 Rain 15 1011 100 10000 4.1 80 19:19 31.05.2020
2116 Rain 15 1011 93 10000 1.5 120 18:44 31.05.2020
2117 Thunderstorm 16 1011 82 10000 2.1 150 18:25 31.05.2020
2118 Thunderstorm 16 1012 82 10000 3.6 240 17:46 31.05.2020
2119 Thunderstorm 20 1011 60 10000 3.1 160 17:26 31.05.2020
2120 Clouds 20 1010 64 10000 3.1 140 17:00 31.05.2020
2121 Clouds 20 1010 68 10000 3.1 100 16:40 31.05.2020
2122 Clouds 20 1010 68 10000 3.1 100 16:21 31.05.2020
2123 Clouds 20 1010 63 10000 4.1 120 15:40 31.05.2020
2124 Clouds 20 1010 63 10000 4.1 120 15:40 31.05.2020
2125 Clouds 21 1010 63 10000 4.1 120 15:21 31.05.2020
2126 Clouds 21 1010 63 10000 4.1 120 15:21 31.05.2020
2127 Clouds 19 1010 59 10000 6.2 100 14:47 31.05.2020
2128 Clouds 21 1010 60 10000 5.7 100 14:23 31.05.2020
2129 Clouds 23 1010 41 10000 2.6 0 13:57 31.05.2020
2130 Clouds 23 1011 46 10000 4.1 260 13:38 31.05.2020
2131 Clouds 23 1011 46 10000 4.1 260 13:20 31.05.2020
2132 Clouds 22 1011 46 10000 5.1 250 12:58 31.05.2020
2133 Clouds 22 1011 46 10000 5.7 220 12:38 31.05.2020
2134 Clouds 22 1011 46 10000 5.7 220 12:19 31.05.2020
2135 Clouds 22 1012 46 10000 5.1 240 11:49 31.05.2020
2136 Clouds 21 1012 49 10000 4.1 280 11:24 31.05.2020
2137 Clear 21 1012 52 10000 4.1 250 10:57 31.05.2020
2138 Clear 21 1012 52 10000 5.7 270 10:39 31.05.2020
2139 Clear 21 1012 52 10000 5.7 270 10:20 31.05.2020
2140 Clear 20 1012 55 10000 5.7 270 09:42 31.05.2020
2141 Clear 20 1012 55 10000 5.7 270 09:42 31.05.2020
2142 Clouds 19 1012 55 10000 5.7 270 09:23 31.05.2020
2143 Clouds 18 1012 59 10000 5.7 280 08:58 31.05.2020
2144 Clouds 18 1013 59 10000 4.1 270 08:38 31.05.2020
2145 Clear 18 1013 59 10000 4.1 270 08:20 31.05.2020
2146 Clear 16 1013 77 10000 1.5 260 07:44 31.05.2020
2147 Clear 15 1013 82 10000 2.1 270 07:21 31.05.2020
2148 Clear 14 1013 87 10000 1.5 280 06:54 31.05.2020
2149 Clear 12 1012 93 8000 1.5 320 06:32 31.05.2020
2150 Clear 12 1012 93 8000 1.5 300 05:44 31.05.2020
2151 Clear 11 1012 100 10000 1 0 04:31 31.05.2020
2152 Clear 11 1012 93 10000 1.5 300 03:49 31.05.2020
2153 Clear 11 1013 100 10000 2.1 330 02:59 31.05.2020
2154 Clear 12 1013 87 10000 1.5 340 01:50 31.05.2020
2155 Clouds 12 1013 93 10000 2.1 340 01:27 31.05.2020
2156 Clouds 12 1013 93 10000 1.5 350 00:31 31.05.2020
2157 Clouds 12 1013 93 10000 1 0 23:57 30.05.2020
2158 Clouds 12 1013 93 10000 2.1 10 23:39 30.05.2020
2159 Clouds 12 1013 93 10000 2.1 10 23:19 30.05.2020
2160 Clouds 13 1013 87 10000 2.58 260 22:41 30.05.2020
2161 Clouds 13 1013 87 10000 2.58 260 22:41 30.05.2020
2162 Clear 13 1013 87 10000 2.92 254 22:23 30.05.2020
2163 Clear 14 1013 87 10000 1.5 20 21:56 30.05.2020
2164 Clouds 14 1013 82 10000 0.5 0 21:37 30.05.2020
2165 Clouds 14 1013 82 10000 0.5 0 21:19 30.05.2020
2166 Clouds 15 1013 77 10000 1.5 50 20:56 30.05.2020
2167 Clouds 15 1012 72 10000 2.1 110 20:38 30.05.2020
2168 Clouds 16 1012 72 10000 2.1 110 20:20 30.05.2020
2169 Clouds 17 1012 72 10000 4.1 80 19:42 30.05.2020
2170 Clouds 18 1012 72 10000 4.1 80 19:22 30.05.2020
2171 Clouds 18 1012 68 10000 4.1 110 18:46 30.05.2020
2172 Clouds 19 1012 63 10000 2.1 190 18:24 30.05.2020
2173 Clouds 20 1012 56 10000 2.1 230 17:55 30.05.2020
2174 Clouds 19 1012 63 10000 1.5 160 17:37 30.05.2020
2175 Clouds 19 1012 63 10000 1.5 160 17:18 30.05.2020
2176 Clouds 19 1012 63 10000 1.5 0 16:42 30.05.2020
2177 Clouds 19 1012 63 10000 1.5 0 16:22 30.05.2020
2178 Clouds 18 1012 77 10000 3.1 320 15:49 30.05.2020
2179 Rain 16 1013 82 8000 5.1 270 15:29 30.05.2020
2180 Rain 18 1012 52 10000 7.2 250 15:00 30.05.2020
2181 Clouds 19 1012 46 10000 7.2 250 14:41 30.05.2020
2182 Clouds 20 1012 46 10000 7.2 250 14:18 30.05.2020
2183 Clouds 21 1012 52 10000 7.7 250 13:41 30.05.2020
2184 Clouds 20 1012 52 10000 7.7 250 13:18 30.05.2020
2185 Clouds 20 1012 63 10000 6.2 240 12:39 30.05.2020
2186 Clouds 19 1012 63 10000 6.2 240 12:20 30.05.2020
2187 Clouds 20 1013 63 10000 5.7 240 11:54 30.05.2020
2188 Clouds 19 1013 67 10000 6.2 230 11:36 30.05.2020
2189 Clouds 19 1013 67 10000 6.2 230 11:18 30.05.2020
2190 Clouds 17 1013 72 10000 3.6 230 10:39 30.05.2020
2191 Clouds 17 1013 72 10000 3.6 230 10:20 30.05.2020
2192 Clouds 17 1013 72 10000 3.6 240 09:45 30.05.2020
2193 Clouds 16 1013 77 10000 3.6 240 09:27 30.05.2020
2194 Clouds 14 1013 82 10000 3.1 240 08:46 30.05.2020
2195 Clouds 14 1013 82 10000 3.6 260 08:27 30.05.2020
2196 Rain 13 1013 87 10000 3.1 260 07:43 30.05.2020
2197 Clouds 13 1013 87 10000 2.6 240 07:20 30.05.2020
2198 Clouds 12 1013 93 9000 2.6 290 06:31 30.05.2020
2199 Clouds 12 1013 93 6000 3.1 250 05:52 30.05.2020
2200 Clouds 12 1013 93 8000 1.5 280 05:20 30.05.2020
2201 Clouds 11 1013 100 10000 2.1 280 03:35 30.05.2020
2202 Clouds 12 1013 93 9000 1 0 02:29 30.05.2020
2203 Clouds 12 1013 93 10000 1.5 230 01:30 30.05.2020
2204 Clouds 12 1013 93 10000 1.5 310 00:36 30.05.2020
2205 Clouds 12 1013 93 10000 1.5 310 00:18 30.05.2020
2206 Clouds 12 1013 93 10000 2.6 240 23:41 29.05.2020
2207 Clouds 12 1013 93 10000 2.6 240 23:20 29.05.2020
2208 Clouds 12 1013 93 10000 2.1 280 22:56 29.05.2020
2209 Clouds 12 1013 100 10000 1.5 260 22:38 29.05.2020
2210 Clouds 12 1013 100 10000 1.5 260 22:18 29.05.2020
2211 Clouds 13 1014 93 10000 2.6 280 21:41 29.05.2020
2212 Clouds 13 1014 93 10000 2.6 280 21:41 29.05.2020
2213 Clouds 13 1014 93 10000 2.6 280 21:21 29.05.2020
2214 Clouds 13 1013 93 8000 2.6 280 20:58 29.05.2020
2215 Clouds 13 1013 100 8000 2.1 250 20:39 29.05.2020
2216 Clouds 13 1013 100 8000 2.1 250 20:19 29.05.2020
2217 Clouds 14 1013 87 10000 2.1 290 19:43 29.05.2020
2218 Clouds 14 1013 87 10000 2.1 290 19:25 29.05.2020
2219 Clouds 14 1013 87 10000 3.6 300 18:48 29.05.2020
2220 Rain 14 1013 87 10000 3.6 290 18:24 29.05.2020
2221 Rain 15 1013 87 10000 3.1 310 17:59 29.05.2020
2222 Rain 15 1013 93 9000 3.1 300 17:39 29.05.2020
2223 Rain 15 1013 93 9000 3.1 300 17:21 29.05.2020
2224 Rain 14 1013 100 9000 2.1 260 16:55 29.05.2020
2225 Rain 15 1014 87 10000 3.1 310 16:37 29.05.2020
2226 Rain 15 1014 87 10000 3.1 310 16:19 29.05.2020
2227 Thunderstorm 15 1014 87 9000 2.6 280 15:42 29.05.2020
2228 Thunderstorm 16 1014 77 10000 2.1 0 15:21 29.05.2020
2229 Clouds 16 1014 82 10000 3.1 180 14:58 29.05.2020
2230 Clouds 17 1013 77 10000 4.1 150 14:38 29.05.2020
2231 Clouds 16 1013 77 10000 4.1 150 14:19 29.05.2020
2232 Thunderstorm 16 1013 77 10000 2.6 140 13:43 29.05.2020
2233 Clouds 16 1013 67 10000 3.1 60 13:23 29.05.2020
2234 Thunderstorm 16 1013 77 10000 1.5 270 12:57 29.05.2020
2235 Thunderstorm 16 1013 72 10000 2.1 280 12:39 29.05.2020
2236 Thunderstorm 16 1013 72 10000 2.1 280 12:19 29.05.2020
2237 Rain 18 1013 72 10000 1 0 11:42 29.05.2020
2238 Thunderstorm 18 1014 51 7000 8.2 290 11:24 29.05.2020
2239 Rain 17 1014 59 10000 4.1 250 10:46 29.05.2020
2240 Clouds 17 1014 59 10000 4.1 270 10:25 29.05.2020
2241 Clouds 18 1014 59 10000 3.6 290 09:58 29.05.2020
2242 Clouds 18 1014 63 10000 5.1 250 09:40 29.05.2020
2243 Clouds 16 1014 63 10000 5.1 250 09:19 29.05.2020
2244 Rain 16 1014 67 10000 5.1 270 08:47 29.05.2020
2245 Clear 16 1014 67 10000 3.6 280 08:24 29.05.2020
2246 Clear 14 1014 72 10000 3.6 290 07:48 29.05.2020
2247 Clear 14 1014 76 10000 3.6 250 07:30 29.05.2020
2248 Clear 13 1014 87 10000 2.1 270 06:58 29.05.2020
2249 Clear 12 1014 93 10000 2.1 270 06:39 29.05.2020
2250 Clear 10 1014 93 10000 2.1 270 06:21 29.05.2020
2251 Clear 11 1014 93 10000 1.5 270 05:40 29.05.2020
2252 Clouds 10 1014 87 10000 2.6 240 01:53 29.05.2020
2253 Clouds 11 1014 87 10000 3.1 250 01:27 29.05.2020
2254 Clouds 11 1014 87 10000 2.6 230 00:51 29.05.2020
2255 Clouds 11 1014 87 10000 3.6 250 00:29 29.05.2020
2256 Clear 11 1014 87 10000 3.6 240 23:56 28.05.2020
2257 Clear 11 1014 81 10000 1.5 310 23:38 28.05.2020
2258 Clear 12 1014 81 10000 1.5 310 23:18 28.05.2020
2259 Clear 12 1014 81 10000 1 310 22:40 28.05.2020
2260 Clear 12 1014 81 10000 1 310 22:40 28.05.2020
2261 Clear 12 1014 81 10000 1 310 22:20 28.05.2020
2262 Clear 12 1014 81 10000 0.5 0 21:55 28.05.2020
2263 Clear 13 1014 76 10000 0.5 0 21:37 28.05.2020
2264 Clouds 13 1014 76 10000 0.5 0 21:18 28.05.2020
2265 Clouds 14 1014 72 10000 3.6 270 20:42 28.05.2020
2266 Clouds 15 1014 72 10000 3.6 270 20:20 28.05.2020
2267 Clouds 15 1014 67 10000 2.1 200 19:59 28.05.2020
2268 Clouds 16 1014 63 10000 2.6 160 19:41 28.05.2020
2269 Clouds 16 1014 63 10000 2.6 160 19:20 28.05.2020
2270 Clouds 17 1014 55 10000 0.5 0 18:57 28.05.2020
2271 Clouds 17 1014 52 10000 3.6 320 18:38 28.05.2020
2272 Clouds 18 1014 52 10000 3.6 320 18:20 28.05.2020
2273 Clouds 18 1014 48 10000 4.1 10 17:40 28.05.2020
2274 Clouds 18 1014 48 10000 4.1 10 17:21 28.05.2020
2275 Clouds 19 1014 45 10000 5.7 350 16:47 28.05.2020
2276 Clouds 19 1013 52 10000 5.7 310 16:21 28.05.2020
2277 Clouds 20 1013 45 10000 5.7 330 15:59 28.05.2020
2278 Clouds 20 1013 43 10000 5.1 340 15:40 28.05.2020
2279 Clouds 20 1013 43 10000 5.1 340 15:22 28.05.2020
2280 Clouds 20 1013 45 10000 5.1 350 14:42 28.05.2020
2281 Clouds 20 1013 49 10000 5.7 340 14:23 28.05.2020
2282 Clouds 21 1013 40 10000 5.7 310 13:47 28.05.2020
2283 Clouds 21 1014 46 10000 4.6 330 13:29 28.05.2020
2284 Clouds 19 1014 49 10000 5.1 340 12:57 28.05.2020
2285 Clouds 19 1014 52 10000 5.1 320 12:38 28.05.2020
2286 Clouds 19 1014 52 10000 5.1 320 12:18 28.05.2020
2287 Clouds 18 1015 55 10000 7.2 310 11:41 28.05.2020
2288 Clouds 18 1015 55 10000 7.2 310 11:23 28.05.2020
2289 Clouds 18 1015 55 10000 6.7 310 10:50 28.05.2020
2290 Clouds 17 1015 63 10000 6.7 310 10:28 28.05.2020
2291 Clouds 17 1015 67 10000 6.2 320 09:59 28.05.2020
2292 Clouds 16 1015 67 10000 6.2 300 09:39 28.05.2020
2293 Clouds 16 1015 67 10000 6.2 300 09:19 28.05.2020
2294 Clouds 14 1016 76 10000 3.6 330 08:44 28.05.2020
2295 Clouds 13 1016 76 10000 6.7 320 08:25 28.05.2020
2296 Clouds 14 1016 77 10000 7.2 320 07:45 28.05.2020
2297 Clouds 13 1016 76 10000 4.6 320 07:24 28.05.2020
2298 Clouds 12 1016 82 10000 4.6 300 06:51 28.05.2020
2299 Clouds 12 1016 82 10000 3.6 340 06:31 28.05.2020
2300 Clouds 12 1016 82 10000 3.6 270 05:40 28.05.2020
2301 Clouds 12 1016 82 10000 3.1 320 04:46 28.05.2020
2302 Clouds 12 1016 82 10000 3.6 320 04:22 28.05.2020
2303 Clouds 13 1016 82 10000 2.1 310 03:42 28.05.2020
2304 Clouds 12 1016 82 10000 2.6 250 02:45 28.05.2020
2305 Clouds 12 1016 82 10000 3.6 350 01:46 28.05.2020
2306 Clouds 13 1017 82 10000 2.6 330 00:50 28.05.2020
2307 Clouds 13 1017 87 10000 0.5 0 00:22 28.05.2020
2308 Clouds 13 1018 87 10000 2.1 340 23:56 27.05.2020
2309 Clouds 13 1018 93 10000 1.5 310 23:38 27.05.2020
2310 Clouds 13 1018 93 10000 1.5 310 23:19 27.05.2020
2311 Rain 13 1018 93 10000 2.6 290 22:43 27.05.2020
2312 Rain 13 1018 93 9000 1.5 330 22:24 27.05.2020
2313 Clouds 13 1018 93 10000 1.5 320 21:57 27.05.2020
2314 Clouds 14 1018 82 10000 1 210 21:39 27.05.2020
2315 Clouds 15 1018 82 10000 1 210 21:21 27.05.2020
2316 Clouds 15 1018 82 10000 1.5 190 20:58 27.05.2020
2317 Clouds 15 1018 82 10000 2.6 150 20:39 27.05.2020
2318 Clouds 15 1018 82 10000 2.6 150 20:39 27.05.2020
2319 Clouds 15 1018 82 10000 2.6 150 20:20 27.05.2020
2320 Clouds 15 1018 82 10000 2.6 150 19:46 27.05.2020
2321 Clouds 16 1018 77 10000 3.1 150 19:21 27.05.2020
2322 Clouds 16 1017 77 10000 4.6 140 18:56 27.05.2020
2323 Clouds 17 1017 72 10000 4.1 150 18:37 27.05.2020
2324 Clouds 17 1017 72 10000 4.1 150 18:18 27.05.2020
2325 Clouds 17 1017 68 10000 4.6 110 17:42 27.05.2020
2326 Clouds 18 1017 52 10000 3.6 70 17:24 27.05.2020
2327 Clouds 17 1017 72 10000 4.6 100 16:56 27.05.2020
2328 Clouds 17 1017 77 10000 4.6 150 16:38 27.05.2020
2329 Clouds 17 1017 77 10000 4.6 150 16:19 27.05.2020
2330 Rain 18 1017 63 10000 3.6 20 15:49 27.05.2020
2331 Clouds 18 1017 59 10000 5.1 40 15:23 27.05.2020
2332 Rain 18 1017 67 10000 7.2 50 14:57 27.05.2020
2333 Rain 19 1018 59 10000 6.2 60 14:39 27.05.2020
2334 Rain 19 1018 59 10000 6.2 60 14:19 27.05.2020
2335 Rain 19 1018 59 10000 6.2 60 14:19 27.05.2020
2336 Rain 19 1017 52 10000 7.2 360 13:41 27.05.2020
2337 Rain 19 1017 52 10000 7.2 360 13:23 27.05.2020
2338 Clouds 20 1018 49 10000 5.7 350 12:42 27.05.2020
2339 Clouds 19 1018 52 10000 6.2 350 12:24 27.05.2020
2340 Clouds 19 1018 49 10000 7.2 350 11:58 27.05.2020
2341 Clouds 18 1019 52 10000 6.7 360 11:37 27.05.2020
2342 Clouds 18 1019 52 10000 6.7 360 11:19 27.05.2020
2343 Clouds 18 1019 52 10000 6.7 360 10:43 27.05.2020
2344 Clouds 18 1019 55 10000 6.7 360 10:24 27.05.2020
2345 Clouds 17 1019 55 10000 6.2 360 09:57 27.05.2020
2346 Clear 17 1019 59 10000 5.7 350 09:39 27.05.2020
2347 Clear 16 1019 59 10000 5.7 350 09:20 27.05.2020
2348 Clear 15 1020 72 10000 3.6 280 08:42 27.05.2020
2349 Clear 15 1020 72 10000 3.6 280 08:42 27.05.2020
2350 Clear 15 1020 72 10000 3.6 280 08:24 27.05.2020
2351 Clear 13 1020 67 10000 3.6 320 07:53 27.05.2020
2352 Clear 13 1020 76 10000 2.1 310 07:34 27.05.2020
2353 Clear 13 1019 76 10000 2.6 320 06:56 27.05.2020
2354 Clear 11 1019 81 10000 2.1 0 06:30 27.05.2020
2355 Clear 11 1019 87 10000 4.1 320 05:50 27.05.2020
2356 Clear 10 1019 87 10000 3.1 260 05:28 27.05.2020
2357 Clear 10 1019 81 10000 2.6 330 03:39 27.05.2020
2358 Clouds 10 1019 76 10000 5.1 360 02:30 27.05.2020
2359 Clear 10 1020 76 10000 3.1 360 01:32 27.05.2020
2360 Clear 10 1020 87 10000 1.5 290 00:51 27.05.2020
2361 Clear 10 1020 87 10000 1.5 350 00:26 27.05.2020
2362 Clear 10 1020 93 10000 1.5 10 23:59 26.05.2020
2363 Clear 10 1020 93 10000 1.64 335 23:40 26.05.2020
2364 Clear 10 1020 93 10000 1.41 337 23:22 26.05.2020
2365 Clear 11 1020 87 10000 1.41 337 22:58 26.05.2020
2366 Clear 11 1020 81 10000 1.5 10 22:37 26.05.2020
2367 Clouds 11 1020 81 10000 1.5 10 22:19 26.05.2020
2368 Clouds 11 1020 87 10000 2.1 10 21:55 26.05.2020
2369 Clouds 12 1020 81 10000 2.1 20 21:36 26.05.2020
2370 Clouds 12 1020 81 10000 2.1 20 21:36 26.05.2020
2371 Clouds 12 1020 81 10000 2.1 20 21:18 26.05.2020
2372 Clouds 13 1020 82 10000 1.5 20 20:41 26.05.2020
2373 Clouds 13 1020 82 10000 1.5 20 20:20 26.05.2020
2374 Clouds 14 1019 82 10000 2.1 130 19:41 26.05.2020
2375 Clouds 14 1019 82 10000 2.1 130 19:22 26.05.2020
2376 Clouds 15 1019 77 10000 2.6 130 18:59 26.05.2020
2377 Rain 14 1019 77 10000 4.1 130 18:39 26.05.2020
2378 Rain 15 1019 77 10000 4.1 130 18:21 26.05.2020
2379 Clouds 16 1019 63 10000 5.1 120 17:42 26.05.2020
2380 Clouds 16 1019 63 10000 5.1 120 17:23 26.05.2020
2381 Clouds 17 1019 55 10000 3.1 80 16:49 26.05.2020
2382 Clouds 16 1019 63 10000 3.1 50 16:24 26.05.2020
2383 Clouds 15 1019 63 10000 2.6 80 15:59 26.05.2020
2384 Clouds 16 1019 63 10000 2.1 40 15:41 26.05.2020
2385 Clouds 16 1019 63 10000 2.1 40 15:20 26.05.2020
2386 Rain 15 1019 72 10000 3.1 10 14:55 26.05.2020
2387 Rain 15 1019 82 10000 4.1 10 14:37 26.05.2020
2388 Rain 15 1019 82 10000 4.1 10 14:18 26.05.2020
2389 Rain 14 1020 82 8000 4.6 60 13:41 26.05.2020
2390 Rain 14 1020 82 8000 4.6 60 13:22 26.05.2020
2391 Rain 16 1019 55 10000 2.6 260 12:44 26.05.2020
2392 Clouds 16 1019 63 10000 4.1 310 12:23 26.05.2020
2393 Clouds 17 1020 63 10000 4.6 310 11:59 26.05.2020
2394 Clouds 17 1020 63 10000 4.6 310 11:59 26.05.2020
2395 Clouds 16 1020 67 10000 4.6 300 11:40 26.05.2020
2396 Clouds 16 1020 67 10000 4.6 300 11:40 26.05.2020
2397 Clouds 16 1020 67 10000 4.6 300 11:40 26.05.2020
2398 Clouds 17 1020 67 10000 4.6 300 11:19 26.05.2020
2399 Clouds 15 1020 82 10000 3.6 300 10:47 26.05.2020
2400 Rain 14 1020 82 10000 4.1 330 10:19 26.05.2020
2401 Rain 14 1020 82 10000 2.6 330 09:57 26.05.2020
2402 Rain 14 1020 67 10000 3.1 290 09:37 26.05.2020
2403 Rain 14 1020 67 10000 3.1 290 09:18 26.05.2020
2404 Clouds 13 1020 71 10000 2.1 220 08:39 26.05.2020
2405 Clouds 13 1020 71 10000 2.1 220 08:21 26.05.2020
2406 Rain 12 1020 71 10000 3.1 290 07:42 26.05.2020
2407 Rain 12 1020 71 10000 3.1 290 07:22 26.05.2020
2408 Clouds 13 1020 76 10000 3.1 300 06:52 26.05.2020
2409 Rain 12 1019 76 10000 2.6 300 06:23 26.05.2020
2410 Clouds 12 1019 71 10000 2.1 250 05:41 26.05.2020
2411 Rain 12 1019 71 10000 3.6 280 04:59 26.05.2020
2412 Clouds 12 1019 67 10000 3.1 300 04:41 26.05.2020
2413 Clouds 12 1019 67 10000 3.1 300 04:22 26.05.2020
2414 Clear 12 1019 82 10000 2.1 240 03:28 26.05.2020
2415 Clear 12 1019 76 10000 2.6 240 02:32 26.05.2020
2416 Clouds 11 1019 81 10000 2.6 290 01:41 26.05.2020
2417 Clouds 12 1019 82 10000 2.1 260 00:39 26.05.2020
2418 Clouds 12 1019 82 10000 2.1 260 00:20 26.05.2020
2419 Rain 12 1020 82 10000 2.6 270 23:58 25.05.2020
2420 Clouds 12 1020 76 10000 3.6 290 23:38 25.05.2020
2421 Clouds 12 1020 76 10000 3.6 290 23:19 25.05.2020
2422 Clouds 13 1020 71 10000 4.6 290 22:55 25.05.2020
2423 Clouds 13 1020 71 10000 2.6 230 22:37 25.05.2020
2424 Clouds 13 1020 71 10000 2.6 230 22:19 25.05.2020
2425 Clouds 13 1020 71 10000 3.6 10 21:58 25.05.2020
2426 Clouds 13 1020 76 10000 4.6 10 21:37 25.05.2020
2427 Clouds 13 1020 76 10000 4.6 10 21:18 25.05.2020
2428 Clouds 14 1020 67 10000 5.1 360 20:43 25.05.2020
2429 Clouds 14 1020 67 10000 5.1 360 20:43 25.05.2020
2430 Clouds 14 1019 72 10000 2.6 10 20:22 25.05.2020
2431 Clouds 14 1019 72 10000 1.5 350 19:59 25.05.2020
2432 Clouds 15 1019 59 10000 0.5 0 19:41 25.05.2020
2433 Clouds 15 1019 59 10000 0.5 0 19:19 25.05.2020
2434 Clouds 16 1019 51 10000 2.1 0 18:58 25.05.2020
2435 Clouds 16 1019 51 10000 3.1 40 18:40 25.05.2020
2436 Clouds 16 1019 51 10000 3.1 40 18:40 25.05.2020
2437 Clouds 16 1019 51 10000 3.1 40 18:20 25.05.2020
2438 Rain 16 1019 59 10000 5.1 10 17:44 25.05.2020
2439 Rain 16 1020 59 10000 6.7 350 17:24 25.05.2020
2440 Rain 17 1019 52 10000 3.1 40 16:58 25.05.2020
2441 Rain 17 1020 52 10000 2.6 120 16:40 25.05.2020
2442 Rain 17 1020 52 10000 2.6 120 16:20 25.05.2020
2443 Clouds 17 1020 59 10000 2.1 100 15:45 25.05.2020
2444 Clouds 16 1020 72 10000 0.5 0 15:20 25.05.2020
2445 Rain 16 1020 72 10000 1 0 14:59 25.05.2020
2446 Clouds 16 1020 72 10000 3.1 280 14:39 25.05.2020
2447 Clouds 16 1020 72 10000 3.1 280 14:21 25.05.2020
2448 Rain 17 1020 72 10000 4.6 230 13:40 25.05.2020
2449 Rain 17 1020 72 10000 4.6 230 13:40 25.05.2020
2450 Rain 17 1020 72 10000 4.6 230 13:21 25.05.2020
2451 Rain 17 1020 67 10000 6.2 270 12:58 25.05.2020
2452 Rain 17 1020 52 10000 5.7 330 12:39 25.05.2020
2453 Rain 18 1020 52 10000 5.7 330 12:20 25.05.2020
2454 Rain 18 1020 52 10000 5.7 330 12:20 25.05.2020
2455 Clouds 18 1020 48 10000 4.1 360 11:40 25.05.2020
2456 Clouds 19 1020 48 10000 4.1 360 11:21 25.05.2020
2457 Clouds 19 1021 45 10000 2.1 0 10:57 25.05.2020
2458 Clouds 18 1021 48 10000 3.6 360 10:39 25.05.2020
2459 Clouds 18 1021 48 10000 3.6 360 10:20 25.05.2020
2460 Clouds 18 1021 48 10000 3.6 360 10:20 25.05.2020
2461 Clouds 18 1021 48 10000 4.1 360 09:54 25.05.2020
2462 Clouds 18 1021 55 10000 3.1 340 09:36 25.05.2020
2463 Clouds 17 1021 55 10000 3.1 340 09:18 25.05.2020
2464 Clouds 17 1021 59 10000 4.1 350 08:39 25.05.2020
2465 Clouds 16 1021 59 10000 4.1 350 08:20 25.05.2020
2466 Clouds 16 1021 67 10000 1.5 340 07:49 25.05.2020
2467 Clouds 14 1021 71 10000 2.6 280 07:27 25.05.2020
2468 Clouds 14 1021 67 10000 2.6 280 06:57 25.05.2020
2469 Clouds 13 1021 71 10000 2.6 250 06:35 25.05.2020
2470 Clouds 12 1020 82 10000 2.6 240 05:24 25.05.2020
2471 Clouds 13 1020 82 10000 4.1 270 03:26 25.05.2020
2472 Clouds 13 1019 82 10000 5.1 220 02:47 25.05.2020
2473 Clouds 13 1019 76 10000 5.7 230 02:18 25.05.2020
2474 Clouds 13 1020 82 10000 2.6 270 01:41 25.05.2020
2475 Clouds 13 1020 82 10000 4.1 290 00:46 25.05.2020
2476 Clouds 13 1020 82 10000 5.1 280 00:24 25.05.2020
2477 Clouds 14 1021 82 10000 4.1 270 23:58 24.05.2020
2478 Clouds 14 1021 87 10000 4.1 270 23:39 24.05.2020
2479 Clouds 14 1021 87 10000 4.1 270 23:19 24.05.2020
2480 Clouds 14 1020 87 10000 5.1 280 22:42 24.05.2020
2481 Clouds 14 1020 87 10000 5.1 280 22:42 24.05.2020
2482 Clouds 14 1020 87 10000 5.1 280 22:20 24.05.2020
2483 Clouds 14 1021 82 10000 4.1 300 21:59 24.05.2020
2484 Clouds 14 1020 82 10000 6.2 280 21:40 24.05.2020
2485 Clouds 14 1020 82 10000 6.2 280 21:22 24.05.2020
2486 Rain 15 1021 82 10000 8.2 280 20:59 24.05.2020
2487 Rain 15 1020 87 9000 1.5 250 20:41 24.05.2020
2488 Rain 15 1020 87 9000 1.5 250 20:18 24.05.2020
2489 Rain 15 1020 82 7000 1 10 19:56 24.05.2020
2490 Rain 16 1020 72 10000 2.1 40 19:36 24.05.2020
2491 Rain 16 1020 72 10000 2.1 40 19:18 24.05.2020
2492 Clouds 17 1019 63 10000 5.7 110 18:42 24.05.2020
2493 Clouds 17 1019 63 10000 5.7 110 18:23 24.05.2020
2494 Clouds 17 1019 63 10000 6.2 100 17:57 24.05.2020
2495 Clouds 18 1019 59 10000 5.7 110 17:38 24.05.2020
2496 Clouds 18 1019 59 10000 5.7 110 17:19 24.05.2020
2497 Rain 19 1019 55 10000 6.2 110 16:54 24.05.2020
2498 Rain 20 1019 49 10000 6.7 130 16:36 24.05.2020
2499 Clouds 20 1019 49 10000 6.7 130 16:18 24.05.2020
2500 Clouds 21 1018 46 10000 7.7 140 15:40 24.05.2020
2501 Clouds 21 1018 46 10000 7.7 140 15:40 24.05.2020
2502 Clouds 21 1018 46 10000 7.7 140 15:20 24.05.2020
2503 Clouds 21 1018 46 10000 7.7 140 15:20 24.05.2020
2504 Clouds 21 1018 49 10000 7.2 150 14:58 24.05.2020
2505 Clouds 22 1018 46 10000 7.7 140 14:40 24.05.2020
2506 Clouds 22 1018 46 10000 7.7 140 14:21 24.05.2020
2507 Clouds 23 1019 43 10000 7.2 140 13:55 24.05.2020
2508 Clouds 24 1019 29 10000 5.7 200 13:36 24.05.2020
2509 Clouds 24 1019 29 10000 5.7 200 13:18 24.05.2020
2510 Clouds 23 1019 33 10000 4.6 200 12:55 24.05.2020
2511 Clouds 23 1020 31 10000 5.7 180 12:37 24.05.2020
2512 Clear 23 1020 31 10000 5.7 180 12:18 24.05.2020
2513 Clear 21 1020 40 10000 5.7 100 11:45 24.05.2020
2514 Clear 21 1020 40 10000 3.6 140 11:26 24.05.2020
2515 Clear 21 1021 37 10000 3.6 200 10:59 24.05.2020
2516 Clear 21 1021 40 10000 2.1 210 10:40 24.05.2020
2517 Clear 21 1021 40 10000 2.1 210 10:22 24.05.2020
2518 Clear 21 1022 45 10000 0.5 0 09:55 24.05.2020
2519 Clear 20 1022 48 10000 2.1 290 09:37 24.05.2020
2520 Clear 17 1022 48 10000 2.1 290 09:18 24.05.2020
2521 Clear 15 1022 51 10000 1.5 0 08:40 24.05.2020
2522 Clear 15 1022 51 10000 1.5 0 08:22 24.05.2020
2523 Clear 15 1022 58 10000 2.6 300 07:54 24.05.2020
2524 Clear 13 1022 76 10000 1.5 310 07:36 24.05.2020
2525 Clear 13 1022 76 10000 1.5 310 07:18 24.05.2020
2526 Clear 11 1022 87 10000 1.5 330 06:38 24.05.2020
2527 Clear 8 1022 87 10000 1.5 330 05:43 24.05.2020
2528 Clear 8 1023 87 10000 2.1 350 03:46 24.05.2020
2529 Clear 8 1023 87 10000 1.5 350 02:52 24.05.2020
2530 Clear 8 1023 93 10000 1.5 350 02:23 24.05.2020
2531 Clear 8 1024 87 10000 1 0 00:49 24.05.2020
2532 Clear 8 1024 87 10000 1.5 20 00:27 24.05.2020
2533 Clear 8 1024 87 10000 1.5 20 00:27 24.05.2020
2534 Clear 8 1024 87 10000 2.1 20 23:59 23.05.2020
2535 Clear 9 1024 87 10000 2.1 20 23:36 23.05.2020
2536 Clear 9 1024 87 10000 2.1 20 23:18 23.05.2020
2537 Clear 9 1024 87 10000 2.1 20 22:55 23.05.2020
2538 Clear 9 1024 87 10000 2.1 20 22:37 23.05.2020
2539 Clear 9 1024 87 10000 2.1 20 22:18 23.05.2020
2540 Clear 10 1024 87 10000 2.6 20 21:42 23.05.2020
2541 Clouds 11 1024 81 10000 1.5 20 21:21 23.05.2020
2542 Clouds 11 1024 71 10000 0.5 0 20:59 23.05.2020
2543 Clouds 11 1024 76 10000 2.1 170 20:39 23.05.2020
2544 Clear 12 1024 76 10000 2.1 170 20:20 23.05.2020
2545 Clear 12 1024 71 10000 2.1 140 19:58 23.05.2020
2546 Clear 13 1023 67 10000 3.1 140 19:40 23.05.2020
2547 Clear 14 1023 67 10000 3.1 140 19:18 23.05.2020
2548 Clear 15 1023 58 10000 5.1 120 18:41 23.05.2020
2549 Clouds 16 1023 58 10000 5.1 120 18:22 23.05.2020
2550 Clouds 15 1023 62 10000 3.6 120 17:58 23.05.2020
2551 Clouds 16 1023 58 10000 4.1 130 17:40 23.05.2020
2552 Rain 16 1023 58 10000 4.1 130 17:20 23.05.2020
2553 Rain 16 1023 67 10000 3.6 130 16:59 23.05.2020
2554 Clouds 16 1023 62 10000 4.6 120 16:40 23.05.2020
2555 Clouds 16 1023 62 10000 4.6 120 16:20 23.05.2020
2556 Rain 16 1023 67 10000 7.7 110 15:56 23.05.2020
2557 Clouds 16 1023 51 10000 4.6 140 15:38 23.05.2020
2558 Clouds 17 1023 51 10000 4.6 140 15:19 23.05.2020
2559 Clouds 16 1023 58 10000 7.2 120 14:41 23.05.2020
2560 Clouds 16 1023 58 10000 7.2 120 14:23 23.05.2020
2561 Clouds 16 1023 58 10000 5.7 120 13:42 23.05.2020
2562 Clouds 16 1023 58 10000 5.7 120 13:19 23.05.2020
2563 Clouds 16 1023 62 10000 5.7 120 12:58 23.05.2020
2564 Clouds 17 1023 59 10000 3.6 60 12:39 23.05.2020
2565 Clouds 16 1023 59 10000 3.6 60 12:19 23.05.2020
2566 Clouds 16 1022 41 10000 5.1 360 11:43 23.05.2020
2567 Clouds 17 1022 42 10000 4.6 350 11:22 23.05.2020
2568 Clouds 17 1022 42 10000 5.7 360 10:58 23.05.2020
2569 Clouds 16 1022 55 10000 4.6 350 10:39 23.05.2020
2570 Clouds 16 1022 55 10000 4.6 350 10:20 23.05.2020
2571 Clouds 16 1022 58 10000 3.1 10 09:59 23.05.2020
2572 Clouds 16 1022 58 10000 3.1 10 09:59 23.05.2020
2573 Clouds 14 1022 67 10000 4.1 20 09:40 23.05.2020
2574 Clouds 14 1022 67 10000 4.1 20 09:21 23.05.2020
2575 Clouds 13 1022 71 10000 4.6 30 08:44 23.05.2020
2576 Clouds 13 1022 76 10000 4.6 40 08:20 23.05.2020
2577 Clouds 12 1022 76 10000 3.1 20 07:57 23.05.2020
2578 Clouds 11 1021 81 10000 5.7 40 07:37 23.05.2020
2579 Clouds 11 1021 81 10000 5.7 40 07:19 23.05.2020
2580 Clouds 11 1021 93 10000 2.1 270 06:38 23.05.2020
2581 Rain 10 1020 93 10000 0.5 340 05:34 23.05.2020
2582 Clouds 10 1020 100 10000 1.5 350 03:43 23.05.2020
2583 Rain 10 1020 93 10000 3.1 0 02:59 23.05.2020
2584 Clouds 10 1021 87 10000 4.1 290 01:58 23.05.2020
2585 Clouds 11 1020 87 10000 2.6 340 01:26 23.05.2020
2586 Rain 11 1020 76 10000 6.2 60 00:47 23.05.2020
2587 Rain 11 1021 71 10000 5.7 340 00:26 23.05.2020
2588 Clouds 12 1021 66 10000 2.6 120 23:57 22.05.2020
2589 Clouds 11 1021 71 10000 2.6 120 23:39 22.05.2020
2590 Clouds 11 1021 71 10000 2.6 120 23:19 22.05.2020
2591 Clouds 11 1021 71 10000 2.6 120 23:19 22.05.2020
2592 Clouds 11 1021 71 10000 2.6 100 22:44 22.05.2020
2593 Clouds 11 1021 76 10000 1.5 60 22:22 22.05.2020
2594 Clouds 12 1021 66 10000 2.6 110 21:57 22.05.2020
2595 Clouds 12 1021 62 10000 2.1 110 21:39 22.05.2020
2596 Clouds 12 1021 62 10000 2.1 110 21:20 22.05.2020
2597 Clouds 12 1021 62 10000 2.6 120 20:46 22.05.2020
2598 Clouds 13 1021 62 10000 2.6 130 20:21 22.05.2020
2599 Clouds 13 1020 54 10000 2.6 130 19:59 22.05.2020
2600 Clouds 14 1020 54 10000 2.6 130 19:37 22.05.2020
2601 Clouds 14 1020 54 10000 2.6 130 19:18 22.05.2020
2602 Clouds 16 1020 47 10000 4.6 120 18:39 22.05.2020
2603 Clouds 16 1020 47 10000 4.6 120 18:39 22.05.2020
2604 Clouds 16 1020 47 10000 4.6 120 18:20 22.05.2020
2605 Clouds 16 1020 44 10000 4.6 130 17:56 22.05.2020
2606 Clouds 17 1020 42 10000 4.6 130 17:36 22.05.2020
2607 Clouds 17 1020 42 10000 4.6 130 17:18 22.05.2020
2608 Clouds 17 1020 45 10000 4.1 120 16:43 22.05.2020
2609 Clouds 18 1020 30 10000 3.6 30 16:20 22.05.2020
2610 Clouds 18 1020 30 10000 3.6 30 16:20 22.05.2020
2611 Clouds 19 1019 29 10000 6.7 350 15:57 22.05.2020
2612 Clouds 19 1019 29 10000 6.7 350 15:57 22.05.2020
2613 Clouds 19 1019 32 10000 6.7 350 15:39 22.05.2020
2614 Clouds 20 1019 32 10000 6.7 350 15:19 22.05.2020
2615 Clouds 19 1019 32 10000 7.7 350 14:43 22.05.2020
2616 Clouds 19 1019 32 10000 6.7 20 14:43 22.05.2020
2617 Clouds 18 1019 32 10000 7.7 350 14:24 22.05.2020
2618 Clouds 19 1019 32 10000 7.2 340 13:45 22.05.2020
2619 Clouds 18 1019 32 10000 7.2 340 13:20 22.05.2020
2620 Clouds 18 1019 32 10000 5.7 340 12:44 22.05.2020
2621 Clouds 18 1019 31 10000 5.1 10 12:25 22.05.2020
2622 Clouds 18 1019 34 10000 5.1 0 11:58 22.05.2020
2623 Clouds 18 1018 34 10000 7.7 340 11:40 22.05.2020
2624 Clouds 18 1018 34 10000 7.7 340 11:19 22.05.2020
2625 Clouds 17 1018 36 10000 6.2 10 10:41 22.05.2020
2626 Clouds 17 1018 36 10000 6.2 10 10:22 22.05.2020
2627 Clouds 16 1018 42 10000 5.7 350 09:59 22.05.2020
2628 Clouds 16 1018 51 10000 5.7 360 09:40 22.05.2020
2629 Clouds 16 1018 51 10000 5.7 360 09:18 22.05.2020
2630 Clouds 15 1017 54 10000 5.7 360 08:43 22.05.2020
2631 Clouds 14 1017 58 10000 6.2 360 08:20 22.05.2020
2632 Clouds 12 1017 66 10000 4.6 340 07:56 22.05.2020
2633 Clouds 11 1017 71 10000 5.1 350 07:24 22.05.2020
2634 Clouds 11 1017 71 10000 5.7 360 06:56 22.05.2020
2635 Clouds 10 1016 76 10000 5.7 360 06:35 22.05.2020
2636 Clouds 8 1016 87 10000 5.7 360 05:39 22.05.2020
2637 Clouds 9 1016 81 10000 6.2 360 04:51 22.05.2020
2638 Clouds 9 1016 87 10000 4.6 360 04:20 22.05.2020
2639 Clouds 9 1016 100 10000 1.5 360 03:47 22.05.2020
2640 Clouds 10 1016 100 9000 3.54 337 02:59 22.05.2020
2641 Clouds 10 1016 100 10000 1.5 270 01:53 22.05.2020
2642 Clouds 10 1016 100 10000 1 0 01:25 22.05.2020
2643 Clouds 10 1016 100 10000 1.5 330 00:40 22.05.2020
2644 Clouds 10 1016 100 10000 1.5 330 00:22 22.05.2020
2645 Clouds 11 1016 93 10000 1.5 260 23:42 21.05.2020
2646 Clouds 11 1016 93 10000 1.5 260 23:24 21.05.2020
2647 Rain 10 1016 100 10000 1 0 22:58 21.05.2020
2648 Rain 10 1016 100 10000 1.5 280 22:38 21.05.2020
2649 Rain 10 1016 100 10000 1.5 280 22:19 21.05.2020
2650 Rain 10 1016 87 10000 0.5 0 21:55 21.05.2020
2651 Rain 10 1016 87 9000 1.5 30 21:37 21.05.2020
2652 Rain 10 1016 87 9000 1.5 30 21:18 21.05.2020
2653 Rain 11 1015 93 10000 1.5 280 20:42 21.05.2020
2654 Rain 11 1015 93 10000 1.5 280 20:22 21.05.2020
2655 Rain 11 1015 81 6000 1 0 19:40 21.05.2020
2656 Rain 11 1015 81 6000 1 0 19:20 21.05.2020
2657 Rain 12 1015 76 10000 4.1 60 18:59 21.05.2020
2658 Rain 12 1013 82 10000 6.7 30 18:37 21.05.2020
2659 Rain 13 1013 82 10000 6.7 30 18:19 21.05.2020
2660 Rain 12 1013 82 10000 7.2 30 17:56 21.05.2020
2661 Rain 13 1013 76 10000 5.1 50 17:37 21.05.2020
2662 Rain 13 1013 76 10000 5.1 50 17:19 21.05.2020
2663 Clouds 15 1013 67 10000 4.6 30 16:44 21.05.2020
2664 Clouds 14 1012 67 10000 4.1 30 16:22 21.05.2020
2665 Clouds 15 1012 62 10000 3.1 0 15:44 21.05.2020
2666 Clouds 14 1012 62 10000 3.1 0 15:23 21.05.2020
2667 Clouds 15 1012 67 10000 4.6 50 14:43 21.05.2020
2668 Clouds 15 1012 67 10000 1 0 14:23 21.05.2020
2669 Clouds 14 1012 67 10000 5.1 0 13:58 21.05.2020
2670 Clouds 15 1012 63 10000 5.1 30 13:38 21.05.2020
2671 Clouds 15 1012 63 10000 5.1 30 13:19 21.05.2020
2672 Clouds 14 1012 76 10000 8.2 30 12:40 21.05.2020
2673 Clouds 14 1012 76 10000 8.2 30 12:22 21.05.2020
2674 Clouds 14 1012 72 10000 6.2 40 11:58 21.05.2020
2675 Clouds 14 1012 72 10000 6.7 20 11:39 21.05.2020
2676 Clouds 14 1012 72 10000 6.7 20 11:21 21.05.2020
2677 Clouds 15 1011 67 10000 7.7 40 10:45 21.05.2020
2678 Clouds 14 1011 77 10000 7.7 40 10:23 21.05.2020
2679 Clouds 14 1011 77 10000 9.3 30 09:59 21.05.2020
2680 Clouds 15 1011 72 10000 7.7 40 09:40 21.05.2020
2681 Clouds 15 1011 72 10000 7.7 40 09:40 21.05.2020
2682 Clouds 15 1011 72 10000 7.7 40 09:40 21.05.2020
2683 Clouds 15 1011 72 10000 7.7 40 09:22 21.05.2020
2684 Clouds 14 1010 77 10000 6.7 20 08:56 21.05.2020
2685 Clouds 14 1010 77 10000 5.1 40 08:37 21.05.2020
2686 Clouds 14 1010 77 10000 5.1 40 08:19 21.05.2020
2687 Clouds 14 1010 77 10000 2.1 0 07:41 21.05.2020
2688 Clouds 14 1010 77 10000 2.1 0 07:22 21.05.2020
2689 Clouds 14 1008 77 10000 5.1 160 06:37 21.05.2020
2690 Clouds 14 1008 77 10000 4.6 70 05:50 21.05.2020
2691 Rain 15 1008 77 10000 8.7 10 03:49 21.05.2020
2692 Rain 15 1009 77 10000 7.7 10 03:21 21.05.2020
2693 Rain 15 1009 77 10000 7.7 10 03:21 21.05.2020
2694 Clouds 15 1008 72 10000 2.1 0 02:31 21.05.2020
2695 Clouds 15 1008 72 10000 8.7 40 01:51 21.05.2020
2696 Rain 15 1008 72 10000 9.3 40 01:24 21.05.2020
2697 Rain 15 1008 77 10000 11.8 30 00:54 21.05.2020
2698 Clouds 15 1008 77 10000 9.8 30 00:26 21.05.2020
2699 Clouds 15 1008 77 10000 6.2 50 23:58 20.05.2020
2700 Rain 16 1009 77 10000 2.6 0 23:38 20.05.2020
2701 Rain 16 1009 77 10000 2.6 0 23:18 20.05.2020
2702 Rain 16 1008 77 10000 7.2 100 22:42 20.05.2020
2703 Clouds 16 1008 77 10000 4.6 110 22:24 20.05.2020
2704 Clouds 17 1008 68 10000 5.7 100 21:42 20.05.2020
2705 Clouds 17 1008 68 10000 5.7 100 21:23 20.05.2020
2706 Clouds 17 1008 63 10000 5.1 90 20:59 20.05.2020
2707 Clouds 18 1007 45 10000 6.7 100 20:41 20.05.2020
2708 Clouds 18 1007 45 10000 6.7 100 20:22 20.05.2020
2709 Clouds 19 1007 63 10000 5.1 140 19:42 20.05.2020
2710 Clouds 19 1007 63 10000 5.1 140 19:23 20.05.2020
2711 Clouds 20 1007 49 10000 3.6 150 18:58 20.05.2020
2712 Clouds 21 1008 56 10000 6.2 120 18:38 20.05.2020
2713 Clouds 21 1008 56 10000 6.2 120 18:20 20.05.2020
2714 Clouds 23 1008 29 10000 3.6 130 17:39 20.05.2020
2715 Clouds 24 1008 29 10000 3.6 130 17:21 20.05.2020
2716 Clouds 25 1007 29 10000 4.6 110 16:43 20.05.2020
2717 Clouds 26 1006 27 10000 7.2 110 16:24 20.05.2020
2718 Clouds 27 1007 26 10000 6.2 110 15:58 20.05.2020
2719 Clouds 27 1007 24 10000 6.7 120 15:40 20.05.2020
2720 Clouds 28 1007 24 10000 6.7 120 15:22 20.05.2020
2721 Clouds 28 1007 26 10000 5.1 140 14:43 20.05.2020
2722 Clouds 28 1007 26 10000 5.1 140 14:21 20.05.2020
2723 Clouds 28 1009 21 10000 1 0 13:41 20.05.2020
2724 Clouds 28 1009 21 10000 1 0 13:20 20.05.2020
2725 Rain 26 1009 26 10000 2.6 250 12:58 20.05.2020
2726 Clouds 26 1009 24 10000 2.1 0 12:37 20.05.2020
2727 Clouds 26 1009 24 10000 2.1 0 12:19 20.05.2020
2728 Clouds 26 1009 26 10000 1 0 11:36 20.05.2020
2729 Clouds 26 1009 26 10000 1 0 11:18 20.05.2020
2730 Clouds 26 1009 26 10000 1 0 11:18 20.05.2020
2731 Clouds 25 1010 25 10000 1.5 0 10:42 20.05.2020
2732 Clouds 24 1010 27 10000 2.1 120 10:20 20.05.2020
2733 Clouds 22 1010 30 10000 1 0 09:45 20.05.2020
2734 Clouds 21 1010 30 10000 1 0 09:21 20.05.2020
2735 Clouds 21 1010 30 10000 1 0 09:21 20.05.2020
2736 Clouds 19 1010 55 10000 1.8 110 08:57 20.05.2020
2737 Clouds 18 1010 63 10000 2.1 110 08:39 20.05.2020
2738 Clouds 18 1010 63 10000 2.1 110 08:18 20.05.2020
2739 Clouds 16 1010 67 10000 0.5 0 07:46 20.05.2020
2740 Clouds 16 1010 59 10000 0.92 160 07:20 20.05.2020
2741 Clouds 14 1011 62 10000 0.92 160 06:36 20.05.2020
2742 Clouds 14 1011 66 10000 0.3 109 05:23 20.05.2020
2743 Clouds 14 1012 62 10000 0.56 41 04:27 20.05.2020
2744 Clouds 14 1013 66 10000 1.5 310 03:42 20.05.2020
2745 Clouds 14 1014 62 10000 0.65 190 02:24 20.05.2020
2746 Clouds 14 1014 58 10000 1 320 01:28 20.05.2020
2747 Clouds 15 1014 58 10000 0.5 60 00:44 20.05.2020
2748 Clouds 15 1015 58 10000 0.75 170 00:23 20.05.2020
2749 Clouds 16 1015 55 10000 0.75 170 23:41 19.05.2020
2750 Clouds 15 1015 55 10000 1.72 183 23:19 19.05.2020
2751 Clouds 15 1015 54 10000 0.5 0 22:56 19.05.2020
2752 Clouds 16 1016 59 10000 1.5 120 22:38 19.05.2020
2753 Clouds 16 1016 59 10000 1.5 120 22:18 19.05.2020
2754 Clouds 16 1016 51 10000 0.5 0 21:56 19.05.2020
2755 Clouds 16 1016 51 10000 3.1 130 21:37 19.05.2020
2756 Clouds 16 1016 51 10000 3.1 130 21:37 19.05.2020
2757 Clouds 17 1016 51 10000 3.1 130 21:19 19.05.2020
2758 Clouds 17 1016 51 10000 3.1 130 21:19 19.05.2020
2759 Clouds 17 1016 51 10000 2.1 80 20:57 19.05.2020
2760 Clouds 17 1016 51 10000 2.1 110 20:38 19.05.2020
2761 Clouds 17 1016 51 10000 2.1 110 20:19 19.05.2020
2762 Clouds 18 1016 52 10000 2.6 110 19:39 19.05.2020
2763 Clouds 17 1016 52 10000 2.6 110 19:21 19.05.2020
2764 Clouds 18 1017 52 10000 4.1 120 18:57 19.05.2020
2765 Clouds 18 1017 48 10000 4.6 120 18:38 19.05.2020
2766 Clouds 18 1017 48 10000 4.6 120 18:20 19.05.2020
2767 Clouds 19 1017 42 10000 5.1 120 17:41 19.05.2020
2768 Clouds 20 1017 42 10000 5.1 120 17:21 19.05.2020
2769 Clouds 20 1018 45 10000 5.1 120 16:58 19.05.2020
2770 Clouds 21 1018 43 10000 5.7 110 16:38 19.05.2020
2771 Clouds 21 1018 43 10000 5.7 110 16:19 19.05.2020
2772 Clouds 22 1018 40 10000 6.7 120 15:44 19.05.2020
2773 Clouds 22 1018 40 10000 6.7 120 15:21 19.05.2020
2774 Clouds 22 1019 37 10000 6.2 110 14:56 19.05.2020
2775 Clouds 22 1019 37 10000 7.2 120 14:38 19.05.2020
2776 Clouds 22 1019 37 10000 7.2 120 14:20 19.05.2020
2777 Clouds 23 1019 40 10000 5.7 120 13:57 19.05.2020
2778 Clouds 23 1019 43 10000 6.2 120 13:38 19.05.2020
2779 Clouds 23 1019 43 10000 6.2 120 13:20 19.05.2020
2780 Clouds 24 1019 35 10000 6.7 120 12:56 19.05.2020
2781 Clouds 23 1019 33 10000 6.2 140 12:36 19.05.2020
2782 Clouds 24 1019 33 10000 6.2 140 12:18 19.05.2020
2783 Clouds 24 1019 33 10000 6.2 140 12:18 19.05.2020
2784 Clouds 23 1021 27 10000 5.1 140 11:42 19.05.2020
2785 Clouds 23 1021 27 10000 5.1 140 11:22 19.05.2020
2786 Clouds 22 1021 33 10000 4.1 130 10:57 19.05.2020
2787 Clouds 22 1021 37 10000 3.6 160 10:39 19.05.2020
2788 Clouds 22 1021 37 10000 3.6 160 10:39 19.05.2020
2789 Clouds 22 1021 37 10000 3.6 160 10:21 19.05.2020
2790 Clouds 21 1021 46 10000 3.1 130 09:44 19.05.2020
2791 Clouds 19 1021 52 10000 2.1 150 09:25 19.05.2020
2792 Clouds 19 1021 55 10000 3.1 120 08:47 19.05.2020
2793 Clouds 18 1021 68 10000 2.6 140 08:25 19.05.2020
2794 Clouds 16 1021 77 10000 4.1 120 07:49 19.05.2020
2795 Clouds 15 1021 87 10000 3.6 120 07:28 19.05.2020
2796 Clouds 16 1021 82 10000 2.1 130 06:55 19.05.2020
2797 Clouds 16 1021 82 10000 2.1 130 06:55 19.05.2020
2798 Clouds 14 1021 87 10000 2.6 100 06:32 19.05.2020
2799 Clouds 13 1021 87 10000 1.5 100 05:53 19.05.2020
2800 Clouds 13 1021 71 10000 1.5 30 05:35 19.05.2020
2801 Clouds 14 1021 71 10000 1.29 114 04:50 19.05.2020
2802 Clouds 13 1020 82 10000 1.5 100 02:50 19.05.2020
2803 Clouds 14 1022 71 10000 1.5 90 00:49 19.05.2020
2804 Clouds 14 1022 71 10000 1.5 90 00:49 19.05.2020
2805 Clouds 14 1022 67 10000 1.5 80 00:31 19.05.2020
2806 Clouds 15 1022 72 10000 1 0 23:59 18.05.2020
2807 Clouds 15 1022 72 10000 1.5 80 23:40 18.05.2020
2808 Clouds 15 1022 72 10000 1.5 80 23:20 18.05.2020
2809 Clouds 15 1022 72 10000 1 60 22:55 18.05.2020
2810 Clouds 15 1022 77 10000 1 90 22:37 18.05.2020
2811 Clouds 15 1022 77 10000 1 90 22:19 18.05.2020
2812 Clouds 15 1022 77 10000 1 0 21:42 18.05.2020
2813 Clouds 15 1022 77 10000 1 0 21:21 18.05.2020
2814 Clouds 15 1022 77 10000 1.5 120 20:57 18.05.2020
2815 Clouds 16 1022 72 10000 2.6 120 20:37 18.05.2020
2816 Clouds 16 1022 67 10000 2.6 120 20:19 18.05.2020
2817 Clouds 17 1022 63 10000 3.6 120 19:42 18.05.2020
2818 Clouds 17 1022 63 10000 3.6 120 19:20 18.05.2020
2819 Clouds 17 1022 63 10000 4.1 120 18:59 18.05.2020
2820 Clouds 18 1022 52 10000 3.6 110 18:41 18.05.2020
2821 Clouds 19 1022 52 10000 3.6 110 18:20 18.05.2020
2822 Clouds 20 1022 52 10000 5.1 110 17:38 18.05.2020
2823 Clouds 20 1022 52 10000 5.1 110 17:18 18.05.2020
2824 Clouds 20 1022 52 10000 5.1 110 17:18 18.05.2020
2825 Clouds 21 1023 45 10000 5.1 120 16:56 18.05.2020
2826 Clouds 21 1023 45 10000 5.7 110 16:37 18.05.2020
2827 Clouds 21 1023 45 10000 5.7 110 16:18 18.05.2020
2828 Clouds 21 1023 49 10000 6.2 120 15:46 18.05.2020
2829 Clouds 21 1023 49 10000 6.2 130 15:25 18.05.2020
2830 Clouds 21 1023 45 10000 7.2 140 14:59 18.05.2020
2831 Clouds 22 1023 46 10000 6.7 140 14:39 18.05.2020
2832 Clouds 22 1023 46 10000 6.7 140 14:21 18.05.2020
2833 Clouds 22 1023 46 10000 7.7 130 13:54 18.05.2020
2834 Clouds 22 1023 43 10000 7.2 130 13:36 18.05.2020
2835 Clouds 22 1023 43 10000 7.2 130 13:18 18.05.2020
2836 Clouds 22 1023 43 10000 7.7 130 12:54 18.05.2020
2837 Clouds 22 1023 43 10000 7.7 130 12:36 18.05.2020
2838 Clouds 22 1023 43 10000 7.7 130 12:18 18.05.2020
2839 Clouds 22 1023 46 10000 7.7 130 11:42 18.05.2020
2840 Clouds 22 1023 46 10000 7.7 130 11:23 18.05.2020
2841 Clouds 22 1023 46 10000 7.2 130 10:47 18.05.2020
2842 Clouds 22 1023 43 10000 4.1 130 10:25 18.05.2020
2843 Clouds 22 1024 43 10000 4.1 60 09:46 18.05.2020
2844 Clouds 21 1023 43 10000 3.6 70 09:27 18.05.2020
2845 Clouds 20 1023 46 10000 4.6 40 08:59 18.05.2020
2846 Clouds 20 1022 49 10000 3.6 90 08:39 18.05.2020
2847 Clouds 20 1022 49 10000 3.6 90 08:21 18.05.2020
2848 Clouds 18 1021 55 10000 3.1 90 07:43 18.05.2020
2849 Clouds 18 1021 55 10000 3.1 90 07:23 18.05.2020
2850 Clouds 18 1022 55 10000 3.1 140 06:47 18.05.2020
2851 Clouds 18 1021 59 10000 2.6 60 06:23 18.05.2020
2852 Clouds 19 1021 56 10000 3.1 0 05:43 18.05.2020
2853 Clouds 21 1019 60 10000 3.1 330 03:39 18.05.2020
2854 Clouds 21 1019 64 10000 2.6 290 02:56 18.05.2020
2855 Clouds 19 1018 77 10000 2.92 335 01:45 18.05.2020
2856 Clouds 19 1017 82 10000 2.1 300 00:41 18.05.2020
2857 Clouds 19 1017 82 10000 2.1 300 00:18 18.05.2020
2858 Clouds 19 1017 82 10000 2.1 300 00:18 18.05.2020
2859 Clouds 19 1017 82 9000 2.6 330 23:42 17.05.2020
2860 Clouds 19 1017 82 9000 2.6 330 23:42 17.05.2020
2861 Clouds 19 1017 82 9000 2.6 330 23:21 17.05.2020
2862 Clouds 17 1018 93 10000 2.1 340 22:59 17.05.2020
2863 Clouds 17 1018 93 10000 1 0 22:39 17.05.2020
2864 Clouds 16 1018 93 10000 1 0 22:21 17.05.2020
2865 Clouds 16 1018 87 10000 1.5 250 21:59 17.05.2020
2866 Clouds 16 1018 87 10000 1 0 21:41 17.05.2020
2867 Clouds 16 1018 87 10000 1 0 21:19 17.05.2020
2868 Clouds 17 1017 87 10000 1.79 238 20:55 17.05.2020
2869 Clouds 17 1017 87 10000 1.79 238 20:55 17.05.2020
2870 Clouds 17 1017 87 10000 1.79 238 20:36 17.05.2020
2871 Clouds 17 1017 87 10000 0.89 200 20:18 17.05.2020
2872 Clouds 18 1017 82 9000 2.1 130 19:42 17.05.2020
2873 Clouds 18 1017 82 9000 2.1 130 19:23 17.05.2020
2874 Clouds 18 1017 82 9000 3.1 130 18:55 17.05.2020
2875 Clouds 19 1017 72 10000 3.1 130 18:37 17.05.2020
2876 Clouds 19 1017 72 10000 3.1 130 18:19 17.05.2020
2877 Clouds 20 1016 68 10000 3.6 120 17:40 17.05.2020
2878 Clouds 20 1016 68 10000 3.6 120 17:40 17.05.2020
2879 Clouds 20 1016 68 10000 3.6 120 17:40 17.05.2020
2880 Clouds 20 1016 68 10000 3.6 120 17:21 17.05.2020
2881 Clouds 21 1017 68 10000 4.1 120 16:56 17.05.2020
2882 Clouds 21 1016 68 10000 5.1 120 16:37 17.05.2020
2883 Clouds 21 1016 68 10000 5.1 120 16:19 17.05.2020
2884 Clouds 21 1017 64 10000 5.1 110 15:41 17.05.2020
2885 Clouds 21 1017 64 10000 5.1 110 15:23 17.05.2020
2886 Clouds 22 1018 64 10000 4.6 120 14:56 17.05.2020
2887 Clouds 22 1018 64 10000 3.6 110 14:37 17.05.2020
2888 Clouds 22 1018 64 10000 3.6 110 14:19 17.05.2020
2889 Clouds 22 1019 72 10000 4.6 100 13:41 17.05.2020
2890 Clouds 21 1019 72 10000 4.6 100 13:20 17.05.2020
2891 Clouds 13 1021 93 10000 1.5 60 04:54 17.05.2020
2892 Clouds 14 1022 87 10000 0.5 0 03:30 17.05.2020
2893 Clouds 14 1022 82 10000 2.1 100 02:24 17.05.2020
2894 Clouds 14 1022 87 10000 2.1 90 01:50 17.05.2020
2895 Clouds 14 1022 87 10000 2.6 100 00:45 17.05.2020
2896 Clouds 14 1023 87 10000 2.1 100 00:24 17.05.2020
2897 Clouds 14 1023 93 10000 1 0 23:42 16.05.2020
2898 Clouds 14 1023 93 10000 1 0 23:21 16.05.2020
2899 Clouds 14 1023 87 10000 2.35 153 22:59 16.05.2020
2900 Clouds 14 1023 87 10000 2.1 100 22:41 16.05.2020
2901 Clouds 14 1023 87 10000 2.1 100 22:21 16.05.2020
2902 Clouds 15 1023 87 10000 1 110 21:55 16.05.2020
2903 Clouds 15 1023 87 10000 2.1 120 21:37 16.05.2020
2904 Clouds 15 1023 87 10000 2.1 120 21:19 16.05.2020
2905 Clouds 15 1023 82 10000 3.1 120 20:54 16.05.2020
2906 Clouds 16 1022 82 10000 2.6 120 20:36 16.05.2020
2907 Clouds 16 1022 82 10000 2.6 120 20:18 16.05.2020
2908 Clouds 17 1022 77 10000 3.6 130 19:40 16.05.2020
2909 Clouds 17 1022 77 10000 3.6 130 19:22 16.05.2020
2910 Clouds 18 1021 68 10000 5.1 130 18:55 16.05.2020
2911 Clouds 18 1021 63 10000 4.1 130 18:36 16.05.2020
2912 Clouds 19 1021 63 10000 4.1 130 18:18 16.05.2020
2913 Clouds 19 1021 63 10000 4.1 130 18:18 16.05.2020
2914 Clouds 19 1021 72 10000 5.1 130 17:40 16.05.2020
2915 Clouds 19 1021 72 10000 5.1 130 17:20 16.05.2020
2916 Clouds 20 1021 72 10000 5.7 130 16:42 16.05.2020
2917 Clouds 20 1021 72 10000 6.7 130 16:23 16.05.2020
2918 Clouds 20 1021 72 10000 7.2 120 15:58 16.05.2020
2919 Clouds 21 1020 64 10000 7.7 120 15:40 16.05.2020
2920 Clouds 21 1020 64 10000 7.7 120 15:20 16.05.2020
2921 Clouds 22 1020 64 10000 8.7 120 14:51 16.05.2020
2922 Clouds 23 1020 64 10000 9.3 130 14:21 16.05.2020
2923 Clouds 23 1020 53 10000 8.2 130 13:59 16.05.2020
2924 Clouds 29 1019 32 10000 7.2 290 13:41 16.05.2020
2925 Clouds 29 1019 32 10000 7.2 290 13:41 16.05.2020
2926 Clouds 29 1019 32 10000 7.2 290 13:22 16.05.2020
2927 Clouds 29 1019 32 10000 8.7 320 12:55 16.05.2020
2928 Clouds 29 1018 35 10000 6.7 320 12:37 16.05.2020
2929 Clouds 29 1018 35 10000 6.7 320 12:18 16.05.2020
2930 Clouds 28 1018 37 10000 7.7 340 11:39 16.05.2020
2931 Clouds 28 1018 37 10000 7.7 340 11:20 16.05.2020
2932 Clouds 28 1018 39 10000 6.2 310 10:56 16.05.2020
2933 Clouds 28 1017 37 10000 7.2 320 10:37 16.05.2020
2934 Clouds 27 1017 37 10000 7.2 320 10:18 16.05.2020
2935 Clouds 26 1017 41 10000 6.2 310 09:45 16.05.2020
2936 Clouds 26 1017 50 10000 6.2 300 09:27 16.05.2020
2937 Clouds 25 1016 50 10000 6.2 300 08:44 16.05.2020
2938 Clouds 24 1016 53 10000 5.7 310 08:22 16.05.2020
2939 Clouds 23 1016 53 10000 3.6 290 07:55 16.05.2020
2940 Clouds 22 1015 56 10000 6.7 310 07:37 16.05.2020
2941 Clouds 22 1015 56 10000 6.7 310 07:18 16.05.2020
2942 Clouds 21 1015 64 10000 4.6 300 06:43 16.05.2020
2943 Clouds 20 1015 64 10000 4.6 300 06:18 16.05.2020
2944 Clouds 20 1013 68 10000 3.6 310 05:39 16.05.2020
2945 Clouds 20 1012 64 10000 4.1 250 04:30 16.05.2020
2946 Clouds 18 1010 93 8000 0.5 0 02:59 16.05.2020
2947 Mist 18 1010 100 5000 2.6 10 02:22 16.05.2020
2948 Mist 18 1010 100 4100 2.6 190 01:54 16.05.2020
2949 Clouds 17 1010 100 7000 1 0 01:27 16.05.2020
2950 Clouds 17 1009 100 7000 1 310 00:51 16.05.2020
2951 Mist 17 1009 100 5000 1.5 280 00:23 16.05.2020
2952 Clouds 14 1009 100 6000 0.5 0 23:42 15.05.2020
2953 Clouds 14 1009 100 6000 0.5 0 23:20 15.05.2020
2954 Mist 13 1010 100 5000 1.51 250 22:59 15.05.2020
2955 Mist 13 1010 100 4900 1.51 250 22:40 15.05.2020
2956 Mist 13 1010 100 4900 1.16 178 22:19 15.05.2020
2957 Clouds 16 1010 100 6000 1 160 21:40 15.05.2020
2958 Clouds 16 1010 100 6000 1 160 21:22 15.05.2020
2959 Clouds 15 1010 100 7000 0.5 0 20:59 15.05.2020
2960 Clouds 15 1010 100 6000 1.5 90 20:41 15.05.2020
2961 Clouds 16 1010 100 6000 1.5 90 20:22 15.05.2020
2962 Mist 15 1010 100 4000 2.6 130 19:58 15.05.2020
2963 Mist 15 1011 100 3600 3.1 130 19:40 15.05.2020
2964 Mist 16 1011 100 3600 3.1 130 19:21 15.05.2020
2965 Mist 16 1011 100 4300 4.1 130 18:45 15.05.2020
2966 Mist 16 1011 100 5000 4.6 130 18:27 15.05.2020
2967 Clouds 18 1011 87 7000 5.7 130 17:41 15.05.2020
2968 Clouds 19 1011 87 7000 5.7 130 17:20 15.05.2020
2969 Clouds 19 1011 87 7000 6.2 130 16:58 15.05.2020
2970 Clouds 20 1011 82 9000 6.7 130 16:39 15.05.2020
2971 Clouds 20 1011 82 9000 6.7 130 16:19 15.05.2020
2972 Clouds 21 1011 77 10000 6.7 130 15:58 15.05.2020
2973 Clouds 18 1012 77 10000 6.2 130 15:39 15.05.2020
2974 Clouds 22 1012 77 10000 6.2 130 15:19 15.05.2020
2975 Clouds 23 1012 77 10000 6.7 130 14:42 15.05.2020
2976 Clouds 21 1012 72 10000 7.2 130 14:24 15.05.2020
2977 Clouds 22 1012 68 10000 7.2 130 13:59 15.05.2020
2978 Clouds 22 1012 68 10000 7.7 120 13:39 15.05.2020
2979 Clouds 22 1012 68 10000 7.7 120 13:20 15.05.2020
2980 Clouds 24 1012 68 10000 7.7 130 12:40 15.05.2020
2981 Clouds 24 1012 68 10000 7.7 130 12:19 15.05.2020
2982 Clouds 24 1012 68 10000 7.7 130 12:19 15.05.2020
2983 Clouds 25 1013 60 10000 6.7 150 11:57 15.05.2020
2984 Clouds 25 1013 60 10000 6.2 140 11:39 15.05.2020
2985 Clouds 25 1013 60 10000 6.2 140 11:20 15.05.2020
2986 Clouds 24 1013 60 10000 5.7 140 10:58 15.05.2020
2987 Clouds 24 1013 64 10000 4.6 150 10:39 15.05.2020
2988 Clouds 23 1013 64 10000 4.6 150 10:21 15.05.2020
2989 Clouds 23 1013 64 10000 3.6 160 09:58 15.05.2020
2990 Clouds 23 1013 64 10000 3.6 160 09:58 15.05.2020
2991 Clouds 21 1012 64 10000 3.1 150 09:37 15.05.2020
2992 Clear 22 1012 64 10000 3.1 150 09:18 15.05.2020
2993 Clear 22 1012 60 10000 3.1 50 08:54 15.05.2020
2994 Clear 22 1012 64 10000 4.1 50 08:36 15.05.2020
2995 Clear 22 1012 64 10000 4.1 50 08:18 15.05.2020
2996 Clear 20 1012 72 10000 1 0 07:42 15.05.2020
2997 Clear 20 1012 72 10000 1 0 07:42 15.05.2020
2998 Clear 20 1012 72 10000 1 0 07:23 15.05.2020
2999 Clear 17 1011 88 10000 2.1 110 06:35 15.05.2020
3000 Clear 18 1011 77 10000 2.1 350 05:38 15.05.2020
3001 Clear 18 1010 87 10000 1.62 162 03:52 15.05.2020
3002 Clear 19 1011 87 10000 1.36 168 02:58 15.05.2020
3003 Clouds 19 1012 82 10000 0.5 0 01:37 15.05.2020
3004 Clouds 18 1012 82 10000 0.5 0 01:18 15.05.2020
3005 Clouds 19 1012 82 10000 3.1 120 00:41 15.05.2020
3006 Clouds 20 1012 82 10000 3.1 120 00:22 15.05.2020
3007 Clouds 20 1012 77 10000 1 0 23:41 14.05.2020
3008 Clouds 20 1012 77 10000 1 0 23:19 14.05.2020
3009 Clouds 21 1013 68 10000 2.1 360 22:43 14.05.2020
3010 Clouds 21 1013 68 10000 2.86 235 22:24 14.05.2020
3011 Clouds 21 1013 68 10000 2.86 235 22:24 14.05.2020
3012 Clouds 22 1013 68 10000 1 0 21:59 14.05.2020
3013 Clouds 22 1013 72 10000 2.86 235 21:41 14.05.2020
3014 Clear 22 1013 72 10000 2.18 238 21:20 14.05.2020
3015 Clear 21 1013 68 10000 0.5 0 20:57 14.05.2020
3016 Clear 21 1013 77 10000 1.5 290 20:39 14.05.2020
3017 Clouds 23 1013 77 10000 1.5 290 20:19 14.05.2020
3018 Clouds 22 1012 72 10000 1.5 120 19:56 14.05.2020
3019 Clouds 23 1012 68 10000 1 90 19:37 14.05.2020
3020 Clouds 25 1012 68 10000 1 90 19:19 14.05.2020
3021 Clouds 26 1012 60 10000 0.5 0 18:56 14.05.2020
3022 Clouds 26 1011 64 10000 2.1 150 18:37 14.05.2020
3023 Clouds 27 1011 64 10000 2.1 150 18:18 14.05.2020
3024 Clouds 26 1012 64 10000 2.1 150 17:56 14.05.2020
3025 Clouds 26 1012 64 10000 3.1 130 17:36 14.05.2020
3026 Clouds 26 1012 64 10000 3.1 130 17:18 14.05.2020
3027 Clouds 23 1012 60 10000 3.6 120 16:39 14.05.2020
3028 Clouds 21 1012 60 10000 3.6 120 16:21 14.05.2020
3029 Clouds 21 1012 56 10000 4.6 130 15:58 14.05.2020
3030 Clouds 22 1012 53 10000 3.6 130 15:40 14.05.2020
3031 Clouds 22 1012 53 10000 3.6 130 15:20 14.05.2020
3032 Clouds 20 1013 64 10000 3.6 130 14:56 14.05.2020
3033 Clouds 20 1013 60 10000 4.1 120 14:38 14.05.2020
3034 Clouds 24 1013 60 10000 4.1 120 14:19 14.05.2020
3035 Clouds 24 1013 60 10000 4.1 120 14:19 14.05.2020
3036 Clouds 24 1013 60 10000 4.6 130 13:55 14.05.2020
3037 Clouds 21 1013 53 10000 5.1 130 13:37 14.05.2020
3038 Clear 24 1013 53 10000 5.1 130 13:18 14.05.2020
3039 Clear 20 1013 53 10000 5.1 130 12:57 14.05.2020
3040 Clear 20 1014 56 10000 4.6 120 12:37 14.05.2020
3041 Clear 20 1014 56 10000 4.6 120 12:18 14.05.2020
3042 Clear 19 1014 53 10000 4.6 110 11:55 14.05.2020
3043 Clear 18 1014 56 10000 4.6 100 11:37 14.05.2020
3044 Clear 18 1014 56 10000 4.6 100 11:19 14.05.2020
3045 Clear 17 1014 68 10000 5.7 100 10:41 14.05.2020
3046 Clear 17 1014 68 10000 5.7 100 10:41 14.05.2020
3047 Clear 20 1014 68 10000 5.7 100 10:22 14.05.2020
3048 Clear 19 1015 72 10000 5.1 100 09:43 14.05.2020
3049 Clear 15 1015 77 10000 4.6 100 09:24 14.05.2020
3050 Clear 17 1015 77 10000 5.1 100 08:56 14.05.2020
3051 Clear 15 1015 82 10000 3.1 110 08:37 14.05.2020
3052 Clouds 15 1015 82 10000 3.1 110 08:18 14.05.2020
3053 Clouds 14 1016 87 10000 3.6 90 07:44 14.05.2020
3054 Clouds 13 1015 93 10000 4.1 120 07:21 14.05.2020
3055 Clouds 12 1016 100 10000 3.6 120 06:43 14.05.2020
3056 Clouds 12 1016 100 10000 3.6 120 06:23 14.05.2020
3057 Clouds 12 1016 100 8000 1.5 110 05:37 14.05.2020
3058 Clouds 11 1016 100 10000 3.6 110 04:45 14.05.2020
3059 Clouds 11 1017 100 10000 2.6 90 03:37 14.05.2020
3060 Clouds 11 1018 93 10000 1.5 40 02:57 14.05.2020
3061 Clouds 11 1018 93 10000 1.5 30 02:34 14.05.2020
3062 Clear 11 1018 93 10000 3.1 100 01:48 14.05.2020
3063 Clouds 11 1019 87 10000 1.5 130 00:51 14.05.2020
3064 Clouds 11 1019 87 10000 1.5 130 00:27 14.05.2020
3065 Clouds 11 1020 87 10000 1.5 150 23:45 13.05.2020
3066 Clouds 11 1020 87 10000 2.1 130 23:23 13.05.2020
3067 Clouds 11 1020 87 10000 2.1 120 22:59 13.05.2020
3068 Clouds 11 1020 87 10000 2.1 120 22:40 13.05.2020
3069 Clouds 11 1020 87 10000 2.1 120 22:21 13.05.2020
3070 Clouds 11 1020 87 10000 2.1 120 22:21 13.05.2020
3071 Clear 11 1020 87 10000 2.6 130 21:57 13.05.2020
3072 Clear 11 1020 87 10000 2.1 140 21:39 13.05.2020
3073 Clear 11 1020 87 10000 2.1 140 21:19 13.05.2020
3074 Clear 11 1020 81 10000 2.1 140 20:42 13.05.2020
3075 Clear 11 1020 81 10000 2.1 140 20:23 13.05.2020
3076 Clear 11 1020 81 10000 3.1 130 19:57 13.05.2020
3077 Clear 12 1021 76 10000 3.6 130 19:39 13.05.2020
3078 Clear 13 1021 76 10000 3.6 130 19:21 13.05.2020
3079 Clear 14 1021 67 10000 4.6 120 18:42 13.05.2020
3080 Clear 14 1021 67 10000 4.6 120 18:21 13.05.2020
3081 Clear 15 1021 67 10000 5.7 120 17:40 13.05.2020
3082 Clear 15 1021 67 10000 5.7 120 17:20 13.05.2020
3083 Clear 16 1021 62 10000 6.7 120 16:59 13.05.2020
3084 Clear 15 1021 58 10000 6.7 110 16:40 13.05.2020
3085 Clear 15 1021 58 10000 6.7 110 16:19 13.05.2020
3086 Clear 15 1022 58 10000 6.2 130 15:54 13.05.2020
3087 Clear 15 1022 62 10000 6.7 130 15:36 13.05.2020
3088 Clear 15 1022 62 10000 6.7 130 15:18 13.05.2020
3089 Clear 16 1022 58 10000 7.2 120 14:41 13.05.2020
3090 Clear 16 1022 58 10000 7.2 120 14:22 13.05.2020
3091 Clear 16 1022 58 10000 7.7 130 13:58 13.05.2020
3092 Clear 16 1022 54 10000 7.2 120 13:39 13.05.2020
3093 Clear 16 1022 54 10000 7.2 120 13:39 13.05.2020
3094 Clear 16 1022 54 10000 7.2 120 13:21 13.05.2020
3095 Clear 16 1022 54 10000 7.2 130 12:57 13.05.2020
3096 Clear 16 1022 51 10000 7.2 130 12:39 13.05.2020
3097 Clear 17 1022 51 10000 7.2 130 12:18 13.05.2020
3098 Clear 15 1022 54 10000 6.7 130 11:55 13.05.2020
3099 Clear 14 1022 58 10000 7.2 130 11:36 13.05.2020
3100 Clear 16 1022 58 10000 7.2 130 11:18 13.05.2020
3101 Clear 16 1022 51 10000 6.7 140 10:56 13.05.2020
3102 Clouds 16 1022 47 10000 5.7 140 10:37 13.05.2020
3103 Clouds 16 1022 47 10000 5.7 140 10:18 13.05.2020
3104 Clouds 14 1023 50 10000 3.6 150 09:41 13.05.2020
3105 Clouds 14 1023 50 10000 3.6 150 09:23 13.05.2020
3106 Clouds 14 1023 50 10000 3.6 150 09:23 13.05.2020
3107 Clouds 13 1022 47 10000 3.6 90 08:54 13.05.2020
3108 Clouds 13 1023 50 10000 3.1 10 08:36 13.05.2020
3109 Clouds 13 1023 50 10000 3.1 10 08:18 13.05.2020
3110 Clouds 11 1021 54 10000 3.6 60 07:42 13.05.2020
3111 Clouds 11 1021 54 10000 3.6 60 07:24 13.05.2020
3112 Clouds 11 1021 53 10000 3.1 70 06:47 13.05.2020
3113 Clouds 10 1019 57 10000 3.1 350 05:59 13.05.2020
3114 Clouds 10 1018 53 10000 4.6 350 04:49 13.05.2020
3115 Clouds 12 1017 58 10000 3.6 0 03:26 13.05.2020
3116 Clouds 13 1016 58 10000 4.6 0 02:32 13.05.2020
3117 Clouds 15 1015 55 10000 3.6 350 01:36 13.05.2020
3118 Clouds 16 1014 55 10000 7.2 10 00:47 13.05.2020
3119 Clouds 18 1014 52 10000 4.1 320 00:20 13.05.2020
3120 Clouds 20 1013 43 10000 4.1 20 23:40 12.05.2020
3121 Clouds 20 1013 43 10000 4.1 20 23:40 12.05.2020
3122 Clouds 20 1013 43 10000 4.1 20 23:21 12.05.2020
3123 Clouds 23 1012 40 10000 5.1 320 22:57 12.05.2020
3124 Clouds 23 1011 38 10000 5.1 300 22:39 12.05.2020
3125 Clouds 22 1011 38 10000 5.1 300 22:20 12.05.2020
3126 Clouds 22 1010 40 10000 3.6 250 21:55 12.05.2020
3127 Clouds 24 1010 33 10000 6.2 290 21:37 12.05.2020
3128 Clouds 24 1010 33 10000 6.2 290 21:18 12.05.2020
3129 Clouds 25 1009 33 10000 7.7 310 20:56 12.05.2020
3130 Clouds 25 1009 31 10000 7.2 300 20:38 12.05.2020
3131 Clouds 25 1009 31 10000 7.2 300 20:19 12.05.2020
3132 Clouds 26 1008 31 10000 6.2 310 19:55 12.05.2020
3133 Clouds 26 1008 34 10000 7.2 310 19:37 12.05.2020
3134 Clouds 25 1008 34 10000 7.2 310 19:18 12.05.2020
3135 Clear 28 1006 25 10000 8.2 300 18:42 12.05.2020
3136 Clear 28 1006 25 10000 8.2 300 18:23 12.05.2020
3137 Clear 29 1006 26 10000 8.2 290 17:54 12.05.2020
3138 Clear 29 1006 25 10000 8.7 290 17:36 12.05.2020
3139 Clear 29 1006 25 10000 8.7 290 17:18 12.05.2020
3140 Clear 30 1005 25 10000 9.8 290 16:42 12.05.2020
3141 Clear 30 1005 25 10000 9.8 290 16:21 12.05.2020
3142 Clear 30 1005 27 10000 8.2 290 15:55 12.05.2020
3143 Clear 30 1005 27 10000 11.3 260 15:36 12.05.2020
3144 Clear 30 1005 27 10000 11.3 260 15:18 12.05.2020
3145 Clear 31 1005 25 10000 9.3 280 14:55 12.05.2020
3146 Clear 31 1005 25 10000 8.7 270 14:36 12.05.2020
3147 Clear 31 1005 25 10000 8.7 270 14:18 12.05.2020
3148 Clear 30 1005 25 10000 10.3 280 13:54 12.05.2020
3149 Clear 30 1005 25 10000 10.3 280 13:54 12.05.2020
3150 Clear 30 1004 27 10000 9.3 290 13:36 12.05.2020
3151 Clear 30 1004 27 10000 9.3 290 13:18 12.05.2020
3152 Clear 30 1004 27 10000 8.7 280 12:54 12.05.2020
3153 Clear 30 1004 27 10000 10.3 280 12:36 12.05.2020
3154 Clear 30 1004 27 10000 10.3 280 12:36 12.05.2020
3155 Clear 30 1004 27 10000 10.3 280 12:36 12.05.2020
3156 Clear 30 1004 27 10000 10.3 280 12:18 12.05.2020
3157 Clear 30 1004 28 10000 9.8 270 11:55 12.05.2020
3158 Clear 30 1004 33 10000 6.7 270 11:36 12.05.2020
3159 Clear 30 1004 33 10000 6.7 270 11:18 12.05.2020
3160 Clear 28 1004 32 10000 7.7 280 10:54 12.05.2020
3161 Clear 27 1004 34 10000 7.7 270 10:36 12.05.2020
3162 Clear 27 1004 34 10000 7.7 270 10:18 12.05.2020
3163 Clear 24 1004 36 10000 6.2 250 09:54 12.05.2020
3164 Clear 25 1004 36 10000 5.1 240 09:36 12.05.2020
3165 Clear 23 1004 36 10000 5.1 240 09:18 12.05.2020
3166 Clear 21 1004 38 10000 5.1 250 08:39 12.05.2020
3167 Clouds 21 1004 38 10000 5.1 250 08:19 12.05.2020
3168 Clouds 20 1004 43 10000 3.1 280 07:42 12.05.2020
3169 Clouds 19 1004 45 10000 3.6 290 07:24 12.05.2020
3170 Clouds 19 1004 48 10000 4.6 280 06:50 12.05.2020
3171 Clouds 15 1004 67 10000 1.5 270 06:29 12.05.2020
3172 Clouds 16 1003 62 10000 0.5 0 05:54 12.05.2020
3173 Clouds 16 1003 62 10000 1.5 0 05:35 12.05.2020
3174 Clouds 14 1004 76 10000 0.5 0 03:27 12.05.2020
3175 Clouds 14 1004 82 10000 1.5 50 02:52 12.05.2020
3176 Clouds 14 1005 76 10000 3.32 218 02:25 12.05.2020
3177 Clouds 14 1006 87 10000 2.8 172 01:27 12.05.2020
3178 Clouds 14 1007 82 10000 2.8 172 00:37 12.05.2020
3179 Clouds 15 1007 82 10000 2.6 190 00:18 12.05.2020
3180 Clouds 15 1008 87 10000 2.6 190 23:42 11.05.2020
3181 Clouds 16 1008 87 10000 2.62 191 23:21 11.05.2020
3182 -273 0 0 0 0 0 22:59 11.05.2020
3183 Clouds 16 1008 87 10000 0.5 0 22:59 11.05.2020
3184 Clouds 16 1008 82 10000 2.62 191 22:40 11.05.2020
3185 Clouds 16 1008 82 10000 3.15 192 22:20 11.05.2020
3186 Clouds 15 1009 82 10000 0.5 0 21:58 11.05.2020
3187 Clouds 16 1009 77 10000 1 0 21:40 11.05.2020
3188 Clouds 18 1009 77 10000 1 0 21:19 11.05.2020
3189 Clouds 18 1009 72 10000 3.1 120 20:59 11.05.2020
3190 Clouds 19 1009 68 10000 3.1 120 20:40 11.05.2020
3191 Clouds 19 1009 68 10000 3.1 120 20:21 11.05.2020
3192 Clouds 20 1009 68 10000 3.6 110 19:56 11.05.2020
3193 Clouds 21 1009 60 10000 3.1 100 19:37 11.05.2020
3194 Clouds 21 1009 60 10000 3.1 100 19:19 11.05.2020
3195 Clouds 22 1009 60 10000 3.6 90 18:55 11.05.2020
3196 Clouds 22 1009 56 10000 4.6 110 18:37 11.05.2020
3197 Clear 23 1009 56 10000 4.6 110 18:18 11.05.2020
3198 Clear 24 1009 53 10000 6.2 110 17:55 11.05.2020
3199 Clear 24 1009 53 10000 6.2 110 17:36 11.05.2020
3200 Clear 24 1009 53 10000 6.2 110 17:36 11.05.2020
3201 Clear 24 1009 53 10000 6.2 110 17:18 11.05.2020
3202 Clear 25 1009 46 10000 7.2 110 16:41 11.05.2020
3203 Clear 23 1009 46 10000 7.2 110 16:22 11.05.2020
3204 Clear 23 1010 49 10000 7.2 110 15:58 11.05.2020
3205 Clear 23 1010 46 10000 7.7 120 15:39 11.05.2020
3206 Clear 23 1010 46 10000 7.7 120 15:19 11.05.2020
3207 Clear 23 1010 46 10000 7.7 120 15:19 11.05.2020
3208 Clear 24 1010 44 10000 7.7 100 14:54 11.05.2020
3209 Clouds 24 1010 46 10000 7.7 110 14:36 11.05.2020
3210 Clear 24 1010 46 10000 7.7 110 14:36 11.05.2020
3211 Clouds 24 1010 46 10000 7.7 110 14:18 11.05.2020
3212 Clouds 24 1011 41 10000 6.7 110 13:41 11.05.2020
3213 Clear 23 1011 41 10000 6.7 110 13:19 11.05.2020
3214 Clear 22 1011 46 10000 6.7 120 12:58 11.05.2020
3215 Clear 22 1012 46 10000 5.7 130 12:39 11.05.2020
3216 Clear 22 1012 46 10000 5.7 130 12:21 11.05.2020
3217 Clear 22 1012 47 10000 5.1 120 11:56 11.05.2020
3218 Clear 22 1012 49 10000 4.6 130 11:37 11.05.2020
3219 Clouds 22 1012 49 10000 4.6 130 11:19 11.05.2020
3220 Clouds 21 1012 53 10000 4.1 120 10:54 11.05.2020
3221 Clouds 22 1013 56 10000 4.1 120 10:36 11.05.2020
3222 Clouds 21 1013 56 10000 4.1 120 10:18 11.05.2020
3223 Clouds 19 1012 60 10000 3.1 110 09:42 11.05.2020
3224 Clouds 18 1012 60 10000 3.1 110 09:22 11.05.2020
3225 Clouds 18 1013 68 10000 2.1 130 08:58 11.05.2020
3226 Clouds 18 1013 68 10000 2.1 130 08:58 11.05.2020
3227 Clouds 18 1013 72 10000 3.1 120 08:38 11.05.2020
3228 Clouds 17 1013 72 10000 3.1 120 08:18 11.05.2020
3229 Clouds 15 1013 82 10000 2.1 130 07:50 11.05.2020
3230 Clouds 15 1013 82 10000 1 0 07:31 11.05.2020
3231 Clouds 15 1013 82 10000 2.19 131 06:52 11.05.2020
3232 Clouds 13 1013 82 10000 0.5 100 06:18 11.05.2020
3233 Clouds 13 1013 81 10000 2.19 136 05:28 11.05.2020
3234 Clouds 13 1013 81 10000 1.5 50 04:35 11.05.2020
3235 Clouds 13 1013 82 10000 1.5 100 03:33 11.05.2020
3236 Clouds 14 1013 76 10000 2.6 110 02:33 11.05.2020
3237 Clouds 14 1014 76 10000 2.1 120 01:43 11.05.2020
3238 Clouds 14 1014 76 10000 2.1 90 00:53 11.05.2020
3239 Clouds 14 1014 71 10000 2.6 110 00:20 11.05.2020
3240 Clouds 14 1014 76 10000 3.6 110 23:44 10.05.2020
3241 Clouds 14 1014 76 10000 3.6 110 23:26 10.05.2020
3242 Clouds 15 1014 67 10000 3.6 110 22:57 10.05.2020
3243 Clouds 15 1014 67 10000 4.1 110 22:38 10.05.2020
3244 Clear 15 1014 67 10000 4.1 110 22:20 10.05.2020
3245 Clear 15 1014 62 10000 4.6 100 21:44 10.05.2020
3246 Clear 16 1014 62 10000 4.6 100 21:20 10.05.2020
3247 Clear 16 1014 59 10000 4.1 100 20:55 10.05.2020
3248 Clear 16 1013 59 10000 2.6 90 20:37 10.05.2020
3249 Clear 17 1013 59 10000 2.6 90 20:19 10.05.2020
3250 Clear 18 1013 48 10000 5.1 100 19:40 10.05.2020
3251 Clear 19 1013 48 10000 5.1 100 19:22 10.05.2020
3252 Clear 20 1013 45 10000 5.1 100 18:57 10.05.2020
3253 Clear 20 1013 45 10000 5.1 100 18:57 10.05.2020
3254 Clear 21 1013 40 10000 4.6 120 18:37 10.05.2020
3255 Clear 22 1013 40 10000 4.6 120 18:19 10.05.2020
3256 Clear 22 1013 37 10000 5.1 110 17:59 10.05.2020
3257 Clear 22 1013 40 10000 5.7 120 17:40 10.05.2020
3258 Clear 22 1013 40 10000 5.7 120 17:21 10.05.2020
3259 Clear 23 1013 37 10000 6.2 120 16:57 10.05.2020
3260 Clear 23 1013 37 10000 7.2 110 16:38 10.05.2020
3261 Clear 23 1013 37 10000 7.2 110 16:19 10.05.2020
3262 Clear 24 1013 38 10000 7.7 120 15:44 10.05.2020
3263 Clear 23 1013 40 10000 7.7 100 15:25 10.05.2020
3264 Clear 24 1014 40 10000 7.2 100 14:58 10.05.2020
3265 Clear 24 1014 37 10000 7.7 100 14:38 10.05.2020
3266 Clouds 24 1014 37 10000 7.7 100 14:20 10.05.2020
3267 Clouds 25 1014 38 10000 7.2 100 13:59 10.05.2020
3268 Clouds 24 1014 38 10000 6.7 110 13:38 10.05.2020
3269 Clouds 24 1014 38 10000 6.7 110 13:20 10.05.2020
3270 Clouds 24 1014 41 10000 6.2 110 12:57 10.05.2020
3271 Clouds 23 1014 43 10000 5.1 100 12:38 10.05.2020
3272 Clouds 23 1014 43 10000 5.1 100 12:20 10.05.2020
3273 Clouds 23 1014 46 10000 5.1 120 11:56 10.05.2020
3274 Clouds 24 1014 41 10000 2.1 210 11:38 10.05.2020
3275 Clouds 24 1014 41 10000 2.1 210 11:19 10.05.2020
3276 Clouds 22 1015 46 10000 2.1 0 10:46 10.05.2020
3277 Clouds 22 1015 46 10000 2.1 0 10:27 10.05.2020
3278 Clouds 23 1015 46 10000 2.1 250 09:57 10.05.2020
3279 Clouds 22 1015 52 10000 3.1 260 09:39 10.05.2020
3280 Clear 20 1015 52 10000 3.1 260 09:20 10.05.2020
3281 Clear 19 1015 55 10000 2.6 290 08:47 10.05.2020
3282 Clear 18 1015 63 10000 2.1 300 08:23 10.05.2020
3283 Clear 14 1014 81 10000 1.56 197 07:44 10.05.2020
3284 Clear 13 1014 81 10000 1.1 247 07:20 10.05.2020
3285 Clear 14 1014 87 10000 1 270 06:52 10.05.2020
3286 Clear 10 1014 87 10000 1 0 06:30 10.05.2020
3287 Clear 10 1014 87 10000 1.29 280 05:48 10.05.2020
3288 Clear 9 1014 87 10000 0.5 280 04:49 10.05.2020
3289 Clear 9 1014 87 10000 1.34 269 04:29 10.05.2020
3290 Clear 9 1014 87 10000 1.27 261 03:54 10.05.2020
3291 Clear 9 1014 81 10000 1 0 03:35 10.05.2020
3292 Clear 10 1014 81 10000 1 10 02:41 10.05.2020
3293 Clear 10 1014 81 10000 1 10 02:18 10.05.2020
3294 Clear 11 1014 71 10000 0.88 258 01:40 10.05.2020
3295 Clear 11 1014 71 10000 0.79 220 01:19 10.05.2020
3296 Clear 11 1014 71 10000 1 350 00:53 10.05.2020
3297 Clouds 11 1014 76 10000 1 0 00:23 10.05.2020
3298 Clouds 11 1014 76 10000 1.5 100 23:57 09.05.2020
3299 Clouds 11 1014 76 10000 2.1 120 23:38 09.05.2020
3300 Clouds 12 1014 76 10000 2.1 120 23:19 09.05.2020
3301 Clouds 13 1014 62 10000 5.1 110 22:41 09.05.2020
3302 Clouds 13 1014 62 10000 5.1 110 22:23 09.05.2020
3303 Clouds 15 1014 51 10000 2.1 80 21:57 09.05.2020
3304 Clouds 15 1014 51 10000 2.6 90 21:39 09.05.2020
3305 Clear 16 1014 51 10000 2.6 90 21:20 09.05.2020
3306 Clear 16 1014 51 10000 2.6 90 21:20 09.05.2020
3307 Clear 16 1014 48 10000 3.6 80 20:57 09.05.2020
3308 Clear 16 1014 48 10000 3.6 80 20:38 09.05.2020
3309 Clear 16 1014 48 10000 3.6 80 20:19 09.05.2020
3310 Clear 16 1013 51 10000 3.6 90 19:54 09.05.2020
3311 Clear 17 1013 48 10000 3.6 100 19:36 09.05.2020
3312 Clear 17 1013 48 10000 3.6 100 19:36 09.05.2020
3313 Clear 17 1013 48 10000 3.6 100 19:18 09.05.2020
3314 Clouds 18 1013 45 10000 5.1 90 18:41 09.05.2020
3315 Clouds 19 1013 45 10000 5.1 90 18:21 09.05.2020
3316 Clouds 20 1013 42 10000 5.7 90 17:44 09.05.2020
3317 Rain 21 1013 48 10000 6.2 100 17:23 09.05.2020
3318 Rain 21 1013 42 10000 7.2 100 16:56 09.05.2020
3319 Rain 20 1013 48 10000 7.7 90 16:38 09.05.2020
3320 Clear 19 1013 48 10000 7.7 90 16:18 09.05.2020
3321 Clouds 20 1014 49 10000 7.2 90 15:42 09.05.2020
3322 Clouds 20 1014 49 10000 7.2 90 15:22 09.05.2020
3323 Clouds 21 1014 46 10000 7.2 90 14:56 09.05.2020
3324 Clouds 24 1014 27 10000 3.1 250 14:37 09.05.2020
3325 Clouds 24 1014 27 10000 3.1 250 14:18 09.05.2020
3326 Clouds 24 1014 33 10000 3.1 0 13:43 09.05.2020
3327 Clouds 23 1015 31 10000 3.6 160 13:22 09.05.2020
3328 Clouds 23 1015 31 10000 4.1 160 12:58 09.05.2020
3329 Clouds 23 1015 31 10000 3.1 240 12:39 09.05.2020
3330 Clouds 23 1015 31 10000 3.1 240 12:39 09.05.2020
3331 Clouds 23 1015 31 10000 3.1 240 12:21 09.05.2020
3332 Clouds 22 1016 33 10000 3.1 230 11:44 09.05.2020
3333 Clouds 22 1016 33 10000 4.1 240 11:20 09.05.2020
3334 Clouds 22 1016 33 10000 4.1 240 11:20 09.05.2020
3335 Clouds 21 1016 35 10000 4.1 230 10:54 09.05.2020
3336 Clouds 20 1017 37 10000 5.7 250 10:36 09.05.2020
3337 Clear 20 1017 37 10000 5.7 250 10:18 09.05.2020
3338 Clear 19 1017 36 10000 5.1 270 09:41 09.05.2020
3339 Clear 18 1017 36 10000 5.1 270 09:20 09.05.2020
3340 Clear 16 1017 38 10000 5.7 270 08:54 09.05.2020
3341 Clear 16 1017 38 10000 5.7 270 08:54 09.05.2020
3342 Clear 17 1017 41 10000 4.1 240 08:35 09.05.2020
3343 Clear 15 1017 50 10000 3.1 260 07:56 09.05.2020
3344 Clear 14 1017 54 10000 1 0 07:38 09.05.2020
3345 Clear 14 1017 54 10000 1 0 07:20 09.05.2020
3346 Clear 10 1018 71 10000 2.6 340 06:27 09.05.2020
3347 Clear 9 1018 70 10000 2.6 350 05:50 09.05.2020
3348 Clear 9 1018 70 10000 2.1 340 05:19 09.05.2020
3349 Clear 8 1018 70 10000 3.1 340 03:39 09.05.2020
3350 Clear 8 1019 70 10000 1.5 330 02:53 09.05.2020
3351 Clear 8 1019 75 10000 1.5 330 02:29 09.05.2020
3352 Clouds 8 1019 81 10000 2.1 10 01:48 09.05.2020
3353 Clouds 7 1019 81 10000 2.1 360 01:20 09.05.2020
3354 Clouds 8 1019 70 10000 1.5 40 00:42 09.05.2020
3355 Clouds 8 1019 70 10000 1.5 40 00:18 09.05.2020
3356 Clouds 9 1019 61 10000 1 0 23:43 08.05.2020
3357 Clouds 9 1019 61 10000 1 0 23:24 08.05.2020
3358 Clouds 10 1019 57 10000 2.1 100 22:55 08.05.2020
3359 Clouds 10 1019 62 10000 0.5 80 22:37 08.05.2020
3360 Clouds 10 1019 62 10000 0.5 80 22:18 08.05.2020
3361 Clouds 10 1019 66 10000 1.5 0 21:54 08.05.2020
3362 Clouds 11 1019 54 10000 1 0 21:36 08.05.2020
3363 Clouds 11 1019 54 10000 1 0 21:18 08.05.2020
3364 Clouds 12 1018 50 10000 2.6 70 20:41 08.05.2020
3365 Clouds 13 1018 50 10000 2.6 70 20:23 08.05.2020
3366 Clouds 14 1018 44 10000 2.1 20 19:56 08.05.2020
3367 Clouds 16 1018 41 10000 3.1 310 19:38 08.05.2020
3368 Clouds 16 1018 41 10000 3.1 310 19:19 08.05.2020
3369 Clouds 17 1018 36 10000 2.6 310 18:44 08.05.2020
3370 Clouds 17 1018 36 10000 2.6 310 18:44 08.05.2020
3371 Clouds 17 1018 36 10000 3.1 320 18:26 08.05.2020
3372 Clouds 18 1018 36 10000 5.1 330 17:43 08.05.2020
3373 Clouds 18 1018 34 10000 2.1 360 17:20 08.05.2020
3374 Clouds 18 1018 36 10000 3.6 10 16:55 08.05.2020
3375 Clouds 18 1018 34 10000 3.1 340 16:37 08.05.2020
3376 Clouds 18 1018 34 10000 3.1 340 16:18 08.05.2020
3377 Clouds 18 1018 31 10000 6.7 300 15:42 08.05.2020
3378 Clouds 18 1018 31 10000 6.7 300 15:20 08.05.2020
3379 Clouds 18 1018 29 10000 5.1 290 14:56 08.05.2020
3380 Clouds 18 1018 29 10000 5.1 290 14:56 08.05.2020
3381 Clouds 18 1018 29 10000 5.7 320 14:37 08.05.2020
3382 Rain 18 1018 29 10000 5.7 320 14:18 08.05.2020
3383 Rain 18 1019 34 10000 4.1 330 13:41 08.05.2020
3384 Clouds 18 1019 34 10000 4.1 330 13:20 08.05.2020
3385 Clouds 18 1019 33 10000 6.2 320 12:56 08.05.2020
3386 Clouds 18 1019 39 10000 4.6 330 12:38 08.05.2020
3387 Clouds 18 1019 39 10000 4.6 330 12:20 08.05.2020
3388 Clouds 16 1019 51 10000 3.6 340 11:44 08.05.2020
3389 Clouds 16 1019 51 10000 3.6 340 11:23 08.05.2020
3390 Clouds 15 1019 47 10000 4.1 350 10:58 08.05.2020
3391 Clouds 15 1019 51 10000 3.6 350 10:40 08.05.2020
3392 Clouds 14 1019 51 10000 3.6 350 10:19 08.05.2020
3393 Clouds 14 1019 47 10000 2.6 360 09:56 08.05.2020
3394 Clouds 13 1019 50 10000 2.6 20 09:37 08.05.2020
3395 Clouds 13 1019 50 10000 2.6 20 09:18 08.05.2020
3396 Clouds 11 1019 54 10000 2.1 10 08:40 08.05.2020
3397 Clouds 11 1019 54 10000 2.1 10 08:21 08.05.2020
3398 Clouds 10 1018 62 10000 2.6 10 07:43 08.05.2020
3399 Clouds 10 1018 62 10000 2.6 10 07:23 08.05.2020
3400 Clouds 11 1018 76 10000 1 0 06:50 08.05.2020
3401 Clouds 11 1017 81 10000 1.5 330 06:22 08.05.2020
3402 Clouds 10 1017 76 10000 1.5 350 05:41 08.05.2020
3403 Clouds 10 1016 93 10000 1.5 310 04:30 08.05.2020
3404 Rain 11 1016 87 10000 1.5 350 02:32 08.05.2020
3405 Clouds 11 1016 93 10000 1.5 350 01:45 08.05.2020
3406 Drizzle 11 1017 93 10000 1.5 350 01:23 08.05.2020
3407 Clouds 11 1016 93 10000 1.5 360 00:51 08.05.2020
3408 Clouds 10 1016 100 10000 2.1 360 00:29 08.05.2020
3409 Rain 10 1016 93 10000 0.5 0 23:58 07.05.2020
3410 Rain 11 1016 81 10000 0.5 0 23:40 07.05.2020
3411 Rain 11 1016 81 10000 0.5 0 23:21 07.05.2020
3412 Rain 11 1016 81 10000 3.1 140 22:54 07.05.2020
3413 Rain 11 1016 81 10000 2.1 100 22:36 07.05.2020
3414 Rain 12 1016 81 10000 2.1 100 22:18 07.05.2020
3415 Rain 14 1016 62 10000 3.1 80 21:54 07.05.2020
3416 Clouds 13 1015 62 10000 1 0 21:36 07.05.2020
3417 Clouds 13 1015 62 10000 1 0 21:18 07.05.2020
3418 Clouds 14 1014 58 10000 4.1 30 20:41 07.05.2020
3419 Clouds 15 1014 58 10000 4.1 30 20:21 07.05.2020
3420 Clouds 14 1014 71 10000 2.1 350 19:50 07.05.2020
3421 Clouds 15 1013 62 10000 2.1 330 19:24 07.05.2020
3422 Rain 16 1013 55 10000 4.6 340 18:59 07.05.2020
3423 Clouds 16 1013 48 10000 4.6 290 18:40 07.05.2020
3424 Clouds 16 1013 48 10000 4.6 290 18:21 07.05.2020
3425 Clouds 17 1012 45 10000 5.1 300 17:43 07.05.2020
3426 Clouds 17 1012 45 10000 5.1 300 17:21 07.05.2020
3427 Clouds 17 1012 45 10000 5.7 300 16:43 07.05.2020
3428 Clouds 17 1012 45 10000 6.2 290 16:20 07.05.2020
3429 Clouds 17 1012 39 10000 6.2 290 15:58 07.05.2020
3430 Clouds 18 1012 39 10000 5.1 290 15:39 07.05.2020
3431 Clouds 18 1012 39 10000 5.1 290 15:39 07.05.2020
3432 Clouds 18 1012 39 10000 5.1 290 15:19 07.05.2020
3433 Clouds 17 1012 42 10000 6.7 320 14:59 07.05.2020
3434 Clouds 17 1012 42 10000 7.7 280 14:41 07.05.2020
3435 Clouds 17 1012 42 10000 7.7 280 14:19 07.05.2020
3436 Clouds 16 1012 44 10000 6.7 310 13:43 07.05.2020
3437 Clouds 17 1012 44 10000 7.7 290 13:25 07.05.2020
3438 Clouds 17 1012 44 10000 7.7 290 13:25 07.05.2020
3439 Clouds 17 1011 45 10000 8.2 310 12:44 07.05.2020
3440 Clouds 16 1011 41 10000 9.3 290 12:20 07.05.2020
3441 Clouds 16 1011 48 10000 10.3 300 11:58 07.05.2020
3442 Clouds 16 1011 44 10000 8.7 310 11:38 07.05.2020
3443 Clouds 16 1011 44 10000 8.7 310 11:20 07.05.2020
3444 Clouds 16 1011 48 10000 9.3 280 10:41 07.05.2020
3445 Clouds 15 1011 48 10000 9.3 280 10:22 07.05.2020
3446 Clear 15 1010 50 10000 8.2 280 09:41 07.05.2020
3447 Clear 14 1010 50 10000 8.2 280 09:20 07.05.2020
3448 Clear 12 1011 54 10000 9.8 280 08:57 07.05.2020
3449 Clear 11 1011 54 10000 7.7 270 08:38 07.05.2020
3450 Clear 12 1011 54 10000 7.7 270 08:20 07.05.2020
3451 Clear 9 1010 57 10000 6.2 280 07:44 07.05.2020
3452 Clear 9 1010 57 10000 6.2 280 07:25 07.05.2020
3453 Clear 9 1010 61 10000 3.6 290 06:48 07.05.2020
3454 Clear 7 1011 65 10000 3.1 310 06:23 07.05.2020
3455 Clear 7 1011 70 10000 2.6 270 05:29 07.05.2020
3456 Clouds 7 1011 65 10000 4.6 270 03:55 07.05.2020
3457 Clear 7 1011 65 10000 3.1 280 03:24 07.05.2020
3458 Clear 7 1011 65 10000 4.6 260 02:42 07.05.2020
3459 Clouds 8 1011 65 10000 3.6 270 01:42 07.05.2020
3460 Clouds 8 1011 65 10000 3.6 270 01:23 07.05.2020
3461 Clouds 8 1011 70 10000 3.1 230 00:45 07.05.2020
3462 Clouds 8 1011 66 10000 1.5 220 00:26 07.05.2020
3463 Clouds 9 1010 66 10000 0.5 0 23:46 06.05.2020
3464 Clouds 9 1010 66 10000 0.5 0 23:25 06.05.2020
3465 Clouds 9 1010 66 10000 0.5 0 23:25 06.05.2020
3466 Clouds 9 1010 66 10000 1.5 310 22:57 06.05.2020
3467 Clouds 9 1010 71 10000 2.6 330 22:39 06.05.2020
3468 Clouds 10 1010 71 10000 2.6 330 22:19 06.05.2020
3469 Clouds 10 1010 66 10000 1 0 21:56 06.05.2020
3470 Clouds 10 1010 66 10000 1.5 280 21:38 06.05.2020
3471 Clouds 10 1010 66 10000 1.5 280 21:38 06.05.2020
3472 Clouds 10 1010 66 10000 1.5 280 21:38 06.05.2020
3473 Clouds 10 1010 66 10000 1.5 280 21:19 06.05.2020
3474 Clouds 11 1010 58 10000 3.6 270 20:42 06.05.2020
3475 Clouds 11 1010 58 10000 3.6 270 20:23 06.05.2020
3476 Clouds 11 1010 58 10000 4.6 260 19:58 06.05.2020
3477 Clouds 12 1009 54 10000 5.7 280 19:39 06.05.2020
3478 Clouds 12 1009 54 10000 5.7 280 19:19 06.05.2020
3479 Clouds 13 1009 58 10000 6.2 270 18:58 06.05.2020
3480 Rain 14 1009 62 10000 6.2 270 18:39 06.05.2020
3481 Rain 14 1009 62 10000 6.2 270 18:21 06.05.2020
3482 Rain 13 1009 66 10000 7.7 270 17:58 06.05.2020
3483 Clouds 15 1010 54 10000 7.7 290 17:39 06.05.2020
3484 Clouds 14 1010 54 10000 7.7 290 17:21 06.05.2020
3485 Clouds 15 1009 54 10000 10.8 280 16:58 06.05.2020
3486 Clouds 15 1009 58 10000 10.3 280 16:40 06.05.2020
3487 Clouds 15 1009 58 10000 10.3 280 16:20 06.05.2020
3488 Clouds 15 1009 58 10000 10.3 270 15:57 06.05.2020
3489 Clouds 15 1009 63 10000 10.3 280 15:39 06.05.2020
3490 Clouds 16 1009 63 10000 10.3 280 15:20 06.05.2020
3491 Rain 15 1009 72 10000 8.7 300 14:42 06.05.2020
3492 Rain 15 1009 72 10000 8.7 300 14:19 06.05.2020
3493 Clouds 15 1009 67 10000 9.3 280 13:59 06.05.2020
3494 Clouds 15 1009 67 10000 9.3 280 13:59 06.05.2020
3495 Clouds 15 1009 67 10000 9.3 280 13:39 06.05.2020
3496 Clouds 15 1009 67 10000 9.3 280 13:19 06.05.2020
3497 Clouds 16 1009 67 10000 8.2 270 12:44 06.05.2020
3498 Clouds 17 1008 63 10000 6.2 280 12:26 06.05.2020
3499 Clouds 17 1009 67 10000 6.2 290 11:56 06.05.2020
3500 Clouds 16 1009 72 10000 4.1 280 11:37 06.05.2020
3501 Clouds 16 1009 72 10000 4.1 280 11:19 06.05.2020
3502 Clouds 15 1009 77 10000 2.6 280 10:56 06.05.2020
3503 Rain 15 1009 82 10000 2.6 260 10:37 06.05.2020
3504 Rain 14 1009 82 10000 2.6 260 10:18 06.05.2020
3505 Clouds 14 1008 71 10000 1 0 09:39 06.05.2020
3506 Clouds 14 1008 71 10000 1 0 09:21 06.05.2020
3507 Clouds 13 1008 82 8000 1.5 260 08:45 06.05.2020
3508 Clouds 13 1008 81 7000 0.5 0 08:21 06.05.2020
3509 Clouds 13 1008 81 7000 0.5 0 08:21 06.05.2020
3510 Clouds 13 1008 93 7000 1.5 320 07:58 06.05.2020
3511 Clouds 13 1008 87 8000 1 0 07:39 06.05.2020
3512 Clouds 12 1008 87 8000 1 0 07:19 06.05.2020
3513 Clouds 12 1008 87 10000 1 250 06:49 06.05.2020
3514 Clouds 11 1008 93 9000 2.13 260 06:21 06.05.2020
3515 Clouds 11 1008 93 8000 1.5 360 05:50 06.05.2020
3516 Clouds 10 1009 100 6000 0.5 280 05:32 06.05.2020
3517 Clear 10 1010 93 10000 1.5 320 03:54 06.05.2020
3518 Clear 9 1010 100 10000 1.5 300 03:31 06.05.2020
3519 Clear 10 1010 87 10000 2.1 350 02:55 06.05.2020
3520 Clear 10 1010 87 10000 2.2 274 02:27 06.05.2020
3521 Clear 10 1011 87 10000 2.1 360 01:43 06.05.2020
3522 Clouds 10 1011 87 10000 2.1 360 01:25 06.05.2020
3523 Clouds 10 1011 100 10000 1 0 00:44 06.05.2020
3524 Clouds 10 1011 93 10000 1.5 290 00:19 06.05.2020
3525 Clouds 11 1011 81 10000 1.5 360 23:42 05.05.2020
3526 Clouds 11 1011 81 10000 1.5 360 23:20 05.05.2020
3527 Clouds 11 1011 81 10000 1 0 22:55 05.05.2020
3528 Clouds 12 1011 76 10000 1 0 22:37 05.05.2020
3529 Clouds 12 1011 76 10000 1 0 22:18 05.05.2020
3530 Clouds 13 1012 76 10000 0.5 0 21:41 05.05.2020
3531 Clouds 13 1012 76 10000 0.5 0 21:22 05.05.2020
3532 Clouds 13 1012 76 10000 1 0 20:59 05.05.2020
3533 Clouds 14 1011 67 10000 1 0 20:40 05.05.2020
3534 Clouds 15 1011 67 10000 1 0 20:20 05.05.2020
3535 Clouds 16 1011 55 10000 0.5 0 19:59 05.05.2020
3536 Clouds 17 1011 52 10000 3.1 290 19:39 05.05.2020
3537 Rain 17 1011 52 10000 3.1 290 19:21 05.05.2020
3538 Rain 18 1011 48 10000 5.7 290 18:57 05.05.2020
3539 Rain 19 1011 45 10000 6.7 280 18:38 05.05.2020
3540 Rain 19 1011 45 10000 6.7 280 18:19 05.05.2020
3541 Rain 20 1011 45 10000 7.2 290 17:54 05.05.2020
3542 Rain 20 1011 42 10000 6.7 280 17:36 05.05.2020
3543 Rain 20 1011 42 10000 6.7 280 17:18 05.05.2020
3544 Clouds 20 1011 40 10000 6.7 280 16:38 05.05.2020
3545 Clouds 21 1011 40 10000 6.7 280 16:19 05.05.2020
3546 Clouds 21 1011 40 10000 6.7 260 15:57 05.05.2020
3547 Clouds 20 1012 45 10000 6.7 280 15:38 05.05.2020
3548 Clouds 20 1012 45 10000 6.7 280 15:20 05.05.2020
3549 Clouds 21 1012 45 10000 7.7 280 14:54 05.05.2020
3550 Clouds 20 1012 49 10000 8.2 280 14:36 05.05.2020
3551 Clouds 20 1012 49 10000 8.2 280 14:18 05.05.2020
3552 Clouds 20 1012 59 10000 6.2 260 13:54 05.05.2020
3553 Clouds 19 1012 59 10000 4.6 280 13:36 05.05.2020
3554 Rain 19 1012 59 10000 4.6 280 13:18 05.05.2020
3555 Rain 17 1013 63 10000 5.1 280 12:40 05.05.2020
3556 Rain 17 1013 63 10000 5.1 280 12:22 05.05.2020
3557 Clouds 16 1013 67 10000 7.2 260 11:59 05.05.2020
3558 Clouds 16 1014 63 10000 7.2 270 11:40 05.05.2020
3559 Clouds 16 1014 63 10000 7.2 270 11:19 05.05.2020
3560 Clouds 16 1014 67 10000 7.2 260 10:55 05.05.2020
3561 Clouds 16 1014 72 10000 7.7 260 10:36 05.05.2020
3562 Clouds 17 1014 72 10000 7.7 260 10:18 05.05.2020
3563 Clouds 16 1013 67 10000 6.7 270 09:44 05.05.2020
3564 Clouds 16 1013 72 10000 6.2 290 09:26 05.05.2020
3565 Clouds 14 1013 72 10000 5.7 300 08:56 05.05.2020
3566 Clouds 14 1013 72 10000 5.1 290 08:37 05.05.2020
3567 Clouds 14 1013 72 10000 5.1 290 08:18 05.05.2020
3568 Clouds 13 1013 76 10000 4.6 300 07:43 05.05.2020
3569 Clouds 12 1013 76 10000 5.1 300 07:20 05.05.2020
3570 Clouds 13 1013 76 10000 5.1 310 06:51 05.05.2020
3571 Clouds 11 1013 81 10000 5.7 300 06:30 05.05.2020
3572 Clouds 11 1013 87 10000 6.2 280 05:51 05.05.2020
3573 Clouds 12 1012 82 10000 4.6 280 04:54 05.05.2020
3574 Clouds 13 1012 87 10000 5.7 290 02:37 05.05.2020
3575 Clouds 13 1012 87 10000 5.1 290 00:56 05.05.2020
3576 Clouds 13 1012 87 10000 4.6 270 00:31 05.05.2020
3577 Clouds 13 1012 93 10000 4.6 270 23:48 04.05.2020
3578 Clouds 13 1012 93 10000 4.6 270 23:48 04.05.2020
3579 Clouds 13 1012 87 10000 5.1 270 23:26 04.05.2020
3580 Rain 13 1012 87 10000 5.1 270 22:58 04.05.2020
3581 Clouds 13 1012 87 10000 5.7 280 22:40 04.05.2020
3582 Clouds 13 1012 87 10000 5.7 280 22:21 04.05.2020
3583 Clouds 12 1011 87 10000 5.1 280 21:57 04.05.2020
3584 Clouds 12 1011 87 10000 6.2 280 21:37 04.05.2020
3585 Clouds 12 1011 87 10000 6.2 280 21:19 04.05.2020
3586 Rain 13 1010 87 10000 7.7 310 20:41 04.05.2020
3587 Rain 13 1010 87 10000 7.7 310 20:41 04.05.2020
3588 Rain 13 1010 87 10000 7.7 310 20:41 04.05.2020
3589 Rain 13 1010 87 10000 7.7 310 20:41 04.05.2020
3590 Rain 13 1010 87 10000 7.7 310 20:40 04.05.2020
3591 Rain 13 1010 87 10000 7.7 310 20:20 04.05.2020
3592 Rain 13 1010 93 5000 8.7 300 19:55 04.05.2020
3593 Rain 14 1009 87 8000 5.1 320 19:37 04.05.2020
3594 Rain 14 1009 87 8000 5.1 320 19:18 04.05.2020
3595 Clouds 14 1009 77 10000 4.6 300 18:38 04.05.2020
3596 Clouds 14 1009 77 10000 4.6 300 18:19 04.05.2020
3597 Clouds 14 1009 72 10000 6.2 290 17:56 04.05.2020
3598 Clouds 14 1009 77 10000 5.1 300 17:37 04.05.2020
3599 Clouds 14 1009 77 10000 5.1 300 17:19 04.05.2020
3600 Clouds 15 1008 82 10000 5.7 270 16:43 04.05.2020
3601 Clouds 17 1008 77 10000 7.2 270 16:23 04.05.2020
3602 Clouds 16 1008 77 10000 7.2 260 15:57 04.05.2020
3603 Clouds 17 1008 72 10000 7.2 270 15:38 04.05.2020
3604 Clouds 17 1008 72 10000 7.2 270 15:20 04.05.2020
3605 Clouds 16 1008 77 10000 5.7 280 14:48 04.05.2020
3606 Clouds 16 1008 77 10000 5.7 280 14:48 04.05.2020
3607 Clouds 16 1008 77 10000 5.7 280 14:48 04.05.2020
3608 Clouds 16 1008 77 10000 5.7 280 14:48 04.05.2020
3609 Clouds 16 1008 77 10000 5.7 280 14:48 04.05.2020
3610 Clouds 16 1008 68 10000 5.7 270 14:20 04.05.2020
3611 Clouds 16 1008 72 10000 5.1 290 13:20 04.05.2020
3612 Clouds 16 1008 72 10000 5.1 290 13:20 04.05.2020
3613 Clouds 16 1008 72 10000 5.1 290 13:20 04.05.2020
3614 Clouds 16 1008 72 10000 5.1 290 13:20 04.05.2020
3615 Clouds 16 1008 72 10000 5.1 290 13:20 04.05.2020
3616 Clouds 16 1008 77 10000 5.1 300 12:43 04.05.2020
3617 Clouds 16 1008 77 10000 5.1 300 12:42 04.05.2020
3618 Clouds 16 1008 77 10000 5.1 300 12:42 04.05.2020
3619 Clouds 16 1008 77 10000 5.1 300 12:42 04.05.2020
3620 Rain 15 1008 77 10000 5.7 300 12:42 04.05.2020
3621 Clouds 14 1008 82 10000 4.1 320 10:38 04.05.2020
3622 Clouds 13 1007 87 10000 4.1 300 09:26 04.05.2020
3623 Clouds 13 1007 87 10000 4.1 300 09:26 04.05.2020
3624 Clouds 13 1007 87 10000 4.1 300 09:26 04.05.2020
3625 Clouds 13 1007 87 10000 4.1 300 09:26 04.05.2020
3626 Clouds 12 1006 87 10000 2.6 290 07:53 04.05.2020
3627 Clouds 12 1006 87 10000 4.1 280 07:33 04.05.2020
3628 Clouds 12 1006 87 10000 4.1 280 07:33 04.05.2020
3629 Clouds 12 1006 87 10000 4.1 280 07:33 04.05.2020
3630 Clouds 12 1006 87 10000 4.1 280 07:33 04.05.2020
3631 Clouds 12 1006 87 10000 4.1 280 07:33 04.05.2020
3632 Rain 11 1006 100 10000 4.1 260 05:18 04.05.2020
3633 Rain 11 1006 87 10000 4.1 260 04:10 04.05.2020
3634 Rain 12 1005 82 10000 5.1 270 02:38 04.05.2020
3635 Clouds 12 1006 82 10000 4.6 270 01:20 04.05.2020
3636 Clouds 13 1006 87 10000 5.1 260 23:58 03.05.2020
3637 Clouds 14 1006 82 10000 4.1 230 23:40 03.05.2020
3638 Clouds 14 1006 82 10000 4.1 230 23:22 03.05.2020
3639 Clouds 14 1006 82 10000 2.1 290 22:43 03.05.2020
3640 Clouds 14 1006 82 10000 2.1 290 22:43 03.05.2020
3641 Clouds 14 1006 82 10000 2.1 290 22:43 03.05.2020
3642 Clouds 14 1006 82 10000 3.6 250 22:22 03.05.2020
3643 Clouds 15 1006 77 10000 2.6 260 21:42 03.05.2020
3644 Clouds 15 1006 77 10000 2.6 260 21:42 03.05.2020
3645 Clouds 15 1006 77 10000 2.6 260 21:42 03.05.2020
3646 Clouds 15 1006 77 10000 2.6 260 21:22 03.05.2020
3647 Clouds 15 1006 77 10000 2.1 240 20:54 03.05.2020
3648 Clouds 14 1006 77 10000 2.6 300 20:36 03.05.2020
3649 Clouds 15 1006 77 10000 2.6 300 20:18 03.05.2020
3650 Clouds 15 1005 77 10000 2.6 300 19:46 03.05.2020
3651 Clouds 15 1005 77 10000 3.1 290 19:26 03.05.2020
3652 Clouds 15 1005 77 10000 3.1 290 19:26 03.05.2020
3653 Clouds 16 1005 72 10000 1 0 18:40 03.05.2020
3654 Clouds 17 1005 72 10000 1 0 18:21 03.05.2020
3655 Clouds 17 1005 67 10000 1.5 270 17:58 03.05.2020
3656 Clouds 17 1005 72 10000 1.02 247 17:40 03.05.2020
3657 Clouds 17 1005 72 10000 1.49 154 17:20 03.05.2020
3658 Clouds 17 1005 72 10000 1.49 154 17:20 03.05.2020
3659 Clouds 17 1004 67 10000 0.5 0 16:44 03.05.2020
3660 Clouds 17 1004 67 10000 2.75 120 16:19 03.05.2020
3661 Clouds 17 1004 72 10000 1 0 15:58 03.05.2020
3662 Clouds 17 1004 82 10000 2.6 140 15:39 03.05.2020
3663 Clouds 17 1004 82 10000 2.6 140 15:20 03.05.2020
3664 Clouds 17 1004 82 10000 3.1 130 14:57 03.05.2020
3665 Rain 18 1004 82 10000 5.1 140 14:38 03.05.2020
3666 Rain 18 1004 82 10000 5.1 140 14:19 03.05.2020
3667 Clouds 18 1005 77 10000 4.6 130 13:39 03.05.2020
3668 Clouds 18 1005 77 10000 4.6 130 13:39 03.05.2020
3669 Clouds 18 1005 77 10000 4.6 130 13:39 03.05.2020
3670 Clouds 18 1005 77 10000 4.6 130 13:39 03.05.2020
3671 Clouds 17 1005 87 10000 6.2 130 12:59 03.05.2020
3672 Clouds 17 1005 87 10000 6.2 130 12:59 03.05.2020
3673 Clouds 17 1005 87 10000 6.2 130 12:59 03.05.2020
3674 Clouds 17 1005 87 10000 6.2 130 12:59 03.05.2020
3675 Clouds 17 1005 87 10000 6.2 130 12:58 03.05.2020
3676 Clouds 17 1005 77 10000 5.1 130 12:38 03.05.2020
3677 Clouds 17 1005 72 10000 5.7 130 11:58 03.05.2020
3678 Clouds 18 1004 59 10000 2.1 0 11:40 03.05.2020
3679 Clouds 18 1004 59 10000 2.1 0 11:21 03.05.2020
3680 Clouds 18 1004 77 10000 2.1 250 10:55 03.05.2020
3681 Clouds 17 1004 87 10000 3.1 250 10:26 03.05.2020
3682 Clouds 16 1004 82 10000 2.1 270 09:42 03.05.2020
3683 Clouds 16 1004 82 10000 2.1 270 09:22 03.05.2020
3684 Clouds 16 1004 82 10000 2.1 270 09:22 03.05.2020
3685 Clouds 16 1004 82 10000 2.1 270 09:22 03.05.2020
3686 Clouds 14 1004 87 10000 3.1 360 08:36 03.05.2020
3687 Rain 14 1004 93 10000 2.1 240 07:59 03.05.2020
3688 Rain 14 1004 100 6000 1 0 07:37 03.05.2020
3689 Rain 14 1004 100 6000 1 0 07:37 03.05.2020
3690 Rain 13 1003 100 2700 1.5 230 05:57 03.05.2020
3691 Rain 13 1003 100 4500 2.1 280 05:38 03.05.2020
3692 Rain 13 1003 100 9000 2.6 280 04:28 03.05.2020
3693 Thunderstorm 13 1003 100 8000 1 260 03:46 03.05.2020
3694 Thunderstorm 13 1003 100 8000 1 260 03:46 03.05.2020
3695 Clouds 13 1003 87 10000 2.1 360 02:32 03.05.2020
3696 Clouds 13 1004 87 10000 0.83 76 01:59 03.05.2020
3697 Clouds 13 1004 87 10000 2.1 110 01:39 03.05.2020
3698 Clouds 13 1004 87 10000 2.1 110 01:21 03.05.2020
3699 Clouds 13 1004 87 10000 2.1 130 00:38 03.05.2020
3700 Clouds 13 1004 87 10000 2.1 130 00:20 03.05.2020
3701 Clouds 13 1004 82 10000 1 0 23:46 02.05.2020
3702 Clouds 14 1004 82 10000 2.1 60 23:27 02.05.2020
3703 Clouds 13 1004 82 10000 2.1 100 22:56 02.05.2020
3704 Clouds 13 1004 82 10000 2.6 110 22:38 02.05.2020
3705 Clouds 13 1004 82 10000 2.6 110 22:19 02.05.2020
3706 Clouds 14 1004 72 10000 1 0 21:41 02.05.2020
3707 Clouds 14 1004 72 10000 1 0 21:20 02.05.2020
3708 Clouds 14 1004 72 10000 1 0 21:20 02.05.2020
3709 Clouds 14 1004 72 10000 2.6 110 20:58 02.05.2020
3710 Clouds 14 1004 72 10000 2.6 110 20:58 02.05.2020
3711 Clouds 15 1004 72 10000 4.1 100 20:38 02.05.2020
3712 Clouds 15 1004 72 10000 4.1 100 20:20 02.05.2020
3713 Clouds 16 1005 67 10000 3.6 110 19:58 02.05.2020
3714 Clouds 16 1004 59 10000 4.6 100 19:39 02.05.2020
3715 Clouds 16 1004 59 10000 4.6 100 19:39 02.05.2020
3716 Clouds 17 1004 59 10000 4.6 100 19:20 02.05.2020
3717 Clouds 18 1004 55 10000 5.1 100 18:56 02.05.2020
3718 Clouds 18 1004 52 10000 5.7 110 18:37 02.05.2020
3719 Rain 19 1004 52 10000 5.7 110 18:19 02.05.2020
3720 Rain 20 1004 49 10000 5.7 100 17:55 02.05.2020
3721 Rain 21 1004 46 10000 4.1 110 17:37 02.05.2020
3722 Rain 21 1004 46 10000 4.1 110 17:19 02.05.2020
3723 Clouds 22 1004 43 10000 3.1 130 16:43 02.05.2020
3724 Clouds 22 1004 46 10000 4.6 140 16:25 02.05.2020
3725 Clouds 21 1005 49 10000 6.2 140 15:44 02.05.2020
3726 Clouds 21 1005 49 10000 6.2 140 15:21 02.05.2020
3727 Clouds 22 1005 52 10000 5.7 100 14:59 02.05.2020
3728 Clouds 22 1005 52 10000 5.7 110 14:41 02.05.2020
3729 Clouds 21 1005 52 10000 5.7 110 14:22 02.05.2020
3730 Clouds 23 1005 41 10000 3.1 0 13:41 02.05.2020
3731 Clouds 24 1005 41 10000 3.1 0 13:23 02.05.2020
3732 Clouds 24 1006 43 10000 2.6 0 12:56 02.05.2020
3733 Clouds 23 1006 43 10000 3.1 270 12:38 02.05.2020
3734 Clouds 23 1006 43 10000 3.1 270 12:20 02.05.2020
3735 Clouds 22 1006 49 10000 3.1 260 11:55 02.05.2020
3736 Clouds 21 1006 49 10000 4.1 290 11:36 02.05.2020
3737 Clouds 21 1006 49 10000 4.1 290 11:18 02.05.2020
3738 Clear 22 1007 60 10000 2.6 250 10:39 02.05.2020
3739 Rain 21 1007 60 10000 2.6 250 10:21 02.05.2020
3740 Rain 20 1007 68 10000 3.1 220 09:58 02.05.2020
3741 Rain 19 1007 68 10000 2.1 260 09:39 02.05.2020
3742 Clear 18 1007 68 10000 2.1 260 09:21 02.05.2020
3743 Clear 17 1007 67 10000 2.6 230 08:51 02.05.2020
3744 Clouds 16 1007 77 10000 3.1 250 08:31 02.05.2020
3745 Clouds 15 1007 82 10000 2.6 250 07:49 02.05.2020
3746 Clouds 15 1007 87 10000 1.5 260 07:30 02.05.2020
3747 Clouds 14 1007 87 10000 2.1 280 06:53 02.05.2020
3748 Clouds 13 1006 93 10000 0.5 0 06:23 02.05.2020
3749 Clouds 12 1006 93 10000 2.58 298 05:27 02.05.2020
3750 Clouds 12 1006 93 10000 0.5 0 04:26 02.05.2020
3751 Clouds 13 1006 93 10000 2.6 260 03:34 02.05.2020
3752 Clouds 14 1006 87 10000 3.1 280 02:39 02.05.2020
3753 Clouds 14 1006 82 10000 2.6 250 01:51 02.05.2020
3754 Clouds 15 1007 77 10000 1 0 00:58 02.05.2020
3755 Clouds 15 1007 67 10000 3.1 200 00:36 02.05.2020
3756 Rain 15 1007 67 10000 3.1 200 00:18 02.05.2020
3757 Rain 16 1006 67 10000 5.1 310 23:39 01.05.2020
3758 Rain 16 1006 67 10000 5.1 310 23:20 01.05.2020
3759 Rain 16 1007 63 10000 5.1 280 22:56 01.05.2020
3760 Rain 16 1007 67 10000 6.2 280 22:37 01.05.2020
3761 Rain 16 1007 67 10000 6.2 280 22:18 01.05.2020
3762 Rain 16 1007 67 10000 6.2 280 22:18 01.05.2020
3763 Rain 16 1007 82 10000 2.6 360 21:55 01.05.2020
3764 Rain 16 1007 77 10000 1 0 21:37 01.05.2020
3765 Clouds 16 1007 77 10000 1 0 21:18 01.05.2020
3766 Clouds 16 1007 77 10000 1 0 20:55 01.05.2020
3767 Clouds 17 1007 67 10000 2.6 110 20:37 01.05.2020
3768 Clouds 17 1007 67 10000 2.6 110 20:37 01.05.2020
3769 Clouds 17 1007 67 10000 2.6 110 20:18 01.05.2020
3770 Clouds 18 1006 59 10000 1.5 80 19:41 01.05.2020
3771 Clouds 18 1006 59 10000 1.5 80 19:22 01.05.2020
3772 Clouds 19 1006 59 10000 2.6 120 18:57 01.05.2020
3773 Clouds 20 1006 64 10000 3.1 130 18:39 01.05.2020
3774 Clouds 20 1006 64 10000 3.1 130 18:20 01.05.2020
3775 Clouds 20 1006 60 10000 2.1 170 17:56 01.05.2020
3776 Clouds 21 1006 52 10000 0.5 0 17:38 01.05.2020
3777 Clouds 21 1006 52 10000 0.5 0 17:20 01.05.2020
3778 Thunderstorm 21 1007 56 10000 2.1 190 16:55 01.05.2020
3779 Clouds 21 1006 52 10000 4.6 120 16:37 01.05.2020
3780 Clouds 22 1006 52 10000 4.6 120 16:18 01.05.2020
3781 Clouds 22 1006 49 10000 7.2 110 15:42 01.05.2020
3782 Clouds 22 1006 49 10000 7.2 110 15:24 01.05.2020
3783 Clouds 22 1006 52 10000 7.7 100 14:58 01.05.2020
3784 Clouds 21 1007 52 10000 7.2 100 14:39 01.05.2020
3785 Clouds 21 1007 52 10000 7.2 100 14:20 01.05.2020
3786 Clouds 23 1007 49 10000 6.2 130 13:40 01.05.2020
3787 Clouds 24 1007 49 10000 6.2 130 13:22 01.05.2020
3788 Clouds 24 1007 44 10000 2.6 0 12:57 01.05.2020
3789 Clouds 24 1008 41 10000 3.6 270 12:39 01.05.2020
3790 Clouds 24 1008 41 10000 3.6 270 12:19 01.05.2020
3791 Clear 23 1008 46 10000 4.6 260 11:46 01.05.2020
3792 Clear 23 1008 46 10000 4.1 260 11:26 01.05.2020
3793 Clear 22 1008 53 10000 4.1 270 10:59 01.05.2020
3794 Clear 21 1009 52 10000 3.1 280 10:40 01.05.2020
3795 Clear 22 1009 52 10000 3.1 280 10:20 01.05.2020
3796 Clear 22 1009 60 10000 4.6 260 09:44 01.05.2020
3797 Clear 22 1009 60 10000 4.6 260 09:44 01.05.2020
3798 Clear 22 1009 60 10000 3.6 300 09:44 01.05.2020
3799 Clear 20 1009 60 10000 4.6 260 09:20 01.05.2020
3800 Clear 19 1009 59 10000 5.1 270 08:58 01.05.2020
3801 Clear 17 1009 72 10000 3.6 260 08:40 01.05.2020
3802 Clear 17 1009 72 10000 3.6 260 08:21 01.05.2020
3803 Clear 16 1009 82 10000 2.1 240 07:44 01.05.2020
3804 Clear 15 1009 82 10000 2.1 240 07:22 01.05.2020
3805 Clear 14 1009 93 10000 1 0 06:50 01.05.2020
3806 Clear 11 1008 100 6000 1 220 05:35 01.05.2020
3807 Clear 11 1008 100 10000 1.5 340 04:39 01.05.2020
3808 Clear 12 1008 93 10000 0.5 0 03:24 01.05.2020
3809 Clear 12 1008 93 10000 1 0 02:43 01.05.2020
3810 Clouds 12 1008 87 10000 1 310 02:18 01.05.2020
3811 Clouds 13 1008 87 10000 2.1 360 01:28 01.05.2020
3812 Clouds 13 1008 87 10000 2.1 340 00:58 01.05.2020
3813 Clouds 13 1008 87 10000 1.5 270 00:37 01.05.2020
3814 Clouds 13 1008 87 10000 1.5 270 00:18 01.05.2020
3815 Clouds 13 1008 87 10000 1.5 330 23:54 30.04.2020
3816 Clouds 13 1008 93 10000 2.1 350 23:36 30.04.2020
3817 Clouds 13 1008 93 10000 2.1 350 23:18 30.04.2020
3818 Clouds 13 1008 93 10000 2.1 350 23:18 30.04.2020
3819 Clouds 14 1008 82 10000 3.1 0 22:40 30.04.2020
3820 Clouds 14 1008 82 10000 3.1 0 22:19 30.04.2020
3821 Clouds 14 1008 82 10000 3.1 340 21:55 30.04.2020
3822 Clouds 15 1008 82 10000 1 0 21:37 30.04.2020
3823 Clouds 14 1008 82 10000 1 0 21:18 30.04.2020
3824 Clouds 14 1008 82 10000 1 0 21:18 30.04.2020
3825 Thunderstorm 15 1008 82 10000 5.1 360 20:42 30.04.2020
3826 Thunderstorm 15 1008 82 10000 5.1 360 20:19 30.04.2020
3827 Rain 15 1007 77 10000 2.6 0 19:58 30.04.2020
3828 Thunderstorm 15 1007 77 10000 3.1 0 19:38 30.04.2020
3829 Thunderstorm 16 1007 77 10000 3.1 0 19:18 30.04.2020
3830 Rain 16 1006 72 10000 4.1 30 18:55 30.04.2020
3831 Rain 16 1006 72 10000 1 0 18:36 30.04.2020
3832 Rain 16 1006 72 10000 1 0 18:18 30.04.2020
3833 Thunderstorm 17 1006 68 10000 2.1 160 17:40 30.04.2020
3834 Thunderstorm 19 1006 68 10000 2.1 160 17:22 30.04.2020
3835 Clouds 18 1006 82 10000 3.6 50 16:58 30.04.2020
3836 Thunderstorm 17 1006 72 5000 6.2 240 16:40 30.04.2020
3837 Thunderstorm 18 1006 72 5000 6.2 240 16:19 30.04.2020
3838 Thunderstorm 21 1005 60 10000 4.1 110 15:48 30.04.2020
3839 Clouds 22 1005 56 10000 4.1 100 15:26 30.04.2020
3840 Clouds 20 1006 68 10000 3.1 130 14:59 30.04.2020
3841 Rain 20 1006 64 10000 4.1 290 14:40 30.04.2020
3842 Rain 20 1006 64 10000 4.1 290 14:19 30.04.2020
3843 Clouds 22 1006 43 10000 5.1 230 13:56 30.04.2020
3844 Clouds 22 1006 43 10000 5.1 230 13:56 30.04.2020
3845 Clouds 21 1006 49 10000 4.1 110 13:38 30.04.2020
3846 Clouds 21 1006 49 10000 4.1 110 13:19 30.04.2020
3847 Clouds 21 1006 43 10000 4.1 250 12:41 30.04.2020
3848 Clouds 21 1006 43 10000 4.1 250 12:21 30.04.2020
3849 Clouds 21 1006 43 10000 3.6 330 11:58 30.04.2020
3850 Clouds 21 1007 40 10000 3.6 270 11:37 30.04.2020
3851 Clouds 21 1007 40 10000 3.6 270 11:18 30.04.2020
3852 Rain 22 1007 40 10000 3.1 330 10:54 30.04.2020
3853 Rain 22 1007 43 10000 3.1 340 10:36 30.04.2020
3854 Clouds 22 1007 43 10000 3.1 340 10:18 30.04.2020
3855 Clouds 21 1007 49 10000 3.1 300 09:41 30.04.2020
3856 Clouds 21 1007 49 10000 3.1 300 09:22 30.04.2020
3857 Clouds 18 1007 68 10000 2.6 250 08:49 30.04.2020
3858 Clouds 17 1007 77 7000 1 0 08:27 30.04.2020
3859 Mist 14 1007 87 3400 2.6 260 07:58 30.04.2020
3860 Clouds 14 1007 87 7000 2.1 260 07:39 30.04.2020
3861 Clouds 13 1007 87 7000 2.1 260 07:20 30.04.2020
3862 Clouds 11 1006 100 8000 1 240 06:33 30.04.2020
3863 Clouds 10 1006 100 8000 1 340 05:47 30.04.2020
3864 Clouds 11 1006 100 7000 2.1 210 04:48 30.04.2020
3865 Clouds 11 1006 100 10000 0.5 0 04:24 30.04.2020
3866 Clouds 12 1007 93 10000 1 310 02:52 30.04.2020
3867 Clouds 12 1007 87 10000 1 0 02:28 30.04.2020
3868 Clouds 12 1007 93 10000 2.1 20 01:37 30.04.2020
3869 Clouds 13 1008 87 10000 0.5 0 00:53 30.04.2020
3870 Clouds 13 1008 87 10000 0.5 0 00:24 30.04.2020
3871 Clouds 13 1008 87 10000 0.5 0 00:24 30.04.2020
3872 Clouds 13 1008 87 10000 1.5 100 23:59 29.04.2020
3873 Clouds 13 1007 87 10000 2.6 120 23:41 29.04.2020
3874 Clouds 13 1007 87 10000 2.6 120 23:22 29.04.2020
3875 Clouds 13 1007 87 10000 3.1 100 22:58 29.04.2020
3876 Clouds 14 1008 93 10000 1 0 22:39 29.04.2020
3877 Clouds 14 1008 93 10000 1 0 22:19 29.04.2020
3878 Clouds 14 1008 82 10000 1.5 330 21:38 29.04.2020
3879 Clouds 14 1008 82 10000 1.5 330 21:20 29.04.2020
3880 Clouds 14 1008 82 10000 2.1 150 20:58 29.04.2020
3881 Rain 14 1008 77 10000 1.5 130 20:39 29.04.2020
3882 Rain 15 1008 77 10000 1.5 130 20:19 29.04.2020
3883 Thunderstorm 15 1008 63 10000 2.1 100 19:54 29.04.2020
3884 Clouds 15 1008 63 10000 2.6 90 19:36 29.04.2020
3885 Clouds 15 1008 63 10000 2.6 90 19:18 29.04.2020
3886 Clouds 17 1007 59 10000 5.1 120 18:41 29.04.2020
3887 Clouds 17 1007 59 10000 5.1 120 18:20 29.04.2020
3888 Rain 17 1007 59 10000 5.7 110 17:55 29.04.2020
3889 Rain 17 1007 59 10000 5.7 110 17:55 29.04.2020
3890 Rain 18 1007 55 10000 6.7 110 17:37 29.04.2020
3891 Rain 18 1007 55 10000 6.7 110 17:18 29.04.2020
3892 Rain 19 1007 52 10000 7.2 110 16:37 29.04.2020
3893 Clouds 19 1007 52 10000 7.2 110 16:18 29.04.2020
3894 Clouds 20 1007 49 10000 7.7 110 15:55 29.04.2020
3895 Clouds 20 1007 45 10000 8.2 110 15:37 29.04.2020
3896 Clouds 20 1007 45 10000 8.2 110 15:37 29.04.2020
3897 Clouds 20 1007 45 10000 8.2 110 15:19 29.04.2020
3898 Clouds 22 1008 45 10000 7.7 110 14:44 29.04.2020
3899 Clouds 20 1008 45 10000 7.7 110 14:26 29.04.2020
3900 Clouds 19 1008 43 10000 7.2 110 13:58 29.04.2020
3901 Clouds 18 1009 42 10000 7.2 100 13:38 29.04.2020
3902 Clouds 18 1009 42 10000 7.2 100 13:19 29.04.2020
3903 Clouds 18 1009 49 10000 6.2 110 12:55 29.04.2020
3904 Clouds 18 1009 49 10000 6.2 110 12:37 29.04.2020
3905 Clouds 18 1009 49 10000 6.2 110 12:18 29.04.2020
3906 Clouds 17 1010 55 10000 4.1 130 11:38 29.04.2020
3907 Clouds 17 1010 55 10000 4.1 130 11:20 29.04.2020
3908 Clouds 17 1010 55 10000 4.1 130 11:20 29.04.2020
3909 Clouds 17 1010 55 10000 4.1 130 11:20 29.04.2020
3910 Clouds 17 1010 55 10000 4.1 130 10:54 29.04.2020
3911 Clouds 17 1010 55 10000 4.1 130 10:54 29.04.2020
3912 Clouds 19 1010 55 10000 3.6 130 10:36 29.04.2020
3913 Clouds 19 1010 55 10000 3.6 130 10:18 29.04.2020
3914 Clouds 14 1011 63 10000 3.1 130 09:41 29.04.2020
3915 Clouds 14 1011 63 10000 3.1 130 09:21 29.04.2020
3916 Clouds 14 1011 71 10000 2.6 120 08:44 29.04.2020
3917 Clouds 14 1011 71 10000 2.6 120 08:25 29.04.2020
3918 Clouds 12 1011 82 10000 2.6 110 07:54 29.04.2020
3919 Clouds 11 1011 81 10000 3.1 100 07:29 29.04.2020
3920 Clouds 11 1011 81 10000 2.12 162 06:53 29.04.2020
3921 Clouds 8 1011 93 10000 0.5 350 06:32 29.04.2020
3922 Clouds 8 1011 87 10000 2.11 162 05:50 29.04.2020
3923 Clouds 8 1011 93 10000 1.5 50 05:19 29.04.2020
3924 Clear 8 1011 87 10000 1 0 04:20 29.04.2020
3925 Clear 9 1012 87 10000 2.1 100 03:53 29.04.2020
3926 Clear 9 1013 81 10000 4.1 100 01:59 29.04.2020
3927 Clear 9 1013 81 10000 3.6 100 01:29 29.04.2020
3928 Clear 9 1013 81 10000 3.6 90 00:59 29.04.2020
3929 Clear 9 1014 81 10000 3.1 100 00:37 29.04.2020
3930 Clear 9 1014 81 10000 3.1 100 00:18 29.04.2020
3931 Clear 9 1014 81 10000 3.6 90 23:43 28.04.2020
3932 Clear 9 1014 81 10000 3.6 90 23:43 28.04.2020
3933 Clear 9 1014 81 10000 3.1 100 23:21 28.04.2020
3934 Clear 10 1014 71 10000 3.6 110 22:39 28.04.2020
3935 Clear 10 1014 71 10000 3.6 110 22:20 28.04.2020
3936 Clear 10 1014 71 10000 3.6 120 21:59 28.04.2020
3937 Clear 10 1014 71 10000 3.6 120 21:40 28.04.2020
3938 Clear 10 1014 71 10000 3.6 120 21:40 28.04.2020
3939 Clear 10 1014 71 10000 3.6 120 21:22 28.04.2020
3940 Clear 10 1014 71 10000 3.1 120 20:58 28.04.2020
3941 Clear 10 1014 71 10000 3.1 130 20:40 28.04.2020
3942 Clear 10 1014 71 10000 3.1 130 20:40 28.04.2020
3943 Clear 10 1014 71 10000 3.1 130 20:20 28.04.2020
3944 Clear 11 1014 62 10000 4.6 120 19:56 28.04.2020
3945 Clear 12 1014 54 10000 4.6 120 19:38 28.04.2020
3946 Clear 12 1014 54 10000 4.6 120 19:19 28.04.2020
3947 Clear 13 1014 50 10000 5.7 120 18:42 28.04.2020
3948 Clear 13 1014 50 10000 5.7 120 18:20 28.04.2020
3949 Clear 14 1014 54 10000 6.7 120 17:59 28.04.2020
3950 Clear 14 1014 54 10000 6.7 120 17:37 28.04.2020
3951 Clear 14 1014 54 10000 6.7 120 17:37 28.04.2020
3952 Clear 14 1014 54 10000 6.7 120 17:19 28.04.2020
3953 Clear 14 1014 58 10000 7.2 120 16:56 28.04.2020
3954 Clear 15 1014 55 10000 7.7 120 16:38 28.04.2020
3955 Clear 15 1014 55 10000 7.7 120 16:20 28.04.2020
3956 Clear 17 1014 55 10000 8.2 120 15:55 28.04.2020
3957 Clear 16 1015 55 10000 8.2 120 15:37 28.04.2020
3958 Clear 16 1015 55 10000 8.2 120 15:18 28.04.2020
3959 Clear 16 1015 51 10000 8.7 130 14:43 28.04.2020
3960 Clouds 17 1015 48 10000 8.7 120 14:22 28.04.2020
3961 Clouds 17 1015 51 10000 8.7 120 13:59 28.04.2020
3962 Clouds 18 1015 52 10000 9.3 110 13:40 28.04.2020
3963 Clouds 18 1015 52 10000 9.3 110 13:21 28.04.2020
3964 Clouds 18 1015 48 10000 8.7 120 12:57 28.04.2020
3965 Clouds 17 1015 48 10000 7.7 130 12:37 28.04.2020
3966 Clouds 17 1015 48 10000 7.7 130 12:19 28.04.2020
3967 Clouds 15 1015 59 10000 7.2 100 11:41 28.04.2020
3968 Clouds 17 1015 59 10000 7.2 100 11:21 28.04.2020
3969 Clouds 16 1016 63 10000 5.7 100 10:56 28.04.2020
3970 Clouds 16 1016 67 10000 6.7 110 10:37 28.04.2020
3971 Clouds 15 1016 67 10000 6.7 110 10:18 28.04.2020
3972 Clouds 14 1016 67 10000 3.6 110 09:42 28.04.2020
3973 Clouds 14 1016 67 10000 3.6 110 09:42 28.04.2020
3974 Clouds 14 1016 67 10000 3.6 110 09:24 28.04.2020
3975 Clouds 14 1016 71 10000 3.1 120 08:50 28.04.2020
3976 Clouds 13 1016 76 10000 2.6 120 08:30 28.04.2020
3977 Clouds 11 1016 81 10000 2.6 110 07:59 28.04.2020
3978 Clouds 9 1016 87 10000 0.5 0 07:40 28.04.2020
3979 Clouds 9 1016 87 10000 0.5 0 07:18 28.04.2020
3980 Clouds 8 1016 87 10000 0.5 0 06:31 28.04.2020
3981 Clouds 8 1016 87 10000 1 0 05:47 28.04.2020
3982 Clouds 8 1016 87 10000 2.1 70 05:29 28.04.2020
3983 Clouds 8 1016 81 10000 1.5 70 04:33 28.04.2020
3984 Clouds 8 1016 87 10000 2.6 80 02:38 28.04.2020
3985 Clouds 8 1016 93 10000 2.1 60 01:27 28.04.2020
3986 Clouds 8 1016 93 10000 1.5 70 00:59 28.04.2020
3987 Clouds 8 1016 87 10000 1.5 70 00:29 28.04.2020
3988 Clouds 8 1016 87 10000 1.5 70 23:48 27.04.2020
3989 Clouds 8 1016 93 10000 1.5 60 23:25 27.04.2020
3990 Clouds 9 1016 93 10000 2.1 110 22:57 27.04.2020
3991 Clouds 9 1016 93 10000 2.6 100 22:38 27.04.2020
3992 Clouds 9 1016 93 10000 2.6 100 22:20 27.04.2020
3993 Clouds 9 1016 93 10000 2.6 100 21:56 27.04.2020
3994 Clouds 9 1016 81 10000 1.5 110 21:38 27.04.2020
3995 Clouds 9 1016 81 10000 1.5 110 21:18 27.04.2020
3996 Clouds 9 1016 81 10000 1.5 110 21:18 27.04.2020
3997 Clouds 9 1016 81 10000 1.5 110 21:18 27.04.2020
3998 Clouds 9 1015 81 10000 2.1 110 20:54 27.04.2020
3999 Clouds 10 1015 76 10000 2.6 110 20:36 27.04.2020
4000 Clouds 10 1015 76 10000 2.6 110 20:36 27.04.2020
4001 Clear 10 1015 76 10000 2.6 110 20:18 27.04.2020
4002 Clear 11 1014 71 10000 4.1 120 19:40 27.04.2020
4003 Clear 11 1014 71 10000 4.1 120 19:21 27.04.2020
4004 Clear 12 1014 71 10000 5.1 110 18:59 27.04.2020
4005 Clear 13 1014 71 10000 5.7 130 18:40 27.04.2020
4006 Clear 14 1014 71 10000 5.7 130 18:19 27.04.2020
4007 Clear 15 1014 62 10000 5.7 130 17:57 27.04.2020
4008 Clear 15 1014 54 10000 7.2 120 17:38 27.04.2020
4009 Clear 15 1014 54 10000 7.2 120 17:18 27.04.2020
4010 Clear 15 1013 54 10000 8.2 130 16:40 27.04.2020
4011 Clear 16 1013 54 10000 8.2 130 16:22 27.04.2020
4012 Clear 17 1013 48 10000 7.7 130 15:57 27.04.2020
4013 Clear 18 1013 42 10000 6.7 130 15:38 27.04.2020
4014 Clear 18 1013 42 10000 6.7 130 15:19 27.04.2020
4015 Clear 18 1013 42 10000 7.2 130 14:56 27.04.2020
4016 Clear 18 1013 42 10000 7.2 130 14:56 27.04.2020
4017 Clouds 18 1013 42 10000 7.7 120 14:37 27.04.2020
4018 Clouds 17 1013 42 10000 7.7 120 14:18 27.04.2020
4019 Clouds 17 1014 39 10000 8.2 130 13:42 27.04.2020
4020 Clouds 17 1014 39 10000 8.2 130 13:20 27.04.2020
4021 Clouds 17 1014 42 10000 7.2 140 12:56 27.04.2020
4022 Clouds 17 1014 42 10000 7.2 140 12:56 27.04.2020
4023 Clouds 17 1014 36 10000 6.7 120 12:38 27.04.2020
4024 Clouds 17 1014 36 10000 6.7 120 12:19 27.04.2020
4025 Clouds 17 1014 39 10000 5.7 100 11:41 27.04.2020
4026 Clouds 17 1014 39 10000 5.7 100 11:21 27.04.2020
4027 Clouds 17 1014 42 10000 5.1 100 10:57 27.04.2020
4028 Clouds 17 1014 48 10000 3.1 130 10:38 27.04.2020
4029 Clouds 17 1014 48 10000 3.1 130 10:20 27.04.2020
4030 Clouds 16 1013 51 10000 3.1 100 09:44 27.04.2020
4031 Clouds 15 1013 62 10000 3.1 110 09:19 27.04.2020
4032 Clouds 14 1013 62 10000 2.6 100 08:58 27.04.2020
4033 Clouds 12 1013 71 10000 4.1 40 08:38 27.04.2020
4034 Clouds 12 1013 71 10000 4.1 40 08:19 27.04.2020
4035 Clouds 12 1013 71 10000 4.1 40 08:19 27.04.2020
4036 Clouds 11 1013 81 10000 1.5 270 07:44 27.04.2020
4037 Clouds 11 1013 81 10000 1.5 270 07:20 27.04.2020
4038 Clouds 10 1012 87 10000 1 0 06:47 27.04.2020
4039 Clouds 9 1012 87 10000 0.5 0 06:25 27.04.2020
4040 Clouds 8 1012 87 10000 2.1 120 05:49 27.04.2020
4041 Clouds 9 1011 76 10000 1 0 04:41 27.04.2020
4042 Clouds 10 1010 66 10000 2.6 310 03:49 27.04.2020
4043 Clouds 10 1010 81 10000 1.04 327 02:42 27.04.2020
4044 Clouds 10 1010 87 10000 1.53 286 01:31 27.04.2020
4045 Clouds 10 1010 81 10000 0.5 0 00:47 27.04.2020
4046 Clouds 10 1010 76 10000 3.33 193 00:19 27.04.2020
4047 Clouds 10 1009 87 10000 3.33 193 23:55 26.04.2020
4048 Clouds 10 1009 87 10000 1 0 23:37 26.04.2020
4049 Clouds 9 1009 87 10000 1 0 23:18 26.04.2020
4050 Clouds 9 1009 87 10000 3.1 100 22:55 26.04.2020
4051 Clouds 10 1009 81 10000 3.6 100 22:37 26.04.2020
4052 Clouds 9 1009 81 10000 3.6 100 22:18 26.04.2020
4053 Clouds 10 1009 81 10000 4.1 100 21:56 26.04.2020
4054 Clouds 10 1009 76 10000 4.1 110 21:37 26.04.2020
4055 Clouds 10 1009 76 10000 4.1 110 21:18 26.04.2020
4056 Clouds 11 1009 66 10000 4.6 100 20:39 26.04.2020
4057 Clouds 11 1009 66 10000 4.6 100 20:20 26.04.2020
4058 Clouds 11 1008 54 10000 4.6 90 19:59 26.04.2020
4059 Clouds 12 1008 54 10000 4.6 100 19:38 26.04.2020
4060 Clouds 12 1008 54 10000 4.6 100 19:19 26.04.2020
4061 Clouds 13 1008 54 10000 4.1 110 18:44 26.04.2020
4062 Clouds 14 1008 44 10000 4.1 140 18:25 26.04.2020
4063 Clouds 15 1007 51 10000 5.1 100 17:57 26.04.2020
4064 Clouds 15 1007 47 10000 5.7 100 17:39 26.04.2020
4065 Clouds 15 1007 47 10000 5.7 100 17:19 26.04.2020
4066 Clouds 16 1008 44 10000 6.2 120 16:42 26.04.2020
4067 Clouds 16 1008 44 10000 6.2 120 16:23 26.04.2020
4068 Clouds 16 1008 41 10000 7.7 110 15:59 26.04.2020
4069 Clouds 17 1008 39 10000 8.7 110 15:41 26.04.2020
4070 Clouds 17 1008 39 10000 8.7 110 15:21 26.04.2020
4071 Clouds 17 1008 44 10000 8.7 100 14:57 26.04.2020
4072 Clouds 17 1008 51 10000 7.7 100 14:38 26.04.2020
4073 Clouds 18 1008 51 10000 7.7 100 14:18 26.04.2020
4074 Clouds 17 1008 48 10000 9.3 110 13:55 26.04.2020
4075 Clouds 19 1007 42 10000 8.7 110 13:37 26.04.2020
4076 Clouds 19 1007 42 10000 8.7 110 13:18 26.04.2020
4077 Clouds 20 1007 42 10000 7.7 100 12:40 26.04.2020
4078 Clouds 18 1007 42 10000 7.7 100 12:21 26.04.2020
4079 Clouds 18 1007 42 10000 6.7 120 11:59 26.04.2020
4080 Clouds 19 1007 34 10000 3.6 130 11:40 26.04.2020
4081 Clouds 19 1007 34 10000 3.6 130 11:21 26.04.2020
4082 Clouds 18 1007 39 10000 5.7 120 10:56 26.04.2020
4083 Clouds 18 1007 39 10000 5.7 120 10:56 26.04.2020
4084 Clouds 18 1007 42 10000 3.1 120 10:37 26.04.2020
4085 Clouds 18 1007 42 10000 3.1 120 10:18 26.04.2020
4086 Clouds 18 1007 39 10000 3.1 20 09:40 26.04.2020
4087 Clouds 18 1007 39 10000 3.1 20 09:21 26.04.2020
4088 Clouds 17 1007 39 10000 4.1 20 08:56 26.04.2020
4089 Clouds 17 1006 39 10000 3.6 350 08:37 26.04.2020
4090 Clouds 17 1006 39 10000 3.6 350 08:18 26.04.2020
4091 Clouds 16 1006 41 10000 3.6 290 07:46 26.04.2020
4092 Clouds 14 1006 47 10000 2.6 290 07:21 26.04.2020
4093 Clouds 13 1005 50 10000 4.6 280 06:43 26.04.2020
4094 Clouds 12 1004 50 10000 4.1 220 05:57 26.04.2020
4095 Clouds 8 1004 76 10000 3.1 270 05:38 26.04.2020
4096 Clouds 10 1004 61 10000 1.5 270 04:58 26.04.2020
4097 Clouds 9 1003 76 10000 1.5 250 04:22 26.04.2020
4098 Clear 11 1003 57 10000 2.6 340 02:51 26.04.2020
4099 Clear 10 1003 67 10000 2.1 340 02:31 26.04.2020
4100 Clear 10 1003 52 10000 0.5 0 01:46 26.04.2020
4101 Clear 10 1003 52 10000 1 0 01:26 26.04.2020
4102 Clear 10 1003 52 10000 2.1 340 00:39 26.04.2020
4103 Clear 10 1003 52 10000 2.1 340 00:19 26.04.2020
4104 Clear 10 1004 52 10000 1.5 20 23:39 25.04.2020
4105 Clear 10 1004 52 10000 1.5 20 23:20 25.04.2020
4106 Clear 10 1004 46 10000 2.6 40 22:58 25.04.2020
4107 Clear 11 1004 40 10000 2.6 70 22:39 25.04.2020
4108 Clear 11 1004 40 10000 2.6 70 22:19 25.04.2020
4109 Clear 11 1004 46 10000 3.1 110 21:40 25.04.2020
4110 Clear 11 1004 46 10000 3.1 110 21:20 25.04.2020
4111 Clear 12 1004 61 10000 4.1 110 20:58 25.04.2020
4112 Clear 12 1004 61 10000 4.6 90 20:40 25.04.2020
4113 Clear 12 1004 61 10000 4.6 90 20:22 25.04.2020
4114 Clear 13 1004 61 10000 5.1 90 19:55 25.04.2020
4115 Clear 14 1003 41 10000 6.2 90 19:37 25.04.2020
4116 Clear 15 1003 41 10000 6.2 90 19:18 25.04.2020
4117 Clear 16 1003 41 10000 6.7 90 18:39 25.04.2020
4118 Clear 17 1003 41 10000 6.7 90 18:21 25.04.2020
4119 Clear 18 1004 44 10000 7.2 100 17:58 25.04.2020
4120 Clear 18 1004 44 10000 7.2 100 17:58 25.04.2020
4121 Clear 18 1004 47 10000 7.7 90 17:38 25.04.2020
4122 Clear 18 1004 47 10000 7.7 90 17:19 25.04.2020
4123 Clear 19 1004 51 10000 8.2 90 16:55 25.04.2020
4124 Clear 19 1004 51 10000 9.3 110 16:37 25.04.2020
4125 Clear 19 1004 51 10000 9.3 110 16:19 25.04.2020
4126 Clear 20 1005 45 10000 7.7 100 15:41 25.04.2020
4127 Clear 20 1005 45 10000 7.7 100 15:41 25.04.2020
4128 Clear 20 1005 45 10000 7.7 100 15:20 25.04.2020
4129 Clear 20 1005 45 10000 7.7 100 15:20 25.04.2020
4130 Clear 17 1005 45 10000 8.2 100 14:58 25.04.2020
4131 Clear 17 1005 39 10000 8.2 100 14:39 25.04.2020
4132 Clear 17 1005 39 10000 8.2 100 14:20 25.04.2020
4133 Clear 18 1006 36 10000 8.7 110 13:43 25.04.2020
4134 Clear 17 1006 39 10000 8.7 110 13:22 25.04.2020
4135 Clear 18 1007 34 10000 6.2 120 12:58 25.04.2020
4136 Clear 20 1007 28 10000 5.7 130 12:40 25.04.2020
4137 Clear 20 1007 28 10000 5.7 130 12:21 25.04.2020
4138 Clear 20 1007 30 10000 4.6 130 11:58 25.04.2020
4139 Clear 20 1007 28 10000 3.6 150 11:39 25.04.2020
4140 Clear 20 1007 28 10000 3.6 150 11:21 25.04.2020
4141 Clear 18 1008 27 10000 2.1 0 10:44 25.04.2020
4142 Clear 17 1008 29 10000 1 0 10:24 25.04.2020
4143 Clear 16 1008 26 10000 1 0 09:50 25.04.2020
4144 Clear 14 1008 28 10000 1.5 0 09:30 25.04.2020
4145 Clear 12 1008 32 10000 2.1 250 08:59 25.04.2020
4146 Clear 10 1008 39 10000 1.5 260 08:40 25.04.2020
4147 Clear 12 1008 39 10000 1.5 260 08:21 25.04.2020
4148 Clear 10 1008 42 10000 1.5 240 07:58 25.04.2020
4149 Clear 10 1008 56 10000 1.5 270 07:39 25.04.2020
4150 Clear 7 1009 60 10000 1.82 229 06:48 25.04.2020
4151 Clear 5 1009 64 10000 1 340 06:30 25.04.2020
4152 Clear 4 1009 59 10000 2.1 260 05:40 25.04.2020
4153 Clear 4 1009 59 10000 2.1 260 05:18 25.04.2020
4154 Clear 4 1010 59 10000 1 300 02:59 25.04.2020
4155 Clear 3 1010 64 10000 1.5 320 02:21 25.04.2020
4156 Clear 4 1010 55 10000 1.5 340 01:53 25.04.2020
4157 Clear 3 1011 64 10000 1.5 350 01:34 25.04.2020
4158 Clear 4 1011 64 10000 1.5 250 00:56 25.04.2020
4159 Clear 5 1011 56 10000 2.6 30 00:32 25.04.2020
4160 Clear 5 1011 60 10000 1.5 30 23:45 24.04.2020
4161 Clear 5 1012 60 10000 2.1 40 23:24 24.04.2020
4162 Clear 6 1012 56 10000 2.1 50 22:59 24.04.2020
4163 Clear 6 1012 60 10000 1.5 60 22:39 24.04.2020
4164 Clear 6 1012 60 10000 1.5 60 22:19 24.04.2020
4165 Clear 6 1012 56 10000 1.5 50 21:55 24.04.2020
4166 Clear 7 1012 56 10000 1.5 90 21:37 24.04.2020
4167 Clear 7 1012 56 10000 1.5 90 21:19 24.04.2020
4168 Clear 8 1012 52 10000 2.1 100 20:55 24.04.2020
4169 Clear 8 1012 56 10000 2.1 120 20:37 24.04.2020
4170 Clear 8 1012 56 10000 2.1 120 20:18 24.04.2020
4171 Clear 10 1012 37 10000 3.6 120 19:40 24.04.2020
4172 Clear 10 1012 37 10000 3.6 120 19:21 24.04.2020
4173 Clear 12 1012 34 10000 4.1 120 18:45 24.04.2020
4174 Clear 13 1012 28 10000 4.6 140 18:26 24.04.2020
4175 Clear 14 1012 30 10000 4.6 130 17:57 24.04.2020
4176 Clear 14 1012 30 10000 5.7 110 17:37 24.04.2020
4177 Clear 15 1012 30 10000 6.2 100 17:19 24.04.2020
4178 Clear 15 1012 30 10000 6.2 100 16:57 24.04.2020
4179 Clear 15 1013 26 10000 6.2 120 16:39 24.04.2020
4180 Clear 15 1013 26 10000 6.2 120 16:20 24.04.2020
4181 Clear 15 1013 26 10000 6.2 120 15:42 24.04.2020
4182 Clear 15 1013 26 10000 6.2 120 15:21 24.04.2020
4183 Clear 16 1014 25 10000 6.2 120 14:41 24.04.2020
4184 Clear 16 1014 25 10000 6.2 120 14:23 24.04.2020
4185 Clear 15 1015 26 10000 6.2 120 13:59 24.04.2020
4186 Clear 16 1015 26 10000 6.2 110 13:41 24.04.2020
4187 Clear 15 1015 26 10000 6.2 110 13:21 24.04.2020
4188 Clear 15 1015 26 10000 6.2 110 13:21 24.04.2020
4189 Clear 15 1015 24 10000 5.1 120 12:58 24.04.2020
4190 Clear 15 1015 24 10000 5.1 120 12:39 24.04.2020
4191 Clear 15 1015 24 10000 5.1 120 12:19 24.04.2020
4192 Clear 15 1016 26 10000 4.6 120 11:43 24.04.2020
4193 Clear 15 1016 24 10000 4.1 110 11:21 24.04.2020
4194 Clear 15 1016 24 10000 3.6 110 10:57 24.04.2020
4195 Clear 14 1016 28 10000 2.6 0 10:38 24.04.2020
4196 Clear 14 1016 28 10000 2.6 0 10:19 24.04.2020
4197 Clear 14 1017 28 10000 2.1 0 09:54 24.04.2020
4198 Clear 13 1017 32 10000 1 0 09:36 24.04.2020
4199 Clear 13 1017 32 10000 1 0 09:18 24.04.2020
4200 Clear 10 1017 45 10000 1.5 280 08:41 24.04.2020
4201 Clear 10 1017 45 10000 1.5 280 08:19 24.04.2020
4202 Clear 8 1017 56 8000 1.5 250 07:47 24.04.2020
4203 Clear 7 1017 64 7000 1 0 07:27 24.04.2020
4204 Clear 7 1017 64 10000 0.84 340 06:59 24.04.2020
4205 Clear 4 1017 69 10000 0.84 340 06:40 24.04.2020
4206 Clear 2 1017 61 10000 1.5 260 05:49 24.04.2020
4207 Clear 1 1017 69 10000 1 0 04:46 24.04.2020
4208 Clear 2 1017 69 10000 1.5 260 03:27 24.04.2020
4209 Clear 3 1018 64 10000 1.92 293 02:44 24.04.2020
4210 Clear 3 1018 59 10000 0.5 320 02:20 24.04.2020
4211 Clear 3 1018 69 10000 0.5 0 01:37 24.04.2020
4212 Clear 3 1019 64 10000 1 0 00:43 24.04.2020
4213 Clear 3 1019 64 10000 1 350 00:18 24.04.2020
4214 Clear 4 1019 64 10000 1.5 360 23:44 23.04.2020
4215 Clear 4 1020 69 10000 2.6 10 23:26 23.04.2020
4216 Clear 5 1020 60 10000 2.6 10 22:55 23.04.2020
4217 Clear 6 1020 60 10000 2.1 10 22:37 23.04.2020
4218 Clear 6 1020 60 10000 2.1 10 22:37 23.04.2020
4219 Clear 6 1020 60 10000 2.1 10 22:18 23.04.2020
4220 Clear 6 1020 60 10000 2.1 10 22:18 23.04.2020
4221 Clear 6 1020 75 10000 2.1 20 21:56 23.04.2020
4222 Clear 6 1020 70 10000 2.1 20 21:38 23.04.2020
4223 Clear 6 1020 70 10000 2.1 20 21:20 23.04.2020
4224 Clear 7 1020 65 10000 1.5 20 20:43 23.04.2020
4225 Clear 8 1019 70 10000 1.5 120 20:22 23.04.2020
4226 Clear 9 1019 61 10000 2.6 110 19:59 23.04.2020
4227 Clear 10 1019 57 10000 3.1 110 19:40 23.04.2020
4228 Clear 10 1019 57 10000 3.1 110 19:22 23.04.2020
4229 Clear 11 1019 50 10000 3.6 110 18:57 23.04.2020
4230 Clear 11 1019 65 10000 5.1 110 18:38 23.04.2020
4231 Clouds 12 1019 53 10000 5.1 110 18:20 23.04.2020
4232 Clouds 13 1019 53 10000 5.1 100 17:55 23.04.2020
4233 Clouds 13 1020 37 10000 5.1 110 17:36 23.04.2020
4234 Clouds 13 1020 37 10000 5.1 110 17:18 23.04.2020
4235 Clouds 13 1020 37 10000 6.7 110 16:43 23.04.2020
4236 Clouds 13 1020 37 10000 6.7 110 16:19 23.04.2020
4237 Clouds 14 1020 53 10000 7.2 110 15:43 23.04.2020
4238 Clouds 14 1020 41 10000 7.7 110 15:23 23.04.2020
4239 Clouds 15 1020 53 10000 7.7 100 14:59 23.04.2020
4240 Clouds 15 1021 30 10000 7.7 120 14:39 23.04.2020
4241 Clouds 15 1021 30 10000 7.7 120 14:39 23.04.2020
4242 Clouds 15 1021 30 10000 7.7 120 14:21 23.04.2020
4243 Clouds 15 1021 30 10000 8.2 120 13:57 23.04.2020
4244 Clouds 15 1021 26 10000 8.7 110 13:38 23.04.2020
4245 Clouds 15 1021 26 10000 8.7 110 13:19 23.04.2020
4246 Clouds 15 1021 28 10000 8.2 110 12:44 23.04.2020
4247 Clear 15 1021 26 10000 7.7 120 12:26 23.04.2020
4248 Clear 15 1021 26 10000 7.7 130 11:59 23.04.2020
4249 Clear 15 1021 26 10000 7.7 130 11:59 23.04.2020
4250 Clear 15 1021 28 10000 5.7 140 11:40 23.04.2020
4251 Clear 15 1021 28 10000 5.7 140 11:22 23.04.2020
4252 Clear 15 1021 33 10000 4.1 160 10:42 23.04.2020
4253 Clear 15 1021 33 10000 4.1 160 10:24 23.04.2020
4254 Clear 14 1022 33 10000 1.5 0 09:55 23.04.2020
4255 Clear 13 1021 35 10000 1.5 0 09:37 23.04.2020
4256 Clear 13 1021 35 10000 1.5 0 09:18 23.04.2020
4257 Clear 9 1021 49 10000 1.5 260 08:45 23.04.2020
4258 Clear 10 1021 49 10000 1.5 260 08:27 23.04.2020
4259 Clear 6 1021 69 10000 1.5 280 07:43 23.04.2020
4260 Clear 6 1021 69 10000 1.5 280 07:23 23.04.2020
4261 Clear 6 1021 69 10000 1 0 06:49 23.04.2020
4262 Clear 4 1021 74 10000 1 320 06:27 23.04.2020
4263 Clear 2 1021 80 10000 1 270 05:31 23.04.2020
4264 Clear 2 1021 80 10000 2.1 270 04:52 23.04.2020
4265 Clear 3 1021 64 10000 1.5 280 02:24 23.04.2020
4266 Clear 3 1021 64 10000 1.5 270 01:49 23.04.2020
4267 Clear 3 1022 64 10000 1 0 01:25 23.04.2020
4268 Clear 3 1022 64 10000 1.5 310 00:45 23.04.2020
4269 Clear 3 1022 65 10000 1.5 330 00:20 23.04.2020
4270 Clear 4 1022 65 10000 2.1 360 23:48 22.04.2020
4271 Clear 4 1022 69 10000 2.6 360 23:23 22.04.2020
4272 Clear 4 1022 80 10000 2.1 330 22:55 22.04.2020
4273 Clear 4 1022 65 10000 2.1 10 22:36 22.04.2020
4274 Clear 4 1022 65 10000 2.1 10 22:18 22.04.2020
4275 Clear 4 1022 65 10000 2.6 10 21:55 22.04.2020
4276 Clear 6 1022 65 10000 1.5 20 21:37 22.04.2020
4277 Clouds 6 1022 67 10000 1.5 20 21:18 22.04.2020
4278 Clouds 7 1021 61 10000 2.6 88 20:43 22.04.2020
4279 Clouds 7 1021 61 10000 2.6 88 20:19 22.04.2020
4280 Clouds 8 1021 61 10000 1.5 110 19:57 22.04.2020
4281 Clouds 8 1021 67 10000 2.6 120 19:38 22.04.2020
4282 Clouds 8 1021 67 10000 2.6 120 19:18 22.04.2020
4283 Clouds 8 1021 67 10000 2.6 120 19:18 22.04.2020
4284 Clouds 10 1021 46 10000 4.1 130 18:58 22.04.2020
4285 Clouds 10 1021 43 10000 4.6 140 18:40 22.04.2020
4286 Clouds 10 1021 43 10000 4.6 140 18:40 22.04.2020
4287 Clouds 10 1021 43 10000 4.6 140 18:22 22.04.2020
4288 Clouds 12 1021 40 10000 7.7 110 17:45 22.04.2020
4289 Clouds 12 1021 40 10000 7.7 110 17:45 22.04.2020
4290 Clouds 12 1021 40 10000 7.7 110 17:26 22.04.2020
4291 Clouds 12 1021 37 10000 6.7 130 16:58 22.04.2020
4292 Clouds 13 1021 30 10000 6.7 120 16:40 22.04.2020
4293 Clouds 13 1021 30 10000 6.7 120 16:22 22.04.2020
4294 Clouds 13 1021 30 10000 8.7 120 15:42 22.04.2020
4295 Clouds 13 1021 30 10000 8.7 120 15:42 22.04.2020
4296 Clouds 13 1021 30 10000 8.7 120 15:23 22.04.2020
4297 Clouds 14 1021 32 10000 9.3 120 14:58 22.04.2020
4298 Clouds 14 1021 30 10000 8.7 130 14:38 22.04.2020
4299 Clouds 14 1021 30 10000 8.7 130 14:20 22.04.2020
4300 Clouds 14 1021 30 10000 8.2 140 13:55 22.04.2020
4301 Clouds 14 1021 33 10000 8.7 130 13:37 22.04.2020
4302 Clouds 14 1021 33 10000 8.7 130 13:19 22.04.2020
4303 Clouds 15 1021 33 10000 8.7 130 12:40 22.04.2020
4304 Clouds 14 1021 33 10000 8.7 130 12:22 22.04.2020
4305 Clouds 14 1022 26 10000 5.1 60 11:40 22.04.2020
4306 Clouds 14 1022 26 10000 5.1 60 11:22 22.04.2020
4307 Clouds 13 1022 28 10000 6.7 10 10:59 22.04.2020
4308 Clouds 14 1022 28 10000 5.7 70 10:39 22.04.2020
4309 Clouds 14 1022 28 10000 5.7 70 10:20 22.04.2020
4310 Clouds 13 1022 32 10000 6.2 40 09:39 22.04.2020
4311 Clouds 12 1022 32 10000 6.2 40 09:21 22.04.2020
4312 Clouds 12 1022 32 10000 6.2 40 09:21 22.04.2020
4313 Clouds 11 1021 34 10000 5.7 10 08:57 22.04.2020
4314 Clouds 10 1021 37 10000 5.1 10 08:38 22.04.2020
4315 Clouds 10 1021 37 10000 5.1 10 08:20 22.04.2020
4316 Clouds 8 1021 39 10000 4.6 20 07:53 22.04.2020
4317 Clouds 7 1021 42 10000 4.6 10 07:28 22.04.2020
4318 Clouds 7 1021 42 10000 4.6 10 07:28 22.04.2020
4319 Clouds 7 1021 42 10000 4.6 20 06:53 22.04.2020
4320 Clouds 7 1021 42 10000 4.6 20 06:53 22.04.2020
4321 Clouds 6 1021 45 10000 4.1 10 06:18 22.04.2020
4322 Clouds 6 1021 48 10000 2.6 10 05:35 22.04.2020
4323 Clouds 6 1021 52 10000 4.1 10 04:20 22.04.2020
4324 Clouds 6 1021 52 10000 3.1 10 02:43 22.04.2020
4325 Clouds 7 1021 49 10000 2.6 10 01:50 22.04.2020
4326 Clouds 7 1021 52 10000 2.6 20 01:25 22.04.2020
4327 Clouds 7 1021 52 10000 4.1 30 00:47 22.04.2020
4328 Clouds 7 1021 52 10000 4.1 30 00:22 22.04.2020
4329 Clouds 7 1021 65 10000 4.6 40 23:59 21.04.2020
4330 Clouds 8 1021 65 10000 4.1 40 23:40 21.04.2020
4331 Clouds 8 1021 65 10000 4.1 40 23:18 21.04.2020
4332 Clouds 8 1021 57 10000 3.1 60 22:40 21.04.2020
4333 Clouds 8 1021 57 10000 3.1 60 22:21 21.04.2020
4334 Clouds 8 1021 57 10000 4.1 70 21:59 21.04.2020
4335 Clouds 8 1021 61 10000 4.6 80 21:40 21.04.2020
4336 Clouds 8 1021 61 10000 4.6 80 21:40 21.04.2020
4337 Clouds 8 1021 61 10000 4.6 80 21:22 21.04.2020
4338 Clouds 8 1021 61 10000 4.6 80 20:54 21.04.2020
4339 Clouds 8 1021 61 10000 3.6 80 20:36 21.04.2020
4340 Clouds 8 1021 61 10000 3.6 80 20:36 21.04.2020
4341 Clouds 8 1021 61 10000 3.6 80 20:18 21.04.2020
4342 Clouds 9 1021 53 10000 4.1 100 19:40 21.04.2020
4343 Clouds 9 1021 53 10000 4.1 100 19:19 21.04.2020
4344 Clouds 9 1020 53 10000 5.1 90 18:56 21.04.2020
4345 Clouds 10 1020 53 10000 5.1 100 18:38 21.04.2020
4346 Clouds 10 1020 53 10000 5.1 100 18:18 21.04.2020
4347 Clouds 11 1020 57 10000 7.7 90 17:41 21.04.2020
4348 Clouds 11 1020 57 10000 7.7 90 17:22 21.04.2020
4349 Clouds 11 1020 53 10000 7.2 90 16:59 21.04.2020
4350 Clouds 11 1020 54 10000 7.2 90 16:38 21.04.2020
4351 Clouds 11 1020 54 10000 7.2 90 16:19 21.04.2020
4352 Clouds 12 1020 54 10000 7.7 90 15:55 21.04.2020
4353 Clouds 12 1020 43 10000 7.2 100 15:37 21.04.2020
4354 Clouds 12 1020 43 10000 7.2 100 15:19 21.04.2020
4355 Clouds 13 1020 53 10000 7.7 90 14:45 21.04.2020
4356 Clouds 13 1020 30 10000 7.2 100 14:25 21.04.2020
4357 Clouds 14 1020 53 10000 7.2 110 13:58 21.04.2020
4358 Clouds 14 1020 41 10000 6.7 130 13:38 21.04.2020
4359 Clouds 14 1020 41 10000 6.7 130 13:18 21.04.2020
4360 Clouds 14 1020 33 10000 6.7 130 12:39 21.04.2020
4361 Clouds 14 1020 33 10000 6.7 130 12:20 21.04.2020
4362 Clouds 14 1020 30 10000 4.6 100 11:58 21.04.2020
4363 Clouds 14 1020 37 10000 4.6 140 11:39 21.04.2020
4364 Clouds 13 1020 37 10000 4.6 140 11:19 21.04.2020
4365 Clouds 13 1021 43 10000 3.1 160 10:59 21.04.2020
4366 Clouds 12 1021 54 10000 2.1 170 10:40 21.04.2020
4367 Clouds 12 1021 54 10000 2.1 170 10:22 21.04.2020
4368 Clouds 12 1020 54 10000 0.5 0 09:58 21.04.2020
4369 Clouds 11 1020 53 10000 0.5 0 09:36 21.04.2020
4370 Clouds 11 1020 53 10000 0.5 0 09:18 21.04.2020
4371 Clouds 9 1020 61 10000 1.5 270 08:43 21.04.2020
4372 Clouds 9 1020 70 10000 2.1 200 08:25 21.04.2020
4373 Clouds 7 1020 87 10000 1.5 240 07:52 21.04.2020
4374 Clouds 6 1020 80 10000 0.5 0 07:27 21.04.2020
4375 Clouds 6 1020 80 10000 1.5 0 06:50 21.04.2020
4376 Clouds 6 1020 80 10000 1.5 0 06:50 21.04.2020
4377 Clouds 4 1020 56 10000 0.5 0 06:32 21.04.2020
4378 Clouds 2 1020 86 10000 1 0 05:50 21.04.2020
4379 Clouds 3 1020 66 10000 1.5 0 04:57 21.04.2020
4380 Clouds 3 1020 66 10000 1.5 0 04:57 21.04.2020
4381 Clouds 3 1020 66 10000 1 0 03:46 21.04.2020
4382 Clear 4 1020 68 10000 1.5 260 02:41 21.04.2020
4383 Clouds 3 1021 71 10000 1.5 360 01:30 21.04.2020
4384 Clouds 4 1021 80 10000 1.5 310 00:38 21.04.2020
4385 Clouds 4 1021 75 10000 1.5 340 23:58 20.04.2020
4386 Clouds 5 1021 70 10000 2.1 10 23:40 20.04.2020
4387 Clouds 5 1021 70 10000 2.1 10 23:19 20.04.2020
4388 Clouds 6 1021 70 10000 2.6 10 22:54 20.04.2020
4389 Clouds 6 1021 65 10000 2.6 10 22:36 20.04.2020
4390 Clouds 6 1021 65 10000 2.6 10 22:18 20.04.2020
4391 Clouds 6 1021 65 10000 2.6 10 21:54 20.04.2020
4392 Clear 7 1021 65 10000 2.6 10 21:36 20.04.2020
4393 Clouds 7 1021 65 10000 2.6 10 21:18 20.04.2020
4394 Clouds 8 1020 70 10000 2.6 40 20:41 20.04.2020
4395 Clouds 8 1020 70 10000 2.6 40 20:20 20.04.2020
4396 Clouds 9 1020 61 10000 2.1 70 19:59 20.04.2020
4397 Clouds 10 1019 53 10000 1.5 140 19:40 20.04.2020
4398 Clouds 10 1019 53 10000 1.5 140 19:20 20.04.2020
4399 Clouds 11 1019 57 10000 2.6 150 18:55 20.04.2020
4400 Clouds 12 1019 47 10000 3.1 140 18:37 20.04.2020
4401 Clouds 13 1019 47 10000 3.1 140 18:19 20.04.2020
4402 Clouds 13 1018 54 10000 2.1 160 17:43 20.04.2020
4403 Clouds 13 1018 54 10000 2.1 160 17:23 20.04.2020
4404 Clouds 14 1018 50 10000 1 0 16:59 20.04.2020
4405 Clouds 14 1018 54 10000 1.5 200 16:40 20.04.2020
4406 Clouds 13 1018 54 10000 1.5 200 16:19 20.04.2020
4407 Clouds 12 1018 62 10000 2.1 200 15:55 20.04.2020
4408 Clouds 12 1018 62 10000 2.1 200 15:55 20.04.2020
4409 Clouds 12 1018 62 10000 2.6 210 15:36 20.04.2020
4410 Clouds 12 1018 62 10000 2.6 210 15:36 20.04.2020
4411 Rain 12 1018 62 10000 2.6 210 15:18 20.04.2020
4412 Clouds 13 1019 58 10000 2.1 40 14:41 20.04.2020
4413 Clouds 11 1019 58 10000 2.1 40 14:19 20.04.2020
4414 Rain 12 1018 50 10000 1.5 60 13:57 20.04.2020
4415 Rain 12 1018 58 10000 2.6 20 13:38 20.04.2020
4416 Rain 12 1018 58 10000 2.6 20 13:20 20.04.2020
4417 Rain 12 1018 50 10000 3.6 30 12:44 20.04.2020
4418 Clouds 12 1017 50 10000 3.6 40 12:22 20.04.2020
4419 Rain 11 1018 54 10000 2.6 10 11:54 20.04.2020
4420 Rain 11 1017 58 10000 4.1 20 11:36 20.04.2020
4421 Rain 11 1017 58 10000 4.1 20 11:18 20.04.2020
4422 Clouds 11 1017 62 10000 3.1 0 10:54 20.04.2020
4423 Clouds 11 1017 66 10000 1.5 30 10:36 20.04.2020
4424 Clouds 11 1017 66 10000 1.5 30 10:18 20.04.2020
4425 Rain 11 1016 66 10000 3.6 360 09:40 20.04.2020
4426 Rain 11 1016 66 10000 3.6 360 09:21 20.04.2020
4427 Clouds 11 1015 66 10000 2.1 0 08:43 20.04.2020
4428 Clouds 11 1015 66 10000 2.1 0 08:23 20.04.2020
4429 Clouds 11 1014 71 10000 3.1 0 07:59 20.04.2020
4430 Clouds 11 1014 76 10000 3.6 0 07:39 20.04.2020
4431 Clouds 11 1014 76 10000 3.6 0 07:19 20.04.2020
4432 Clouds 11 1014 76 10000 3.6 0 07:19 20.04.2020
4433 Clouds 11 1012 76 10000 6.2 20 06:37 20.04.2020
4434 Clouds 11 1012 76 10000 7.2 360 05:57 20.04.2020
4435 Rain 11 1011 76 10000 9.3 10 04:46 20.04.2020
4436 Rain 11 1011 76 10000 9.3 10 04:46 20.04.2020
4437 Rain 11 1009 71 10000 8.2 350 02:48 20.04.2020
4438 Rain 12 1009 66 10000 8.2 360 02:26 20.04.2020
4439 Rain 13 1009 67 10000 2.6 20 01:29 20.04.2020
4440 Rain 15 1008 72 10000 3.6 360 00:44 20.04.2020
4441 Rain 14 1008 87 10000 2.6 110 00:20 20.04.2020
4442 Clouds 14 1008 87 10000 1 360 23:39 19.04.2020
4443 Clouds 15 1008 87 10000 1 360 23:21 19.04.2020
4444 Clouds 15 1008 87 10000 1.5 0 22:55 19.04.2020
4445 Clouds 15 1008 87 10000 1.5 0 22:55 19.04.2020
4446 Rain 15 1008 82 10000 3.1 110 22:37 19.04.2020
4447 Rain 15 1008 82 10000 3.1 110 22:19 19.04.2020
4448 Clouds 13 1009 87 10000 0.52 6 21:42 19.04.2020
4449 Clouds 15 1009 87 10000 2.23 183 21:23 19.04.2020
4450 Clouds 16 1009 76 10000 1.5 120 20:57 19.04.2020
4451 Clouds 16 1009 72 10000 1.5 140 20:38 19.04.2020
4452 Clouds 16 1009 72 10000 1.5 140 20:20 19.04.2020
4453 Clouds 16 1009 72 10000 1.5 40 19:56 19.04.2020
4454 Rain 17 1009 72 10000 2.6 280 19:37 19.04.2020
4455 Rain 17 1009 72 10000 2.6 280 19:19 19.04.2020
4456 Clouds 17 1008 59 10000 4.1 140 18:54 19.04.2020
4457 Rain 19 1009 48 10000 4.6 110 18:36 19.04.2020
4458 Rain 20 1009 48 10000 4.6 110 18:18 19.04.2020
4459 Clouds 21 1009 45 10000 3.6 90 17:54 19.04.2020
4460 Clouds 21 1009 49 10000 4.1 100 17:36 19.04.2020
4461 Clouds 21 1009 49 10000 4.1 100 17:36 19.04.2020
4462 Clouds 21 1009 49 10000 4.1 100 17:18 19.04.2020
4463 Clouds 21 1009 43 10000 5.1 100 16:39 19.04.2020
4464 Clouds 21 1009 43 10000 5.1 100 16:21 19.04.2020
4465 Clouds 22 1009 43 10000 6.2 110 15:57 19.04.2020
4466 Clouds 23 1010 40 10000 6.7 110 15:39 19.04.2020
4467 Clouds 23 1010 40 10000 6.7 110 15:18 19.04.2020
4468 Clouds 23 1010 35 10000 6.7 110 14:38 19.04.2020
4469 Clouds 23 1010 35 10000 6.7 110 14:20 19.04.2020
4470 Clouds 22 1011 40 10000 6.2 100 13:56 19.04.2020
4471 Clouds 22 1011 40 10000 6.2 100 13:56 19.04.2020
4472 Clouds 23 1011 38 10000 6.2 110 13:36 19.04.2020
4473 Clouds 23 1011 38 10000 6.2 110 13:18 19.04.2020
4474 Clouds 22 1012 43 10000 5.1 120 12:43 19.04.2020
4475 Clouds 22 1012 43 10000 5.1 120 12:24 19.04.2020
4476 Clouds 21 1013 43 10000 3.6 120 11:39 19.04.2020
4477 Clouds 21 1013 43 10000 3.6 120 11:20 19.04.2020
4478 Clouds 20 1013 45 10000 3.6 130 10:59 19.04.2020
4479 Clouds 20 1013 45 10000 2.6 100 10:40 19.04.2020
4480 Clouds 20 1013 45 10000 2.6 100 10:20 19.04.2020
4481 Clouds 18 1013 48 10000 2.1 130 09:47 19.04.2020
4482 Clouds 18 1013 48 10000 2.1 130 09:47 19.04.2020
4483 Clouds 17 1013 48 10000 1 0 09:28 19.04.2020
4484 Clouds 15 1013 62 10000 1 0 08:59 19.04.2020
4485 Clouds 13 1013 62 10000 0.5 0 08:38 19.04.2020
4486 Clouds 13 1013 62 10000 0.5 0 08:18 19.04.2020
4487 Clouds 11 1013 76 10000 1 140 07:44 19.04.2020
4488 Clouds 11 1013 76 10000 1 140 07:24 19.04.2020
4489 Clear 8 1013 81 10000 0.5 50 06:31 19.04.2020
4490 Clear 7 1013 87 10000 1.55 156 05:56 19.04.2020
4491 Clear 6 1014 86 10000 1.5 300 04:48 19.04.2020
4492 Clear 8 1014 81 10000 1.67 59 02:59 19.04.2020
4493 Clear 8 1014 81 10000 1.31 93 02:21 19.04.2020
4494 Clear 8 1014 81 10000 1.31 93 01:39 19.04.2020
4495 Clear 9 1014 81 10000 1 280 00:50 19.04.2020
4496 Clear 9 1014 76 10000 1.5 350 00:26 19.04.2020
4497 Clear 9 1015 76 10000 2.1 360 23:56 18.04.2020
4498 Clear 9 1015 76 10000 1 0 23:36 18.04.2020
4499 Clear 9 1015 76 10000 1 0 23:18 18.04.2020
4500 Clear 11 1015 76 10000 2.1 20 22:42 18.04.2020
4501 Clear 11 1015 76 10000 2.1 20 22:21 18.04.2020
4502 Clear 11 1015 76 10000 1 30 21:57 18.04.2020
4503 Clear 11 1015 71 10000 1.26 82 21:38 18.04.2020
4504 Clear 11 1015 71 10000 2.39 73 21:20 18.04.2020
4505 Clear 12 1015 66 10000 2.6 120 20:42 18.04.2020
4506 Clear 12 1015 66 10000 2.6 120 20:23 18.04.2020
4507 Clear 12 1015 71 10000 3.1 100 19:59 18.04.2020
4508 Clear 12 1015 71 10000 3.1 100 19:59 18.04.2020
4509 Clear 13 1014 66 10000 2.6 130 19:38 18.04.2020
4510 Clear 14 1014 66 10000 2.6 130 19:20 18.04.2020
4511 Clear 16 1014 58 10000 5.1 130 18:38 18.04.2020
4512 Clear 16 1014 58 10000 5.1 130 18:20 18.04.2020
4513 Clear 17 1014 55 10000 5.1 130 17:55 18.04.2020
4514 Clear 17 1014 55 10000 5.7 130 17:36 18.04.2020
4515 Clear 17 1014 55 10000 5.7 130 17:18 18.04.2020
4516 Clear 20 1013 40 10000 6.7 120 16:42 18.04.2020
4517 Clear 20 1013 40 10000 6.7 120 16:22 18.04.2020
4518 Clear 20 1013 42 10000 8.2 120 15:40 18.04.2020
4519 Clear 20 1013 42 10000 8.2 120 15:40 18.04.2020
4520 Clouds 20 1013 42 10000 8.2 120 15:22 18.04.2020
4521 Clouds 22 1013 45 10000 9.3 120 14:54 18.04.2020
4522 Clear 22 1013 37 10000 7.2 110 14:36 18.04.2020
4523 Clear 22 1013 37 10000 7.2 110 14:18 18.04.2020
4524 Clear 26 1013 22 10000 1.5 0 13:42 18.04.2020
4525 Clear 26 1013 22 10000 1.5 0 13:20 18.04.2020
4526 Clear 25 1013 27 10000 2.6 0 12:43 18.04.2020
4527 Clear 25 1013 27 10000 2.6 0 12:24 18.04.2020
4528 Clear 25 1013 27 10000 4.1 260 11:57 18.04.2020
4529 Clear 24 1013 29 10000 3.1 0 11:39 18.04.2020
4530 Clear 24 1013 29 10000 3.1 0 11:20 18.04.2020
4531 Clear 23 1014 31 10000 4.1 270 10:42 18.04.2020
4532 Clear 23 1014 31 10000 4.1 270 10:22 18.04.2020
4533 Clear 23 1014 31 10000 4.1 270 10:22 18.04.2020
4534 Clear 23 1013 30 10000 5.1 260 09:59 18.04.2020
4535 Clear 22 1013 35 10000 3.6 290 09:39 18.04.2020
4536 Clouds 21 1013 35 10000 3.6 290 09:20 18.04.2020
4537 Clouds 18 1013 39 10000 2.1 240 08:42 18.04.2020
4538 Clouds 18 1013 39 10000 2.1 240 08:21 18.04.2020
4539 Clouds 16 1013 54 10000 2.6 260 07:47 18.04.2020
4540 Clouds 14 1013 62 10000 2.1 260 07:28 18.04.2020
4541 Clouds 10 1013 70 10000 2.1 290 06:39 18.04.2020
4542 Clouds 10 1012 70 10000 2.6 290 05:49 18.04.2020
4543 Clouds 10 1012 70 10000 1.5 260 04:54 18.04.2020
4544 Clouds 10 1012 70 10000 1 0 04:30 18.04.2020
4545 Clear 10 1012 75 10000 2.76 293 03:18 18.04.2020
4546 Clear 10 1012 75 10000 1 0 02:40 18.04.2020
4547 Clear 10 1012 75 10000 1 0 02:40 18.04.2020
4548 Clear 10 1012 75 10000 1 0 02:20 18.04.2020
4549 Clear 10 1012 70 10000 1 0 01:37 18.04.2020
4550 Clear 10 1012 76 10000 1 0 00:54 18.04.2020
4551 Clear 11 1012 76 10000 1.89 284 00:24 18.04.2020
4552 Clear 11 1012 76 10000 2.1 270 23:57 17.04.2020
4553 Clear 11 1012 76 10000 2.1 270 23:57 17.04.2020
4554 Clear 11 1012 76 10000 2.1 270 23:57 17.04.2020
4555 Clear 12 1012 71 10000 1.5 270 23:39 17.04.2020
4556 Clear 11 1012 71 10000 1.5 270 23:19 17.04.2020
4557 Clear 12 1012 66 10000 2.1 280 22:56 17.04.2020
4558 Clear 12 1012 71 10000 2.1 350 22:38 17.04.2020
4559 Clear 12 1012 71 10000 2.1 350 22:19 17.04.2020
4560 Clear 12 1012 71 10000 0.5 0 21:44 17.04.2020
4561 Clouds 13 1012 66 10000 1.86 264 21:22 17.04.2020
4562 Clouds 13 1012 71 10000 1.5 80 20:59 17.04.2020
4563 Clouds 14 1012 62 10000 1 130 20:38 17.04.2020
4564 Clouds 14 1012 62 10000 1 130 20:19 17.04.2020
4565 Clouds 15 1012 62 10000 2.6 130 19:59 17.04.2020
4566 Clouds 14 1011 58 10000 2.6 140 19:41 17.04.2020
4567 Clouds 17 1011 58 10000 2.6 140 19:22 17.04.2020
4568 Clouds 16 1011 55 10000 3.1 130 18:45 17.04.2020
4569 Clouds 20 1011 42 10000 4.1 120 18:24 17.04.2020
4570 Clouds 21 1011 40 10000 4.1 130 17:56 17.04.2020
4571 Clouds 20 1011 40 10000 4.6 110 17:37 17.04.2020
4572 Clouds 21 1011 40 10000 4.6 110 17:18 17.04.2020
4573 Clouds 21 1011 37 10000 4.6 110 16:43 17.04.2020
4574 Clouds 21 1011 37 10000 4.6 110 16:23 17.04.2020
4575 Clouds 22 1011 30 10000 4.6 100 15:42 17.04.2020
4576 Clouds 22 1011 30 10000 4.6 100 15:24 17.04.2020
4577 Clouds 22 1011 30 10000 5.1 100 14:57 17.04.2020
4578 Clouds 22 1012 33 10000 4.6 120 14:38 17.04.2020
4579 Clouds 22 1012 33 10000 4.6 120 14:20 17.04.2020
4580 Clouds 24 1012 23 10000 3.6 0 13:41 17.04.2020
4581 Clouds 24 1012 23 10000 3.6 0 13:22 17.04.2020
4582 Clouds 23 1013 25 10000 5.1 270 12:59 17.04.2020
4583 Clouds 23 1013 25 10000 4.1 260 12:41 17.04.2020
4584 Clouds 23 1013 25 10000 4.1 260 12:22 17.04.2020
4585 Clouds 22 1014 28 10000 3.6 240 11:40 17.04.2020
4586 Clouds 22 1014 28 10000 3.6 240 11:19 17.04.2020
4587 Clouds 20 1014 30 10000 3.6 250 10:55 17.04.2020
4588 Clouds 20 1014 34 10000 2.6 220 10:37 17.04.2020
4589 Clouds 20 1014 34 10000 2.6 220 10:18 17.04.2020
4590 Clouds 18 1014 44 10000 2.1 250 09:40 17.04.2020
4591 Clouds 16 1014 44 10000 2.1 250 09:20 17.04.2020
4592 Clouds 12 1015 54 10000 1.5 290 08:56 17.04.2020
4593 Clouds 12 1015 54 10000 1.5 290 08:37 17.04.2020
4594 Clouds 9 1015 70 10000 1 260 08:18 17.04.2020
4595 Clouds 11 1015 70 10000 1.79 246 07:43 17.04.2020
4596 Clouds 9 1015 86 10000 1 310 07:20 17.04.2020
4597 Clouds 7 1015 80 10000 1 300 06:45 17.04.2020
4598 Clouds 6 1015 80 10000 1.5 280 06:21 17.04.2020
4599 Clouds 6 1016 71 10000 0.5 0 03:37 17.04.2020
4600 Clear 7 1016 70 10000 1.5 280 03:18 17.04.2020
4601 Clear 7 1017 70 10000 1.5 10 01:55 17.04.2020
4602 Clear 7 1017 73 10000 1 20 01:23 17.04.2020
4603 Clear 7 1017 72 10000 2.6 30 00:28 17.04.2020
4604 Clear 7 1017 70 10000 2.6 20 23:56 16.04.2020
4605 Clear 8 1018 72 10000 1.5 20 23:38 16.04.2020
4606 Clear 10 1018 72 10000 0.5 0 23:19 16.04.2020
4607 Clear 10 1018 72 10000 2.1 130 22:41 16.04.2020
4608 Clear 10 1018 72 10000 2.1 130 22:23 16.04.2020
4609 Clear 9 1018 72 10000 2.1 110 21:59 16.04.2020
4610 Clear 9 1019 72 10000 2.6 90 21:41 16.04.2020
4611 Clear 9 1019 72 10000 2.6 90 21:41 16.04.2020
4612 Clear 9 1019 72 10000 2.6 90 21:41 16.04.2020
4613 Clear 9 1019 57 10000 3.1 90 21:20 16.04.2020
4614 Clear 10 1019 53 10000 3.6 90 20:43 16.04.2020
4615 Clear 10 1019 50 10000 4.1 80 20:23 16.04.2020
4616 Clear 11 1019 50 10000 4.1 80 19:59 16.04.2020
4617 Clear 11 1019 50 10000 4.1 90 19:39 16.04.2020
4618 Clear 12 1018 50 10000 5.1 90 19:20 16.04.2020
4619 Clear 12 1018 50 10000 5.1 90 18:57 16.04.2020
4620 Clear 14 1018 41 10000 5.1 100 18:38 16.04.2020
4621 Clear 15 1019 54 10000 5.1 110 18:20 16.04.2020
4622 Clear 17 1019 36 10000 5.1 120 17:45 16.04.2020
4623 Clear 16 1019 36 10000 5.1 120 17:26 16.04.2020
4624 -273 0 0 0 0 0 17:00 16.04.2020
4625 Clear 17 1019 54 10000 5.7 120 16:41 16.04.2020
4626 Clear 18 1020 54 10000 5.7 100 16:19 16.04.2020
4627 Clear 18 1020 29 10000 5.7 110 15:44 16.04.2020
4628 Clear 17 1021 50 10000 5.7 110 15:19 16.04.2020
4629 Clear 17 1021 50 10000 5.7 110 14:58 16.04.2020
4630 Clear 15 1021 50 10000 5.7 110 14:39 16.04.2020
4631 Clear 15 1021 33 10000 5.7 90 14:19 16.04.2020
4632 Clear 15 1021 33 10000 5.7 90 13:56 16.04.2020
4633 Clear 15 1022 33 10000 2.6 70 13:36 16.04.2020
4634 Clear 17 1022 27 10000 1.5 300 13:18 16.04.2020
4635 Clear 16 1023 29 10000 2.6 290 12:56 16.04.2020
4636 Clear 16 1023 29 10000 2.6 290 12:37 16.04.2020
4637 Clear 16 1023 29 10000 4.1 310 12:18 16.04.2020
4638 Clear 16 1023 29 10000 2.1 0 11:42 16.04.2020
4639 Clear 15 1023 51 10000 4.1 260 11:22 16.04.2020
4640 Clear 15 1023 51 10000 4.1 260 10:57 16.04.2020
4641 Clear 14 1024 41 10000 4.1 260 10:39 16.04.2020
4642 Clear 14 1024 47 10000 3.1 250 10:19 16.04.2020
4643 Clear 14 1024 47 10000 3.1 250 09:57 16.04.2020
4644 Clear 13 1024 37 10000 4.1 340 09:38 16.04.2020
4645 Clear 10 1024 60 10000 4.6 360 09:19 16.04.2020
4646 Clear 10 1024 60 10000 3.6 0 08:41 16.04.2020
4647 Clear 8 1024 60 10000 4.1 240 08:22 16.04.2020
4648 Clear 8 1024 65 10000 1 0 07:46 16.04.2020
4649 Clear 7 1024 65 10000 1 0 07:26 16.04.2020
4650 Clear 5 1023 74 10000 1.5 280 06:44 16.04.2020
4651 Clear 4 1023 69 10000 1.5 280 06:25 16.04.2020
4652 Clear 4 1023 65 10000 2.6 260 05:34 16.04.2020
4653 Clear 4 1023 65 10000 2.6 250 03:53 16.04.2020
4654 Clouds 3 1023 69 10000 2.6 260 03:23 16.04.2020
4655 Clouds 4 1022 64 10000 3.78 300 02:47 16.04.2020
4656 Clouds 4 1022 62 10000 4.5 301 02:28 16.04.2020
4657 Clouds 3 1023 74 10000 1.5 310 01:18 16.04.2020
4658 Clouds 4 1022 69 10000 2.1 0 00:32 16.04.2020
4659 Clouds 3 1022 74 10000 0.5 0 23:58 15.04.2020
4660 Clouds 3 1022 74 10000 0.5 0 23:58 15.04.2020
4661 Clouds 3 1022 80 10000 1 0 23:40 15.04.2020
4662 Clouds 3 1022 74 10000 2.1 260 23:21 15.04.2020
4663 Clouds 4 1022 74 10000 2.1 10 22:40 15.04.2020
4664 Clouds 4 1022 69 10000 2.6 10 22:22 15.04.2020
4665 Clouds 4 1022 69 10000 2.6 10 21:59 15.04.2020
4666 Clouds 4 1022 61 10000 2.6 10 21:40 15.04.2020
4667 Clouds 4 1022 58 10000 2.6 20 21:22 15.04.2020
4668 Clouds 5 1022 58 10000 2.6 20 20:57 15.04.2020
4669 Clouds 5 1022 58 10000 1 360 20:39 15.04.2020
4670 Clouds 6 1021 52 10000 1 150 20:21 15.04.2020
4671 Clouds 6 1021 56 10000 1.5 130 19:42 15.04.2020
4672 Clouds 7 1021 52 10000 3.1 120 19:21 15.04.2020
4673 Clouds 8 1021 45 10000 5.1 110 18:55 15.04.2020
4674 Clouds 9 1021 45 10000 5.1 110 18:36 15.04.2020
4675 Clouds 11 1021 43 10000 4.6 120 18:18 15.04.2020
4676 Clouds 10 1020 46 10000 4.6 120 17:40 15.04.2020
4677 Clouds 11 1020 40 10000 5.7 120 17:21 15.04.2020
4678 Clouds 11 1020 40 10000 5.7 120 16:58 15.04.2020
4679 Clouds 10 1020 39 10000 6.2 130 16:39 15.04.2020
4680 Clouds 11 1020 43 10000 6.2 130 16:20 15.04.2020
4681 Clouds 11 1020 43 10000 6.2 130 15:58 15.04.2020
4682 Clouds 12 1020 46 10000 7.2 110 15:39 15.04.2020
4683 Clouds 12 1021 43 10000 4.6 130 15:20 15.04.2020
4684 Clouds 12 1021 43 10000 4.6 130 14:58 15.04.2020
4685 Clouds 12 1021 45 10000 5.1 140 14:39 15.04.2020
4686 Clouds 12 1021 45 10000 5.1 140 14:39 15.04.2020
4687 Clouds 12 1021 43 10000 5.7 150 14:21 15.04.2020
4688 Clouds 11 1021 43 10000 5.7 150 13:58 15.04.2020
4689 Clouds 12 1021 40 10000 4.1 60 13:39 15.04.2020
4690 Clouds 12 1021 45 10000 4.6 60 13:20 15.04.2020
4691 Clouds 11 1021 45 10000 4.6 60 12:56 15.04.2020
4692 Clouds 10 1021 37 10000 4.6 40 12:38 15.04.2020
4693 Clouds 10 1021 43 10000 5.1 30 12:19 15.04.2020
4694 Clouds 9 1021 45 10000 4.1 40 11:42 15.04.2020
4695 Clouds 9 1021 45 10000 4.1 40 11:24 15.04.2020
4696 Clouds 9 1021 49 10000 5.7 40 10:58 15.04.2020
4697 Clouds 9 1021 52 10000 4.6 10 10:36 15.04.2020
4698 Clouds 8 1021 52 10000 2.1 20 10:18 15.04.2020
4699 Clouds 7 1021 52 10000 2.1 20 09:55 15.04.2020
4700 Clouds 6 1021 52 10000 2.6 0 09:37 15.04.2020
4701 Clouds 5 1021 81 10000 2.1 0 09:18 15.04.2020
4702 Clouds 4 1021 80 10000 1.5 240 08:41 15.04.2020
4703 Clouds 4 1020 86 10000 2.1 230 08:21 15.04.2020
4704 Clouds 4 1020 86 10000 2.1 230 07:55 15.04.2020
4705 Drizzle 3 1020 86 10000 2.6 250 07:34 15.04.2020
4706 Rain 3 1019 86 10000 2.1 270 06:37 15.04.2020
4707 Rain 2 1019 86 10000 2.6 270 05:57 15.04.2020
4708 Rain 2 1018 86 10000 2.6 250 05:21 15.04.2020
4709 Rain 2 1018 86 8000 3.1 240 04:45 15.04.2020
4710 Rain 3 1017 86 10000 4.1 280 03:51 15.04.2020
4711 Rain 4 1017 86 10000 4.1 240 03:18 15.04.2020
4712 Rain 4 1016 86 10000 3.1 0 02:33 15.04.2020
4713 Rain 5 1015 81 10000 4.1 280 01:44 15.04.2020
4714 Rain 5 1015 81 10000 4.1 280 01:20 15.04.2020
4715 Rain 5 1014 81 10000 4.6 310 00:37 15.04.2020
4716 Rain 6 1013 81 10000 6.7 260 00:19 15.04.2020
4717 Rain 6 1013 81 10000 6.7 260 23:55 14.04.2020
4718 Clouds 7 1012 75 10000 6.2 340 23:36 14.04.2020
4719 Clouds 8 1010 70 10000 10.3 10 23:18 14.04.2020
4720 Clouds 8 1010 70 10000 10.3 10 22:55 14.04.2020
4721 Clouds 9 1009 71 10000 9.8 10 22:36 14.04.2020
4722 Rain 10 1009 71 10000 9.8 360 22:18 14.04.2020
4723 Rain 10 1009 71 10000 9.8 360 21:55 14.04.2020
4724 Rain 13 1009 62 10000 7.2 340 21:37 14.04.2020
4725 Rain 17 1009 45 10000 2.1 30 21:18 14.04.2020
4726 Rain 18 1008 42 10000 3.6 290 20:40 14.04.2020
4727 Clouds 17 1007 40 10000 3.1 200 20:22 14.04.2020
4728 Clouds 20 1007 40 10000 3.1 200 19:58 14.04.2020
4729 Clouds 21 1006 37 10000 3.6 200 19:39 14.04.2020
4730 Clouds 20 1006 28 10000 1.5 210 19:20 14.04.2020
4731 Clouds 20 1006 28 10000 1.5 210 18:56 14.04.2020
4732 Clouds 22 1006 26 10000 4.1 240 18:37 14.04.2020
4733 Clouds 22 1006 23 10000 5.7 220 18:18 14.04.2020
4734 Clouds 23 1006 23 10000 5.1 230 17:55 14.04.2020
4735 Clouds 23 1006 23 10000 5.1 230 17:37 14.04.2020
4736 Clouds 23 1006 23 10000 4.6 220 17:18 14.04.2020
4737 Clouds 24 1006 25 10000 5.1 220 16:41 14.04.2020
4738 Clouds 22 1006 25 10000 5.1 220 16:23 14.04.2020
4739 Clouds 23 1007 27 10000 3.1 220 15:58 14.04.2020
4740 Clouds 23 1007 25 10000 2.6 0 15:38 14.04.2020
4741 Clouds 23 1007 23 10000 4.6 260 15:19 14.04.2020
4742 Clouds 22 1007 23 10000 4.6 260 14:57 14.04.2020
4743 Clouds 22 1008 25 10000 5.7 230 14:39 14.04.2020
4744 Clouds 22 1008 25 10000 5.7 230 14:39 14.04.2020
4745 Clouds 22 1008 26 10000 5.1 260 14:21 14.04.2020
4746 Clouds 22 1008 26 10000 5.1 260 14:21 14.04.2020
4747 Clouds 22 1008 23 10000 7.7 280 13:44 14.04.2020
4748 Clouds 22 1008 25 10000 6.7 270 13:24 14.04.2020
4749 Clouds 22 1008 25 10000 6.7 270 12:59 14.04.2020
4750 Clouds 22 1008 25 10000 8.7 270 12:39 14.04.2020
4751 Clouds 22 1008 25 10000 8.7 270 12:39 14.04.2020
4752 Clouds 23 1009 25 10000 6.7 260 12:20 14.04.2020
4753 Clouds 22 1009 25 10000 6.7 260 11:54 14.04.2020
4754 Clouds 21 1009 32 10000 4.6 250 11:36 14.04.2020
4755 Clouds 21 1009 37 10000 3.1 230 11:18 14.04.2020
4756 Clouds 21 1009 37 10000 2.6 280 10:40 14.04.2020
4757 Clouds 20 1010 39 10000 3.1 260 10:21 14.04.2020
4758 Clouds 18 1010 42 10000 3.1 270 09:42 14.04.2020
4759 Clouds 18 1010 42 10000 3.1 270 09:24 14.04.2020
4760 Clouds 17 1010 44 10000 3.6 270 08:57 14.04.2020
4761 Clouds 16 1010 47 10000 3.6 290 08:39 14.04.2020
4762 Clouds 15 1011 62 0 3.42 258 08:21 14.04.2020
4763 Clouds 14 1010 66 10000 2.1 320 07:51 14.04.2020
4764 Clouds 14 1010 66 10000 2.1 320 07:27 14.04.2020
4765 Clouds 10 1010 81 10000 2.1 280 06:45 14.04.2020
4766 Clouds 9 1010 81 10000 1.5 300 05:52 14.04.2020
4767 Clouds 9 1010 75 10000 0.5 0 03:48 14.04.2020
4768 Clouds 10 1011 75 10000 1 280 02:38 14.04.2020
4769 Clouds 10 1012 70 10000 0.5 350 01:28 14.04.2020
4770 Clouds 9 1013 70 10000 1.5 30 00:52 14.04.2020
4771 Clouds 8 1013 70 10000 1.5 30 00:32 14.04.2020
4772 Clouds 8 1013 70 10000 2.1 90 23:59 13.04.2020
4773 Clouds 8 1013 70 10000 2.1 90 23:39 13.04.2020
4774 Clouds 8 1014 70 10000 2.6 100 23:19 13.04.2020
4775 Clouds 8 1014 70 10000 2.6 100 22:54 13.04.2020
4776 Clouds 8 1014 70 10000 2.1 110 22:36 13.04.2020
4777 Clouds 8 1014 70 10000 3.1 110 22:18 13.04.2020
4778 Clouds 8 1015 70 10000 2.6 110 21:41 13.04.2020
4779 Clouds 8 1015 70 10000 2.6 110 21:21 13.04.2020
4780 Clouds 8 1015 70 10000 2.6 110 20:58 13.04.2020
4781 Clouds 9 1015 66 10000 4.1 110 20:40 13.04.2020
4782 Clouds 9 1015 61 10000 4.1 110 20:19 13.04.2020
4783 Clouds 9 1015 61 10000 4.1 110 19:58 13.04.2020
4784 Clouds 9 1015 61 10000 3.6 110 19:37 13.04.2020
4785 Clouds 9 1015 61 10000 5.1 110 19:18 13.04.2020
4786 Clouds 10 1015 61 10000 5.1 110 18:57 13.04.2020
4787 Clouds 11 1016 57 10000 5.7 110 18:37 13.04.2020
4788 Clouds 11 1016 50 10000 5.7 110 18:18 13.04.2020
4789 Clouds 11 1016 50 10000 5.7 110 17:56 13.04.2020
4790 Clouds 12 1016 40 10000 7.2 100 17:37 13.04.2020
4791 Clouds 13 1016 37 10000 6.7 120 17:18 13.04.2020
4792 Clouds 13 1016 37 10000 6.7 120 16:57 13.04.2020
4793 Clouds 14 1016 33 10000 6.7 120 16:37 13.04.2020
4794 Clouds 14 1016 33 10000 7.2 120 16:18 13.04.2020
4795 Clouds 15 1017 33 10000 7.7 110 15:46 13.04.2020
4796 Clear 15 1017 33 10000 7.7 110 15:28 13.04.2020
4797 Clear 15 1017 28 10000 7.7 120 14:58 13.04.2020
4798 Clear 15 1017 28 10000 8.2 120 14:40 13.04.2020
4799 Clear 15 1018 26 10000 8.2 120 14:21 13.04.2020
4800 Clear 15 1018 26 10000 8.2 120 13:56 13.04.2020
4801 Clear 16 1018 26 10000 7.7 130 13:38 13.04.2020
4802 Clear 16 1019 25 10000 7.7 130 13:19 13.04.2020
4803 Clear 16 1019 25 10000 7.7 130 12:58 13.04.2020
4804 Clear 16 1019 26 10000 8.2 120 12:39 13.04.2020
4805 Clear 13 1019 30 10000 8.2 120 12:19 13.04.2020
4806 Clear 13 1019 30 10000 8.2 120 12:19 13.04.2020
4807 Clear 13 1020 33 10000 8.2 110 11:44 13.04.2020
4808 Clear 13 1020 35 10000 7.7 120 11:19 13.04.2020
4809 Clear 13 1020 35 10000 7.7 120 11:19 13.04.2020
4810 Clear 13 1020 35 10000 7.7 120 10:57 13.04.2020
4811 Clear 13 1021 30 10000 5.7 150 10:39 13.04.2020
4812 Clear 12 1021 28 10000 5.7 150 10:20 13.04.2020
4813 Clear 12 1021 28 10000 5.7 150 09:58 13.04.2020
4814 Clear 12 1021 28 10000 5.1 150 09:39 13.04.2020
4815 Clear 11 1021 34 10000 3.1 150 09:21 13.04.2020
4816 Clear 10 1021 37 10000 2.6 130 08:45 13.04.2020
4817 Clear 10 1021 37 10000 2.6 130 08:26 13.04.2020
4818 Clear 10 1021 43 10000 2.1 120 07:44 13.04.2020
4819 Clear 9 1021 43 10000 2.1 120 07:26 13.04.2020
4820 Clear 8 1021 49 10000 2.1 90 06:56 13.04.2020
4821 Clear 5 1021 52 10000 2.6 80 06:33 13.04.2020
4822 Clear 4 1021 55 10000 2.1 100 05:40 13.04.2020
4823 Clear 4 1021 55 10000 2.6 80 05:19 13.04.2020
4824 Clear 4 1021 55 10000 2.1 80 04:31 13.04.2020
4825 Clear 4 1022 60 10000 2.1 50 03:53 13.04.2020
4826 Clear 5 1022 60 10000 2.1 40 03:33 13.04.2020
4827 Clear 4 1023 64 10000 2.1 340 02:39 13.04.2020
4828 Clear 5 1023 56 10000 1.5 90 01:45 13.04.2020
4829 Clear 5 1023 60 10000 1 0 01:27 13.04.2020
4830 Clear 6 1024 52 10000 1.5 110 00:44 13.04.2020
4831 Clear 6 1024 52 10000 2.1 90 00:24 13.04.2020
4832 Clear 6 1024 48 10000 1.5 80 23:55 12.04.2020
4833 Clear 6 1024 48 10000 1.5 80 23:36 12.04.2020
4834 Clear 6 1024 48 10000 1.5 70 23:18 12.04.2020
4835 Clear 7 1024 48 10000 1.5 60 22:39 12.04.2020
4836 Clear 7 1024 48 10000 2.1 60 22:19 12.04.2020
4837 Clear 7 1024 48 10000 2.1 60 21:57 12.04.2020
4838 Clear 7 1024 48 10000 1.5 70 21:36 12.04.2020
4839 Clear 6 1024 52 10000 2.6 90 21:18 12.04.2020
4840 Clear 7 1024 52 10000 2.6 110 20:42 12.04.2020
4841 Clear 7 1024 52 10000 2.6 110 20:23 12.04.2020
4842 Clear 8 1024 49 10000 2.6 110 19:57 12.04.2020
4843 Clear 10 1024 34 10000 2.6 120 19:38 12.04.2020
4844 Clear 10 1024 34 10000 2.6 130 19:19 12.04.2020
4845 Clear 12 1024 34 10000 3.6 130 18:41 12.04.2020
4846 Clear 12 1025 32 10000 5.1 130 18:23 12.04.2020
4847 Clear 13 1025 30 10000 5.1 130 17:59 12.04.2020
4848 Clear 14 1025 30 10000 5.1 130 17:41 12.04.2020
4849 Clear 14 1025 30 10000 5.1 130 17:23 12.04.2020
4850 Clear 14 1025 28 10000 5.7 120 16:58 12.04.2020
4851 Clear 15 1025 28 10000 5.7 120 16:39 12.04.2020
4852 Clear 15 1025 35 10000 5.7 120 16:20 12.04.2020
4853 Clear 15 1025 33 10000 6.2 110 15:48 12.04.2020
4854 Clear 15 1025 33 10000 6.2 110 15:29 12.04.2020
4855 Clear 16 1026 30 10000 6.7 120 14:54 12.04.2020
4856 Clear 16 1026 30 10000 6.7 120 14:36 12.04.2020
4857 Clear 16 1026 28 10000 6.7 120 14:18 12.04.2020
4858 Clear 16 1026 28 10000 6.7 120 14:18 12.04.2020
4859 Clear 17 1026 28 10000 6.7 110 13:42 12.04.2020
4860 Clear 17 1026 25 10000 7.2 110 13:23 12.04.2020
4861 Clear 17 1026 25 10000 7.2 110 12:55 12.04.2020
4862 Clear 17 1027 23 10000 6.2 120 12:37 12.04.2020
4863 Clear 16 1027 23 10000 6.2 120 12:18 12.04.2020
4864 Clear 16 1027 23 10000 6.2 120 11:42 12.04.2020
4865 Clear 16 1027 23 10000 5.1 110 11:22 12.04.2020
4866 Clear 16 1027 23 10000 5.1 110 10:58 12.04.2020
4867 Clear 15 1027 24 10000 3.6 120 10:40 12.04.2020
4868 Clear 15 1027 28 10000 1.5 90 10:21 12.04.2020
4869 Clear 15 1027 28 10000 1.5 90 10:00 12.04.2020
4870 Clear 15 1027 28 10000 1.5 90 10:00 12.04.2020
4871 Clear 14 1027 37 10000 0.5 0 09:39 12.04.2020
4872 Clear 10 1027 53 7000 1.5 250 09:21 12.04.2020
4873 Clear 8 1027 61 6000 1.5 260 08:52 12.04.2020
4874 Clear 8 1027 61 6000 1.5 260 08:33 12.04.2020
4875 Clear 6 1027 70 7000 1 270 07:58 12.04.2020
4876 Clear 4 1026 47 10000 0.43 31 07:40 12.04.2020
4877 Clear 6 1026 80 10000 1 300 07:18 12.04.2020
4878 Clear 3 1026 80 10000 1 280 06:33 12.04.2020
4879 Clear 1 1025 86 10000 1.62 310 05:50 12.04.2020
4880 Clear 1 1025 86 10000 1.62 310 05:28 12.04.2020
4881 Clear 2 1025 74 10000 1 330 03:38 12.04.2020
4882 Clouds 3 1025 74 10000 0.41 289 02:57 12.04.2020
4883 Clouds 3 1025 74 10000 1.5 340 02:34 12.04.2020
4884 Clouds 4 1025 69 10000 0.67 272 01:34 12.04.2020
4885 Clouds 3 1025 69 10000 1.5 340 00:57 12.04.2020
4886 Clouds 3 1025 64 10000 0.67 272 00:38 12.04.2020
4887 Clouds 4 1025 60 10000 2.1 10 00:19 12.04.2020
4888 Clouds 5 1025 56 10000 1 20 23:45 11.04.2020
4889 Clouds 5 1025 56 10000 1 20 23:24 11.04.2020
4890 Clouds 6 1025 52 10000 0.97 134 22:41 11.04.2020
4891 Clouds 7 1024 49 10000 1.5 60 22:22 11.04.2020
4892 Clouds 7 1024 49 10000 1.5 60 21:57 11.04.2020
4893 Clouds 6 1024 56 10000 2.6 90 21:37 11.04.2020
4894 Clouds 7 1024 58 10000 3.1 100 21:18 11.04.2020
4895 Clouds 7 1024 58 10000 3.1 100 21:18 11.04.2020
4896 Clouds 7 1024 58 10000 3.1 100 20:57 11.04.2020
4897 Clouds 8 1023 66 10000 2.6 120 20:38 11.04.2020
4898 Clouds 8 1023 66 10000 2.1 130 20:20 11.04.2020
4899 Clouds 9 1023 66 10000 2.1 130 19:57 11.04.2020
4900 Clouds 9 1023 66 10000 2.1 130 19:57 11.04.2020
4901 Clouds 9 1023 61 10000 3.1 120 19:38 11.04.2020
4902 Clouds 10 1023 61 10000 4.1 130 19:18 11.04.2020
4903 Clouds 11 1023 61 10000 4.1 130 18:55 11.04.2020
4904 Clouds 11 1022 57 10000 4.6 140 18:37 11.04.2020
4905 Clouds 12 1022 54 10000 5.1 130 18:18 11.04.2020
4906 Clouds 12 1022 54 10000 5.1 130 17:58 11.04.2020
4907 Clouds 13 1022 26 10000 6.2 110 17:38 11.04.2020
4908 Clouds 14 1022 28 10000 7.2 130 17:19 11.04.2020
4909 Clouds 14 1022 35 10000 7.2 130 16:43 11.04.2020
4910 Clouds 15 1021 22 10000 8.2 130 16:22 11.04.2020
4911 Clouds 15 1021 22 10000 8.2 130 16:22 11.04.2020
4912 Clouds 15 1022 25 10000 7.7 120 15:42 11.04.2020
4913 Clouds 16 1022 29 10000 7.7 130 15:22 11.04.2020
4914 Clouds 16 1022 29 10000 7.7 130 14:59 11.04.2020
4915 Clouds 16 1022 38 10000 8.2 130 14:41 11.04.2020
4916 Clouds 17 1022 44 10000 7.7 130 14:23 11.04.2020
4917 Clouds 16 1022 44 10000 7.7 130 13:55 11.04.2020
4918 Clouds 16 1022 44 10000 7.2 140 13:36 11.04.2020
4919 Clouds 16 1022 38 10000 7.2 140 13:18 11.04.2020
4920 Clouds 17 1022 36 10000 6.7 150 12:39 11.04.2020
4921 Clouds 16 1022 36 10000 5.1 140 12:18 11.04.2020
4922 Clouds 16 1022 36 10000 5.1 140 11:55 11.04.2020
4923 Clouds 16 1022 50 10000 4.6 160 11:37 11.04.2020
4924 Clouds 15 1022 50 10000 3.6 150 11:18 11.04.2020
4925 Clouds 15 1022 33 10000 3.6 150 10:42 11.04.2020
4926 Clouds 15 1022 33 10000 2.1 120 10:22 11.04.2020
4927 Clouds 15 1022 33 10000 2.1 120 09:58 11.04.2020
4928 Clouds 15 1022 30 10000 1.5 0 09:39 11.04.2020
4929 Clouds 13 1022 32 10000 2.6 80 09:20 11.04.2020
4930 Clouds 12 1022 34 10000 3.1 40 08:46 11.04.2020
4931 Clouds 13 1022 34 10000 3.1 40 08:27 11.04.2020
4932 Clouds 11 1021 34 10000 4.6 50 07:50 11.04.2020
4933 Clouds 10 1021 34 10000 4.6 50 07:28 11.04.2020
4934 Clouds 10 1020 37 10000 2.1 0 06:49 11.04.2020
4935 Clouds 9 1020 37 10000 2.1 0 06:18 11.04.2020
4936 Clouds 9 1020 37 10000 3.1 110 05:24 11.04.2020
4937 Clouds 11 1019 35 10000 2.6 0 03:40 11.04.2020
4938 Clouds 13 1018 35 10000 8.2 40 01:55 11.04.2020
4939 Clouds 13 1017 38 10000 7.2 40 01:23 11.04.2020
4940 Clouds 13 1017 41 10000 6.2 50 00:44 11.04.2020
4941 Clouds 13 1017 41 10000 8.2 40 00:19 11.04.2020
4942 Clouds 13 1017 41 10000 8.2 40 23:57 10.04.2020
4943 Clouds 11 1017 65 10000 1 270 23:38 10.04.2020
4944 Clouds 11 1017 65 10000 1.5 310 23:18 10.04.2020
4945 Clouds 11 1017 65 10000 1.5 310 23:18 10.04.2020
4946 Clouds 11 1016 57 10000 1.5 320 22:43 10.04.2020
4947 Clouds 11 1017 57 10000 2.6 50 22:22 10.04.2020
4948 Clouds 11 1017 57 10000 2.6 50 21:58 10.04.2020
4949 Clouds 11 1016 57 10000 2.1 110 21:40 10.04.2020
4950 Clear 11 1016 50 10000 1 0 21:20 10.04.2020
4951 Clear 12 1015 71 10000 0.5 0 20:43 10.04.2020
4952 Clear 12 1015 71 10000 0.5 0 20:24 10.04.2020
4953 Clear 14 1015 62 10000 2.6 90 19:58 10.04.2020
4954 Clear 13 1015 58 10000 1.5 110 19:40 10.04.2020
4955 Clear 16 1014 47 10000 3.1 110 19:20 10.04.2020
4956 Clear 17 1014 44 10000 3.6 120 18:58 10.04.2020
4957 Clear 18 1014 44 10000 3.6 120 18:39 10.04.2020
4958 Clear 19 1014 36 10000 4.6 110 18:21 10.04.2020
4959 Clear 20 1014 36 10000 4.6 110 17:58 10.04.2020
4960 Clear 20 1014 34 10000 5.1 110 17:39 10.04.2020
4961 Clear 20 1014 29 10000 5.7 110 17:20 10.04.2020
4962 Clear 21 1014 29 10000 5.7 110 16:56 10.04.2020
4963 Clear 21 1014 28 10000 5.7 110 16:38 10.04.2020
4964 Clear 20 1014 29 10000 6.2 110 16:20 10.04.2020
4965 Clear 21 1014 29 10000 6.2 110 15:56 10.04.2020
4966 Clear 21 1014 28 10000 6.2 120 15:37 10.04.2020
4967 Clear 21 1014 28 10000 7.7 110 15:18 10.04.2020
4968 Clear 21 1014 28 10000 7.7 110 14:56 10.04.2020
4969 Clear 22 1014 26 10000 7.2 110 14:38 10.04.2020
4970 Clear 21 1014 28 10000 4.1 100 14:18 10.04.2020
4971 Clear 21 1014 28 10000 4.1 100 14:18 10.04.2020
4972 Clear 23 1014 17 10000 4.6 340 13:43 10.04.2020
4973 Clear 23 1014 19 10000 6.7 330 13:21 10.04.2020
4974 Clear 22 1014 19 10000 5.7 360 12:43 10.04.2020
4975 Clear 21 1014 51 10000 5.7 360 12:23 10.04.2020
4976 Clear 21 1014 51 10000 5.7 360 11:56 10.04.2020
4977 Clear 21 1015 51 10000 5.7 360 11:38 10.04.2020
4978 Clear 19 1015 51 10000 4.6 320 11:20 10.04.2020
4979 Clear 19 1015 30 10000 3.6 230 10:44 10.04.2020
4980 Clear 15 1015 36 10000 2.6 200 10:23 10.04.2020
4981 Clear 17 1015 36 10000 2.6 200 09:57 10.04.2020
4982 Clear 16 1016 36 10000 2.6 240 09:38 10.04.2020
4983 Clear 12 1016 41 10000 3.1 220 09:18 10.04.2020
4984 Clear 10 1016 46 10000 3.1 240 08:42 10.04.2020
4985 Clear 10 1016 58 10000 1.5 250 08:23 10.04.2020
4986 Clear 10 1016 58 10000 1.5 270 07:45 10.04.2020
4987 Clear 10 1016 65 10000 2.1 270 07:24 10.04.2020
4988 Clear 8 1016 60 9000 1.5 280 06:49 10.04.2020
4989 Clear 7 1016 60 9000 1.5 280 06:28 10.04.2020
4990 Clear 6 1016 60 10000 1.5 280 05:40 10.04.2020
4991 Clear 6 1016 60 10000 2.1 280 04:58 10.04.2020
4992 Clear 6 1017 60 10000 1.5 270 03:49 10.04.2020
4993 Clear 6 1017 60 10000 1.5 270 03:30 10.04.2020
4994 Clear 6 1017 56 10000 1 0 02:48 10.04.2020
4995 Clear 7 1017 56 10000 1 0 02:28 10.04.2020
4996 Clear 6 1017 56 10000 0.5 320 01:30 10.04.2020
4997 Clear 6 1018 56 10000 1 350 00:50 10.04.2020
4998 Clear 6 1018 56 10000 0.96 262 00:23 10.04.2020
4999 Clear 6 1018 56 10000 0.96 262 23:55 09.04.2020
5000 Clear 6 1018 60 10000 0.96 262 23:37 09.04.2020
5001 Clear 7 1018 56 10000 1.5 330 23:19 09.04.2020
5002 Clear 8 1018 52 10000 1.5 20 22:41 09.04.2020
5003 Clear 7 1018 52 10000 0.5 0 22:22 09.04.2020
5004 Clear 8 1018 45 10000 0.5 0 21:45 09.04.2020
5005 Clear 9 1018 45 10000 0.5 0 21:26 09.04.2020
5006 Clear 9 1018 42 10000 1 0 20:59 09.04.2020
5007 Clear 10 1018 39 10000 1.5 80 20:40 09.04.2020
5008 Clear 10 1018 39 10000 3.1 100 20:20 09.04.2020
5009 Clear 11 1018 43 10000 3.6 100 19:41 09.04.2020
5010 Clear 12 1018 40 10000 5.7 100 19:23 09.04.2020
5011 Clear 13 1018 40 10000 5.7 100 18:59 09.04.2020
5012 Clear 15 1018 35 10000 5.1 100 18:40 09.04.2020
5013 Clear 16 1018 33 10000 5.7 100 18:18 09.04.2020
5014 Clear 16 1018 31 10000 5.1 90 17:40 09.04.2020
5015 Clear 17 1018 47 10000 3.6 90 17:21 09.04.2020
5016 Clear 17 1018 47 10000 4.1 90 16:42 09.04.2020
5017 Clear 17 1018 47 10000 4.1 90 16:23 09.04.2020
5018 Clear 17 1018 47 10000 5.1 100 15:58 09.04.2020
5019 Clear 17 1019 47 10000 6.7 110 15:39 09.04.2020
5020 Clear 17 1019 47 10000 6.7 110 15:39 09.04.2020
5021 Clear 17 1019 47 10000 6.7 110 15:39 09.04.2020
5022 Clear 17 1019 47 10000 6.7 110 15:39 09.04.2020
5023 Clear 17 1019 39 10000 6.7 110 15:21 09.04.2020
5024 Clear 18 1019 39 10000 6.7 110 14:59 09.04.2020
5025 Clear 18 1019 39 10000 7.2 130 14:39 09.04.2020
5026 Clear 17 1020 40 10000 6.2 120 14:20 09.04.2020
5027 Clear 17 1020 40 10000 6.2 130 13:42 09.04.2020
5028 Clear 17 1020 40 10000 6.2 140 13:24 09.04.2020
5029 Clear 17 1020 40 10000 6.2 140 12:59 09.04.2020
5030 Clear 17 1020 40 10000 5.7 130 12:39 09.04.2020
5031 Clear 16 1020 44 10000 5.1 140 12:20 09.04.2020
5032 Clear 16 1020 44 10000 5.1 140 12:20 09.04.2020
5033 Clear 16 1021 44 10000 5.1 90 11:55 09.04.2020
5034 Clear 16 1021 44 10000 5.1 90 11:36 09.04.2020
5035 Clear 16 1021 24 10000 4.1 350 11:18 09.04.2020
5036 Clear 15 1021 44 10000 2.6 0 10:41 09.04.2020
5037 Clear 15 1021 31 10000 2.1 240 10:22 09.04.2020
5038 Clear 14 1021 31 10000 2.1 240 09:58 09.04.2020
5039 Clear 12 1022 44 10000 2.1 240 09:39 09.04.2020
5040 Clear 9 1022 43 10000 2.6 260 09:21 09.04.2020
5041 Clear 7 1022 49 10000 1.5 260 08:45 09.04.2020
5042 Clear 7 1022 49 10000 1.5 260 08:24 09.04.2020
5043 Clear 5 1022 52 10000 0.5 0 07:59 09.04.2020
5044 Clear 8 1022 55 10000 1 0 07:37 09.04.2020
5045 Clear 7 1021 59 10000 1.5 280 07:18 09.04.2020
5046 Clear 2 1021 59 10000 1.5 260 06:28 09.04.2020
5047 Clear 3 1021 55 10000 1 0 05:49 09.04.2020
5048 Clear 2 1022 59 10000 1 0 05:20 09.04.2020
5049 Clear 3 1023 51 10000 1.5 340 02:35 09.04.2020
5050 Clear 2 1024 51 10000 1 0 01:46 09.04.2020
5051 Clear 2 1024 51 10000 1 0 01:27 09.04.2020
5052 Clear 3 1024 44 10000 1 310 00:45 09.04.2020
5053 Clear 4 1024 41 10000 2.1 330 00:21 09.04.2020
5054 Clear 3 1024 41 10000 2.1 330 23:59 08.04.2020
5055 Clear 3 1025 44 10000 1.5 310 23:41 08.04.2020
5056 Clear 4 1025 35 10000 3.1 40 23:22 08.04.2020
5057 Clear 5 1025 35 10000 3.1 40 22:44 08.04.2020
5058 Clear 5 1025 30 10000 3.6 30 22:24 08.04.2020
5059 Clear 5 1025 30 10000 3.6 30 21:57 08.04.2020
5060 Clear 6 1025 31 10000 2.6 60 21:39 08.04.2020
5061 Clear 6 1025 39 10000 2.6 90 21:21 08.04.2020
5062 Clear 6 1025 39 10000 2.6 90 20:58 08.04.2020
5063 Clear 7 1025 39 10000 2.6 90 20:39 08.04.2020
5064 Clear 8 1025 31 10000 2.6 70 20:20 08.04.2020
5065 Clear 9 1025 31 10000 2.6 70 19:58 08.04.2020
5066 Clear 9 1025 31 10000 2.6 70 19:37 08.04.2020
5067 Clear 10 1025 32 10000 4.1 60 19:19 08.04.2020
5068 Clear 10 1025 32 10000 4.1 60 19:19 08.04.2020
5069 Clear 11 1025 30 10000 3.6 70 18:42 08.04.2020
5070 Clear 12 1025 30 10000 6.7 70 18:24 08.04.2020
5071 Clear 13 1025 26 10000 6.7 50 17:56 08.04.2020
5072 Clear 14 1025 26 10000 6.7 50 17:38 08.04.2020
5073 Clear 14 1025 28 10000 8.7 70 17:18 08.04.2020
5074 Clear 14 1025 26 10000 7.7 50 16:42 08.04.2020
5075 Clear 14 1025 26 10000 7.7 50 16:42 08.04.2020
5076 Clear 14 1025 25 10000 6.7 60 16:23 08.04.2020
5077 Clear 15 1026 25 10000 7.2 50 15:55 08.04.2020
5078 Clear 15 1026 25 10000 7.2 50 15:37 08.04.2020
5079 Clear 15 1026 25 10000 6.7 70 15:18 08.04.2020
5080 Clear 15 1026 23 10000 7.2 60 14:42 08.04.2020
5081 Clear 15 1026 25 10000 7.7 70 14:24 08.04.2020
5082 Clear 16 1027 25 10000 7.2 60 13:45 08.04.2020
5083 Clear 16 1027 25 10000 7.2 60 13:23 08.04.2020
5084 Clear 16 1027 25 10000 7.2 60 13:23 08.04.2020
5085 Clear 15 1027 25 10000 7.2 60 13:00 08.04.2020
5086 Clear 15 1027 26 10000 9.3 50 12:41 08.04.2020
5087 Clear 14 1028 26 10000 8.7 70 12:18 08.04.2020
5088 Clear 14 1028 26 10000 8.7 70 12:18 08.04.2020
5089 Clear 14 1028 26 10000 8.7 70 11:54 08.04.2020
5090 Clear 14 1028 31 10000 7.7 70 11:36 08.04.2020
5091 Clear 14 1028 33 10000 7.2 40 11:18 08.04.2020
5092 Clear 14 1029 30 10000 6.7 40 10:54 08.04.2020
5093 Clear 14 1029 30 10000 6.7 40 10:36 08.04.2020
5094 Clear 13 1029 33 10000 5.7 50 10:18 08.04.2020
5095 Clear 13 1029 35 10000 5.1 50 09:42 08.04.2020
5096 Clear 9 1029 43 10000 4.6 30 09:19 08.04.2020
5097 Clear 9 1029 43 10000 4.6 30 09:19 08.04.2020
5098 Clear 9 1029 43 10000 4.6 30 08:58 08.04.2020
5099 Clear 9 1029 43 10000 4.6 10 08:40 08.04.2020
5100 Clear 8 1029 45 10000 5.7 10 08:21 08.04.2020
5101 Clear 8 1029 45 10000 5.7 360 07:43 08.04.2020
5102 Clear 7 1029 48 10000 5.1 10 07:22 08.04.2020
5103 Clear 5 1029 48 10000 4.6 10 06:32 08.04.2020
5104 Clear 4 1029 52 10000 1.5 200 04:59 08.04.2020
5105 Clear 5 1030 39 10000 4.6 40 02:51 08.04.2020
5106 Clear 6 1030 39 10000 5.7 30 02:22 08.04.2020
5107 Clear 6 1030 39 10000 5.7 30 01:56 08.04.2020
5108 Clear 6 1030 39 10000 5.1 30 01:28 08.04.2020
5109 Clear 6 1031 36 10000 5.1 30 00:47 08.04.2020
5110 Clear 6 1031 36 10000 5.1 30 00:26 08.04.2020
5111 Clear 6 1031 36 10000 5.1 30 23:57 07.04.2020
5112 Clear 6 1031 33 10000 5.1 30 23:37 07.04.2020
5113 Clear 6 1031 33 10000 4.6 30 23:18 07.04.2020
5114 Clear 6 1031 33 10000 4.6 30 22:55 07.04.2020
5115 Clear 6 1031 31 10000 4.6 30 22:37 07.04.2020
5116 Clear 7 1031 29 10000 4.6 40 22:18 07.04.2020
5117 Clear 7 1031 31 10000 4.6 30 21:42 07.04.2020
5118 Clear 7 1031 29 10000 4.6 40 21:21 07.04.2020
5119 Clear 8 1031 27 10000 5.1 40 20:59 07.04.2020
5120 Clear 9 1031 27 10000 5.1 40 20:40 07.04.2020
5121 Clear 8 1031 27 10000 5.7 40 20:21 07.04.2020
5122 Clear 9 1031 27 10000 5.7 40 19:57 07.04.2020
5123 Clear 9 1031 27 10000 5.7 40 19:38 07.04.2020
5124 Clear 10 1031 22 10000 5.7 60 19:19 07.04.2020
5125 Clear 11 1031 22 10000 5.7 60 18:58 07.04.2020
5126 Clear 11 1031 22 10000 5.7 60 18:58 07.04.2020
5127 Clear 11 1031 22 10000 5.7 60 18:39 07.04.2020
5128 Clear 12 1031 20 10000 6.7 80 18:20 07.04.2020
5129 Clear 13 1031 17 10000 7.2 70 17:46 07.04.2020
5130 Clear 14 1031 18 10000 7.2 70 17:24 07.04.2020
5131 Clear 14 1031 18 10000 7.2 70 16:54 07.04.2020
5132 Clear 14 1031 19 10000 8.7 80 16:36 07.04.2020
5133 Clear 14 1031 19 10000 8.7 80 16:18 07.04.2020
5134 Clear 14 1032 18 10000 9.8 60 15:42 07.04.2020
5135 Clear 14 1032 18 10000 9.3 80 15:23 07.04.2020
5136 Clear 14 1032 18 10000 9.8 80 14:42 07.04.2020
5137 Clear 15 1032 17 10000 9.8 70 14:23 07.04.2020
5138 Clear 15 1032 17 10000 9.8 70 13:57 07.04.2020
5139 Clear 15 1032 17 10000 10.3 80 13:39 07.04.2020
5140 Clear 15 1032 17 10000 8.7 70 13:18 07.04.2020
5141 Clear 14 1032 19 10000 10.3 60 12:56 07.04.2020
5142 Clear 14 1032 19 10000 10.3 60 12:37 07.04.2020
5143 Clear 14 1033 19 10000 8.7 70 12:18 07.04.2020
5144 Clear 14 1033 19 10000 9.3 60 11:44 07.04.2020
5145 Clear 14 1033 19 10000 9.3 60 11:26 07.04.2020
5146 Clear 14 1033 19 10000 9.3 60 11:26 07.04.2020
5147 Clear 13 1033 19 10000 10.3 70 10:59 07.04.2020
5148 Clear 13 1033 19 10000 9.3 70 10:38 07.04.2020
5149 Clear 13 1033 20 10000 9.3 70 10:19 07.04.2020
5150 Clear 12 1033 26 10000 6.7 60 09:45 07.04.2020
5151 Clear 10 1033 32 10000 5.7 40 09:19 07.04.2020
5152 Clear 10 1033 32 10000 5.7 40 08:56 07.04.2020
5153 Clear 9 1033 39 10000 6.7 40 08:38 07.04.2020
5154 Clear 8 1032 42 10000 6.2 40 08:18 07.04.2020
5155 Clear 7 1032 49 10000 5.7 30 07:40 07.04.2020
5156 Clear 7 1032 48 10000 5.7 30 07:21 07.04.2020
5157 Clear 6 1032 52 10000 6.2 30 06:51 07.04.2020
5158 Clear 5 1032 52 10000 6.2 30 06:23 07.04.2020
5159 Clear 4 1032 56 10000 7.2 30 05:40 07.04.2020
5160 Clear 4 1032 56 10000 7.2 40 04:56 07.04.2020
5161 Clear 4 1031 60 10000 7.2 30 03:31 07.04.2020
5162 Clear 4 1032 60 10000 6.7 30 02:59 07.04.2020
5163 Clear 5 1032 52 10000 6.7 50 01:50 07.04.2020
5164 Clear 5 1032 52 10000 6.7 50 01:26 07.04.2020
5165 Clear 5 1031 52 10000 8.2 50 00:29 07.04.2020
5166 Clear 5 1031 48 10000 9.3 50 23:56 06.04.2020
5167 Clear 5 1031 48 10000 9.3 50 23:36 06.04.2020
5168 Clear 6 1031 45 10000 9.3 40 23:18 06.04.2020
5169 Clear 6 1032 48 10000 7.7 50 22:40 06.04.2020
5170 Clear 6 1032 48 10000 7.7 50 22:40 06.04.2020
5171 Clear 6 1032 48 10000 7.2 60 22:21 06.04.2020
5172 Clear 6 1032 48 10000 7.2 60 21:57 06.04.2020
5173 Clear 6 1032 48 10000 7.7 50 21:39 06.04.2020
5174 Clear 6 1031 48 10000 7.7 40 21:19 06.04.2020
5175 Clear 6 1031 48 10000 7.7 40 20:55 06.04.2020
5176 Clear 6 1032 48 10000 6.2 60 20:37 06.04.2020
5177 Clear 6 1032 42 10000 5.1 0 20:18 06.04.2020
5178 Clear 7 1031 42 10000 3.1 70 19:41 06.04.2020
5179 Clear 8 1031 36 10000 3.6 90 19:23 06.04.2020
5180 Clear 8 1031 36 10000 3.6 90 18:59 06.04.2020
5181 Clear 8 1032 39 10000 4.6 80 18:39 06.04.2020
5182 Clear 9 1032 39 10000 6.2 70 18:21 06.04.2020
5183 Clear 10 1032 40 10000 7.7 80 17:42 06.04.2020
5184 Clear 10 1031 40 10000 8.2 80 17:20 06.04.2020
5185 Clear 10 1031 40 10000 8.2 80 16:50 06.04.2020
5186 Clear 10 1031 40 10000 8.2 80 16:31 06.04.2020
5187 Clear 10 1031 37 10000 9.8 90 15:59 06.04.2020
5188 Clouds 11 1031 32 10000 8.7 70 14:00 06.04.2020
5189 Clouds 11 1031 32 10000 8.7 70 14:00 06.04.2020
5190 Clouds 12 1031 24 10000 10.8 70 13:40 06.04.2020
5191 Clouds 12 1031 24 10000 10.8 70 13:40 06.04.2020
5192 Clouds 12 1031 24 10000 10.8 70 13:20 06.04.2020
5193 Clouds 12 1031 24 10000 10.8 70 13:20 06.04.2020
5194 Clouds 12 1031 24 10000 10.8 70 13:20 06.04.2020
5195 Clouds 11 1031 24 10000 11.8 70 12:23 06.04.2020
5196 Clouds 11 1031 24 10000 11.8 70 12:23 06.04.2020
5197 Clouds 12 1031 30 10000 10.3 60 11:55 06.04.2020
5198 Clouds 12 1031 32 10000 11.3 70 11:33 06.04.2020
5199 Clouds 12 1031 32 10000 11.3 70 11:33 06.04.2020
5200 Clouds 12 1031 32 10000 11.3 70 11:33 06.04.2020
5201 Clouds 12 1031 32 10000 11.3 70 11:33 06.04.2020
5202 Clouds 12 1031 32 10000 11.3 70 11:33 06.04.2020
5203 Clouds 11 1031 35 10000 11.3 80 10:52 06.04.2020
5204 Clouds 11 1031 35 10000 11.3 80 10:52 06.04.2020
5205 Clouds 11 1031 35 10000 11.3 80 10:52 06.04.2020
5206 Clouds 11 1031 35 10000 11.3 80 10:52 06.04.2020
5207 Clouds 11 1031 35 10000 11.3 80 10:52 06.04.2020
5208 Clouds 11 1031 34 10000 11.3 60 10:22 06.04.2020
5209 Clouds 10 1031 34 10000 13.4 70 09:47 06.04.2020
5210 Clouds 10 1031 34 10000 13.4 70 09:47 06.04.2020
5211 Clouds 10 1031 34 10000 13.4 70 09:47 06.04.2020
5212 Clouds 10 1030 40 10000 10.8 60 09:21 06.04.2020
5213 Clouds 9 1030 40 10000 9.8 60 08:55 06.04.2020
5214 Clouds 9 1029 59 10000 10.3 50 08:30 06.04.2020
5215 Clouds 7 1029 59 10000 8.7 50 07:39 06.04.2020
5216 Clouds 7 1028 52 10000 7.7 50 06:47 06.04.2020
5217 Clouds 7 1028 49 10000 8.7 50 06:24 06.04.2020
5218 Clouds 7 1027 49 10000 8.2 50 04:20 06.04.2020
5219 Clouds 8 1026 43 10000 7.2 50 02:58 06.04.2020
5220 Clouds 8 1026 43 10000 8.2 50 02:36 06.04.2020
5221 Clouds 8 1026 37 10000 6.7 50 01:26 06.04.2020
5222 Clouds 9 1026 37 10000 6.7 50 00:41 06.04.2020
5223 Clouds 9 1026 37 10000 6.7 50 00:23 06.04.2020
5224 Clouds 9 1025 32 10000 8.7 50 23:44 05.04.2020
5225 Clouds 10 1025 32 10000 8.7 50 23:25 05.04.2020
5226 Clouds 10 1025 32 10000 8.7 50 23:25 05.04.2020
5227 Clouds 10 1025 32 10000 8.7 50 23:25 05.04.2020
5228 Clouds 10 1025 32 10000 8.7 50 23:25 05.04.2020
5229 Clouds 10 1025 29 10000 8.2 50 22:55 05.04.2020
5230 Clouds 10 1025 29 10000 8.2 50 22:55 05.04.2020
5231 Clouds 10 1025 29 10000 8.7 50 22:37 05.04.2020
5232 Clouds 10 1025 29 10000 8.7 50 22:18 05.04.2020
5233 Clouds 10 1025 29 10000 9.3 40 21:45 05.04.2020
5234 Clouds 10 1025 29 10000 9.8 40 21:24 05.04.2020
5235 Clouds 10 1025 29 10000 9.8 40 21:24 05.04.2020
5236 Clouds 10 1025 29 10000 9.8 40 21:24 05.04.2020
5237 Clouds 10 1024 27 10000 10.3 40 20:26 05.04.2020
5238 Clouds 10 1024 27 10000 9.3 40 20:00 05.04.2020
5239 Clouds 10 1024 27 10000 9.3 40 20:00 05.04.2020
5240 Clouds 10 1023 23 10000 9.3 50 19:37 05.04.2020
5241 Clouds 11 1023 23 10000 9.3 50 19:19 05.04.2020
5242 Clouds 11 1023 23 10000 11.8 40 18:44 05.04.2020
5243 Clouds 11 1023 23 10000 11.8 40 18:44 05.04.2020
5244 Clouds 11 1023 23 10000 11.8 40 18:44 05.04.2020
5245 Clouds 11 1023 23 10000 11.8 40 18:44 05.04.2020
5246 Clouds 11 1023 23 10000 11.8 40 18:44 05.04.2020
5247 Clouds 12 1022 26 10000 10.3 50 17:52 05.04.2020
5248 Clouds 12 1022 26 10000 10.3 50 17:52 05.04.2020
5249 Clouds 12 1022 26 10000 10.3 50 17:52 05.04.2020
5250 Clouds 12 1022 26 10000 10.3 50 17:52 05.04.2020
5251 Clouds 12 1022 26 10000 10.3 50 17:52 05.04.2020
5252 Clouds 12 1022 28 10000 12.9 50 17:24 05.04.2020
5253 Clouds 13 1022 30 10000 11.8 50 16:47 05.04.2020
5254 Clouds 13 1022 33 10000 11.8 60 16:20 05.04.2020
5255 Clouds 13 1022 33 10000 11.8 60 16:20 05.04.2020
5256 Clouds 14 1021 52 10000 11.8 60 15:49 05.04.2020
5257 Clouds 15 1021 36 10000 12.3 70 15:30 05.04.2020
5258 Clouds 14 1021 38 10000 11.8 60 14:48 05.04.2020
5259 Clouds 14 1021 41 10000 12.3 70 14:24 05.04.2020
5260 Clouds 14 1022 44 10000 11.3 60 13:41 05.04.2020
5261 Clouds 14 1022 38 10000 12.3 70 12:48 05.04.2020
5262 Clouds 14 1022 38 10000 10.3 70 12:48 05.04.2020
5263 Clouds 14 1022 38 10000 12.3 70 12:48 05.04.2020
5264 Clouds 14 1022 54 10000 10.3 70 11:41 05.04.2020
5265 Clouds 14 1022 54 10000 10.3 70 11:20 05.04.2020
5266 Clouds 13 1022 54 10000 10.3 70 10:48 05.04.2020
5267 Clouds 12 1022 54 10000 10.3 60 10:24 05.04.2020
5268 Clouds 12 1022 54 10000 10.3 60 10:24 05.04.2020
5269 Clouds 12 1022 54 10000 10.3 60 10:24 05.04.2020
5270 Clouds 12 1022 54 10000 10.3 60 10:24 05.04.2020
5271 Clouds 12 1022 54 10000 10.3 60 10:24 05.04.2020
5272 Clouds 12 1022 43 10000 9.3 60 09:56 05.04.2020
5273 Clouds 12 1022 43 10000 9.3 60 09:56 05.04.2020
5274 Clouds 11 1022 46 10000 8.7 50 09:31 05.04.2020
5275 Clouds 11 1022 46 10000 8.7 50 09:31 05.04.2020
5276 Clouds 10 1021 43 10000 8.7 50 08:38 05.04.2020
5277 Clouds 9 1021 46 10000 8.2 40 07:24 05.04.2020
5278 Clouds 9 1021 46 10000 8.2 40 07:23 05.04.2020
5279 Clouds 8 1020 61 10000 7.2 40 04:33 05.04.2020
5280 Clouds 8 1021 61 10000 6.2 50 03:29 05.04.2020
5281 Clouds 8 1021 61 10000 6.2 50 03:29 05.04.2020
5282 Clouds 8 1021 57 10000 5.1 60 02:49 05.04.2020
5283 Clouds 7 1021 65 10000 2.6 80 01:46 05.04.2020
5284 Clouds 8 1021 68 10000 2.6 110 01:23 05.04.2020
5285 Clouds 8 1021 68 10000 3.1 80 00:42 05.04.2020
5286 Clouds 8 1021 72 10000 3.1 80 00:21 05.04.2020
5287 Clouds 7 1021 65 10000 3.1 60 23:42 04.04.2020
5288 Clouds 7 1021 65 10000 3.1 60 23:42 04.04.2020
5289 Clouds 7 1021 65 10000 3.1 60 23:22 04.04.2020
5290 Clouds 7 1021 65 10000 3.6 60 22:57 04.04.2020
5291 Clouds 7 1021 65 10000 4.6 60 22:39 04.04.2020
5292 Clouds 7 1021 65 10000 4.6 60 22:20 04.04.2020
5293 Clouds 7 1021 65 10000 4.6 80 21:57 04.04.2020
5294 Clouds 7 1021 65 10000 4.6 80 21:57 04.04.2020
5295 Clouds 7 1021 70 10000 3.6 80 21:39 04.04.2020
5296 Clouds 7 1021 70 10000 3.6 80 21:19 04.04.2020
5297 Clouds 7 1021 81 10000 4.6 80 20:55 04.04.2020
5298 Clouds 7 1021 81 10000 4.1 100 20:37 04.04.2020
5299 Clouds 7 1021 81 10000 4.1 100 20:19 04.04.2020
5300 Clouds 7 1020 81 10000 3.6 90 19:54 04.04.2020
5301 Clouds 8 1020 81 10000 3.1 90 19:36 04.04.2020
5302 Clouds 8 1020 81 10000 3.1 90 19:18 04.04.2020
5303 Clouds 8 1020 70 10000 4.6 90 18:54 04.04.2020
5304 Clouds 8 1020 66 10000 5.1 80 18:36 04.04.2020
5305 Clouds 8 1020 66 10000 5.1 80 18:18 04.04.2020
5306 Clouds 9 1020 57 10000 5.1 100 17:39 04.04.2020
5307 Clouds 9 1020 57 10000 5.1 100 17:19 04.04.2020
5308 Clouds 10 1020 61 10000 5.1 110 16:46 04.04.2020
5309 Clouds 10 1020 62 10000 4.6 110 16:27 04.04.2020
5310 Clouds 11 1019 57 10000 5.1 110 15:59 04.04.2020
5311 Clouds 11 1019 66 10000 4.6 120 15:39 04.04.2020
5312 Clouds 10 1019 66 10000 4.6 120 15:20 04.04.2020
5313 Clouds 10 1019 71 10000 4.6 130 14:56 04.04.2020
5314 Clouds 11 1019 66 10000 5.7 110 14:37 04.04.2020
5315 Clouds 11 1019 66 10000 5.7 110 14:18 04.04.2020
5316 Clouds 11 1020 76 10000 4.6 130 13:42 04.04.2020
5317 Clouds 11 1020 76 10000 4.6 130 13:22 04.04.2020
5318 Clouds 11 1020 76 10000 5.1 110 12:58 04.04.2020
5319 Clouds 11 1020 76 10000 4.6 120 12:40 04.04.2020
5320 Clouds 11 1020 76 10000 4.6 120 12:21 04.04.2020
5321 Clouds 11 1019 81 10000 4.1 110 11:42 04.04.2020
5322 Clouds 11 1019 81 10000 4.1 110 11:23 04.04.2020
5323 Clouds 11 1019 81 10000 4.6 120 10:59 04.04.2020
5324 Clouds 10 1019 81 10000 4.1 130 10:41 04.04.2020
5325 Clouds 10 1019 81 10000 4.1 130 10:23 04.04.2020
5326 Clouds 10 1019 81 10000 4.1 100 09:57 04.04.2020
5327 Clouds 10 1018 81 10000 3.6 120 09:39 04.04.2020
5328 Clouds 9 1018 81 10000 3.6 120 09:21 04.04.2020
5329 Clouds 8 1018 87 10000 2.6 120 08:45 04.04.2020
5330 Clouds 7 1018 100 7000 2.6 110 08:25 04.04.2020
5331 Clouds 7 1018 100 6000 2.6 100 07:59 04.04.2020
5332 Mist 6 1018 100 5000 2.9 148 07:40 04.04.2020
5333 Mist 5 1018 100 5000 2.9 148 07:21 04.04.2020
5334 Clouds 3 1017 100 7000 2.1 60 06:40 04.04.2020
5335 Clouds 2 1017 100 8000 1.5 260 05:52 04.04.2020
5336 Clouds 2 1017 100 8000 1.5 260 05:52 04.04.2020
5337 Clouds 2 1017 100 10000 2.41 170 05:33 04.04.2020
5338 Clouds 3 1016 100 10000 2.41 170 04:34 04.04.2020
5339 Clouds 2 1016 100 10000 1 0 03:57 04.04.2020
5340 Clouds 3 1016 100 10000 1 110 03:37 04.04.2020
5341 Clouds 3 1016 100 10000 2.1 30 02:48 04.04.2020
5342 Clouds 3 1016 100 10000 1.5 10 02:29 04.04.2020
5343 Clouds 3 1016 93 10000 1.5 40 01:46 04.04.2020
5344 Clouds 3 1016 93 10000 1.5 40 01:20 04.04.2020
5345 Clouds 4 1016 93 10000 1 0 00:43 04.04.2020
5346 Clouds 4 1016 93 10000 1 0 00:23 04.04.2020
5347 Clear 4 1016 86 10000 2.6 70 23:38 03.04.2020
5348 Clear 4 1016 86 10000 2.6 70 23:19 03.04.2020
5349 Clear 5 1017 80 10000 2.6 90 22:41 03.04.2020
5350 Clear 5 1017 80 10000 2.6 90 22:20 03.04.2020
5351 Clear 5 1017 81 10000 3.1 110 21:59 03.04.2020
5352 Clear 5 1017 81 10000 3.1 120 21:40 03.04.2020
5353 Clear 5 1017 81 10000 3.1 120 21:21 03.04.2020
5354 Clear 5 1016 75 10000 3.1 100 20:56 03.04.2020
5355 Clear 6 1016 87 10000 4.1 90 20:36 03.04.2020
5356 Clear 6 1016 87 10000 4.1 90 20:36 03.04.2020
5357 Clear 6 1016 87 10000 4.1 90 20:18 03.04.2020
5358 Clear 6 1016 81 10000 5.1 100 19:56 03.04.2020
5359 Clear 6 1015 75 10000 5.1 100 19:37 03.04.2020
5360 Clear 6 1015 75 10000 5.1 100 19:19 03.04.2020
5361 Clear 7 1015 70 10000 5.7 110 18:57 03.04.2020
5362 Clear 7 1015 70 10000 6.7 110 18:39 03.04.2020
5363 Clear 8 1015 70 10000 6.7 110 18:21 03.04.2020
5364 Clear 10 1015 66 10000 7.2 110 17:41 03.04.2020
5365 Clear 10 1015 66 10000 7.2 110 17:20 03.04.2020
5366 Clear 11 1015 61 10000 6.7 110 16:56 03.04.2020
5367 Clear 11 1015 50 10000 6.7 120 16:37 03.04.2020
5368 Clear 11 1015 50 10000 6.7 120 16:19 03.04.2020
5369 Clear 11 1015 40 10000 6.7 120 15:55 03.04.2020
5370 Clear 11 1015 43 10000 7.2 100 15:36 03.04.2020
5371 Clear 11 1015 43 10000 7.2 100 15:18 03.04.2020
5372 Clear 14 1013 45 0 2.24 112 14:40 03.04.2020
5373 Clear 12 1015 43 10000 7.2 110 14:22 03.04.2020
5374 Clear 12 1015 43 10000 7.2 110 13:46 03.04.2020
5375 Clear 12 1015 43 10000 7.2 110 13:27 03.04.2020
5376 Clear 12 1015 46 10000 6.7 100 12:58 03.04.2020
5377 Clear 12 1015 46 10000 5.7 110 12:40 03.04.2020
5378 Clear 10 1015 37 10000 4.6 120 12:18 03.04.2020
5379 Clear 10 1015 37 10000 4.6 120 11:55 03.04.2020
5380 Clear 10 1016 32 10000 2.1 180 11:37 03.04.2020
5381 Clear 10 1016 32 10000 2.1 180 11:18 03.04.2020
5382 Clear 10 1016 31 10000 1.5 0 10:57 03.04.2020
5383 Clear 9 1016 49 10000 2.1 0 10:37 03.04.2020
5384 Clear 9 1016 49 10000 2.1 0 10:19 03.04.2020
5385 Clear 8 1016 49 10000 1.5 0 09:55 03.04.2020
5386 Clear 7 1016 49 10000 1.5 0 09:37 03.04.2020
5387 Clear 7 1016 61 10000 1.5 0 09:19 03.04.2020
5388 Clear 5 1016 61 10000 2.1 270 08:44 03.04.2020
5389 Clear 3 1016 74 10000 2.1 260 08:24 03.04.2020
5390 Clear 3 1016 80 10000 0.5 0 07:51 03.04.2020
5391 Clear 2 1016 61 10000 0.5 0 07:33 03.04.2020
5392 Clouds 1 1015 86 10000 1.05 287 06:58 03.04.2020
5393 Clouds 0 1015 86 10000 1.5 360 06:28 03.04.2020
5394 Clouds -2 1015 86 10000 1.5 260 05:42 03.04.2020
5395 Clouds -1 1015 76 10000 1.5 280 04:18 03.04.2020
5396 Clouds -1 1015 76 10000 1 0 03:32 03.04.2020
5397 Clear 0 1015 74 10000 1.5 320 02:31 03.04.2020
5398 Clear 0 1015 69 10000 1.5 270 01:25 03.04.2020
5399 Clear 1 1015 69 10000 1 0 00:46 03.04.2020
5400 Clear 1 1015 69 10000 1 0 00:27 03.04.2020
5401 Clouds 2 1015 64 10000 0.5 0 23:43 02.04.2020
5402 Clouds 2 1015 64 10000 0.5 0 23:24 02.04.2020
5403 Clouds 3 1015 64 10000 1.5 350 23:00 02.04.2020
5404 Clouds 3 1015 60 10000 2.1 50 22:41 02.04.2020
5405 Clouds 4 1015 60 10000 2.1 50 22:22 02.04.2020
5406 Clouds 4 1015 60 10000 2.6 40 21:57 02.04.2020
5407 Clouds 4 1015 60 10000 3.6 60 21:36 02.04.2020
5408 Clouds 4 1015 60 10000 3.6 60 21:18 02.04.2020
5409 Clear 5 1015 60 10000 3.1 70 20:44 02.04.2020
5410 Clear 5 1015 60 10000 3.1 70 20:44 02.04.2020
5411 Clear 5 1015 60 10000 4.6 70 20:24 02.04.2020
5412 Clear 5 1015 56 10000 3.6 70 19:56 02.04.2020
5413 Clear 6 1014 52 10000 4.1 60 19:37 02.04.2020
5414 Clear 6 1014 52 10000 4.1 60 19:19 02.04.2020
5415 Clear 7 1014 52 10000 5.1 70 18:42 02.04.2020
5416 Clear 7 1014 52 10000 5.1 70 18:21 02.04.2020
5417 Clear 7 1014 52 10000 5.7 80 17:57 02.04.2020
5418 Clear 7 1014 57 10000 5.7 90 17:39 02.04.2020
5419 Clear 8 1014 57 10000 5.7 90 17:20 02.04.2020
5420 Clouds 8 1014 57 10000 7.2 110 16:57 02.04.2020
5421 Clouds 8 1014 49 10000 6.2 120 16:39 02.04.2020
5422 Clouds 8 1014 49 10000 6.2 120 16:21 02.04.2020
5423 Clouds 8 1014 45 10000 7.7 100 15:55 02.04.2020
5424 Clouds 9 1014 43 10000 6.7 90 15:37 02.04.2020
5425 Clouds 9 1014 43 10000 6.7 90 15:18 02.04.2020
5426 Clouds 10 1014 54 10000 5.7 80 14:40 02.04.2020
5427 Clouds 9 1014 54 10000 5.7 80 14:21 02.04.2020
5428 Clouds 9 1015 54 10000 5.1 90 13:59 02.04.2020
5429 Clouds 8 1015 61 10000 7.2 70 13:39 02.04.2020
5430 Clouds 8 1015 61 10000 7.2 70 13:21 02.04.2020
5431 Clouds 8 1015 57 10000 7.7 80 12:57 02.04.2020
5432 Clouds 8 1015 57 10000 7.7 80 12:57 02.04.2020
5433 Clouds 8 1015 54 10000 6.7 70 12:38 02.04.2020
5434 Clouds 8 1015 65 10000 6.7 70 12:19 02.04.2020
5435 Clouds 8 1015 65 10000 8.2 110 11:57 02.04.2020
5436 Clouds 8 1015 65 10000 8.2 110 11:57 02.04.2020
5437 Clouds 8 1015 57 10000 6.7 90 11:38 02.04.2020
5438 Clouds 8 1015 57 10000 6.7 90 11:19 02.04.2020
5439 Clouds 7 1015 65 10000 8.7 80 10:55 02.04.2020
5440 Clouds 8 1015 49 10000 8.2 80 10:37 02.04.2020
5441 Clouds 8 1015 49 10000 8.2 80 10:37 02.04.2020
5442 Clouds 7 1015 52 10000 6.7 60 10:19 02.04.2020
5443 Clouds 8 1016 49 10000 7.2 70 09:43 02.04.2020
5444 Clouds 8 1016 49 10000 7.2 70 09:25 02.04.2020
5445 Clouds 7 1016 64 10000 6.2 60 08:59 02.04.2020
5446 Clouds 7 1016 64 10000 7.2 60 08:41 02.04.2020
5447 Clouds 6 1016 64 10000 7.2 60 08:22 02.04.2020
5448 Clouds 5 1016 65 10000 4.1 50 07:45 02.04.2020
5449 Clouds 5 1016 65 10000 4.1 50 07:20 02.04.2020
5450 Clouds 4 1015 60 10000 5.7 70 06:58 02.04.2020
5451 Clouds 4 1015 60 10000 3.6 50 06:21 02.04.2020
5452 Clouds 4 1016 60 10000 2.6 90 05:45 02.04.2020
5453 Clouds 4 1016 60 10000 3.6 70 04:33 02.04.2020
5454 Clouds 3 1017 60 10000 3.1 40 01:35 02.04.2020
5455 Clouds 3 1018 64 10000 3.1 20 00:48 02.04.2020
5456 Clouds 3 1018 60 10000 3.6 50 00:26 02.04.2020
5457 Clouds 2 1018 64 10000 3.6 40 23:54 01.04.2020
5458 Clouds 3 1018 60 10000 3.6 50 23:36 01.04.2020
5459 Clouds 3 1018 60 10000 3.6 50 23:18 01.04.2020
5460 Clouds 2 1018 64 10000 3.6 50 22:40 01.04.2020
5461 Clouds 2 1018 64 10000 3.6 50 22:21 01.04.2020
5462 Clouds 2 1018 64 10000 4.1 40 21:55 01.04.2020
5463 Clouds 2 1019 59 10000 3.6 40 21:36 01.04.2020
5464 Clouds 2 1019 59 10000 3.6 40 21:18 01.04.2020
5465 Clouds 2 1019 59 10000 4.6 40 20:54 01.04.2020
5466 Clouds 2 1019 59 10000 3.6 40 20:36 01.04.2020
5467 Clouds 2 1019 59 10000 3.6 40 20:18 01.04.2020
5468 Clouds 3 1018 55 10000 3.6 60 19:41 01.04.2020
5469 Clouds 3 1018 55 10000 3.6 60 19:21 01.04.2020
5470 Clouds 3 1019 55 10000 5.1 70 18:46 01.04.2020
5471 Clouds 3 1019 55 10000 5.1 70 18:46 01.04.2020
5472 Clouds 4 1019 52 10000 6.2 70 18:26 01.04.2020
5473 Clouds 4 1019 52 10000 6.2 80 17:59 01.04.2020
5474 Clouds 4 1019 52 10000 6.2 80 17:59 01.04.2020
5475 Clouds 5 1019 52 10000 7.2 80 17:39 01.04.2020
5476 -273 0 0 0 0 0 17:20 01.04.2020
5477 Clouds 5 1019 52 10000 7.2 70 16:59 01.04.2020
5478 Clouds 5 1019 52 10000 8.2 80 16:40 01.04.2020
5479 Clouds 5 1019 52 10000 8.2 80 16:22 01.04.2020
5480 Clouds 5 1019 56 10000 6.7 70 15:58 01.04.2020
5481 Clouds 5 1019 56 10000 6.7 60 15:38 01.04.2020
5482 Clouds 5 1019 56 10000 6.7 60 15:20 01.04.2020
5483 Clouds 5 1020 56 10000 6.2 60 14:56 01.04.2020
5484 Clouds 5 1020 56 10000 7.2 60 14:38 01.04.2020
5485 Clouds 5 1020 56 10000 7.2 60 14:19 01.04.2020
5486 Clouds 4 1020 70 10000 6.7 40 13:57 01.04.2020
5487 Clouds 4 1020 70 10000 6.2 30 13:37 01.04.2020
5488 Clouds 4 1020 70 10000 6.2 30 13:18 01.04.2020
5489 Rain 4 1020 70 10000 6.7 30 12:54 01.04.2020
5490 Clouds 4 1020 69 10000 6.7 30 12:36 01.04.2020
5491 Clouds 4 1020 60 10000 6.2 30 12:18 01.04.2020
5492 Clouds 4 1020 56 10000 6.2 30 11:40 01.04.2020
5493 Clouds 4 1020 56 10000 6.2 30 11:21 01.04.2020
5494 Clouds 4 1021 52 10000 5.7 30 10:57 01.04.2020
5495 Clouds 4 1021 52 10000 5.7 40 10:37 01.04.2020
5496 Clouds 4 1021 52 10000 5.7 40 10:18 01.04.2020
5497 Clouds 4 1021 51 10000 7.2 20 09:40 01.04.2020
5498 Clouds 4 1021 51 10000 7.2 20 09:22 01.04.2020
5499 Clouds 4 1021 48 10000 6.2 20 08:59 01.04.2020
5500 Clouds 4 1020 44 10000 6.7 20 08:40 01.04.2020
5501 Clouds 4 1020 44 10000 6.7 20 08:40 01.04.2020
5502 Clouds 3 1020 44 10000 6.7 20 08:18 01.04.2020
5503 Clouds 2 1020 47 10000 5.7 10 07:42 01.04.2020
5504 Clouds 2 1020 47 10000 5.7 10 07:20 01.04.2020
5505 Clouds 2 1020 47 10000 5.1 10 06:47 01.04.2020
5506 Clouds 2 1020 47 10000 4.6 20 06:22 01.04.2020
5507 Clouds 3 1020 44 10000 5.1 20 05:53 01.04.2020
5508 Clouds 3 1019 44 10000 5.7 10 04:30 01.04.2020
5509 Clouds 3 1019 44 10000 3.6 20 03:28 01.04.2020
5510 Clouds 3 1020 44 10000 3.1 20 02:49 01.04.2020
5511 Clouds 3 1020 44 10000 2.6 20 01:54 01.04.2020
5512 Clouds 3 1020 44 10000 2.6 350 01:29 01.04.2020
5513 Clouds 3 1020 44 10000 3.1 350 00:58 01.04.2020
5514 Clouds 3 1021 44 10000 3.1 350 00:40 01.04.2020
5515 Clouds 3 1021 44 10000 3.1 350 00:18 01.04.2020
5516 Clouds 3 1021 44 10000 2.6 340 23:41 31.03.2020
5517 Clouds 3 1021 44 10000 2.6 340 23:41 31.03.2020
5518 Clouds 3 1021 44 10000 2.6 340 23:23 31.03.2020
5519 Clouds 3 1021 44 10000 2.6 340 23:23 31.03.2020
5520 Clouds 3 1021 44 10000 1.5 10 22:43 31.03.2020
5521 Clouds 3 1021 44 10000 1.5 10 22:23 31.03.2020
5522 Clouds 3 1021 44 10000 1.5 10 22:23 31.03.2020
5523 Clouds 3 1021 44 10000 2.1 50 21:59 31.03.2020
5524 Clouds 3 1021 44 10000 2.1 50 21:59 31.03.2020
5525 Clouds 3 1021 44 10000 2.6 30 21:41 31.03.2020
5526 Clouds 3 1021 44 10000 2.6 30 21:22 31.03.2020
5527 Clouds 3 1021 44 10000 2.6 30 20:58 31.03.2020
5528 Clouds 3 1021 48 10000 3.1 30 20:38 31.03.2020
5529 Clouds 3 1020 51 10000 4.1 360 20:20 31.03.2020
5530 Clouds 3 1020 51 10000 4.1 360 19:59 31.03.2020
5531 Clouds 3 1019 55 10000 3.1 10 19:40 31.03.2020
5532 Clouds 3 1019 55 10000 3.1 10 19:21 31.03.2020
5533 Clouds 4 1019 52 10000 4.1 50 18:54 31.03.2020
5534 Clouds 4 1019 56 10000 3.6 10 18:36 31.03.2020
5535 Clouds 4 1019 56 10000 3.6 10 18:18 31.03.2020
5536 Clouds 4 1019 56 10000 4.1 20 17:54 31.03.2020
5537 Clouds 4 1019 60 10000 5.1 360 17:36 31.03.2020
5538 Clouds 4 1019 60 10000 5.1 360 17:36 31.03.2020
5539 Clouds 4 1019 56 10000 5.1 40 17:18 31.03.2020
5540 Clouds 5 1019 56 10000 4.1 20 16:37 31.03.2020
5541 Clouds 4 1019 56 10000 4.1 20 16:18 31.03.2020
5542 Clouds 4 1019 56 10000 6.7 40 15:56 31.03.2020
5543 Clouds 4 1019 52 10000 5.7 40 15:37 31.03.2020
5544 Clouds 5 1019 52 10000 5.7 40 15:19 31.03.2020
5545 Clouds 5 1019 52 10000 6.2 40 14:56 31.03.2020
5546 Clouds 5 1019 56 10000 4.6 40 14:38 31.03.2020
5547 Clouds 5 1019 56 10000 5.1 50 14:18 31.03.2020
5548 Clouds 5 1019 60 10000 5.1 50 13:41 31.03.2020
5549 Clouds 4 1019 60 10000 5.1 50 13:19 31.03.2020
5550 Clouds 4 1019 60 10000 6.2 30 12:54 31.03.2020
5551 Clouds 4 1020 56 10000 4.6 30 12:36 31.03.2020
5552 Clouds 4 1020 56 10000 4.6 30 12:18 31.03.2020
5553 Clouds 4 1020 56 10000 4.6 30 11:38 31.03.2020
5554 Clouds 4 1020 56 10000 4.6 30 11:19 31.03.2020
5555 Clouds 4 1020 60 10000 5.1 360 10:56 31.03.2020
5556 Clouds 4 1020 60 10000 4.6 20 10:38 31.03.2020
5557 Clouds 4 1020 60 10000 4.6 20 10:20 31.03.2020
5558 Clouds 3 1020 60 10000 4.6 20 09:45 31.03.2020
5559 Clouds 3 1019 64 10000 3.1 0 09:27 31.03.2020
5560 Clouds 3 1019 64 10000 2.1 0 08:59 31.03.2020
5561 Clouds 3 1018 64 10000 5.1 10 08:41 31.03.2020
5562 Clouds 3 1018 64 10000 5.1 10 08:21 31.03.2020
5563 Clouds 3 1018 64 10000 7.7 10 07:59 31.03.2020
5564 Clouds 3 1018 69 10000 7.7 10 07:41 31.03.2020
5565 Clouds 2 1018 69 10000 7.7 10 07:22 31.03.2020
5566 Clouds 3 1017 64 10000 7.2 360 06:53 31.03.2020
5567 Clouds 3 1017 64 10000 7.2 340 06:35 31.03.2020
5568 Clouds 3 1016 69 10000 4.6 350 05:41 31.03.2020
5569 Clouds 4 1016 77 10000 2.1 0 04:33 31.03.2020
5570 Rain 7 1014 66 10000 3.6 10 02:30 31.03.2020
5571 Rain 9 1013 57 10000 5.1 80 01:46 31.03.2020
5572 Rain 9 1012 75 10000 2.1 340 00:53 31.03.2020
5573 Rain 9 1012 70 10000 1 0 00:25 31.03.2020
5574 Clouds 8 1012 81 10000 1.66 192 23:59 30.03.2020
5575 Clouds 9 1012 70 10000 1.66 192 23:38 30.03.2020
5576 Clouds 9 1012 70 10000 1.66 192 23:19 30.03.2020
5577 Clouds 9 1012 70 10000 1 360 22:57 30.03.2020
5578 Clouds 10 1012 71 10000 1 0 22:37 30.03.2020
5579 Clouds 10 1012 71 10000 1 0 22:37 30.03.2020
5580 Clouds 10 1012 71 10000 1 0 22:18 30.03.2020
5581 Clouds 9 1011 76 10000 2.1 110 21:55 30.03.2020
5582 Clouds 10 1011 76 10000 1.66 192 21:37 30.03.2020
5583 Clouds 10 1011 76 10000 2.12 146 21:18 30.03.2020
5584 Clouds 10 1011 71 10000 3.1 120 20:42 30.03.2020
5585 Clouds 11 1011 71 10000 3.1 120 20:24 30.03.2020
5586 Clouds 11 1011 62 10000 3.1 140 19:59 30.03.2020
5587 Clouds 12 1010 47 10000 2.6 70 19:40 30.03.2020
5588 Clouds 12 1010 47 10000 2.6 70 19:21 30.03.2020
5589 Clouds 12 1010 47 10000 3.1 90 18:57 30.03.2020
5590 Clouds 13 1010 41 10000 4.6 110 18:38 30.03.2020
5591 Clouds 14 1010 41 10000 4.6 110 18:20 30.03.2020
5592 Clouds 15 1010 38 10000 4.6 100 17:57 30.03.2020
5593 Clouds 15 1009 36 10000 4.6 110 17:38 30.03.2020
5594 Clouds 15 1009 36 10000 4.6 110 17:38 30.03.2020
5595 Clouds 16 1009 36 10000 4.6 110 17:18 30.03.2020
5596 Clouds 16 1009 36 10000 5.1 120 16:55 30.03.2020
5597 Clouds 17 1009 36 10000 6.7 120 16:36 30.03.2020
5598 Clouds 17 1009 36 10000 6.7 120 16:18 30.03.2020
5599 Clouds 18 1009 53 10000 6.2 120 15:42 30.03.2020
5600 Clouds 19 1009 53 10000 6.2 120 15:22 30.03.2020
5601 Clouds 18 1009 31 10000 5.7 120 14:59 30.03.2020
5602 Clouds 19 1009 29 10000 3.6 180 14:39 30.03.2020
5603 Clouds 19 1009 29 10000 3.6 180 14:19 30.03.2020
5604 Clouds 19 1009 29 10000 3.6 180 14:19 30.03.2020
5605 Clouds 20 1009 28 10000 3.6 220 13:59 30.03.2020
5606 Clouds 19 1009 32 10000 2.1 0 13:40 30.03.2020
5607 Clouds 19 1009 32 10000 2.1 0 13:20 30.03.2020
5608 Clouds 18 1009 29 10000 4.1 290 12:54 30.03.2020
5609 Clouds 18 1009 29 10000 4.1 290 12:54 30.03.2020
5610 Clouds 18 1009 32 10000 3.1 310 12:36 30.03.2020
5611 Clouds 18 1009 32 10000 3.1 310 12:18 30.03.2020
5612 Clouds 17 1010 36 10000 3.1 280 11:42 30.03.2020
5613 Clouds 17 1010 36 10000 3.1 280 11:22 30.03.2020
5614 Clouds 16 1010 42 10000 4.6 270 10:57 30.03.2020
5615 Clouds 15 1010 44 10000 4.6 290 10:38 30.03.2020
5616 Clouds 15 1010 44 10000 4.6 290 10:20 30.03.2020
5617 Clouds 15 1009 44 10000 4.6 280 09:41 30.03.2020
5618 Clouds 13 1009 44 10000 4.6 280 09:20 30.03.2020
5619 Clouds 12 1009 47 10000 4.6 270 08:58 30.03.2020
5620 Clouds 12 1009 54 10000 4.6 290 08:38 30.03.2020
5621 Clouds 12 1009 54 10000 4.6 290 08:20 30.03.2020
5622 Clouds 10 1009 54 10000 2.1 0 07:44 30.03.2020
5623 Clouds 10 1008 53 10000 1 0 07:23 30.03.2020
5624 Clouds 9 1008 53 10000 3.1 290 06:47 30.03.2020
5625 Clouds 8 1008 53 10000 3.1 280 06:25 30.03.2020
5626 Clouds 9 1008 50 10000 4.1 280 05:44 30.03.2020
5627 Clouds 8 1008 71 10000 3.1 260 04:31 30.03.2020
5628 Clouds 8 1008 65 10000 2.6 250 03:57 30.03.2020
5629 Clouds 9 1008 57 10000 1.5 280 02:45 30.03.2020
5630 Clouds 9 1007 57 10000 2.6 300 01:57 30.03.2020
5631 Clouds 9 1007 57 10000 1.5 290 00:59 30.03.2020
5632 Clouds 10 1007 53 10000 1.5 260 00:28 30.03.2020
5633 Clouds 10 1007 46 10000 1.5 260 23:56 29.03.2020
5634 Clouds 10 1007 65 10000 4.6 320 23:37 29.03.2020
5635 Clouds 10 1007 65 10000 4.6 320 23:19 29.03.2020
5636 Clouds 11 1007 65 10000 4.1 290 22:40 29.03.2020
5637 Clouds 11 1007 65 10000 4.1 290 22:20 29.03.2020
5638 Clouds 11 1007 65 10000 3.6 290 21:59 29.03.2020
5639 Clouds 11 1007 65 10000 4.1 320 21:38 29.03.2020
5640 Clouds 11 1007 57 10000 4.1 320 21:20 29.03.2020
5641 Clouds 12 1007 46 10000 3.1 290 20:55 29.03.2020
5642 Clouds 12 1007 43 10000 3.6 330 20:37 29.03.2020
5643 Clouds 12 1007 43 10000 3.6 330 20:19 29.03.2020
5644 Clouds 13 1006 41 10000 3.6 340 19:56 29.03.2020
5645 Clouds 14 1006 38 10000 2.6 330 19:38 29.03.2020
5646 Clouds 14 1006 38 10000 2.6 330 19:38 29.03.2020
5647 Clouds 14 1006 38 10000 2.6 330 19:19 29.03.2020
5648 Clouds 14 1006 38 10000 3.6 310 18:57 29.03.2020
5649 Clouds 15 1005 33 10000 6.2 300 18:38 29.03.2020
5650 Clouds 16 1005 33 10000 6.2 300 18:18 29.03.2020
5651 Clouds 17 1005 31 10000 6.7 300 17:55 29.03.2020
5652 Clouds 18 1005 53 10000 5.7 310 17:36 29.03.2020
5653 Clouds 18 1005 53 10000 5.7 310 17:18 29.03.2020
5654 Clouds 18 1005 53 10000 4.1 340 16:55 29.03.2020
5655 Clouds 18 1005 53 10000 6.2 310 16:36 29.03.2020
5656 Clouds 18 1005 53 10000 6.2 310 16:18 29.03.2020
5657 Clouds 18 1005 53 10000 5.1 340 15:41 29.03.2020
5658 Clouds 18 1005 53 10000 5.1 340 15:22 29.03.2020
5659 Clouds 18 1005 25 10000 6.2 320 14:57 29.03.2020
5660 Clouds 17 1005 25 10000 6.7 320 14:39 29.03.2020
5661 Clouds 17 1005 25 10000 6.7 320 14:19 29.03.2020
5662 Clouds 18 1005 27 10000 5.7 320 13:56 29.03.2020
5663 Clouds 18 1006 27 10000 7.7 320 13:37 29.03.2020
5664 Clouds 18 1006 27 10000 7.7 320 13:19 29.03.2020
5665 Clouds 18 1006 31 10000 7.2 310 12:55 29.03.2020
5666 Clouds 17 1006 36 10000 7.2 300 12:37 29.03.2020
5667 Clouds 15 1006 44 10000 6.7 300 12:18 29.03.2020
5668 Clouds 15 1006 44 10000 6.7 300 12:18 29.03.2020
5669 Clouds 15 1007 50 10000 5.7 300 11:39 29.03.2020
5670 Clouds 15 1007 50 10000 5.7 300 11:21 29.03.2020
5671 Clouds 14 1007 47 10000 6.2 300 10:55 29.03.2020
5672 Clouds 13 1007 43 10000 6.2 290 10:37 29.03.2020
5673 Clouds 13 1007 43 10000 6.2 290 10:18 29.03.2020
5674 Clouds 12 1007 43 10000 4.1 300 09:39 29.03.2020
5675 Clouds 12 1007 43 10000 4.1 300 09:19 29.03.2020
5676 Clouds 11 1007 50 10000 5.1 270 08:52 29.03.2020
5677 Clouds 10 1007 66 10000 4.6 270 08:28 29.03.2020
5678 Clouds 9 1007 66 10000 3.6 260 07:58 29.03.2020
5679 Clouds 9 1007 49 10000 3.6 310 07:39 29.03.2020
5680 Clouds 9 1007 49 10000 3.6 310 07:20 29.03.2020
5681 Clouds 8 1007 70 10000 3.1 270 04:59 29.03.2020
5682 Clouds 8 1007 70 10000 1 0 03:48 29.03.2020
5683 Clouds 8 1007 57 10000 2.6 340 03:26 29.03.2020
5684 Clouds 8 1007 57 10000 3.6 360 01:50 29.03.2020
5685 Clouds 8 1007 57 10000 4.6 360 01:23 29.03.2020
5686 Clouds 8 1007 57 10000 5.7 350 00:53 29.03.2020
5687 Clouds 8 1008 57 10000 5.1 350 00:30 29.03.2020
5688 Clouds 8 1008 65 10000 1.5 260 23:42 28.03.2020
5689 Clouds 8 1008 65 10000 1.5 260 23:23 28.03.2020
5690 Clouds 8 1008 65 10000 0.5 0 22:57 28.03.2020
5691 Clouds 8 1009 65 10000 1.07 304 22:37 28.03.2020
5692 Clouds 8 1009 65 10000 1.07 304 22:19 28.03.2020
5693 Clouds 8 1009 61 10000 1.07 304 21:42 28.03.2020
5694 Clouds 8 1009 61 10000 1.07 304 21:24 28.03.2020
5695 Clouds 8 1009 65 10000 1.5 320 20:58 28.03.2020
5696 Clouds 8 1009 61 10000 1.07 304 20:39 28.03.2020
5697 Clouds 8 1009 61 10000 0.37 70 20:21 28.03.2020
5698 Clouds 8 1009 57 10000 0.37 70 19:56 28.03.2020
5699 Clouds 8 1009 57 10000 0.37 70 19:56 28.03.2020
5700 Clouds 8 1009 61 10000 1.5 10 19:37 28.03.2020
5701 Clouds 9 1009 61 10000 1.5 10 19:18 28.03.2020
5702 Clouds 10 1009 53 10000 1 60 18:47 28.03.2020
5703 Clouds 9 1009 57 10000 3.1 90 18:23 28.03.2020
5704 Clouds 11 1009 57 10000 4.1 100 17:58 28.03.2020
5705 Clouds 12 1009 50 10000 5.7 110 17:38 28.03.2020
5706 Clouds 12 1009 50 10000 5.7 110 17:19 28.03.2020
5707 Clouds 14 1009 47 10000 5.7 120 16:42 28.03.2020
5708 Clouds 15 1009 47 10000 5.7 120 16:20 28.03.2020
5709 Clouds 16 1009 44 10000 4.1 130 15:56 28.03.2020
5710 Clouds 16 1009 47 10000 3.6 150 15:37 28.03.2020
5711 Clouds 16 1009 47 10000 3.6 150 15:18 28.03.2020
5712 Clouds 17 1010 33 10000 3.6 310 14:42 28.03.2020
5713 Clouds 17 1010 33 10000 3.6 310 14:22 28.03.2020
5714 Clouds 17 1010 54 10000 5.1 320 13:56 28.03.2020
5715 Clouds 17 1010 33 10000 4.6 340 13:37 28.03.2020
5716 Clouds 17 1010 33 10000 4.6 340 13:18 28.03.2020
5717 Clouds 16 1011 56 10000 5.7 320 12:37 28.03.2020
5718 Clouds 16 1011 56 10000 5.7 320 12:19 28.03.2020
5719 Clouds 16 1011 31 10000 5.7 320 11:42 28.03.2020
5720 Clouds 16 1011 31 10000 5.7 320 11:42 28.03.2020
5721 Clouds 16 1011 31 10000 5.7 320 11:21 28.03.2020
5722 Clouds 16 1011 31 10000 5.7 320 11:21 28.03.2020
5723 Clouds 14 1012 59 10000 5.1 310 10:43 28.03.2020
5724 Clouds 14 1012 59 10000 5.1 310 10:24 28.03.2020
5725 Clouds 14 1012 59 10000 5.7 320 09:59 28.03.2020
5726 Clouds 14 1012 37 10000 5.1 300 09:39 28.03.2020
5727 Clouds 14 1012 37 10000 5.1 300 09:21 28.03.2020
5728 Clouds 11 1012 53 10000 4.1 260 08:42 28.03.2020
5729 Clouds 11 1012 53 10000 4.1 260 08:42 28.03.2020
5730 Clouds 11 1012 53 10000 4.1 260 08:24 28.03.2020
5731 Clouds 8 1012 57 10000 3.6 240 07:52 28.03.2020
5732 Clouds 8 1012 61 10000 3.1 260 07:34 28.03.2020
5733 Clouds 6 1013 70 10000 4.1 270 06:45 28.03.2020
5734 Clouds 5 1012 75 10000 3.6 260 06:20 28.03.2020
5735 Clouds 3 1013 66 10000 3.6 250 05:24 28.03.2020
5736 Clouds 4 1013 71 10000 3.1 250 04:48 28.03.2020
5737 Clouds 4 1012 71 10000 1 0 04:28 28.03.2020
5738 Clouds 5 1013 71 10000 1.5 0 02:46 28.03.2020
5739 Clouds 5 1013 70 10000 2.1 350 01:46 28.03.2020
5740 Clouds 5 1014 75 10000 4.1 340 01:20 28.03.2020
5741 Clouds 5 1014 81 10000 2.1 350 00:47 28.03.2020
5742 Clouds 5 1014 81 10000 2.1 350 00:20 28.03.2020
5743 Clouds 6 1015 81 10000 3.6 70 23:43 27.03.2020
5744 Clouds 6 1015 81 10000 3.6 70 23:23 27.03.2020
5745 Clouds 7 1015 75 10000 2.1 50 22:56 27.03.2020
5746 Clouds 7 1015 75 10000 2.6 50 22:38 27.03.2020
5747 Clouds 7 1015 75 10000 2.6 50 22:20 27.03.2020
5748 Clouds 7 1015 81 10000 4.1 90 21:55 27.03.2020
5749 Clouds 7 1015 75 10000 2.1 150 21:37 27.03.2020
5750 Clouds 7 1015 75 10000 2.1 150 21:19 27.03.2020
5751 Clouds 7 1015 70 10000 3.6 40 20:42 27.03.2020
5752 Clouds 7 1015 70 10000 3.6 40 20:21 27.03.2020
5753 Clouds 8 1015 61 10000 2.6 0 19:59 27.03.2020
5754 Clouds 8 1014 57 10000 2.1 0 19:40 27.03.2020
5755 Clouds 8 1014 57 10000 1 0 19:22 27.03.2020
5756 Clouds 9 1014 57 10000 1 0 18:56 27.03.2020
5757 Clouds 9 1015 57 10000 2.6 0 18:38 27.03.2020
5758 Clouds 9 1015 57 10000 2.6 0 18:19 27.03.2020
5759 Clouds 11 1015 50 10000 3.1 70 17:40 27.03.2020
5760 Clouds 11 1015 50 10000 3.1 70 17:20 27.03.2020
5761 Clouds 12 1015 47 10000 6.7 30 16:45 27.03.2020
5762 Clouds 12 1015 47 10000 6.7 30 16:27 27.03.2020
5763 Clouds 13 1015 47 10000 5.7 50 15:57 27.03.2020
5764 Clouds 14 1015 44 10000 5.1 50 15:39 27.03.2020
5765 Clouds 14 1015 44 10000 5.1 50 15:21 27.03.2020
5766 Clouds 15 1015 41 10000 5.7 70 14:45 27.03.2020
5767 Clouds 15 1015 41 10000 5.7 70 14:24 27.03.2020
5768 Clouds 16 1016 38 10000 7.2 70 13:56 27.03.2020
5769 Clouds 15 1016 44 10000 5.7 40 13:37 27.03.2020
5770 Clouds 15 1016 44 10000 5.7 40 13:18 27.03.2020
5771 Clear 15 1016 44 10000 7.7 30 12:43 27.03.2020
5772 Clear 15 1016 47 10000 7.2 30 12:19 27.03.2020
5773 Clear 15 1016 47 10000 7.2 30 11:57 27.03.2020
5774 Clear 15 1017 47 10000 5.1 30 11:39 27.03.2020
5775 Clear 14 1017 47 10000 5.1 30 11:21 27.03.2020
5776 Clouds 13 1017 54 10000 5.1 40 10:42 27.03.2020
5777 Clouds 13 1017 54 10000 5.1 40 10:23 27.03.2020
5778 Clouds 13 1017 58 10000 4.6 20 09:59 27.03.2020
5779 Clouds 12 1017 62 10000 3.6 40 09:41 27.03.2020
5780 Clouds 12 1017 62 10000 3.6 40 09:23 27.03.2020
5781 Clouds 11 1018 66 8000 4.1 30 08:59 27.03.2020
5782 Clouds 11 1018 66 8000 4.1 30 08:59 27.03.2020
5783 Clouds 11 1018 61 7000 5.7 40 08:40 27.03.2020
5784 Clouds 10 1018 61 7000 5.7 40 08:22 27.03.2020
5785 Clouds 8 1018 70 6000 5.7 40 07:59 27.03.2020
5786 Mist 8 1018 75 5000 5.7 20 07:41 27.03.2020
5787 Mist 7 1018 75 5000 5.7 20 07:21 27.03.2020
5788 Mist 6 1018 75 4300 5.1 20 06:40 27.03.2020
5789 Mist 5 1018 75 3600 2.1 360 05:51 27.03.2020
5790 Clouds 5 1019 81 5000 2.6 30 03:34 27.03.2020
5791 Clouds 6 1019 81 6000 8.2 30 01:55 27.03.2020
5792 Clouds 5 1019 87 6000 1.5 0 01:18 27.03.2020
5793 Clouds 5 1020 81 6000 1 0 00:41 27.03.2020
5794 Clouds 5 1020 81 6000 1 0 00:19 27.03.2020
5795 Clouds 6 1020 75 6000 2.1 100 23:37 26.03.2020
5796 Clouds 6 1020 70 6000 0.5 0 23:18 26.03.2020
5797 Clouds 6 1020 70 6000 0.5 0 22:56 26.03.2020
5798 Clouds 5 1021 75 6000 2.1 330 22:36 26.03.2020
5799 Clouds 5 1021 75 6000 2.1 330 22:18 26.03.2020
5800 Clouds 6 1021 75 6000 1 0 21:40 26.03.2020
5801 Clouds 6 1021 75 6000 1 0 21:21 26.03.2020
5802 Clouds 6 1021 75 7000 2.6 0 20:58 26.03.2020
5803 Clouds 6 1021 75 7000 2.6 20 20:39 26.03.2020
5804 Clouds 6 1021 75 7000 2.6 20 20:20 26.03.2020
5805 Clouds 6 1021 75 8000 5.7 30 19:57 26.03.2020
5806 Clouds 6 1021 75 8000 5.7 30 19:57 26.03.2020
5807 Clouds 6 1021 75 8000 6.7 30 19:39 26.03.2020
5808 Clouds 6 1021 75 8000 6.7 30 19:20 26.03.2020
5809 Clouds 6 1021 75 8000 6.7 30 19:20 26.03.2020
5810 Clouds 6 1022 75 8000 7.2 30 18:58 26.03.2020
5811 Clouds 6 1022 75 8000 7.2 30 18:58 26.03.2020
5812 Clouds 6 1022 81 7000 6.2 30 18:39 26.03.2020
5813 Clouds 6 1022 81 7000 6.2 30 18:21 26.03.2020
5814 Clouds 7 1021 75 8000 6.7 50 17:43 26.03.2020
5815 Clouds 7 1021 75 9000 8.7 50 17:19 26.03.2020
5816 Clouds 9 1021 70 9000 8.7 40 16:47 26.03.2020
5817 Clouds 8 1021 70 9000 8.7 40 16:28 26.03.2020
5818 Clouds 8 1021 70 9000 8.2 60 15:59 26.03.2020
5819 Clouds 10 1021 66 10000 7.2 60 15:41 26.03.2020
5820 Clouds 10 1021 66 10000 7.2 60 15:22 26.03.2020
5821 Clouds 9 1022 70 10000 7.7 70 14:58 26.03.2020
5822 Clouds 8 1022 70 10000 5.1 70 14:39 26.03.2020
5823 Clouds 9 1022 66 10000 8.2 60 14:19 26.03.2020
5824 Clouds 9 1022 66 10000 8.2 60 13:44 26.03.2020
5825 Clouds 10 1022 66 10000 7.7 50 13:24 26.03.2020
5826 Clouds 11 1022 62 9000 9.3 70 12:57 26.03.2020
5827 Clouds 11 1022 62 9000 8.7 70 12:38 26.03.2020
5828 Clouds 11 1022 62 9000 8.7 70 12:19 26.03.2020
5829 Clouds 12 1022 58 10000 9.3 50 11:45 26.03.2020
5830 Clouds 12 1022 58 10000 9.3 50 11:22 26.03.2020
5831 Clouds 12 1022 58 10000 9.3 50 10:56 26.03.2020
5832 Clouds 11 1023 62 10000 8.2 70 10:37 26.03.2020
5833 Clouds 11 1023 62 10000 8.2 70 10:37 26.03.2020
5834 Clouds 11 1023 62 10000 8.2 70 10:19 26.03.2020
5835 Clouds 11 1023 62 10000 7.7 60 09:43 26.03.2020
5836 Clouds 10 1023 62 10000 7.7 60 09:20 26.03.2020
5837 Clouds 8 1024 70 10000 7.2 60 08:55 26.03.2020
5838 Clouds 8 1024 70 10000 6.2 70 08:37 26.03.2020
5839 Clouds 7 1024 70 10000 6.2 70 08:18 26.03.2020
5840 Clouds 6 1024 87 9000 4.1 70 07:41 26.03.2020
5841 Clouds 6 1024 87 9000 4.1 70 07:20 26.03.2020
5842 Rain 6 1023 87 8000 4.1 70 06:48 26.03.2020
5843 Clouds 6 1023 81 10000 5.7 80 05:54 26.03.2020
5844 Clouds 5 1023 87 10000 4.1 70 03:59 26.03.2020
5845 Clouds 5 1023 81 10000 4.6 50 03:36 26.03.2020
5846 Clouds 4 1023 86 10000 4.6 50 02:54 26.03.2020
5847 Clouds 4 1024 80 10000 5.1 30 01:50 26.03.2020
5848 Clouds 4 1025 80 10000 4.6 20 00:45 26.03.2020
5849 Clouds 4 1026 80 10000 4.1 20 23:47 25.03.2020
5850 Clouds 4 1026 80 10000 4.1 20 23:28 25.03.2020
5851 Clouds 4 1027 80 10000 4.1 40 22:58 25.03.2020
5852 Clouds 4 1027 80 10000 4.1 40 22:38 25.03.2020
5853 Clouds 4 1027 80 10000 4.1 40 22:19 25.03.2020
5854 Clouds 3 1027 86 10000 5.1 40 21:55 25.03.2020
5855 Clouds 3 1027 86 10000 4.6 40 21:37 25.03.2020
5856 Clouds 3 1027 86 10000 4.6 40 21:18 25.03.2020
5857 Clouds 3 1027 86 10000 4.6 40 21:18 25.03.2020
5858 Clouds 3 1027 86 10000 5.1 50 20:40 25.03.2020
5859 Clouds 4 1027 86 10000 5.1 50 20:20 25.03.2020
5860 Clouds 4 1028 80 10000 5.7 50 19:58 25.03.2020
5861 Clouds 4 1028 80 10000 5.1 60 19:39 25.03.2020
5862 Clouds 4 1028 80 10000 5.1 60 19:21 25.03.2020
5863 Clouds 4 1028 80 10000 5.7 60 18:54 25.03.2020
5864 Clouds 4 1028 75 10000 5.1 50 18:36 25.03.2020
5865 Clouds 4 1027 75 10000 5.7 50 18:18 25.03.2020
5866 Clouds 4 1027 75 10000 6.2 50 17:41 25.03.2020
5867 Clouds 4 1027 75 10000 6.2 50 17:22 25.03.2020
5868 Clouds 4 1027 75 10000 7.7 50 16:59 25.03.2020
5869 Clouds 4 1026 75 10000 8.2 40 16:39 25.03.2020
5870 Clouds 4 1026 75 10000 8.2 40 16:21 25.03.2020
5871 Clouds 4 1026 75 10000 8.2 40 16:21 25.03.2020
5872 Clouds 4 1026 82 10000 9.8 40 15:43 25.03.2020
5873 -273 0 0 0 0 0 15:21 25.03.2020
5874 Clouds 4 1027 82 10000 8.2 40 14:59 25.03.2020
5875 Clouds 4 1027 80 10000 7.2 40 14:40 25.03.2020
5876 Clouds 5 1027 83 10000 7.2 40 14:20 25.03.2020
5877 Clouds 5 1027 81 10000 7.7 50 13:45 25.03.2020
5878 Clouds 5 1027 81 10000 7.2 30 13:25 25.03.2020
5879 Clouds 5 1027 81 10000 7.7 30 12:40 25.03.2020
5880 Clouds 5 1027 83 10000 8.7 30 12:21 25.03.2020
5881 Clouds 4 1027 83 10000 8.7 30 11:59 25.03.2020
5882 Clouds 4 1027 83 10000 7.2 30 11:41 25.03.2020
5883 Clouds 4 1027 83 10000 7.2 30 11:21 25.03.2020
5884 Clouds 4 1027 83 10000 7.2 30 11:21 25.03.2020
5885 Clouds 4 1028 65 10000 7.7 30 10:58 25.03.2020
5886 Clouds 4 1028 65 10000 6.7 30 10:40 25.03.2020
5887 Clouds 4 1028 65 10000 6.7 30 10:18 25.03.2020
5888 Clouds 4 1027 64 10000 7.2 30 09:56 25.03.2020
5889 Clouds 4 1027 64 10000 8.2 30 09:38 25.03.2020
5890 Clouds 3 1027 64 10000 8.2 30 09:19 25.03.2020
5891 Clouds 2 1027 69 10000 4.1 40 08:41 25.03.2020
5892 Clouds 2 1027 69 10000 4.1 40 08:23 25.03.2020
5893 Clouds 2 1027 69 10000 4.6 30 07:56 25.03.2020
5894 Clouds 2 1026 64 10000 4.6 20 07:37 25.03.2020
5895 Clouds 2 1026 64 10000 4.6 20 07:18 25.03.2020
5896 Clouds 2 1026 64 10000 7.2 20 06:41 25.03.2020
5897 Clouds 2 1026 64 10000 7.2 20 06:23 25.03.2020
5898 Rain 2 1025 64 10000 6.7 20 05:47 25.03.2020
5899 Clouds 2 1025 69 10000 6.2 10 04:42 25.03.2020
5900 Rain 3 1025 69 10000 4.1 10 03:57 25.03.2020
5901 Clouds 4 1025 65 10000 6.2 40 03:32 25.03.2020
5902 Rain 4 1025 65 10000 7.2 40 01:40 25.03.2020
5903 -273 0 0 0 0 0 00:50 25.03.2020
5904 Clouds 4 1025 60 10000 7.2 40 00:27 25.03.2020
5905 Clouds 4 1025 60 10000 6.7 40 23:55 24.03.2020
5906 Clouds 4 1025 60 10000 7.7 40 23:28 24.03.2020
5907 Clouds 4 1025 60 10000 5.7 40 22:58 24.03.2020
5908 Clouds 4 1025 60 10000 5.1 50 22:38 24.03.2020
5909 Clouds 4 1025 60 10000 5.1 50 22:38 24.03.2020
5910 Clouds 4 1025 60 10000 5.1 50 22:20 24.03.2020
5911 Clouds 4 1025 65 10000 5.7 50 21:58 24.03.2020
5912 Clouds 4 1025 65 10000 5.1 50 21:40 24.03.2020
5913 Clouds 4 1025 65 10000 5.1 50 21:19 24.03.2020
5914 Clouds 4 1025 65 10000 4.6 60 20:58 24.03.2020
5915 Clouds 4 1025 65 10000 5.1 60 20:39 24.03.2020
5916 Clouds 4 1025 65 10000 5.1 60 20:21 24.03.2020
5917 Clouds 3 1025 69 10000 6.7 60 19:47 24.03.2020
5918 Clouds 3 1025 69 10000 5.1 60 19:22 24.03.2020
5919 Clouds 3 1025 69 10000 5.7 70 18:58 24.03.2020
5920 Clouds 3 1025 69 10000 6.7 70 18:38 24.03.2020
5921 Clouds 3 1025 69 10000 6.7 70 18:20 24.03.2020
5922 Clouds 3 1024 69 10000 6.2 60 17:56 24.03.2020
5923 Clouds 3 1024 69 10000 4.6 70 17:38 24.03.2020
5924 Clouds 3 1024 69 10000 7.2 70 17:19 24.03.2020
5925 Clouds 3 1024 69 10000 7.2 70 16:56 24.03.2020
5926 Clouds 3 1024 69 10000 6.2 60 16:37 24.03.2020
5927 Clouds 3 1024 69 10000 6.2 60 16:19 24.03.2020
5928 Clouds 3 1024 69 10000 5.7 70 15:42 24.03.2020
5929 Clouds 3 1024 69 10000 5.7 70 15:23 24.03.2020
5930 Clouds 3 1024 64 10000 7.7 70 14:44 24.03.2020
5931 Clouds 3 1024 64 10000 7.7 70 14:22 24.03.2020
5932 Clouds 3 1024 69 10000 8.2 60 13:58 24.03.2020
5933 Clouds 3 1023 69 10000 8.7 50 13:40 24.03.2020
5934 Clouds 3 1023 69 10000 8.7 50 13:21 24.03.2020
5935 Clouds 4 1023 69 10000 8.2 60 12:42 24.03.2020
5936 Clouds 4 1023 69 10000 8.2 60 12:24 24.03.2020
5937 Clouds 3 1023 69 10000 9.3 50 11:41 24.03.2020
5938 Clouds 3 1023 69 10000 9.3 50 11:21 24.03.2020
5939 Clouds 3 1023 65 10000 8.7 50 10:59 24.03.2020
5940 Rain 3 1023 69 10000 9.3 60 10:40 24.03.2020
5941 Rain 3 1023 69 10000 9.3 60 10:18 24.03.2020
5942 Rain 3 1023 69 10000 9.3 60 10:18 24.03.2020
5943 Clouds 3 1023 69 10000 9.8 60 09:46 24.03.2020
5944 Clouds 2 1023 90 10000 8.7 60 09:26 24.03.2020
5945 Rain 2 1022 90 10000 7.7 60 08:57 24.03.2020
5946 Rain 2 1022 80 10000 7.2 70 08:37 24.03.2020
5947 Rain 2 1022 80 10000 7.2 70 08:18 24.03.2020
5948 Rain 2 1022 86 10000 8.7 60 07:44 24.03.2020
5949 Rain 2 1022 86 10000 8.7 60 07:22 24.03.2020
5950 Rain 2 1021 86 10000 7.7 50 06:38 24.03.2020
5951 Rain 2 1021 86 10000 7.7 50 06:18 24.03.2020
5952 Rain 2 1020 86 10000 9.3 60 04:51 24.03.2020
5953 Rain 3 1020 86 10000 7.7 70 03:22 24.03.2020
5954 Rain 4 1020 80 10000 8.2 70 02:41 24.03.2020
5955 Drizzle 4 1020 86 10000 7.7 70 00:54 24.03.2020
5956 Drizzle 4 1020 80 10000 6.7 70 00:27 24.03.2020
5957 Rain 4 1020 80 10000 7.2 70 23:56 23.03.2020
5958 Rain 4 1020 80 10000 7.2 70 23:37 23.03.2020
5959 Rain 4 1020 80 10000 7.7 80 23:19 23.03.2020
5960 Rain 4 1021 86 10000 5.7 80 22:44 23.03.2020
5961 Rain 4 1021 86 10000 5.7 80 22:23 23.03.2020
5962 Rain 3 1021 86 10000 5.7 80 21:55 23.03.2020
5963 Rain 3 1021 86 10000 5.1 80 21:37 23.03.2020
5964 Rain 3 1021 86 10000 6.2 70 21:18 23.03.2020
5965 Drizzle 3 1021 86 10000 6.7 70 20:42 23.03.2020
5966 Drizzle 3 1021 86 10000 6.7 70 20:24 23.03.2020
5967 Rain 3 1021 86 10000 5.7 80 19:56 23.03.2020
5968 Rain 3 1021 86 10000 4.1 80 19:37 23.03.2020
5969 Rain 3 1021 86 10000 4.1 80 19:19 23.03.2020
5970 Drizzle 3 1021 80 10000 5.1 60 18:44 23.03.2020
5971 Drizzle 3 1021 80 10000 5.1 60 18:25 23.03.2020
5972 Rain 3 1020 80 10000 7.7 50 17:59 23.03.2020
5973 Rain 3 1020 80 10000 7.7 50 17:41 23.03.2020
5974 Rain 3 1021 80 10000 8.7 50 17:19 23.03.2020
5975 Rain 3 1020 75 10000 10.3 40 16:44 23.03.2020
5976 Rain 3 1020 75 10000 10.3 40 16:25 23.03.2020
5977 Rain 3 1020 75 10000 10.3 40 16:25 23.03.2020
5978 Clouds 3 1020 75 10000 9.8 50 15:58 23.03.2020
5979 Clouds 3 1020 75 10000 9.8 50 15:39 23.03.2020
5980 Clouds 3 1020 75 10000 9.8 50 15:18 23.03.2020
5981 Rain 4 1020 75 10000 9.8 50 14:37 23.03.2020
5982 Rain 4 1020 75 10000 9.8 50 14:37 23.03.2020
5983 Rain 4 1020 75 10000 9.8 50 14:19 23.03.2020
5984 Rain 4 1020 75 10000 7.7 50 13:57 23.03.2020
5985 Rain 4 1020 75 10000 8.2 60 13:38 23.03.2020
5986 Rain 4 1020 75 10000 8.2 60 13:20 23.03.2020
5987 Rain 4 1020 75 10000 6.2 70 12:43 23.03.2020
5988 Rain 4 1020 75 10000 6.2 70 12:23 23.03.2020
5989 Rain 4 1020 75 10000 7.7 70 11:56 23.03.2020
5990 Rain 4 1020 81 10000 6.7 60 11:37 23.03.2020
5991 Rain 4 1020 81 10000 6.7 60 11:37 23.03.2020
5992 Rain 4 1020 81 10000 6.7 60 11:18 23.03.2020
5993 Rain 4 1021 86 10000 5.1 60 10:42 23.03.2020
5994 Rain 4 1021 86 10000 5.1 60 10:23 23.03.2020
5995 Rain 4 1021 86 10000 5.1 70 09:59 23.03.2020
5996 Rain 4 1021 80 10000 5.1 60 09:41 23.03.2020
5997 Rain 4 1021 80 10000 5.1 60 09:19 23.03.2020
5998 Rain 4 1021 86 10000 6.2 60 08:38 23.03.2020
5999 Rain 4 1021 86 10000 6.2 60 08:20 23.03.2020
6000 Rain 4 1021 86 10000 5.1 50 07:52 23.03.2020
6001 Rain 4 1020 86 10000 6.7 60 07:33 23.03.2020
6002 Rain 4 1020 86 10000 6.2 60 06:55 23.03.2020
6003 Rain 3 1020 93 10000 3.6 40 06:34 23.03.2020
6004 Rain 3 1020 86 10000 3.6 30 05:44 23.03.2020
6005 Rain 2 1020 86 10000 3.1 20 03:54 23.03.2020
6006 Rain 2 1020 86 10000 3.6 10 02:45 23.03.2020
6007 Rain 3 1020 86 10000 3.1 360 01:50 23.03.2020
6008 Rain 4 1020 86 10000 2.6 30 00:47 23.03.2020
6009 Rain 4 1020 86 10000 2.6 30 00:27 23.03.2020
6010 Rain 4 1020 81 10000 3.6 10 23:42 22.03.2020
6011 Rain 5 1020 81 10000 3.6 10 23:24 22.03.2020
6012 Rain 5 1020 81 10000 3.1 30 22:42 22.03.2020
6013 Rain 5 1020 70 10000 2.1 30 22:21 22.03.2020
6014 Clouds 6 1020 70 10000 2.1 80 21:41 22.03.2020
6015 Clouds 6 1020 70 10000 2.1 80 21:23 22.03.2020
6016 Rain 6 1019 70 10000 2.6 100 20:59 22.03.2020
6017 Rain 6 1019 70 10000 1 0 20:40 22.03.2020
6018 Rain 6 1019 70 10000 1 0 20:22 22.03.2020
6019 Rain 6 1019 70 10000 2.1 0 19:56 22.03.2020
6020 Clouds 6 1019 70 10000 2.1 0 19:38 22.03.2020
6021 Clouds 6 1019 70 10000 2.1 0 19:19 22.03.2020
6022 Clouds 7 1019 65 10000 4.1 100 18:57 22.03.2020
6023 Clouds 6 1018 70 10000 4.6 20 18:39 22.03.2020
6024 Clouds 7 1018 70 10000 4.6 20 18:19 22.03.2020
6025 Clouds 7 1018 65 10000 5.1 10 17:56 22.03.2020
6026 Clouds 7 1018 65 10000 4.1 10 17:37 22.03.2020
6027 Clouds 7 1018 65 10000 4.1 10 17:19 22.03.2020
6028 Clouds 7 1018 70 10000 2.1 0 16:55 22.03.2020
6029 Clouds 8 1017 66 10000 3.1 20 16:37 22.03.2020
6030 Clouds 8 1017 66 10000 3.1 20 16:19 22.03.2020
6031 Clouds 8 1017 66 10000 7.2 20 15:39 22.03.2020
6032 Clouds 9 1017 66 10000 7.2 20 15:19 22.03.2020
6033 Clouds 9 1016 66 10000 7.2 10 14:46 22.03.2020
6034 Clouds 10 1016 61 10000 6.2 10 14:18 22.03.2020
6035 Clouds 10 1016 61 10000 6.2 20 13:42 22.03.2020
6036 Clouds 10 1016 61 10000 6.2 20 13:20 22.03.2020
6037 Clouds 10 1016 66 10000 5.1 10 12:47 22.03.2020
6038 Clouds 12 1016 61 10000 5.7 360 12:23 22.03.2020
6039 Clouds 12 1016 61 10000 5.7 360 12:23 22.03.2020
6040 Clouds 12 1016 61 10000 5.7 360 12:23 22.03.2020
6041 Clouds 13 1016 62 10000 5.1 360 11:59 22.03.2020
6042 Clouds 12 1015 66 10000 4.6 350 11:41 22.03.2020
6043 Clouds 12 1015 66 10000 4.6 350 11:23 22.03.2020
6044 Clouds 10 1015 66 10000 4.1 340 10:57 22.03.2020
6045 Clouds 10 1015 66 10000 4.1 330 10:39 22.03.2020
6046 Clouds 8 1015 66 10000 4.1 330 10:20 22.03.2020
6047 Clouds 10 1015 70 10000 2.1 0 09:42 22.03.2020
6048 Clouds 9 1015 70 10000 2.1 0 09:22 22.03.2020
6049 Clouds 7 1014 75 10000 4.1 20 08:44 22.03.2020
6050 Clouds 7 1014 75 10000 4.1 20 08:24 22.03.2020
6051 Clouds 7 1014 81 10000 4.6 360 07:52 22.03.2020
6052 Clouds 6 1014 75 10000 5.7 350 07:26 22.03.2020
6053 Clouds 5 1013 86 10000 4.6 340 06:35 22.03.2020
6054 Clouds 5 1013 81 10000 3.6 0 05:35 22.03.2020
6055 Rain 6 1011 87 10000 1 0 03:30 22.03.2020
6056 Clear 6 1012 100 9000 1 70 01:28 22.03.2020
6057 Clear 6 1012 100 10000 2.1 80 00:48 22.03.2020
6058 Clear 6 1012 93 10000 1.5 70 00:28 22.03.2020
6059 Clear 6 1012 93 10000 3.1 100 23:43 21.03.2020
6060 Clouds 6 1012 93 10000 3.1 100 23:19 21.03.2020
6061 Clouds 6 1013 93 10000 3.1 90 22:55 21.03.2020
6062 Clouds 6 1013 87 10000 4.1 100 22:37 21.03.2020
6063 Clouds 6 1013 87 10000 4.1 100 22:18 21.03.2020
6064 Clouds 7 1013 61 10000 3.6 110 21:42 21.03.2020
6065 Clouds 7 1013 61 10000 3.6 110 21:23 21.03.2020
6066 Clouds 7 1013 81 10000 4.1 100 20:59 21.03.2020
6067 Clouds 8 1013 52 10000 3.6 110 20:41 21.03.2020
6068 Clouds 8 1013 52 10000 3.6 110 20:19 21.03.2020
6069 Clouds 9 1014 57 10000 3.6 100 19:44 21.03.2020
6070 Clouds 9 1014 73 10000 4.6 100 19:25 21.03.2020
6071 Clouds 9 1014 57 10000 5.1 100 18:57 21.03.2020
6072 Clouds 9 1014 61 10000 5.1 90 18:38 21.03.2020
6073 Clouds 9 1014 61 10000 5.1 90 18:20 21.03.2020
6074 Clouds 9 1014 61 10000 5.1 90 18:20 21.03.2020
6075 Clouds 10 1013 57 10000 5.7 90 17:55 21.03.2020
6076 Clouds 10 1013 57 10000 6.2 100 17:37 21.03.2020
6077 Clouds 11 1013 50 10000 6.7 100 17:18 21.03.2020
6078 Clouds 12 1013 54 10000 7.7 100 16:41 21.03.2020
6079 Clouds 13 1013 54 10000 7.7 100 16:19 21.03.2020
6080 Clouds 14 1014 50 10000 8.2 100 15:55 21.03.2020
6081 Clouds 14 1014 54 10000 8.7 100 15:37 21.03.2020
6082 Clouds 15 1014 54 10000 8.7 100 15:18 21.03.2020
6083 Clouds 15 1014 54 10000 8.2 100 14:54 21.03.2020
6084 Clouds 15 1014 58 10000 7.7 100 14:36 21.03.2020
6085 Clouds 15 1014 58 10000 7.7 100 14:18 21.03.2020
6086 Clouds 16 1015 58 10000 7.7 100 13:56 21.03.2020
6087 Clouds 16 1015 54 10000 7.2 100 13:38 21.03.2020
6088 Clouds 16 1015 54 10000 7.2 100 13:19 21.03.2020
6089 Clouds 17 1016 51 10000 6.7 110 12:39 21.03.2020
6090 Clouds 17 1016 51 10000 6.7 110 12:19 21.03.2020
6091 Clouds 17 1016 47 10000 6.7 110 11:58 21.03.2020
6092 Clouds 17 1016 51 10000 6.2 100 11:39 21.03.2020
6093 Clouds 15 1016 51 10000 6.2 100 11:19 21.03.2020
6094 Clouds 15 1017 51 10000 5.1 110 10:57 21.03.2020
6095 Clouds 15 1017 51 10000 3.6 130 10:39 21.03.2020
6096 Clouds 15 1017 51 10000 3.6 130 10:20 21.03.2020
6097 Clouds 14 1017 50 10000 2.6 130 09:57 21.03.2020
6098 Clouds 14 1018 50 10000 1 0 09:37 21.03.2020
6099 Clouds 14 1018 50 10000 1 0 09:37 21.03.2020
6100 Clouds 14 1018 50 10000 1 0 09:19 21.03.2020
6101 Clouds 14 1018 50 10000 1 0 09:19 21.03.2020
6102 Clouds 13 1018 66 8000 3.85 164 08:45 21.03.2020
6103 Clouds 10 1018 66 8000 3.92 164 08:25 21.03.2020
6104 Clouds 8 1018 70 7000 0.5 0 07:52 21.03.2020
6105 Mist 8 1018 93 5000 1 280 07:32 21.03.2020
6106 Clouds 6 1018 86 6000 1.5 310 06:48 21.03.2020
6107 Clouds 5 1018 86 6000 1.5 20 06:28 21.03.2020
6108 Mist 3 1018 93 4600 1.5 120 05:48 21.03.2020
6109 Clear 4 1018 86 9000 1 290 05:18 21.03.2020
6110 Clear 4 1018 86 10000 0.5 0 03:26 21.03.2020
6111 Clear 5 1019 75 10000 0.54 289 02:34 21.03.2020
6112 Clear 5 1019 75 10000 2.37 311 01:38 21.03.2020
6113 Clear 5 1019 75 10000 2.37 311 01:18 21.03.2020
6114 Clear 5 1020 80 10000 2.66 309 00:38 21.03.2020
6115 Clear 5 1020 75 10000 2.66 309 23:58 20.03.2020
6116 Clear 6 1020 70 10000 1 0 23:40 20.03.2020
6117 Clear 6 1020 70 10000 1 0 23:18 20.03.2020
6118 Clear 6 1020 70 10000 1.65 358 22:41 20.03.2020
6119 Clear 6 1020 70 10000 1.65 358 22:22 20.03.2020
6120 Clear 7 1020 70 10000 1.65 358 21:56 20.03.2020
6121 Clear 7 1020 65 10000 1 0 21:38 20.03.2020
6122 Clear 8 1020 61 10000 0.5 0 21:18 20.03.2020
6123 Clear 8 1020 61 10000 0.5 0 20:57 20.03.2020
6124 Clear 9 1020 61 10000 1.65 358 20:38 20.03.2020
6125 Clear 9 1020 61 10000 3.31 49 20:18 20.03.2020
6126 Clouds 10 1020 57 10000 0.5 0 19:45 20.03.2020
6127 Clouds 11 1020 50 10000 3.11 60 19:19 20.03.2020
6128 Clouds 11 1020 50 10000 3.11 60 19:19 20.03.2020
6129 Clouds 11 1020 53 10000 3.11 60 18:55 20.03.2020
6130 Clouds 11 1020 53 9000 3.11 60 18:37 20.03.2020
6131 Clouds 11 1020 53 9000 3.11 60 18:19 20.03.2020
6132 Clouds 11 1020 53 9000 3.11 60 18:19 20.03.2020
6133 Clouds 13 1020 50 10000 1.5 0 17:39 20.03.2020
6134 Clouds 13 1020 50 10000 1.5 0 17:21 20.03.2020
6135 Clouds 14 1020 47 10000 2.6 120 16:58 20.03.2020
6136 Clouds 14 1020 47 10000 2.6 120 16:58 20.03.2020
6137 Clouds 14 1019 44 10000 4.1 130 16:40 20.03.2020
6138 Clouds 15 1019 44 10000 4.1 130 16:18 20.03.2020
6139 Clouds 15 1019 41 10000 6.7 110 15:42 20.03.2020
6140 Clouds 16 1019 41 10000 6.7 110 15:22 20.03.2020
6141 Clouds 17 1019 41 10000 5.7 130 14:56 20.03.2020
6142 Clouds 17 1019 39 10000 3.6 120 14:37 20.03.2020
6143 Clouds 17 1019 39 10000 3.6 120 14:18 20.03.2020
6144 Clouds 19 1019 32 10000 5.1 360 13:43 20.03.2020
6145 Clouds 19 1019 32 10000 5.1 360 13:19 20.03.2020
6146 Clouds 19 1019 34 10000 7.2 350 12:40 20.03.2020
6147 Clouds 19 1019 34 10000 7.2 350 12:22 20.03.2020
6148 Clouds 18 1020 37 10000 6.2 10 11:57 20.03.2020
6149 Clouds 18 1020 37 10000 3.6 10 11:38 20.03.2020
6150 Clouds 17 1020 39 10000 2.6 280 11:19 20.03.2020
6151 Clouds 17 1021 36 10000 2.6 210 10:41 20.03.2020
6152 Clouds 17 1021 36 10000 2.6 210 10:21 20.03.2020
6153 Clouds 11 1021 50 10000 2.6 250 09:56 20.03.2020
6154 Clouds 11 1021 50 10000 2.6 250 09:56 20.03.2020
6155 Clouds 10 1021 70 10000 2.1 250 09:37 20.03.2020
6156 Clouds 10 1021 70 10000 2.1 250 09:18 20.03.2020
6157 Clouds 9 1021 52 10000 2.1 250 08:42 20.03.2020
6158 Clouds 9 1021 52 10000 2.1 250 08:22 20.03.2020
6159 Clouds 8 1021 52 10000 1.5 250 07:49 20.03.2020
6160 Clouds 7 1021 56 10000 1 0 07:30 20.03.2020
6161 Clouds 6 1021 60 10000 2.94 274 06:58 20.03.2020
6162 Clouds 5 1021 59 10000 0.5 180 06:40 20.03.2020
6163 Clouds 3 1021 59 10000 2.51 267 04:51 20.03.2020
6164 Clouds 2 1021 64 10000 2.51 267 03:21 20.03.2020
6165 Clear 2 1021 64 10000 1 330 01:57 20.03.2020
6166 Clouds 2 1022 59 10000 0.5 0 00:51 20.03.2020
6167 Clouds 2 1022 59 10000 1 280 00:29 20.03.2020
6168 Clouds 2 1022 59 10000 2.6 360 23:47 19.03.2020
6169 Clouds 2 1022 59 10000 2.6 360 23:28 19.03.2020
6170 Clear 2 1022 59 10000 1.5 330 22:56 19.03.2020
6171 Clear 2 1022 59 10000 1.5 330 22:56 19.03.2020
6172 Clear 2 1022 59 10000 2.1 320 22:38 19.03.2020
6173 Clear 2 1022 59 10000 2.1 320 22:19 19.03.2020
6174 Clear 2 1022 69 10000 2.1 10 21:42 19.03.2020
6175 Clear 2 1022 69 10000 2.1 10 21:20 19.03.2020
6176 Clear 2 1023 64 10000 2.6 20 20:59 19.03.2020
6177 Clear 2 1023 64 10000 2.6 10 20:41 19.03.2020
6178 Clear 3 1023 64 10000 2.6 10 20:22 19.03.2020
6179 Clear 3 1023 64 10000 2.6 20 19:55 19.03.2020
6180 Clear 4 1023 56 10000 2.1 10 19:37 19.03.2020
6181 Clear 4 1023 56 10000 2.1 10 19:19 19.03.2020
6182 Clear 6 1023 45 10000 1 0 18:42 19.03.2020
6183 Clear 6 1023 45 10000 1 0 18:22 19.03.2020
6184 Clear 6 1022 45 10000 2.1 140 17:58 19.03.2020
6185 Clear 7 1022 45 10000 2.1 140 17:40 19.03.2020
6186 Clear 9 1022 39 10000 5.1 130 17:19 19.03.2020
6187 Clear 10 1022 39 10000 5.7 130 16:43 19.03.2020
6188 Clear 10 1022 39 10000 5.7 130 16:23 19.03.2020
6189 Clear 11 1022 37 10000 6.7 120 15:45 19.03.2020
6190 Clear 11 1022 37 10000 7.7 120 15:27 19.03.2020
6191 Clear 12 1023 37 10000 7.2 120 14:55 19.03.2020
6192 Clear 12 1023 40 10000 6.7 120 14:37 19.03.2020
6193 Clear 13 1023 40 10000 6.7 120 14:19 19.03.2020
6194 Clear 15 1023 33 10000 3.6 360 13:39 19.03.2020
6195 Clear 14 1023 33 10000 3.6 360 13:19 19.03.2020
6196 Clear 14 1023 33 10000 3.1 0 12:55 19.03.2020
6197 Clear 14 1024 35 10000 6.2 320 12:37 19.03.2020
6198 Clear 13 1024 32 10000 4.6 340 12:18 19.03.2020
6199 Clear 13 1025 32 10000 5.1 330 11:41 19.03.2020
6200 Clear 13 1025 32 10000 5.1 330 11:23 19.03.2020
6201 Clear 12 1025 32 10000 4.1 340 10:56 19.03.2020
6202 Clear 12 1026 32 10000 5.1 310 10:36 19.03.2020
6203 Clear 12 1026 32 10000 5.1 310 10:18 19.03.2020
6204 Clear 10 1026 32 10000 5.1 340 09:42 19.03.2020
6205 Clear 11 1026 32 10000 5.1 340 09:24 19.03.2020
6206 Clear 10 1027 37 10000 5.1 330 08:48 19.03.2020
6207 Clear 8 1027 49 10000 4.1 320 08:23 19.03.2020
6208 Clear 5 1027 48 10000 2.1 300 07:57 19.03.2020
6209 Clear 5 1027 56 10000 1.5 310 07:37 19.03.2020
6210 Clear 4 1027 56 10000 1.5 310 07:18 19.03.2020
6211 Clear 3 1027 59 10000 2.6 310 06:23 19.03.2020
6212 Clear 0 1027 64 10000 2.1 310 05:24 19.03.2020
6213 Clear 0 1027 64 10000 2.6 310 04:46 19.03.2020
6214 Clear 0 1027 64 10000 3.6 320 03:44 19.03.2020
6215 Clouds 0 1028 55 10000 2.6 290 01:45 19.03.2020
6216 Clouds 0 1028 50 10000 3.6 340 00:39 19.03.2020
6217 Clouds 0 1028 50 10000 3.6 340 00:18 19.03.2020
6218 Clouds 0 1028 59 10000 2.1 300 23:41 18.03.2020
6219 Clouds 0 1028 59 10000 2.1 300 23:21 18.03.2020
6220 Clouds -1 1028 59 10000 7.11 17 22:42 18.03.2020
6221 Clouds 0 1028 59 10000 7.11 17 22:22 18.03.2020
6222 Clouds 0 1029 69 10000 1.5 170 21:55 18.03.2020
6223 Clouds 0 1029 74 10000 7.11 17 21:37 18.03.2020
6224 Clouds 1 1029 74 10000 7.11 17 21:19 18.03.2020
6225 Clouds 2 1029 64 10000 0.5 0 20:54 18.03.2020
6226 Clouds 2 1029 64 10000 4.1 30 20:36 18.03.2020
6227 Clouds 3 1029 64 10000 4.1 30 20:18 18.03.2020
6228 Clouds 4 1029 56 10000 4.6 40 19:40 18.03.2020
6229 Clouds 4 1029 56 10000 4.6 40 19:21 18.03.2020
6230 Clouds 4 1029 48 10000 4.1 50 18:56 18.03.2020
6231 Clouds 4 1029 45 10000 3.6 40 18:38 18.03.2020
6232 Clouds 4 1029 45 10000 3.6 40 18:19 18.03.2020
6233 Clouds 6 1028 45 10000 3.6 50 17:54 18.03.2020
6234 Clouds 6 1028 42 10000 4.1 40 17:36 18.03.2020
6235 Clouds 7 1028 39 10000 5.7 30 17:18 18.03.2020
6236 Clouds 8 1028 37 10000 4.6 40 16:42 18.03.2020
6237 Clouds 8 1028 37 10000 4.6 40 16:20 18.03.2020
6238 Clouds 8 1028 49 10000 6.7 150 15:56 18.03.2020
6239 Clouds 8 1028 65 10000 6.7 130 15:37 18.03.2020
6240 Clouds 9 1028 65 10000 6.7 130 15:19 18.03.2020
6241 Clouds 9 1028 65 10000 7.2 140 14:42 18.03.2020
6242 Clouds 9 1028 65 10000 7.2 140 14:21 18.03.2020
6243 Clouds 10 1028 61 10000 5.67 59 13:41 18.03.2020
6244 Clouds 10 1028 61 10000 5.67 59 13:19 18.03.2020
6245 Clouds 9 1028 57 10000 7.2 140 12:44 18.03.2020
6246 Clouds 9 1028 62 10000 6.7 140 12:21 18.03.2020
6247 Clouds 9 1028 62 10000 6.7 140 11:59 18.03.2020
6248 Clouds 9 1028 62 10000 5.7 130 11:37 18.03.2020
6249 Clouds 9 1028 62 10000 5.7 130 11:37 18.03.2020
6250 Clouds 9 1028 57 10000 5.7 140 11:18 18.03.2020
6251 Clouds 9 1028 57 10000 5.7 140 10:56 18.03.2020
6252 Clouds 9 1028 57 10000 5.7 140 10:56 18.03.2020
6253 Clouds 9 1028 61 10000 5.7 140 10:36 18.03.2020
6254 Clouds 9 1028 61 10000 5.7 140 10:18 18.03.2020
6255 Clouds 8 1029 61 10000 4.6 130 09:42 18.03.2020
6256 Clouds 8 1029 61 10000 4.6 130 09:23 18.03.2020
6257 Clouds 6 1029 75 10000 3.1 130 08:54 18.03.2020
6258 Clouds 7 1028 81 10000 2.1 120 08:36 18.03.2020
6259 Clouds 6 1028 81 10000 2.1 120 08:18 18.03.2020
6260 Clouds 5 1028 86 10000 2.29 113 07:39 18.03.2020
6261 Clouds 5 1028 86 10000 2.29 113 07:21 18.03.2020
6262 Clouds 2 1027 60 10000 0.5 0 06:42 18.03.2020
6263 Clouds 1 1027 86 10000 0.5 0 05:43 18.03.2020
6264 Clouds 1 1027 86 10000 0.5 0 04:58 18.03.2020
6265 Clouds 1 1026 86 10000 1 90 03:21 18.03.2020
6266 Clouds 1 1025 86 10000 2.1 50 02:37 18.03.2020
6267 Clouds 1 1025 86 10000 2.1 50 02:37 18.03.2020
6268 Clouds 1 1025 86 10000 2.1 50 02:37 18.03.2020
6269 Clouds 2 1026 62 10000 2.1 60 01:45 18.03.2020
6270 Clouds 1 1026 62 10000 2.6 100 01:19 18.03.2020
6271 Clear 1 1026 64 10000 2.6 100 00:22 18.03.2020
6272 Clear 1 1026 86 10000 1.5 60 23:43 17.03.2020
6273 Clear 1 1027 86 10000 1.5 50 23:22 17.03.2020
6274 Clear 2 1027 60 10000 1 70 22:47 17.03.2020
6275 Clear 2 1027 60 10000 1 70 22:28 17.03.2020
6276 Clear 2 1027 61 10000 1.5 80 21:57 17.03.2020
6277 Clear 2 1027 74 10000 3.1 120 21:36 17.03.2020
6278 Clear 2 1027 74 10000 3.1 120 21:18 17.03.2020
6279 Clear 3 1027 60 10000 3.1 130 20:38 17.03.2020
6280 Clear 3 1027 57 10000 3.1 130 20:19 17.03.2020
6281 Clear 3 1026 57 10000 3.1 120 19:42 17.03.2020
6282 Clear 3 1026 57 10000 3.1 120 19:21 17.03.2020
6283 Clear 3 1026 57 10000 3.6 120 18:59 17.03.2020
6284 Clear 4 1026 57 10000 3.6 120 18:40 17.03.2020
6285 Clear 4 1026 57 10000 3.6 120 18:22 17.03.2020
6286 Clear 4 1026 57 10000 4.6 110 17:56 17.03.2020
6287 Clear 5 1026 57 10000 5.7 120 17:38 17.03.2020
6288 Clear 6 1026 56 10000 6.2 110 17:19 17.03.2020
6289 Clear 7 1027 56 10000 7.2 110 16:42 17.03.2020
6290 Clear 7 1027 56 10000 7.2 110 16:19 17.03.2020
6291 Clear 8 1026 56 10000 7.2 100 15:47 17.03.2020
6292 Clear 9 1027 45 10000 7.2 100 15:23 17.03.2020
6293 Clear 9 1027 42 10000 6.7 100 14:47 17.03.2020
6294 Clear 9 1027 45 10000 6.7 100 14:27 17.03.2020
6295 Clouds 9 1027 45 10000 6.7 110 13:58 17.03.2020
6296 Clouds 9 1028 45 10000 5.7 110 13:40 17.03.2020
6297 Clouds 9 1028 45 10000 5.7 110 13:22 17.03.2020
6298 Clouds 10 1029 49 10000 6.2 100 12:47 17.03.2020
6299 Clouds 9 1029 49 10000 6.2 100 12:25 17.03.2020
6300 Clouds 10 1030 42 10000 4.1 130 11:56 17.03.2020
6301 Clouds 10 1032 49 10000 6.2 30 11:38 17.03.2020
6302 Clouds 8 1032 49 10000 6.2 30 11:20 17.03.2020
6303 Clouds 7 1030 31 10000 3.1 240 10:54 17.03.2020
6304 Clear 7 1031 39 10000 1.5 0 10:36 17.03.2020
6305 Clouds 7 1031 42 10000 1.5 0 10:18 17.03.2020
6306 Clear 6 1031 48 10000 1.5 200 09:44 17.03.2020
6307 Clouds 5 1031 48 10000 1.5 200 09:20 17.03.2020
6308 Clouds 4 1031 60 10000 1 0 08:51 17.03.2020
6309 Clear 2 1031 69 10000 1.5 260 08:24 17.03.2020
6310 Clear 2 1032 74 10000 0.5 0 07:58 17.03.2020
6311 Clear 2 1032 80 10000 2.1 260 07:40 17.03.2020
6312 Clear 2 1032 80 10000 2.1 260 07:19 17.03.2020
6313 Clear -1 1032 86 10000 1.74 291 06:41 17.03.2020
6314 Clear -2 1032 100 10000 1.74 291 06:19 17.03.2020
6315 Clear -3 1032 86 10000 2.93 306 04:51 17.03.2020
6316 Clear -3 1032 86 10000 2.93 306 03:19 17.03.2020
6317 Clear -3 1033 86 10000 1 0 01:49 17.03.2020
6318 Clear -2 1033 86 10000 1 0 01:28 17.03.2020
6319 Clear -3 1033 79 10000 0.5 0 00:50 17.03.2020
6320 Clear -2 1033 79 10000 1 330 23:51 16.03.2020
6321 Clear -2 1033 80 10000 2.1 350 23:33 16.03.2020
6322 Clear -2 1033 80 10000 2.1 350 22:45 16.03.2020
6323 Clear -2 1033 80 10000 2.1 350 22:26 16.03.2020
6324 Clear -2 1034 79 10000 1 0 21:59 16.03.2020
6325 Clear -2 1034 74 10000 1.5 360 21:41 16.03.2020
6326 Clear -1 1034 74 10000 1.5 360 21:23 16.03.2020
6327 Clear -1 1034 80 10000 2.6 260 20:57 16.03.2020
6328 Clear 0 1034 64 10000 2.6 20 20:38 16.03.2020
6329 Clear 0 1034 64 10000 2.6 20 20:19 16.03.2020
6330 Clear 0 1034 64 10000 2.6 30 19:42 16.03.2020
6331 Clear 1 1034 64 10000 2.6 30 19:22 16.03.2020
6332 Clear 1 1034 59 10000 1.5 10 18:56 16.03.2020
6333 Clear 2 1033 55 10000 3.1 110 18:37 16.03.2020
6334 Clear 3 1033 55 10000 3.1 120 18:18 16.03.2020
6335 Clear 4 1033 52 10000 4.1 120 17:42 16.03.2020
6336 Clear 4 1033 52 10000 4.1 120 17:22 16.03.2020
6337 Clear 6 1033 48 10000 5.1 140 16:46 16.03.2020
6338 Clear 6 1033 48 10000 5.1 140 16:28 16.03.2020
6339 Clear 7 1033 48 10000 5.7 140 15:56 16.03.2020
6340 Clear 7 1033 45 10000 5.7 130 15:37 16.03.2020
6341 Clear 7 1033 45 10000 5.7 130 15:18 16.03.2020
6342 Clear 8 1033 31 10000 3.1 360 14:42 16.03.2020
6343 Clear 8 1033 31 10000 3.1 360 14:19 16.03.2020
6344 Clear 8 1033 31 10000 3.6 10 13:42 16.03.2020
6345 Clear 8 1033 31 10000 3.6 10 13:23 16.03.2020
6346 Clear 7 1033 30 10000 4.1 10 12:46 16.03.2020
6347 Clear 7 1033 30 10000 3.1 0 12:26 16.03.2020
6348 Clear 7 1034 28 10000 3.1 20 11:58 16.03.2020
6349 Clear 6 1034 28 10000 3.6 0 11:39 16.03.2020
6350 Clear 6 1034 26 10000 3.1 30 11:18 16.03.2020
6351 Clear 6 1034 28 10000 3.6 50 10:41 16.03.2020
6352 Clear 5 1034 28 10000 3.6 50 10:19 16.03.2020
6353 Clear 5 1034 32 10000 3.6 30 09:44 16.03.2020
6354 Clear 5 1034 32 10000 4.1 10 09:24 16.03.2020
6355 Clear 5 1034 32 10000 4.6 10 08:54 16.03.2020
6356 Clear 4 1034 29 10000 4.6 10 08:25 16.03.2020
6357 Clouds 3 1033 37 10000 4.1 10 07:50 16.03.2020
6358 Clouds 2 1033 40 10000 5.1 10 07:27 16.03.2020
6359 Clouds 2 1033 43 10000 4.1 360 06:54 16.03.2020
6360 Clouds 0 1033 58 10000 1.5 10 06:25 16.03.2020
6361 Clouds 0 1033 58 10000 3.1 10 05:50 16.03.2020
6362 Clouds 0 1031 40 10000 2.6 10 02:45 16.03.2020
6363 Clouds 1 1031 40 10000 3.6 20 01:20 16.03.2020
6364 Clouds 1 1030 43 10000 5.1 20 00:39 16.03.2020
6365 Clouds 1 1030 43 10000 4.6 20 23:48 15.03.2020
6366 Clouds 1 1030 43 10000 4.1 20 23:20 15.03.2020
6367 Clouds 1 1030 43 10000 3.1 20 22:43 15.03.2020
6368 Clouds 1 1030 43 10000 3.1 20 22:23 15.03.2020
6369 Clouds 2 1030 47 10000 3.1 10 21:58 15.03.2020
6370 Clouds 2 1030 51 10000 2.6 30 21:38 15.03.2020
6371 Clouds 2 1030 51 10000 2.6 30 21:18 15.03.2020
6372 Clouds 1 1029 59 10000 1.5 330 20:42 15.03.2020
6373 Clouds 1 1029 59 10000 1.5 330 20:21 15.03.2020
6374 Clouds 1 1028 55 10000 0.5 0 19:58 15.03.2020
6375 Clouds 2 1028 51 10000 2.6 50 19:39 15.03.2020
6376 Clouds 2 1028 51 10000 2.6 50 19:20 15.03.2020
6377 Clouds 2 1028 44 10000 2.6 60 18:56 15.03.2020
6378 Clouds 3 1028 44 10000 2.6 50 18:37 15.03.2020
6379 Clouds 3 1028 44 10000 2.6 50 18:37 15.03.2020
6380 Clouds 3 1028 44 10000 2.6 50 18:19 15.03.2020
6381 Clouds 3 1027 44 10000 4.1 50 17:41 15.03.2020
6382 Clouds 4 1027 44 10000 4.1 50 17:21 15.03.2020
6383 Rain 4 1027 48 10000 5.1 30 16:58 15.03.2020
6384 Rain 4 1026 48 10000 5.1 40 16:40 15.03.2020
6385 Rain 4 1026 48 10000 5.1 40 16:21 15.03.2020
6386 Rain 5 1026 48 10000 5.1 30 15:48 15.03.2020
6387 Clouds 5 1026 48 10000 5.7 30 15:30 15.03.2020
6388 Clouds 5 1025 45 10000 6.2 30 14:58 15.03.2020
6389 Clouds 5 1025 45 10000 8.2 40 14:38 15.03.2020
6390 Clouds 5 1025 45 10000 8.2 40 14:19 15.03.2020
6391 Clouds 6 1024 52 10000 6.7 20 13:55 15.03.2020
6392 Clouds 6 1024 56 10000 9.3 40 13:37 15.03.2020
6393 Clouds 5 1024 56 10000 9.3 40 13:18 15.03.2020
6394 Rain 5 1024 65 10000 8.7 40 13:18 15.03.2020
6395 Rain 4 1024 69 10000 8.2 40 12:40 15.03.2020
6396 Rain 4 1024 69 10000 8.2 40 12:21 15.03.2020
6397 Rain 4 1024 80 10000 10.8 30 11:43 15.03.2020
6398 Rain 4 1024 80 10000 10.8 30 11:24 15.03.2020
6399 Rain 4 1023 80 10000 13.4 30 10:58 15.03.2020
6400 Rain 3 1023 80 10000 13.4 30 10:39 15.03.2020
6401 Rain 4 1023 80 10000 13.4 30 10:21 15.03.2020
6402 Rain 3 1022 86 10000 13.9 30 09:44 15.03.2020
6403 Rain 3 1022 86 10000 13.9 30 09:25 15.03.2020
6404 Rain 3 1021 80 10000 11.8 30 08:59 15.03.2020
6405 Rain 3 1022 86 10000 12.3 30 08:40 15.03.2020
6406 Rain 4 1022 86 10000 12.3 30 08:18 15.03.2020
6407 Rain 4 1021 86 10000 9.8 30 07:44 15.03.2020
6408 Rain 4 1021 86 10000 6.2 30 07:18 15.03.2020
6409 Rain 4 1021 93 8000 8.2 40 06:36 15.03.2020
6410 Rain 5 1020 100 10000 6.13 35 05:46 15.03.2020
6411 Rain 5 1020 100 10000 4.92 66 04:50 15.03.2020
6412 Rain 6 1019 100 10000 1 280 04:32 15.03.2020
6413 Rain 6 1019 100 10000 1.5 260 03:59 15.03.2020
6414 Rain 6 1019 93 10000 1 0 02:48 15.03.2020
6415 Rain 6 1019 93 10000 1 0 01:56 15.03.2020
6416 Rain 5 1019 93 10000 0.5 0 00:53 15.03.2020
6417 Rain 6 1019 93 8000 5.51 57 00:28 15.03.2020
6418 Rain 5 1019 93 8000 1.5 330 23:58 14.03.2020
6419 Rain 5 1019 93 8000 1.5 360 23:37 14.03.2020
6420 Rain 6 1019 93 8000 1.5 360 23:19 14.03.2020
6421 Rain 6 1019 81 8000 1.5 30 22:44 14.03.2020
6422 Rain 6 1019 81 8000 1.5 30 22:26 14.03.2020
6423 Rain 6 1018 87 10000 2.1 50 21:57 14.03.2020
6424 Rain 6 1019 87 10000 2.6 40 21:37 14.03.2020
6425 Rain 6 1019 87 10000 2.6 40 21:18 14.03.2020
6426 Rain 7 1018 81 10000 1 0 20:59 14.03.2020
6427 Rain 7 1018 76 10000 1 0 20:40 14.03.2020
6428 Rain 7 1018 76 10000 1 0 20:20 14.03.2020
6429 Rain 8 1018 81 10000 1.98 74 19:56 14.03.2020
6430 Rain 8 1018 81 10000 1 0 19:38 14.03.2020
6431 Rain 8 1018 81 10000 1 0 19:19 14.03.2020
6432 Clouds 8 1018 76 10000 2.1 120 18:37 14.03.2020
6433 Clouds 8 1018 76 10000 2.1 120 18:19 14.03.2020
6434 Clouds 9 1017 76 10000 3.6 130 17:39 14.03.2020
6435 Clouds 9 1017 76 10000 3.6 130 17:20 14.03.2020
6436 Clouds 9 1017 71 10000 4.1 130 16:41 14.03.2020
6437 Clouds 10 1017 71 10000 4.1 130 16:23 14.03.2020
6438 Clouds 10 1017 62 10000 4.6 120 15:59 14.03.2020
6439 Clouds 11 1017 71 10000 6.2 110 15:27 14.03.2020
6440 Clouds 11 1017 66 10000 6.2 130 14:59 14.03.2020
6441 Clouds 12 1017 66 10000 5.7 130 14:37 14.03.2020
6442 Clouds 12 1017 66 10000 5.7 130 14:19 14.03.2020
6443 Clouds 13 1018 58 10000 6.2 130 13:43 14.03.2020
6444 Clouds 13 1018 58 10000 6.2 130 13:24 14.03.2020
6445 Clouds 13 1018 62 10000 5.7 130 12:57 14.03.2020
6446 Clouds 13 1018 66 10000 5.7 130 12:38 14.03.2020
6447 Clouds 13 1018 58 10000 5.7 140 12:20 14.03.2020
6448 Clouds 13 1018 50 10000 5.1 130 11:42 14.03.2020
6449 Clouds 13 1018 50 10000 5.1 130 11:24 14.03.2020
6450 Clouds 14 1018 44 10000 2.1 0 10:46 14.03.2020
6451 Clouds 13 1018 44 10000 2.1 0 10:27 14.03.2020
6452 Clouds 13 1018 44 10000 2.6 60 09:58 14.03.2020
6453 Clouds 13 1018 47 10000 3.6 70 09:40 14.03.2020
6454 Clouds 12 1018 57 10000 4.1 20 09:20 14.03.2020
6455 Clouds 11 1018 57 10000 3.1 10 08:45 14.03.2020
6456 Clouds 11 1018 57 10000 3.1 10 08:45 14.03.2020
6457 Clouds 11 1018 57 10000 3.1 10 08:23 14.03.2020
6458 Clouds 9 1017 61 10000 2.1 0 07:39 14.03.2020
6459 Clouds 9 1017 61 10000 2.1 0 07:39 14.03.2020
6460 Clouds 9 1017 61 10000 2.1 0 07:20 14.03.2020
6461 Clouds 8 1016 70 10000 3.1 220 06:41 14.03.2020
6462 Clouds 8 1016 76 10000 2.6 290 05:56 14.03.2020
6463 Clouds 8 1015 76 10000 2.6 230 04:51 14.03.2020
6464 Clear 9 1013 66 10000 3.6 0 03:25 14.03.2020
6465 Clear 7 1012 81 10000 2.1 310 02:35 14.03.2020
6466 Clear 7 1011 80 10000 1.5 290 01:27 14.03.2020
6467 Clear 7 1011 75 10000 1 260 00:20 14.03.2020
6468 Clear 7 1011 75 10000 0.5 0 23:32 13.03.2020
6469 Clear 7 1011 75 10000 1 0 22:57 13.03.2020
6470 Clear 9 1011 66 10000 1.5 70 22:38 13.03.2020
6471 Clear 9 1011 66 10000 1.5 70 22:19 13.03.2020
6472 Clear 8 1011 65 10000 2.6 60 21:39 13.03.2020
6473 Clear 8 1011 65 10000 2.6 60 21:18 13.03.2020
6474 Clear 8 1011 66 10000 2.1 50 20:41 13.03.2020
6475 Clear 8 1011 66 10000 2.1 50 20:22 13.03.2020
6476 Clear 8 1011 70 10000 2.1 50 19:51 13.03.2020
6477 Clear 9 1011 76 10000 2.1 60 19:31 13.03.2020
6478 Clear 9 1011 81 10000 3.1 100 18:59 13.03.2020
6479 Clear 9 1010 76 10000 4.1 100 18:39 13.03.2020
6480 Clear 9 1010 76 10000 4.1 100 18:21 13.03.2020
6481 Clear 12 1010 66 10000 6.2 100 17:42 13.03.2020
6482 Clear 13 1010 62 10000 5.7 110 17:21 13.03.2020
6483 Clear 14 1010 62 10000 5.7 110 16:56 13.03.2020
6484 Clear 15 1010 51 10000 5.7 110 16:38 13.03.2020
6485 Clear 17 1010 51 10000 5.7 120 16:19 13.03.2020
6486 Clear 18 1010 45 10000 6.2 110 15:41 13.03.2020
6487 Clear 18 1010 45 10000 6.2 110 15:21 13.03.2020
6488 Clear 18 1010 45 10000 6.2 110 15:21 13.03.2020
6489 Clear 19 1010 42 10000 6.2 110 14:44 13.03.2020
6490 Clear 19 1011 39 10000 5.7 110 14:23 13.03.2020
6491 Clear 18 1011 42 10000 5.7 100 13:58 13.03.2020
6492 Clear 18 1011 39 10000 5.7 110 13:40 13.03.2020
6493 Clear 18 1011 39 10000 5.7 110 13:20 13.03.2020
6494 Clear 19 1011 39 10000 6.2 110 12:55 13.03.2020
6495 Clear 19 1012 42 10000 5.7 110 12:37 13.03.2020
6496 Clear 17 1012 42 10000 5.7 110 12:18 13.03.2020
6497 Clear 16 1013 48 10000 3.6 120 11:43 13.03.2020
6498 Clear 16 1013 48 10000 3.6 120 11:25 13.03.2020
6499 Clear 16 1013 48 10000 2.6 110 10:57 13.03.2020
6500 Clear 16 1014 45 10000 1 0 10:39 13.03.2020
6501 Clear 16 1014 45 10000 1 0 10:21 13.03.2020
6502 Clear 14 1014 54 10000 1 0 09:44 13.03.2020
6503 Clear 16 1014 54 10000 1 0 09:25 13.03.2020
6504 Clear 16 1014 58 10000 0.5 0 08:47 13.03.2020
6505 Clear 11 1015 71 10000 2.1 260 08:23 13.03.2020
6506 Clear 7 1015 76 10000 1 0 07:58 13.03.2020
6507 Clear 7 1015 93 10000 0.54 204 07:38 13.03.2020
6508 Clear 7 1015 93 10000 0.54 204 07:18 13.03.2020
6509 Clear 6 1015 93 10000 1 0 06:43 13.03.2020
6510 Clear 5 1015 100 10000 0.54 204 05:56 13.03.2020
6511 Clear 3 1015 100 10000 0.54 204 05:37 13.03.2020
6512 Clear 4 1015 93 10000 0.5 0 04:38 13.03.2020
6513 Clear 5 1015 86 10000 1.22 202 03:43 13.03.2020
6514 Clear 4 1016 93 10000 2.08 192 01:47 13.03.2020
6515 Clear 5 1016 86 10000 2.57 190 01:19 13.03.2020
6516 Clear 5 1016 86 10000 1 300 00:54 13.03.2020
6517 Clear 6 1017 80 10000 2.57 190 00:29 13.03.2020
6518 Clear 5 1017 86 10000 2.57 190 23:59 12.03.2020
6519 Clear 5 1017 86 10000 2.57 190 23:59 12.03.2020
6520 Clear 5 1017 86 10000 1.5 330 23:28 12.03.2020
6521 Clear 5 1017 80 10000 1 0 22:57 12.03.2020
6522 Clear 6 1018 87 10000 1.5 320 22:39 12.03.2020
6523 Clear 6 1018 87 10000 1.5 320 22:21 12.03.2020
6524 Clear 6 1018 75 10000 1.5 340 21:45 12.03.2020
6525 Clear 7 1018 75 10000 1.5 10 21:27 12.03.2020
6526 Clear 7 1018 75 10000 1.5 350 20:57 12.03.2020
6527 Clear 7 1018 75 10000 1.5 10 20:38 12.03.2020
6528 Clear 7 1018 75 10000 1.5 10 20:19 12.03.2020
6529 Clear 8 1019 75 10000 1 90 19:41 12.03.2020
6530 Clear 8 1019 76 10000 1.5 130 19:20 12.03.2020
6531 Clear 9 1019 71 10000 2.1 140 18:44 12.03.2020
6532 Clear 9 1019 71 10000 2.1 140 18:24 12.03.2020
6533 Clear 10 1019 62 10000 2.6 120 17:57 12.03.2020
6534 Clear 11 1019 62 10000 2.6 120 17:38 12.03.2020
6535 Clear 12 1019 58 10000 4.6 120 17:20 12.03.2020
6536 Clear 13 1019 58 10000 4.6 120 16:55 12.03.2020
6537 Clear 14 1019 50 10000 6.2 110 16:37 12.03.2020
6538 Clear 14 1019 50 10000 6.2 110 16:18 12.03.2020
6539 Clear 15 1019 50 10000 6.2 120 15:45 12.03.2020
6540 Clear 15 1019 44 10000 5.7 120 15:26 12.03.2020
6541 Clear 16 1020 54 10000 6.7 130 14:40 12.03.2020
6542 Clear 16 1020 54 10000 6.7 130 14:21 12.03.2020
6543 Clear 16 1020 51 10000 6.2 130 13:56 12.03.2020
6544 Clear 17 1020 51 10000 7.7 130 13:36 12.03.2020
6545 Clear 17 1020 51 10000 7.7 130 13:18 12.03.2020
6546 Clear 18 1021 48 10000 6.2 140 12:41 12.03.2020
6547 Clear 18 1021 48 10000 6.2 140 12:21 12.03.2020
6548 Clear 17 1021 45 10000 5.7 140 11:57 12.03.2020
6549 Clear 17 1021 45 10000 5.1 140 11:38 12.03.2020
6550 Clear 17 1021 45 10000 5.1 140 11:19 12.03.2020
6551 Clear 16 1021 45 10000 3.6 110 10:58 12.03.2020
6552 Clear 16 1021 42 10000 3.6 10 10:40 12.03.2020
6553 Clear 16 1021 42 10000 3.6 10 10:22 12.03.2020
6554 Clear 15 1021 51 10000 2.6 50 09:46 12.03.2020
6555 Clear 14 1021 51 10000 2.1 0 09:25 12.03.2020
6556 Clear 14 1021 58 10000 3.1 320 08:44 12.03.2020
6557 Clouds 12 1021 58 10000 3.1 320 08:20 12.03.2020
6558 Clouds 10 1020 62 10000 3.1 310 07:56 12.03.2020
6559 Clouds 9 1020 66 10000 4.1 280 07:38 12.03.2020
6560 Clouds 10 1020 66 10000 4.1 280 07:20 12.03.2020
6561 Clouds 8 1019 66 10000 3.6 270 05:48 12.03.2020
6562 Clouds 8 1019 66 10000 3.6 270 05:25 12.03.2020
6563 Clear 8 1018 66 10000 3.6 320 02:41 12.03.2020
6564 Clouds 9 1017 66 10000 3.1 280 01:31 12.03.2020
6565 Clouds 10 1017 66 10000 3.1 300 00:45 12.03.2020
6566 Clouds 9 1017 71 10000 2.1 290 00:26 12.03.2020
6567 Clouds 9 1017 76 10000 2.1 310 23:47 11.03.2020
6568 Clouds 9 1017 76 10000 2.1 310 23:24 11.03.2020
6569 Clouds 9 1017 76 10000 1.5 310 22:48 11.03.2020
6570 Clouds 10 1017 76 10000 1.5 310 22:30 11.03.2020
6571 Clouds 10 1017 71 10000 2.1 350 21:59 11.03.2020
6572 Clouds 10 1017 71 10000 2.1 350 21:59 11.03.2020
6573 Clouds 10 1017 71 10000 1.5 330 21:41 11.03.2020
6574 Clouds 10 1017 71 10000 1.5 330 21:22 11.03.2020
6575 Clouds 10 1017 71 10000 1 0 20:58 11.03.2020
6576 Clouds 10 1016 71 10000 2.1 250 20:39 11.03.2020
6577 Clouds 10 1016 71 10000 2.1 250 20:19 11.03.2020
6578 Clouds 11 1016 81 10000 2.1 310 19:44 11.03.2020
6579 Clouds 11 1016 81 10000 2.1 310 19:25 11.03.2020
6580 Clouds 11 1015 81 10000 4.3 229 18:59 11.03.2020
6581 Clouds 11 1015 81 10000 1.5 160 18:40 11.03.2020
6582 Clouds 11 1015 81 10000 1.5 160 18:21 11.03.2020
6583 Clouds 12 1015 81 10000 1.5 160 17:58 11.03.2020
6584 Clouds 13 1015 71 10000 2.1 120 17:39 11.03.2020
6585 Clouds 14 1014 55 10000 3.6 230 17:20 11.03.2020
6586 Clouds 16 1014 55 10000 4.6 260 16:46 11.03.2020
6587 Clouds 16 1014 55 10000 4.6 260 16:23 11.03.2020
6588 Clear 16 1014 55 10000 4.6 260 15:46 11.03.2020
6589 Clouds 16 1014 51 10000 5.1 250 15:25 11.03.2020
6590 Clear 16 1014 51 10000 3.6 240 14:59 11.03.2020
6591 Clear 16 1014 51 10000 3.6 240 14:41 11.03.2020
6592 Clear 16 1014 51 10000 3.6 240 14:22 11.03.2020
6593 Clouds 15 1015 51 10000 3.6 230 13:45 11.03.2020
6594 Clouds 15 1015 54 10000 4.1 260 13:27 11.03.2020
6595 Clouds 15 1015 54 10000 4.6 240 12:58 11.03.2020
6596 Clouds 14 1016 54 10000 5.7 250 12:40 11.03.2020
6597 Clouds 14 1016 54 10000 5.7 250 12:19 11.03.2020
6598 Clouds 14 1016 54 10000 5.7 250 12:19 11.03.2020
6599 Clouds 14 1016 62 10000 3.6 220 11:42 11.03.2020
6600 Clouds 13 1016 62 10000 3.6 220 11:24 11.03.2020
6601 Clouds 13 1016 62 10000 4.1 250 10:59 11.03.2020
6602 Clouds 12 1017 62 10000 5.1 270 10:41 11.03.2020
6603 Clouds 11 1017 62 10000 5.1 270 10:18 11.03.2020
6604 Clouds 9 1017 70 10000 4.6 270 09:43 11.03.2020
6605 Clouds 9 1017 70 10000 4.6 270 09:43 11.03.2020
6606 Clouds 9 1017 70 10000 4.6 270 09:24 11.03.2020
6607 Clouds 8 1017 70 10000 5.7 270 08:45 11.03.2020
6608 Clouds 8 1017 70 10000 5.7 270 08:27 11.03.2020
6609 Clouds 7 1017 75 10000 5.1 260 07:58 11.03.2020
6610 Clouds 7 1016 75 10000 5.1 270 07:38 11.03.2020
6611 Clouds 7 1016 75 10000 5.1 270 07:18 11.03.2020
6612 Clouds 6 1016 81 10000 4.1 260 06:37 11.03.2020
6613 Clouds 7 1015 87 10000 3.6 280 05:34 11.03.2020
6614 Clouds 7 1015 81 10000 2.6 250 03:59 11.03.2020
6615 Rain 8 1014 87 10000 3.1 270 01:59 11.03.2020
6616 Clouds 8 1014 87 10000 4.1 280 01:26 11.03.2020
6617 Rain 7 1014 87 10000 5.7 270 00:45 11.03.2020
6618 Drizzle 7 1014 87 10000 5.1 280 23:56 10.03.2020
6619 Drizzle 7 1014 87 10000 5.1 280 23:55 10.03.2020
6620 Drizzle 7 1014 87 10000 5.1 280 23:55 10.03.2020
6621 Drizzle 7 1014 87 10000 5.1 280 23:55 10.03.2020
6622 Rain 8 1014 81 10000 5.1 280 23:37 10.03.2020
6623 Clouds 8 1014 81 10000 4.1 280 23:18 10.03.2020
6624 Clouds 8 1013 81 10000 4.6 270 22:38 10.03.2020
6625 Clouds 8 1013 81 10000 4.6 270 22:19 10.03.2020
6626 Clouds 8 1013 87 10000 5.7 280 21:56 10.03.2020
6627 Clouds 8 1013 87 10000 6.2 280 21:38 10.03.2020
6628 Clouds 8 1013 87 10000 6.2 280 21:19 10.03.2020
6629 Clouds 8 1013 87 10000 5.7 280 20:56 10.03.2020
6630 Clouds 8 1012 87 10000 6.2 280 20:38 10.03.2020
6631 Clouds 8 1012 87 10000 6.2 280 20:18 10.03.2020
6632 Clouds 8 1012 87 10000 5.1 280 19:55 10.03.2020
6633 Clouds 8 1012 87 10000 5.1 280 19:36 10.03.2020
6634 Clouds 8 1012 87 10000 5.1 280 19:18 10.03.2020
6635 Clouds 9 1011 93 10000 6.2 260 18:42 10.03.2020
6636 Clouds 9 1011 93 10000 6.2 260 18:23 10.03.2020
6637 Clouds 9 1010 93 10000 5.7 260 17:56 10.03.2020
6638 Clouds 9 1010 93 10000 5.1 270 17:37 10.03.2020
6639 Clouds 9 1010 87 10000 5.7 260 17:19 10.03.2020
6640 Clouds 9 1009 87 10000 6.2 260 16:38 10.03.2020
6641 Clouds 10 1009 87 10000 6.2 260 16:18 10.03.2020
6642 Clouds 9 1009 93 10000 5.7 260 15:44 10.03.2020
6643 Clouds 9 1009 93 10000 5.7 260 15:20 10.03.2020
6644 Clouds 10 1008 81 10000 5.1 270 14:59 10.03.2020
6645 Clouds 10 1008 81 10000 6.2 280 14:40 10.03.2020
6646 Clouds 10 1008 81 10000 6.2 280 14:19 10.03.2020
6647 Clouds 10 1008 81 10000 6.2 280 14:19 10.03.2020
6648 Clouds 10 1007 81 10000 6.2 290 13:45 10.03.2020
6649 Clouds 10 1007 76 10000 7.2 270 13:26 10.03.2020
6650 Clouds 10 1007 81 10000 7.2 280 12:57 10.03.2020
6651 Clouds 11 1007 81 10000 8.2 290 12:37 10.03.2020
6652 Clouds 10 1007 81 10000 8.2 290 12:37 10.03.2020
6653 Clouds 11 1007 81 10000 8.2 290 12:18 10.03.2020
6654 Clouds 11 1006 76 10000 7.7 290 11:42 10.03.2020
6655 Clouds 11 1006 76 10000 7.7 290 11:24 10.03.2020
6656 Clouds 10 1006 81 10000 6.7 300 10:58 10.03.2020
6657 Rain 10 1006 87 10000 6.2 280 10:39 10.03.2020
6658 Rain 10 1006 87 10000 6.2 280 10:19 10.03.2020
6659 Clouds 10 1006 81 10000 7.2 280 09:55 10.03.2020
6660 Clouds 10 1006 81 10000 8.2 300 09:36 10.03.2020
6661 Clouds 9 1006 81 10000 6.2 310 09:18 10.03.2020
6662 Clouds 9 1006 87 9000 6.2 300 08:42 10.03.2020
6663 Clouds 9 1006 87 9000 6.2 300 08:24 10.03.2020
6664 Clouds 9 1004 87 8000 5.7 260 07:42 10.03.2020
6665 Clouds 9 1004 87 8000 5.7 260 07:23 10.03.2020
6666 Clouds 9 1004 87 7000 8.2 290 06:38 10.03.2020
6667 Rain 9 1005 87 9000 4.1 310 05:55 10.03.2020
6668 Rain 9 1005 87 10000 3.6 250 05:36 10.03.2020
6669 Clouds 9 1005 87 10000 4.6 270 04:33 10.03.2020
6670 Clouds 9 1004 93 9000 5.1 270 03:19 10.03.2020
6671 Clouds 9 1005 93 9000 5.1 270 01:36 10.03.2020
6672 Clouds 8 1006 93 9000 5.7 250 00:51 10.03.2020
6673 Clouds 8 1006 93 9000 5.7 250 00:29 10.03.2020
6674 Clouds 9 1006 87 9000 4.6 260 23:43 09.03.2020
6675 Clouds 9 1006 87 9000 4.6 260 23:22 09.03.2020
6676 Clouds 9 1007 87 8000 5.7 270 22:58 09.03.2020
6677 Clouds 9 1007 87 8000 5.1 270 22:38 09.03.2020
6678 Clouds 9 1007 87 8000 5.1 270 22:19 09.03.2020
6679 Clouds 9 1008 87 7000 5.7 260 21:44 09.03.2020
6680 Clouds 9 1008 87 7000 5.7 260 21:22 09.03.2020
6681 Clouds 9 1008 87 7000 5.7 260 21:22 09.03.2020